<?xml version='1.0' encoding='UTF-8'?><gpx version="1.1" creator="JPX - https://github.com/jenetics/jpx" xmlns="http://www.topografix.com/GPX/1/1"><trk><trkseg><trkpt lat="42.95402344337455" lon="12.732065260799786"><ele>319.0</ele><time>2026-05-03T07:04:51.999Z</time></trkpt><trkpt lat="42.953990161293156" lon="12.731931360767444"><ele>319.0</ele><time>2026-05-03T07:06:17Z</time></trkpt><trkpt lat="42.95401492893133" lon="12.731817419067193"><ele>319.0</ele><time>2026-05-03T07:06:24Z</time></trkpt><trkpt lat="42.95398852253218" lon="12.731898270070197"><ele>319.0</ele><time>2026-05-03T07:06:42.999Z</time></trkpt><trkpt lat="42.95398578889785" lon="12.731985913807502"><ele>319.0</ele><time>2026-05-03T07:06:47.999Z</time></trkpt><trkpt lat="42.95399341663313" lon="12.732081021666188"><ele>319.0</ele><time>2026-05-03T07:07:29.999Z</time></trkpt><trkpt lat="42.95393378976198" lon="12.732134843542438"><ele>319.0</ele><time>2026-05-03T07:09:48Z</time></trkpt><trkpt lat="42.953898184902464" lon="12.73221886657541"><ele>319.0</ele><time>2026-05-03T07:09:52Z</time></trkpt><trkpt lat="42.9538018032279" lon="12.732489818624481"><ele>319.0</ele><time>2026-05-03T07:11:11.999Z</time></trkpt><trkpt lat="42.953781568092886" lon="12.732606012903469"><ele>319.0</ele><time>2026-05-03T07:11:12.999Z</time></trkpt><trkpt lat="42.95375776968132" lon="12.732718175673435"><ele>320.6</ele><time>2026-05-03T07:11:13.999Z</time></trkpt><trkpt lat="42.95372706090917" lon="12.732834864788199"><ele>322.2</ele><time>2026-05-03T07:11:14.999Z</time></trkpt><trkpt lat="42.953690671309715" lon="12.732945426779212"><ele>323.8</ele><time>2026-05-03T07:11:15.999Z</time></trkpt><trkpt lat="42.95365858877985" lon="12.733058001618856"><ele>325.40000000000003</ele><time>2026-05-03T07:11:16.999Z</time></trkpt><trkpt lat="42.953620944856944" lon="12.733178839535338"><ele>327.0</ele><time>2026-05-03T07:11:17.999Z</time></trkpt><trkpt lat="42.953585231547294" lon="12.733300982557276"><ele>327.0</ele><time>2026-05-03T07:11:18.999Z</time></trkpt><trkpt lat="42.95355871934221" lon="12.733408228610191"><ele>327.0</ele><time>2026-05-03T07:11:19.999Z</time></trkpt><trkpt lat="42.953526798131506" lon="12.733553576326798"><ele>327.0</ele><time>2026-05-03T07:11:20.999Z</time></trkpt><trkpt lat="42.95348562983448" lon="12.733685321934532"><ele>327.0</ele><time>2026-05-03T07:11:21.999Z</time></trkpt><trkpt lat="42.95345486578919" lon="12.73383388558095"><ele>327.0</ele><time>2026-05-03T07:11:22.999Z</time></trkpt><trkpt lat="42.953419817198856" lon="12.733963824693062"><ele>327.6</ele><time>2026-05-03T07:11:23.999Z</time></trkpt><trkpt lat="42.95338488116716" lon="12.734093302384558"><ele>328.20000000000005</ele><time>2026-05-03T07:11:24.999Z</time></trkpt><trkpt lat="42.953359976105055" lon="12.734213072920467"><ele>328.8</ele><time>2026-05-03T07:11:25.999Z</time></trkpt><trkpt lat="42.95334542897689" lon="12.734330877584773"><ele>329.4</ele><time>2026-05-03T07:11:26.999Z</time></trkpt><trkpt lat="42.95332993557803" lon="12.734459061554874"><ele>330.0</ele><time>2026-05-03T07:11:27.999Z</time></trkpt><trkpt lat="42.953303645026" lon="12.734598671498688"><ele>329.75</ele><time>2026-05-03T07:11:28.999Z</time></trkpt><trkpt lat="42.95328597055489" lon="12.734759659887507"><ele>329.5</ele><time>2026-05-03T07:11:29.999Z</time></trkpt><trkpt lat="42.95326492534285" lon="12.734931993416145"><ele>329.25</ele><time>2026-05-03T07:11:30.999Z</time></trkpt><trkpt lat="42.953258653085086" lon="12.735112984359507"><ele>329.0</ele><time>2026-05-03T07:11:31.999Z</time></trkpt><trkpt lat="42.953265324182155" lon="12.735299358377357"><ele>329.0</ele><time>2026-05-03T07:11:32.999Z</time></trkpt><trkpt lat="42.95328503148393" lon="12.735491946524565"><ele>329.0</ele><time>2026-05-03T07:11:33.999Z</time></trkpt><trkpt lat="42.953301641760284" lon="12.73569194787099"><ele>329.0</ele><time>2026-05-03T07:11:34.999Z</time></trkpt><trkpt lat="42.95330956215909" lon="12.735891050816782"><ele>329.0</ele><time>2026-05-03T07:11:35.999Z</time></trkpt><trkpt lat="42.953326672328885" lon="12.736084002466525"><ele>329.25</ele><time>2026-05-03T07:11:36.999Z</time></trkpt><trkpt lat="42.95331887196449" lon="12.736258912833124"><ele>329.5</ele><time>2026-05-03T07:11:37.999Z</time></trkpt><trkpt lat="42.95329418987452" lon="12.736414540263292"><ele>329.75</ele><time>2026-05-03T07:11:38.999Z</time></trkpt><trkpt lat="42.95325434844583" lon="12.736579981027566"><ele>330.0</ele><time>2026-05-03T07:11:39.999Z</time></trkpt><trkpt lat="42.95320570118087" lon="12.736740092878343"><ele>331.0</ele><time>2026-05-03T07:11:40.999Z</time></trkpt><trkpt lat="42.953168686233575" lon="12.736915365266391"><ele>332.0</ele><time>2026-05-03T07:11:41.999Z</time></trkpt><trkpt lat="42.953158606666115" lon="12.737088650944118"><ele>333.0</ele><time>2026-05-03T07:11:42.999Z</time></trkpt><trkpt lat="42.95317632017048" lon="12.737257515130711"><ele>334.0</ele><time>2026-05-03T07:11:43.999Z</time></trkpt><trkpt lat="42.95319668250133" lon="12.737433686339639"><ele>334.0</ele><time>2026-05-03T07:11:44.999Z</time></trkpt><trkpt lat="42.95319957052896" lon="12.737624978277074"><ele>334.0</ele><time>2026-05-03T07:11:45.999Z</time></trkpt><trkpt lat="42.95318098313787" lon="12.73781204979273"><ele>334.0</ele><time>2026-05-03T07:11:46.999Z</time></trkpt><trkpt lat="42.95316528489041" lon="12.738002137787541"><ele>334.0</ele><time>2026-05-03T07:11:47.999Z</time></trkpt><trkpt lat="42.953144277058904" lon="12.738201084872069"><ele>334.66666666666663</ele><time>2026-05-03T07:11:48.999Z</time></trkpt><trkpt lat="42.953147032501256" lon="12.738417031842483"><ele>335.3333333333333</ele><time>2026-05-03T07:11:49.999Z</time></trkpt><trkpt lat="42.953145174569165" lon="12.738605161228739"><ele>336.0</ele><time>2026-05-03T07:11:50.999Z</time></trkpt><trkpt lat="42.953138501770034" lon="12.738820980909527"><ele>337.6666666666667</ele><time>2026-05-03T07:11:51.999Z</time></trkpt><trkpt lat="42.95314236657374" lon="12.739029285313963"><ele>339.33333333333337</ele><time>2026-05-03T07:11:53Z</time></trkpt><trkpt lat="42.95313508144796" lon="12.739235229533959"><ele>341.0</ele><time>2026-05-03T07:11:54Z</time></trkpt><trkpt lat="42.95311392778888" lon="12.739443391116756"><ele>342.0</ele><time>2026-05-03T07:11:55Z</time></trkpt><trkpt lat="42.95309094798533" lon="12.73964600646769"><ele>343.0</ele><time>2026-05-03T07:11:56Z</time></trkpt><trkpt lat="42.95306479195572" lon="12.739856143004067"><ele>344.0</ele><time>2026-05-03T07:11:57Z</time></trkpt><trkpt lat="42.953050821901634" lon="12.740068286720488"><ele>345.0</ele><time>2026-05-03T07:11:58Z</time></trkpt><trkpt lat="42.95302609438869" lon="12.740273040004839"><ele>346.0</ele><time>2026-05-03T07:11:59Z</time></trkpt><trkpt lat="42.9530072423143" lon="12.74046863685062"><ele>347.0</ele><time>2026-05-03T07:12:00Z</time></trkpt><trkpt lat="42.9529709290317" lon="12.740676924995698"><ele>347.0</ele><time>2026-05-03T07:12:01Z</time></trkpt><trkpt lat="42.95295338382297" lon="12.74089198068474"><ele>347.0</ele><time>2026-05-03T07:12:02Z</time></trkpt><trkpt lat="42.95293524567772" lon="12.741101934389498"><ele>347.0</ele><time>2026-05-03T07:12:03Z</time></trkpt><trkpt lat="42.95293167687916" lon="12.741305000824546"><ele>348.0</ele><time>2026-05-03T07:12:04Z</time></trkpt><trkpt lat="42.95292333731764" lon="12.741511257720367"><ele>349.0</ele><time>2026-05-03T07:12:05Z</time></trkpt><trkpt lat="42.95292309205936" lon="12.74170963284786"><ele>350.0</ele><time>2026-05-03T07:12:06Z</time></trkpt><trkpt lat="42.952917401805145" lon="12.741905602206238"><ele>351.0</ele><time>2026-05-03T07:12:07Z</time></trkpt><trkpt lat="42.95290843088954" lon="12.742119739506137"><ele>352.6666666666667</ele><time>2026-05-03T07:12:08Z</time></trkpt><trkpt lat="42.95289916042767" lon="12.742332527502647"><ele>354.33333333333337</ele><time>2026-05-03T07:12:09Z</time></trkpt><trkpt lat="42.95289054932367" lon="12.742537026424923"><ele>356.0</ele><time>2026-05-03T07:12:10Z</time></trkpt><trkpt lat="42.95288253088814" lon="12.74274797546814"><ele>357.33333333333337</ele><time>2026-05-03T07:12:11Z</time></trkpt><trkpt lat="42.95287584160417" lon="12.742963734163457"><ele>358.6666666666667</ele><time>2026-05-03T07:12:12Z</time></trkpt><trkpt lat="42.952866967034005" lon="12.743170856132656"><ele>360.0</ele><time>2026-05-03T07:12:13Z</time></trkpt><trkpt lat="42.952856733027566" lon="12.743398477731365"><ele>361.3333333333333</ele><time>2026-05-03T07:12:14Z</time></trkpt><trkpt lat="42.952846768352494" lon="12.743620158116382"><ele>362.66666666666663</ele><time>2026-05-03T07:12:15Z</time></trkpt><trkpt lat="42.952837029761305" lon="12.743878702774829"><ele>364.0</ele><time>2026-05-03T07:12:16Z</time></trkpt><trkpt lat="42.95283786776814" lon="12.744156892949515"><ele>364.66666666666663</ele><time>2026-05-03T07:12:17Z</time></trkpt><trkpt lat="42.95283687287702" lon="12.74439351986956"><ele>365.3333333333333</ele><time>2026-05-03T07:12:18Z</time></trkpt><trkpt lat="42.95283383791026" lon="12.744605358382255"><ele>366.0</ele><time>2026-05-03T07:12:19Z</time></trkpt><trkpt lat="42.95284139792298" lon="12.744796856611787"><ele>366.0</ele><time>2026-05-03T07:12:20Z</time></trkpt><trkpt lat="42.952837897115195" lon="12.74498724543376"><ele>366.0</ele><time>2026-05-03T07:12:21Z</time></trkpt><trkpt lat="42.95283817970833" lon="12.745163902730612"><ele>366.0</ele><time>2026-05-03T07:12:22Z</time></trkpt><trkpt lat="42.952835515707214" lon="12.745348349283638"><ele>366.0</ele><time>2026-05-03T07:12:23Z</time></trkpt><trkpt lat="42.95283609317578" lon="12.745559538028989"><ele>367.0</ele><time>2026-05-03T07:12:24Z</time></trkpt><trkpt lat="42.95283467787653" lon="12.745767854134364"><ele>368.0</ele><time>2026-05-03T07:12:25Z</time></trkpt><trkpt lat="42.952837992451045" lon="12.745967021055177"><ele>369.0</ele><time>2026-05-03T07:12:26Z</time></trkpt><trkpt lat="42.952842625347316" lon="12.746179286366981"><ele>370.6666666666667</ele><time>2026-05-03T07:12:27Z</time></trkpt><trkpt lat="42.95284031835011" lon="12.74639449213223"><ele>372.33333333333337</ele><time>2026-05-03T07:12:28Z</time></trkpt><trkpt lat="42.95282233163281" lon="12.746610549101073"><ele>374.0</ele><time>2026-05-03T07:12:29Z</time></trkpt><trkpt lat="42.95281567885609" lon="12.746834702826852"><ele>375.6666666666667</ele><time>2026-05-03T07:12:30Z</time></trkpt><trkpt lat="42.95282441546968" lon="12.747061114652086"><ele>377.3333333333333</ele><time>2026-05-03T07:12:31Z</time></trkpt><trkpt lat="42.95282180579067" lon="12.747283692222457"><ele>379.0</ele><time>2026-05-03T07:12:32Z</time></trkpt><trkpt lat="42.95280806724202" lon="12.747498232219218"><ele>379.0</ele><time>2026-05-03T07:12:33Z</time></trkpt><trkpt lat="42.95282784688575" lon="12.747700505329645"><ele>379.0</ele><time>2026-05-03T07:12:34Z</time></trkpt><trkpt lat="42.95281731221262" lon="12.747889504644615"><ele>379.0</ele><time>2026-05-03T07:12:35Z</time></trkpt><trkpt lat="42.952822846920746" lon="12.74809209373605"><ele>379.0</ele><time>2026-05-03T07:12:36Z</time></trkpt><trkpt lat="42.95282834460154" lon="12.748290849869159"><ele>379.66666666666663</ele><time>2026-05-03T07:12:37Z</time></trkpt><trkpt lat="42.952867160449955" lon="12.74849718769835"><ele>380.3333333333333</ele><time>2026-05-03T07:12:38Z</time></trkpt><trkpt lat="42.952870584752304" lon="12.748729054558291"><ele>381.0</ele><time>2026-05-03T07:12:39Z</time></trkpt><trkpt lat="42.95287718942712" lon="12.748947214196596"><ele>382.66666666666663</ele><time>2026-05-03T07:12:40Z</time></trkpt><trkpt lat="42.952887957420685" lon="12.74917278311526"><ele>384.3333333333333</ele><time>2026-05-03T07:12:41Z</time></trkpt><trkpt lat="42.952900653875346" lon="12.749398426002058"><ele>386.0</ele><time>2026-05-03T07:12:42Z</time></trkpt><trkpt lat="42.95292186402128" lon="12.749599681957978"><ele>387.25</ele><time>2026-05-03T07:12:43Z</time></trkpt><trkpt lat="42.952950680305435" lon="12.74980348349231"><ele>388.5</ele><time>2026-05-03T07:12:44Z</time></trkpt><trkpt lat="42.95298123249717" lon="12.749999489079503"><ele>389.75</ele><time>2026-05-03T07:12:45Z</time></trkpt><trkpt lat="42.95301552368209" lon="12.75018152980604"><ele>391.0</ele><time>2026-05-03T07:12:46Z</time></trkpt><trkpt lat="42.953047815842055" lon="12.750374675039458"><ele>392.0</ele><time>2026-05-03T07:12:46.999Z</time></trkpt><trkpt lat="42.9530775884658" lon="12.75056381576003"><ele>393.0</ele><time>2026-05-03T07:12:47.999Z</time></trkpt><trkpt lat="42.953100349066105" lon="12.750756702051797"><ele>394.0</ele><time>2026-05-03T07:12:48.999Z</time></trkpt><trkpt lat="42.953094184625286" lon="12.750964206706271"><ele>395.0</ele><time>2026-05-03T07:12:49.999Z</time></trkpt><trkpt lat="42.953108078300055" lon="12.751165920875302"><ele>397.66666666666663</ele><time>2026-05-03T07:12:50.999Z</time></trkpt><trkpt lat="42.95312038725657" lon="12.751370995787703"><ele>400.33333333333337</ele><time>2026-05-03T07:12:51.999Z</time></trkpt><trkpt lat="42.953133777097285" lon="12.751594078856154"><ele>403.0</ele><time>2026-05-03T07:12:52.999Z</time></trkpt><trkpt lat="42.953146320252095" lon="12.751803196339665"><ele>404.25</ele><time>2026-05-03T07:12:53.999Z</time></trkpt><trkpt lat="42.95315802007164" lon="12.75200939236823"><ele>405.5</ele><time>2026-05-03T07:12:54.999Z</time></trkpt><trkpt lat="42.95316236552639" lon="12.75220817920382"><ele>406.75</ele><time>2026-05-03T07:12:55.999Z</time></trkpt><trkpt lat="42.953148573219345" lon="12.752413888724234"><ele>408.0</ele><time>2026-05-03T07:12:56.999Z</time></trkpt><trkpt lat="42.95310919796807" lon="12.752598392388922"><ele>409.66666666666663</ele><time>2026-05-03T07:12:57.999Z</time></trkpt><trkpt lat="42.953054486569684" lon="12.752798129182553"><ele>411.3333333333333</ele><time>2026-05-03T07:12:58.999Z</time></trkpt><trkpt lat="42.952994094822124" lon="12.753012535344473"><ele>413.0</ele><time>2026-05-03T07:12:59.999Z</time></trkpt><trkpt lat="42.95295694184355" lon="12.753214867812583"><ele>413.0</ele><time>2026-05-03T07:13:00.999Z</time></trkpt><trkpt lat="42.95291840848425" lon="12.753412677890774"><ele>413.0</ele><time>2026-05-03T07:13:01.999Z</time></trkpt><trkpt lat="42.95292693943044" lon="12.753622592337516"><ele>413.0</ele><time>2026-05-03T07:13:02.999Z</time></trkpt><trkpt lat="42.952962278862024" lon="12.753831933195897"><ele>416.3333333333333</ele><time>2026-05-03T07:13:03.999Z</time></trkpt><trkpt lat="42.95302525239605" lon="12.754043990453383"><ele>419.66666666666663</ele><time>2026-05-03T07:13:04.999Z</time></trkpt><trkpt lat="42.95308737271258" lon="12.754233277568195"><ele>423.0</ele><time>2026-05-03T07:13:05.999Z</time></trkpt><trkpt lat="42.95314452393375" lon="12.754407963240144"><ele>423.25</ele><time>2026-05-03T07:13:06.999Z</time></trkpt><trkpt lat="42.95319773913319" lon="12.754587464594628"><ele>423.5</ele><time>2026-05-03T07:13:07.999Z</time></trkpt><trkpt lat="42.95326443935772" lon="12.754749125291088"><ele>423.75</ele><time>2026-05-03T07:13:08.999Z</time></trkpt><trkpt lat="42.95336130705116" lon="12.75490205949576"><ele>424.0</ele><time>2026-05-03T07:13:09.999Z</time></trkpt><trkpt lat="42.95347315240227" lon="12.755037698014103"><ele>424.0</ele><time>2026-05-03T07:13:10.999Z</time></trkpt><trkpt lat="42.9535849451316" lon="12.755147454549707"><ele>424.0</ele><time>2026-05-03T07:13:11.999Z</time></trkpt><trkpt lat="42.953694329439685" lon="12.755259909919284"><ele>424.0</ele><time>2026-05-03T07:13:12.999Z</time></trkpt><trkpt lat="42.95376911796062" lon="12.755412680301022"><ele>424.0</ele><time>2026-05-03T07:13:13.999Z</time></trkpt><trkpt lat="42.953842631247774" lon="12.755573440707707"><ele>427.75</ele><time>2026-05-03T07:13:14.999Z</time></trkpt><trkpt lat="42.95391844975041" lon="12.755733681757818"><ele>431.5</ele><time>2026-05-03T07:13:15.999Z</time></trkpt><trkpt lat="42.95396821031411" lon="12.755898146589287"><ele>435.25</ele><time>2026-05-03T07:13:16.999Z</time></trkpt><trkpt lat="42.95402270761527" lon="12.756052612117214"><ele>439.0</ele><time>2026-05-03T07:13:17.999Z</time></trkpt><trkpt lat="42.95407125154112" lon="12.756213049315923"><ele>442.75</ele><time>2026-05-03T07:13:18.999Z</time></trkpt><trkpt lat="42.95411466590288" lon="12.756382196574773"><ele>446.5</ele><time>2026-05-03T07:13:19.999Z</time></trkpt><trkpt lat="42.954155741496294" lon="12.756573823694998"><ele>450.25</ele><time>2026-05-03T07:13:20.999Z</time></trkpt><trkpt lat="42.95415026581371" lon="12.756778861612567"><ele>454.0</ele><time>2026-05-03T07:13:21.999Z</time></trkpt><trkpt lat="42.954137812059145" lon="12.756965524801661"><ele>455.25</ele><time>2026-05-03T07:13:22.999Z</time></trkpt><trkpt lat="42.95411889935453" lon="12.757152063512835"><ele>456.5</ele><time>2026-05-03T07:13:23.999Z</time></trkpt><trkpt lat="42.954093293139294" lon="12.757341950536954"><ele>457.75</ele><time>2026-05-03T07:13:24.999Z</time></trkpt><trkpt lat="42.9540650286013" lon="12.757540408470671"><ele>459.0</ele><time>2026-05-03T07:13:25.999Z</time></trkpt><trkpt lat="42.954050754283706" lon="12.757763125960672"><ele>460.0</ele><time>2026-05-03T07:13:26.999Z</time></trkpt><trkpt lat="42.954028557559084" lon="12.757974396931687"><ele>461.0</ele><time>2026-05-03T07:13:27.999Z</time></trkpt><trkpt lat="42.95401637760306" lon="12.758155494192714"><ele>462.0</ele><time>2026-05-03T07:13:28.999Z</time></trkpt><trkpt lat="42.954018002242464" lon="12.758338768068416"><ele>463.0</ele><time>2026-05-03T07:13:29.999Z</time></trkpt><trkpt lat="42.95402600226083" lon="12.758529916365713"><ele>465.0</ele><time>2026-05-03T07:13:30.999Z</time></trkpt><trkpt lat="42.95403089614029" lon="12.758714603720268"><ele>467.0</ele><time>2026-05-03T07:13:31.999Z</time></trkpt><trkpt lat="42.954034834385816" lon="12.758889322355937"><ele>469.0</ele><time>2026-05-03T07:13:32.999Z</time></trkpt><trkpt lat="42.95404170282226" lon="12.759060660655077"><ele>471.0</ele><time>2026-05-03T07:13:33.999Z</time></trkpt><trkpt lat="42.95405014354021" lon="12.759229360201"><ele>472.5</ele><time>2026-05-03T07:13:34.999Z</time></trkpt><trkpt lat="42.95404247158966" lon="12.759395925473507"><ele>474.0</ele><time>2026-05-03T07:13:35.999Z</time></trkpt><trkpt lat="42.954061717032424" lon="12.759569774311212"><ele>475.5</ele><time>2026-05-03T07:13:36.999Z</time></trkpt><trkpt lat="42.9540630139528" lon="12.759764871156154"><ele>477.0</ele><time>2026-05-03T07:13:37.999Z</time></trkpt><trkpt lat="42.95404847980041" lon="12.759973625834167"><ele>477.0</ele><time>2026-05-03T07:13:38.999Z</time></trkpt><trkpt lat="42.95403139060587" lon="12.760167668832347"><ele>477.0</ele><time>2026-05-03T07:13:39.999Z</time></trkpt><trkpt lat="42.9540101190748" lon="12.760359583206348"><ele>477.0</ele><time>2026-05-03T07:13:40.999Z</time></trkpt><trkpt lat="42.95398779986454" lon="12.760551532003232"><ele>477.0</ele><time>2026-05-03T07:13:41.999Z</time></trkpt><trkpt lat="42.953954154027564" lon="12.760748183408955"><ele>476.75</ele><time>2026-05-03T07:13:42.999Z</time></trkpt><trkpt lat="42.95390361254388" lon="12.760930442609968"><ele>476.5</ele><time>2026-05-03T07:13:43.999Z</time></trkpt><trkpt lat="42.95385008697784" lon="12.761116514381976"><ele>476.25</ele><time>2026-05-03T07:13:44.999Z</time></trkpt><trkpt lat="42.95379934892248" lon="12.761308858055594"><ele>476.0</ele><time>2026-05-03T07:13:45.999Z</time></trkpt><trkpt lat="42.9537529875737" lon="12.761517217769805"><ele>475.66666666666663</ele><time>2026-05-03T07:13:46.999Z</time></trkpt><trkpt lat="42.9537100292166" lon="12.761744286742102"><ele>475.33333333333337</ele><time>2026-05-03T07:13:47.999Z</time></trkpt><trkpt lat="42.9536701507811" lon="12.76193775389633"><ele>475.0</ele><time>2026-05-03T07:13:48.999Z</time></trkpt><trkpt lat="42.9536280457941" lon="12.762119512077383"><ele>475.0</ele><time>2026-05-03T07:13:49.999Z</time></trkpt><trkpt lat="42.953581361843895" lon="12.762306478237036"><ele>475.0</ele><time>2026-05-03T07:13:50.999Z</time></trkpt><trkpt lat="42.953535576906674" lon="12.762485779748966"><ele>475.0</ele><time>2026-05-03T07:13:51.999Z</time></trkpt><trkpt lat="42.95348705101783" lon="12.762662332633534"><ele>475.0</ele><time>2026-05-03T07:13:52.999Z</time></trkpt><trkpt lat="42.95343989227656" lon="12.76283510684631"><ele>476.25</ele><time>2026-05-03T07:13:53.999Z</time></trkpt><trkpt lat="42.95340597908614" lon="12.763018198034288"><ele>477.5</ele><time>2026-05-03T07:13:54.999Z</time></trkpt><trkpt lat="42.95335801701867" lon="12.763199858507425"><ele>478.75</ele><time>2026-05-03T07:13:55.999Z</time></trkpt><trkpt lat="42.95331569818249" lon="12.763386720097884"><ele>480.0</ele><time>2026-05-03T07:13:56.999Z</time></trkpt><trkpt lat="42.95328559630808" lon="12.763570290723832"><ele>489.75</ele><time>2026-05-03T07:13:57.999Z</time></trkpt><trkpt lat="42.9532656146167" lon="12.76375246703406"><ele>499.5</ele><time>2026-05-03T07:13:59Z</time></trkpt><trkpt lat="42.95325357553713" lon="12.763935643928908"><ele>509.25</ele><time>2026-05-03T07:14:00Z</time></trkpt><trkpt lat="42.95326921964293" lon="12.764127051282086"><ele>519.0</ele><time>2026-05-03T07:14:01Z</time></trkpt><trkpt lat="42.9532987509477" lon="12.764317462504225"><ele>521.6666666666666</ele><time>2026-05-03T07:14:02Z</time></trkpt><trkpt lat="42.95332394013722" lon="12.764517984627325"><ele>524.3333333333333</ele><time>2026-05-03T07:14:03Z</time></trkpt><trkpt lat="42.95334358417468" lon="12.764721410292326"><ele>527.0</ele><time>2026-05-03T07:14:04Z</time></trkpt><trkpt lat="42.953361794894654" lon="12.764931302835475"><ele>528.6666666666666</ele><time>2026-05-03T07:14:05Z</time></trkpt><trkpt lat="42.95337228163616" lon="12.765137129225556"><ele>530.3333333333334</ele><time>2026-05-03T07:14:06Z</time></trkpt><trkpt lat="42.953376733058285" lon="12.765343271985275"><ele>532.0</ele><time>2026-05-03T07:14:07Z</time></trkpt><trkpt lat="42.95337058220079" lon="12.765560055360456"><ele>532.0</ele><time>2026-05-03T07:14:08Z</time></trkpt><trkpt lat="42.9533687505751" lon="12.765758406824721"><ele>532.0</ele><time>2026-05-03T07:14:09Z</time></trkpt><trkpt lat="42.95336427012507" lon="12.765944679128351"><ele>532.0</ele><time>2026-05-03T07:14:10Z</time></trkpt><trkpt lat="42.95335881153401" lon="12.766125935802494"><ele>532.0</ele><time>2026-05-03T07:14:11Z</time></trkpt><trkpt lat="42.953343054499435" lon="12.76631376334225"><ele>533.25</ele><time>2026-05-03T07:14:12Z</time></trkpt><trkpt lat="42.953323790746026" lon="12.766511681322383"><ele>534.5</ele><time>2026-05-03T07:14:13Z</time></trkpt><trkpt lat="42.95329299359953" lon="12.766708906887422"><ele>535.75</ele><time>2026-05-03T07:14:14Z</time></trkpt><trkpt lat="42.95326244006279" lon="12.766906164096122"><ele>537.0</ele><time>2026-05-03T07:14:15Z</time></trkpt><trkpt lat="42.953250506229345" lon="12.767102979883369"><ele>538.25</ele><time>2026-05-03T07:14:16Z</time></trkpt><trkpt lat="42.9532441696453" lon="12.767309272432778"><ele>539.5</ele><time>2026-05-03T07:14:17Z</time></trkpt><trkpt lat="42.95325420293423" lon="12.767494122271446"><ele>540.75</ele><time>2026-05-03T07:14:18Z</time></trkpt><trkpt lat="42.95325836629779" lon="12.767689287676637"><ele>542.0</ele><time>2026-05-03T07:14:19Z</time></trkpt><trkpt lat="42.95326453802995" lon="12.76789199293856"><ele>543.5</ele><time>2026-05-03T07:14:20Z</time></trkpt><trkpt lat="42.95325989745918" lon="12.76809023038468"><ele>545.0</ele><time>2026-05-03T07:14:21Z</time></trkpt><trkpt lat="42.95328206926473" lon="12.768270882450587"><ele>546.5</ele><time>2026-05-03T07:14:22Z</time></trkpt><trkpt lat="42.95328616206308" lon="12.768441402558627"><ele>548.0</ele><time>2026-05-03T07:14:23Z</time></trkpt><trkpt lat="42.95327779654991" lon="12.768619193506247"><ele>549.5</ele><time>2026-05-03T07:14:24Z</time></trkpt><trkpt lat="42.953284198485015" lon="12.768808386921613"><ele>551.0</ele><time>2026-05-03T07:14:25Z</time></trkpt><trkpt lat="42.95329956317246" lon="12.768990798220218"><ele>552.5</ele><time>2026-05-03T07:14:26Z</time></trkpt><trkpt lat="42.953288147285335" lon="12.76916688341024"><ele>554.0</ele><time>2026-05-03T07:14:27Z</time></trkpt><trkpt lat="42.95325799909973" lon="12.769339778370615"><ele>556.25</ele><time>2026-05-03T07:14:28Z</time></trkpt><trkpt lat="42.95322910137031" lon="12.769512073201756"><ele>558.5</ele><time>2026-05-03T07:14:29Z</time></trkpt><trkpt lat="42.9532132759759" lon="12.76968728045628"><ele>560.75</ele><time>2026-05-03T07:14:30Z</time></trkpt><trkpt lat="42.953223117942734" lon="12.769863856395663"><ele>563.0</ele><time>2026-05-03T07:14:31Z</time></trkpt><trkpt lat="42.953218406495196" lon="12.770031305588516"><ele>563.0</ele><time>2026-05-03T07:14:32Z</time></trkpt><trkpt lat="42.953247122659704" lon="12.770172848761797"><ele>563.0</ele><time>2026-05-03T07:14:33Z</time></trkpt><trkpt lat="42.95325176071984" lon="12.770313837816829"><ele>563.0</ele><time>2026-05-03T07:14:34Z</time></trkpt><trkpt lat="42.953268275895155" lon="12.770426268120548"><ele>563.0</ele><time>2026-05-03T07:14:35Z</time></trkpt><trkpt lat="42.953286170179936" lon="12.770531158172968"><ele>563.0</ele><time>2026-05-03T07:14:36Z</time></trkpt><trkpt lat="42.9533056733871" lon="12.770645479333417"><ele>564.0</ele><time>2026-05-03T07:14:37Z</time></trkpt><trkpt lat="42.953319170631666" lon="12.770749637101844"><ele>565.0</ele><time>2026-05-03T07:14:39Z</time></trkpt><trkpt lat="42.95336788699821" lon="12.770818670010014"><ele>566.0</ele><time>2026-05-03T07:14:44Z</time></trkpt><trkpt lat="42.953282442079576" lon="12.770828036861618"><ele>567.0</ele><time>2026-05-03T07:14:50Z</time></trkpt><trkpt lat="42.95325926347635" lon="12.770742242838347"><ele>568.0</ele><time>2026-05-03T07:14:51Z</time></trkpt><trkpt lat="42.95323817263814" lon="12.770609605845143"><ele>569.0</ele><time>2026-05-03T07:14:51.999Z</time></trkpt><trkpt lat="42.95321240035916" lon="12.770459337098899"><ele>569.0</ele><time>2026-05-03T07:14:52.999Z</time></trkpt><trkpt lat="42.95328268231849" lon="12.770291406978298"><ele>569.0</ele><time>2026-05-03T07:14:53.999Z</time></trkpt><trkpt lat="42.95326502802283" lon="12.770154353891215"><ele>569.0</ele><time>2026-05-03T07:14:54.999Z</time></trkpt><trkpt lat="42.9532531824616" lon="12.770046618674478"><ele>569.0</ele><time>2026-05-03T07:14:55.999Z</time></trkpt><trkpt lat="42.953244334408446" lon="12.769927237540967"><ele>569.0</ele><time>2026-05-03T07:14:56.999Z</time></trkpt><trkpt lat="42.95324023357201" lon="12.769820537501436"><ele>568.0</ele><time>2026-05-03T07:14:57.999Z</time></trkpt><trkpt lat="42.95324292069996" lon="12.769733475619876"><ele>567.0</ele><time>2026-05-03T07:14:58.999Z</time></trkpt><trkpt lat="42.953255570572" lon="12.769573852585934"><ele>566.0</ele><time>2026-05-03T07:15:00.999Z</time></trkpt><trkpt lat="42.95326355259571" lon="12.769486011521062"><ele>565.0</ele><time>2026-05-03T07:15:01.999Z</time></trkpt><trkpt lat="42.95327336479312" lon="12.769378029389859"><ele>564.0</ele><time>2026-05-03T07:15:02.999Z</time></trkpt><trkpt lat="42.95328717386798" lon="12.769264125323096"><ele>563.0</ele><time>2026-05-03T07:15:03.999Z</time></trkpt><trkpt lat="42.95331565392208" lon="12.769089579761735"><ele>561.5</ele><time>2026-05-03T07:15:04.999Z</time></trkpt><trkpt lat="42.95332072830248" lon="12.768902709867254"><ele>560.0</ele><time>2026-05-03T07:15:05.999Z</time></trkpt><trkpt lat="42.95331746817283" lon="12.768806364806284"><ele>558.5</ele><time>2026-05-03T07:15:06.999Z</time></trkpt><trkpt lat="42.95331400443304" lon="12.768704002546947"><ele>557.0</ele><time>2026-05-03T07:15:07.999Z</time></trkpt><trkpt lat="42.953310461322815" lon="12.768599294719484"><ele>555.5</ele><time>2026-05-03T07:15:08.999Z</time></trkpt><trkpt lat="42.95330651256744" lon="12.76848259907581"><ele>554.0</ele><time>2026-05-03T07:15:09.999Z</time></trkpt><trkpt lat="42.953302876542274" lon="12.768375145327429"><ele>553.0</ele><time>2026-05-03T07:15:10.999Z</time></trkpt><trkpt lat="42.953299306746295" lon="12.768269648958078"><ele>552.0</ele><time>2026-05-03T07:15:11.999Z</time></trkpt><trkpt lat="42.95326242067448" lon="12.768148624690744"><ele>551.0</ele><time>2026-05-03T07:15:12.999Z</time></trkpt><trkpt lat="42.95322175006004" lon="12.76803775049337"><ele>550.0</ele><time>2026-05-03T07:15:13.999Z</time></trkpt><trkpt lat="42.953178187623905" lon="12.767937866176513"><ele>549.0</ele><time>2026-05-03T07:15:14.999Z</time></trkpt><trkpt lat="42.95314954015955" lon="12.767841612690393"><ele>548.0</ele><time>2026-05-03T07:15:15.999Z</time></trkpt><trkpt lat="42.95309468306631" lon="12.767728016773734"><ele>596.0</ele><time>2026-05-03T07:15:17.999Z</time></trkpt><trkpt lat="42.952440747374695" lon="12.767736623334454"><ele>596.0</ele><time>2026-05-03T07:15:18.999Z</time></trkpt><trkpt lat="42.952392557206636" lon="12.76767259901371"><ele>596.0</ele><time>2026-05-03T07:15:20.999Z</time></trkpt><trkpt lat="42.95227174824576" lon="12.767702226063484"><ele>596.0</ele><time>2026-05-03T07:15:22.999Z</time></trkpt><trkpt lat="42.95221026986347" lon="12.767726177592664"><ele>596.0</ele><time>2026-05-03T07:15:23.999Z</time></trkpt><trkpt lat="42.9522065644637" lon="12.767869020968192"><ele>596.0</ele><time>2026-05-03T07:15:25.999Z</time></trkpt><trkpt lat="42.9522525287669" lon="12.767955393446528"><ele>596.0</ele><time>2026-05-03T07:15:26.999Z</time></trkpt><trkpt lat="42.952270008356926" lon="12.768144443727682"><ele>596.0</ele><time>2026-05-03T07:15:28.999Z</time></trkpt><trkpt lat="42.952265675861575" lon="12.768253574409268"><ele>596.0</ele><time>2026-05-03T07:15:29.999Z</time></trkpt><trkpt lat="42.95226000468229" lon="12.768396111013939"><ele>596.0</ele><time>2026-05-03T07:15:30.999Z</time></trkpt><trkpt lat="42.95228872199583" lon="12.768530795300041"><ele>596.0</ele><time>2026-05-03T07:15:31.999Z</time></trkpt><trkpt lat="42.952291991303504" lon="12.768682687752761"><ele>596.0</ele><time>2026-05-03T07:15:32.999Z</time></trkpt><trkpt lat="42.952284486088146" lon="12.768836516177835"><ele>597.8</ele><time>2026-05-03T07:15:33.999Z</time></trkpt><trkpt lat="42.95226243806149" lon="12.76898064627294"><ele>599.6</ele><time>2026-05-03T07:15:34.999Z</time></trkpt><trkpt lat="42.95221583996978" lon="12.769128435342214"><ele>601.4</ele><time>2026-05-03T07:15:35.999Z</time></trkpt><trkpt lat="42.95222090541697" lon="12.769258361233867"><ele>603.2</ele><time>2026-05-03T07:15:37.999Z</time></trkpt><trkpt lat="42.95211175257936" lon="12.769321729811196"><ele>605.0</ele><time>2026-05-03T07:15:40.999Z</time></trkpt><trkpt lat="42.95212267778795" lon="12.76941059501639"><ele>606.5</ele><time>2026-05-03T07:15:41.999Z</time></trkpt><trkpt lat="42.95215045359756" lon="12.76951363799877"><ele>608.0</ele><time>2026-05-03T07:15:42.999Z</time></trkpt><trkpt lat="42.95212771889642" lon="12.769649347838982"><ele>609.5</ele><time>2026-05-03T07:15:44.999Z</time></trkpt><trkpt lat="42.95212601818661" lon="12.769763277408213"><ele>611.0</ele><time>2026-05-03T07:15:45.999Z</time></trkpt><trkpt lat="42.9521159696121" lon="12.769875684820487"><ele>612.5</ele><time>2026-05-03T07:15:46.999Z</time></trkpt><trkpt lat="42.95211440241581" lon="12.769995067801656"><ele>614.0</ele><time>2026-05-03T07:15:47.999Z</time></trkpt><trkpt lat="42.95210695728684" lon="12.770125568453043"><ele>615.2</ele><time>2026-05-03T07:15:48.999Z</time></trkpt><trkpt lat="42.95208339857632" lon="12.770241090333922"><ele>616.4</ele><time>2026-05-03T07:15:49.999Z</time></trkpt><trkpt lat="42.952053562262" lon="12.770359621189085"><ele>617.6</ele><time>2026-05-03T07:15:50.999Z</time></trkpt><trkpt lat="42.952022612223374" lon="12.770485514778862"><ele>618.8</ele><time>2026-05-03T07:15:51.999Z</time></trkpt><trkpt lat="42.951993138402" lon="12.770608400201429"><ele>620.0</ele><time>2026-05-03T07:15:52.999Z</time></trkpt><trkpt lat="42.95197230930255" lon="12.770716729104702"><ele>620.0</ele><time>2026-05-03T07:15:53.999Z</time></trkpt><trkpt lat="42.951932891431" lon="12.770824728862204"><ele>620.0</ele><time>2026-05-03T07:15:54.999Z</time></trkpt><trkpt lat="42.951902720555864" lon="12.771007125425506"><ele>620.0</ele><time>2026-05-03T07:15:56.999Z</time></trkpt><trkpt lat="42.95187690445671" lon="12.77111745487344"><ele>620.0</ele><time>2026-05-03T07:15:57.999Z</time></trkpt><trkpt lat="42.95184689500435" lon="12.77124781395119"><ele>620.0</ele><time>2026-05-03T07:15:58.999Z</time></trkpt><trkpt lat="42.95181629185234" lon="12.77137971261531"><ele>620.3333333333333</ele><time>2026-05-03T07:15:59.999Z</time></trkpt><trkpt lat="42.951773220045865" lon="12.771520754164602"><ele>620.6666666666666</ele><time>2026-05-03T07:16:00.999Z</time></trkpt><trkpt lat="42.95173451445439" lon="12.771667500581133"><ele>621.0</ele><time>2026-05-03T07:16:01.999Z</time></trkpt><trkpt lat="42.95170677959293" lon="12.771750922441411"><ele>621.3333333333334</ele><time>2026-05-03T07:16:02.999Z</time></trkpt><trkpt lat="42.95168754666214" lon="12.771852589253577"><ele>621.6666666666667</ele><time>2026-05-03T07:16:05Z</time></trkpt><trkpt lat="42.951669846877394" lon="12.771949394182695"><ele>622.0</ele><time>2026-05-03T07:16:43Z</time></trkpt><trkpt lat="42.951636122050324" lon="12.772106647958692"><ele>626.5</ele><time>2026-05-03T07:16:45Z</time></trkpt><trkpt lat="42.95160611859212" lon="12.772204498529101"><ele>631.0</ele><time>2026-05-03T07:16:46Z</time></trkpt><trkpt lat="42.951582342841284" lon="12.772298764096565"><ele>635.5</ele><time>2026-05-03T07:16:47Z</time></trkpt><trkpt lat="42.95154520481117" lon="12.772402448740003"><ele>640.0</ele><time>2026-05-03T07:16:48Z</time></trkpt><trkpt lat="42.951501421682956" lon="12.77251212811117"><ele>644.5</ele><time>2026-05-03T07:16:49Z</time></trkpt><trkpt lat="42.951454444462904" lon="12.772626862213569"><ele>649.0</ele><time>2026-05-03T07:16:50Z</time></trkpt><trkpt lat="42.95140709025535" lon="12.772751706181129"><ele>649.0</ele><time>2026-05-03T07:16:51Z</time></trkpt><trkpt lat="42.9513706452896" lon="12.772862204541596"><ele>649.0</ele><time>2026-05-03T07:16:52Z</time></trkpt><trkpt lat="42.951349321043864" lon="12.772961688543205"><ele>649.0</ele><time>2026-05-03T07:16:53Z</time></trkpt><trkpt lat="42.95131793598616" lon="12.773062992043615"><ele>649.0</ele><time>2026-05-03T07:16:54Z</time></trkpt><trkpt lat="42.9512855545578" lon="12.773178042580074"><ele>649.0</ele><time>2026-05-03T07:16:55Z</time></trkpt><trkpt lat="42.95125238005106" lon="12.773276008602979"><ele>649.0</ele><time>2026-05-03T07:16:55.999Z</time></trkpt><trkpt lat="42.95120750616636" lon="12.773382352203182"><ele>649.0</ele><time>2026-05-03T07:16:56.999Z</time></trkpt><trkpt lat="42.95117107595808" lon="12.773488218079306"><ele>649.0</ele><time>2026-05-03T07:16:57.999Z</time></trkpt><trkpt lat="42.95112765678419" lon="12.773603855443444"><ele>649.0</ele><time>2026-05-03T07:16:58.999Z</time></trkpt><trkpt lat="42.95110477185049" lon="12.773725886681374"><ele>649.0</ele><time>2026-05-03T07:16:59.999Z</time></trkpt><trkpt lat="42.95105529959138" lon="12.77383546781031"><ele>649.0</ele><time>2026-05-03T07:17:00.999Z</time></trkpt><trkpt lat="42.95101966493441" lon="12.773931069840225"><ele>649.0</ele><time>2026-05-03T07:17:01.999Z</time></trkpt><trkpt lat="42.95098346386213" lon="12.774031637391575"><ele>647.6666666666667</ele><time>2026-05-03T07:17:02.999Z</time></trkpt><trkpt lat="42.95095254360357" lon="12.774128481145146"><ele>646.3333333333334</ele><time>2026-05-03T07:17:03.999Z</time></trkpt><trkpt lat="42.95091826207187" lon="12.774224624612263"><ele>645.0</ele><time>2026-05-03T07:17:04.999Z</time></trkpt><trkpt lat="42.95089277467891" lon="12.774320384594478"><ele>643.6666666666666</ele><time>2026-05-03T07:17:05.999Z</time></trkpt><trkpt lat="42.95085629194288" lon="12.77441969692259"><ele>642.3333333333333</ele><time>2026-05-03T07:17:06.999Z</time></trkpt><trkpt lat="42.95081815364988" lon="12.77454181843626"><ele>641.0</ele><time>2026-05-03T07:17:07.999Z</time></trkpt><trkpt lat="42.9507854900968" lon="12.774674101853593"><ele>646.8</ele><time>2026-05-03T07:17:08.999Z</time></trkpt><trkpt lat="42.95074212162481" lon="12.774792276051258"><ele>652.5999999999999</ele><time>2026-05-03T07:17:09.999Z</time></trkpt><trkpt lat="42.95069633388355" lon="12.774905249046402"><ele>658.4</ele><time>2026-05-03T07:17:10.999Z</time></trkpt><trkpt lat="42.95065497527863" lon="12.7750522106837"><ele>664.2</ele><time>2026-05-03T07:17:11.999Z</time></trkpt><trkpt lat="42.95062140046105" lon="12.775188454675938"><ele>670.0</ele><time>2026-05-03T07:17:12.999Z</time></trkpt><trkpt lat="42.950586494789896" lon="12.775319925517278"><ele>670.0</ele><time>2026-05-03T07:17:13.999Z</time></trkpt><trkpt lat="42.950547893867395" lon="12.775455111617497"><ele>670.0</ele><time>2026-05-03T07:17:14.999Z</time></trkpt><trkpt lat="42.950493958374864" lon="12.775572178856907"><ele>670.0</ele><time>2026-05-03T07:17:15.999Z</time></trkpt><trkpt lat="42.95045038696046" lon="12.77568912592896"><ele>670.0</ele><time>2026-05-03T07:17:16.999Z</time></trkpt><trkpt lat="42.95040577772397" lon="12.775824923488868"><ele>670.0</ele><time>2026-05-03T07:17:17.999Z</time></trkpt><trkpt lat="42.95034844315321" lon="12.775973826295042"><ele>668.2</ele><time>2026-05-03T07:17:18.999Z</time></trkpt><trkpt lat="42.950285251432355" lon="12.776109502744307"><ele>666.4</ele><time>2026-05-03T07:17:19.999Z</time></trkpt><trkpt lat="42.9502292299395" lon="12.77622889787699"><ele>664.5999999999999</ele><time>2026-05-03T07:17:20.999Z</time></trkpt><trkpt lat="42.950172001396716" lon="12.776334215651461"><ele>662.8</ele><time>2026-05-03T07:17:21.999Z</time></trkpt><trkpt lat="42.950113570702534" lon="12.776442899899719"><ele>661.0</ele><time>2026-05-03T07:17:22.999Z</time></trkpt><trkpt lat="42.95005965106301" lon="12.77654456640624"><ele>667.1999999999999</ele><time>2026-05-03T07:17:23.999Z</time></trkpt><trkpt lat="42.9500034532973" lon="12.776658378525738"><ele>673.4</ele><time>2026-05-03T07:17:24.999Z</time></trkpt><trkpt lat="42.94993431499163" lon="12.776775250044066"><ele>679.6</ele><time>2026-05-03T07:17:25.999Z</time></trkpt><trkpt lat="42.94986949608157" lon="12.776881561436038"><ele>685.8</ele><time>2026-05-03T07:17:26.999Z</time></trkpt><trkpt lat="42.94980027182068" lon="12.776985875019212"><ele>692.0</ele><time>2026-05-03T07:17:27.999Z</time></trkpt><trkpt lat="42.94973088785221" lon="12.777088451106808"><ele>692.0</ele><time>2026-05-03T07:17:28.999Z</time></trkpt><trkpt lat="42.94966582042421" lon="12.777188492169048"><ele>692.0</ele><time>2026-05-03T07:17:29.999Z</time></trkpt><trkpt lat="42.94960462500917" lon="12.777267065056288"><ele>692.0</ele><time>2026-05-03T07:17:30.999Z</time></trkpt><trkpt lat="42.94952073577875" lon="12.77733202298035"><ele>692.0</ele><time>2026-05-03T07:17:31.999Z</time></trkpt><trkpt lat="42.949423613450115" lon="12.777409258626685"><ele>692.0</ele><time>2026-05-03T07:17:32.999Z</time></trkpt><trkpt lat="42.949342693017606" lon="12.777477829524672"><ele>692.0</ele><time>2026-05-03T07:17:33.999Z</time></trkpt><trkpt lat="42.94927213132083" lon="12.777542090144747"><ele>692.0</ele><time>2026-05-03T07:17:34.999Z</time></trkpt><trkpt lat="42.94922532047097" lon="12.777640575990588"><ele>692.0</ele><time>2026-05-03T07:17:36.999Z</time></trkpt><trkpt lat="42.94913906557512" lon="12.777662244709768"><ele>692.0</ele><time>2026-05-03T07:17:40.999Z</time></trkpt><trkpt lat="42.94915332469434" lon="12.777559842417388"><ele>692.0</ele><time>2026-05-03T07:17:42.999Z</time></trkpt><trkpt lat="42.94923877893381" lon="12.777441250369344"><ele>692.0</ele><time>2026-05-03T07:17:44.999Z</time></trkpt><trkpt lat="42.94929989015001" lon="12.777358454789757"><ele>692.0</ele><time>2026-05-03T07:17:45.999Z</time></trkpt><trkpt lat="42.94935951815277" lon="12.777248170239762"><ele>692.0</ele><time>2026-05-03T07:17:46.999Z</time></trkpt><trkpt lat="42.949425872582275" lon="12.777138057368475"><ele>692.0</ele><time>2026-05-03T07:17:47.999Z</time></trkpt><trkpt lat="42.949481939591685" lon="12.777025523965522"><ele>692.0</ele><time>2026-05-03T07:17:48.999Z</time></trkpt><trkpt lat="42.94952756719275" lon="12.776916355435835"><ele>695.4000000000001</ele><time>2026-05-03T07:17:49.999Z</time></trkpt><trkpt lat="42.94955869397772" lon="12.776811382378337"><ele>698.8000000000001</ele><time>2026-05-03T07:17:50.999Z</time></trkpt><trkpt lat="42.94958739736914" lon="12.776694111867487"><ele>702.2</ele><time>2026-05-03T07:17:51.999Z</time></trkpt><trkpt lat="42.949616935546324" lon="12.7765775684498"><ele>705.6</ele><time>2026-05-03T07:17:52.999Z</time></trkpt><trkpt lat="42.94964569044778" lon="12.776452818527774"><ele>709.0</ele><time>2026-05-03T07:17:53.999Z</time></trkpt><trkpt lat="42.949678614695394" lon="12.776322217879061"><ele>709.0</ele><time>2026-05-03T07:17:54.999Z</time></trkpt><trkpt lat="42.94970395978235" lon="12.776206789732584"><ele>709.0</ele><time>2026-05-03T07:17:55.999Z</time></trkpt><trkpt lat="42.949713424998606" lon="12.776078223370025"><ele>709.0</ele><time>2026-05-03T07:17:56.999Z</time></trkpt><trkpt lat="42.949724839319714" lon="12.775939898095636"><ele>709.0</ele><time>2026-05-03T07:17:57.999Z</time></trkpt><trkpt lat="42.94973097354736" lon="12.775788004745708"><ele>709.0</ele><time>2026-05-03T07:17:58.999Z</time></trkpt><trkpt lat="42.94973014940945" lon="12.775641245599532"><ele>711.8000000000001</ele><time>2026-05-03T07:17:59.999Z</time></trkpt><trkpt lat="42.94972740778828" lon="12.775492836966546"><ele>714.6</ele><time>2026-05-03T07:18:00.999Z</time></trkpt><trkpt lat="42.949717068351376" lon="12.775358722131477"><ele>717.4</ele><time>2026-05-03T07:18:01.999Z</time></trkpt><trkpt lat="42.94971078156338" lon="12.775226957363785"><ele>720.2</ele><time>2026-05-03T07:18:02.999Z</time></trkpt><trkpt lat="42.94969921281205" lon="12.775081714397167"><ele>723.0</ele><time>2026-05-03T07:18:03.999Z</time></trkpt><trkpt lat="42.94968897693986" lon="12.774947252091646"><ele>724.4</ele><time>2026-05-03T07:18:04.999Z</time></trkpt><trkpt lat="42.94967972324009" lon="12.774820157461049"><ele>725.8</ele><time>2026-05-03T07:18:05.999Z</time></trkpt><trkpt lat="42.949670255345616" lon="12.774686014509218"><ele>727.2</ele><time>2026-05-03T07:18:06.999Z</time></trkpt><trkpt lat="42.94966687849098" lon="12.774549980563965"><ele>728.6</ele><time>2026-05-03T07:18:07.999Z</time></trkpt><trkpt lat="42.949657074767146" lon="12.774423262714564"><ele>730.0</ele><time>2026-05-03T07:18:08.999Z</time></trkpt><trkpt lat="42.949658065018376" lon="12.774288905777363"><ele>732.0</ele><time>2026-05-03T07:18:09.999Z</time></trkpt><trkpt lat="42.94965782485894" lon="12.774148420647107"><ele>734.0</ele><time>2026-05-03T07:18:11Z</time></trkpt><trkpt lat="42.949638968141294" lon="12.774009721580635"><ele>736.0</ele><time>2026-05-03T07:18:12Z</time></trkpt><trkpt lat="42.94962099811699" lon="12.773843365021321"><ele>738.0</ele><time>2026-05-03T07:18:13Z</time></trkpt><trkpt lat="42.949616636038456" lon="12.773669615292858"><ele>738.75</ele><time>2026-05-03T07:18:14Z</time></trkpt><trkpt lat="42.94961162711065" lon="12.773515073356698"><ele>739.5</ele><time>2026-05-03T07:18:15Z</time></trkpt><trkpt lat="42.94960307286211" lon="12.773362029822536"><ele>740.25</ele><time>2026-05-03T07:18:16Z</time></trkpt><trkpt lat="42.9496090645497" lon="12.773203376003"><ele>741.0</ele><time>2026-05-03T07:18:17Z</time></trkpt><trkpt lat="42.94960165050802" lon="12.773033225934729"><ele>741.0</ele><time>2026-05-03T07:18:18Z</time></trkpt><trkpt lat="42.94959506371424" lon="12.772861443165"><ele>741.0</ele><time>2026-05-03T07:18:19Z</time></trkpt><trkpt lat="42.94958978986808" lon="12.772709338718053"><ele>741.0</ele><time>2026-05-03T07:18:20Z</time></trkpt><trkpt lat="42.949574807912796" lon="12.772567125823556"><ele>741.0</ele><time>2026-05-03T07:18:21Z</time></trkpt><trkpt lat="42.94956396925873" lon="12.772422233275384"><ele>741.0</ele><time>2026-05-03T07:18:22Z</time></trkpt><trkpt lat="42.94954215451045" lon="12.772288188276178"><ele>742.4</ele><time>2026-05-03T07:18:23Z</time></trkpt><trkpt lat="42.9495343584104" lon="12.772161593483686"><ele>743.8</ele><time>2026-05-03T07:18:24Z</time></trkpt><trkpt lat="42.949527955745054" lon="12.772029354973139"><ele>745.1999999999999</ele><time>2026-05-03T07:18:25Z</time></trkpt><trkpt lat="42.94951339136332" lon="12.77189226710031"><ele>746.5999999999999</ele><time>2026-05-03T07:18:26Z</time></trkpt><trkpt lat="42.94950714112623" lon="12.77173592390897"><ele>748.0</ele><time>2026-05-03T07:18:27Z</time></trkpt><trkpt lat="42.949486801425934" lon="12.771593936563526"><ele>748.4</ele><time>2026-05-03T07:18:28Z</time></trkpt><trkpt lat="42.94947111394754" lon="12.77145811966896"><ele>748.8</ele><time>2026-05-03T07:18:29Z</time></trkpt><trkpt lat="42.94945639437009" lon="12.771323001285495"><ele>749.2</ele><time>2026-05-03T07:18:30Z</time></trkpt><trkpt lat="42.949436562172906" lon="12.771175792291803"><ele>749.6</ele><time>2026-05-03T07:18:31Z</time></trkpt><trkpt lat="42.94942095804224" lon="12.771016324716902"><ele>750.0</ele><time>2026-05-03T07:18:32Z</time></trkpt><trkpt lat="42.94940467793025" lon="12.770874859712576"><ele>751.2</ele><time>2026-05-03T07:18:33Z</time></trkpt><trkpt lat="42.949381226779536" lon="12.77074853975811"><ele>752.4</ele><time>2026-05-03T07:18:34Z</time></trkpt><trkpt lat="42.94934724486971" lon="12.770621194567363"><ele>753.5999999999999</ele><time>2026-05-03T07:18:35Z</time></trkpt><trkpt lat="42.94931369668005" lon="12.770503193570864"><ele>754.8</ele><time>2026-05-03T07:18:36Z</time></trkpt><trkpt lat="42.949283186257205" lon="12.770401974479169"><ele>756.0</ele><time>2026-05-03T07:18:37Z</time></trkpt><trkpt lat="42.94925000802242" lon="12.770298045557643"><ele>756.0</ele><time>2026-05-03T07:18:38Z</time></trkpt><trkpt lat="42.94921308344579" lon="12.770226160781663"><ele>756.0</ele><time>2026-05-03T07:18:39Z</time></trkpt><trkpt lat="42.949160105453366" lon="12.770179280234265"><ele>756.0</ele><time>2026-05-03T07:18:40Z</time></trkpt><trkpt lat="42.94907151216491" lon="12.770138077203569"><ele>756.0</ele><time>2026-05-03T07:18:41Z</time></trkpt><trkpt lat="42.94899031515262" lon="12.770066471141323"><ele>756.0</ele><time>2026-05-03T07:18:42Z</time></trkpt><trkpt lat="42.948948527778455" lon="12.769995877731288"><ele>756.0</ele><time>2026-05-03T07:18:43Z</time></trkpt><trkpt lat="42.94886056595276" lon="12.769920358710204"><ele>765.0</ele><time>2026-05-03T07:18:45Z</time></trkpt><trkpt lat="42.948737256608794" lon="12.770024744749445"><ele>774.0</ele><time>2026-05-03T07:18:47Z</time></trkpt><trkpt lat="42.94865205949333" lon="12.770118348376709"><ele>783.0</ele><time>2026-05-03T07:18:48Z</time></trkpt><trkpt lat="42.948566349759126" lon="12.770213125989725"><ele>792.0</ele><time>2026-05-03T07:18:49Z</time></trkpt><trkpt lat="42.948487714053734" lon="12.770299681537441"><ele>793.0</ele><time>2026-05-03T07:18:50Z</time></trkpt><trkpt lat="42.948415671958266" lon="12.770354027529773"><ele>794.0</ele><time>2026-05-03T07:18:51Z</time></trkpt><trkpt lat="42.94834157694734" lon="12.770400884395563"><ele>795.0</ele><time>2026-05-03T07:18:52Z</time></trkpt><trkpt lat="42.94827853683689" lon="12.7704370741868"><ele>796.0</ele><time>2026-05-03T07:18:53Z</time></trkpt><trkpt lat="42.94820937338723" lon="12.770431277393172"><ele>797.0</ele><time>2026-05-03T07:18:56Z</time></trkpt><trkpt lat="42.94814008216726" lon="12.770449119811223"><ele>798.0</ele><time>2026-05-03T07:18:59Z</time></trkpt><trkpt lat="42.948186995617505" lon="12.77052460655624"><ele>799.0</ele><time>2026-05-03T07:19:02Z</time></trkpt><trkpt lat="42.94828364010794" lon="12.770576404001499"><ele>798.9999999999999</ele><time>2026-05-03T07:19:04Z</time></trkpt><trkpt lat="42.9483589445407" lon="12.770622492197852"><ele>799.0</ele><time>2026-05-03T07:19:04.999Z</time></trkpt><trkpt lat="42.948434136660325" lon="12.770677811168643"><ele>799.0</ele><time>2026-05-03T07:19:05.999Z</time></trkpt><trkpt lat="42.94849607852098" lon="12.770749725099247"><ele>799.0</ele><time>2026-05-03T07:19:06.999Z</time></trkpt><trkpt lat="42.948553122805" lon="12.770834212479034"><ele>798.9999999999999</ele><time>2026-05-03T07:19:07.999Z</time></trkpt><trkpt lat="42.94861662689553" lon="12.770932202427707"><ele>799.0</ele><time>2026-05-03T07:19:08.999Z</time></trkpt><trkpt lat="42.948679709883194" lon="12.771022174772243"><ele>799.2</ele><time>2026-05-03T07:19:09.999Z</time></trkpt><trkpt lat="42.94874131163638" lon="12.771118232283833"><ele>799.4000000000001</ele><time>2026-05-03T07:19:10.999Z</time></trkpt><trkpt lat="42.948816460214694" lon="12.771213830426465"><ele>799.6</ele><time>2026-05-03T07:19:11.999Z</time></trkpt><trkpt lat="42.9488640132494" lon="12.771311062951801"><ele>799.8</ele><time>2026-05-03T07:19:12.999Z</time></trkpt><trkpt lat="42.94888456512295" lon="12.77141297309509"><ele>800.0</ele><time>2026-05-03T07:19:13.999Z</time></trkpt><trkpt lat="42.94887362159284" lon="12.771556346275077"><ele>800.0</ele><time>2026-05-03T07:19:14.999Z</time></trkpt><trkpt lat="42.948855960957374" lon="12.771693395231376"><ele>800.0</ele><time>2026-05-03T07:19:15.999Z</time></trkpt><trkpt lat="42.94883987278197" lon="12.771842660769046"><ele>800.0</ele><time>2026-05-03T07:19:16.999Z</time></trkpt><trkpt lat="42.94881661017733" lon="12.771987017835569"><ele>800.0</ele><time>2026-05-03T07:19:17.999Z</time></trkpt><trkpt lat="42.94879710037201" lon="12.772107681785215"><ele>800.0</ele><time>2026-05-03T07:19:18.999Z</time></trkpt><trkpt lat="42.94878179685772" lon="12.772224988720126"><ele>799.8</ele><time>2026-05-03T07:19:19.999Z</time></trkpt><trkpt lat="42.94876603394244" lon="12.772336337410465"><ele>799.6</ele><time>2026-05-03T07:19:20.999Z</time></trkpt><trkpt lat="42.948746349185924" lon="12.77248092769442"><ele>799.4000000000001</ele><time>2026-05-03T07:19:21.999Z</time></trkpt><trkpt lat="42.94871615489895" lon="12.772642873700118"><ele>799.2</ele><time>2026-05-03T07:19:22.999Z</time></trkpt><trkpt lat="42.94869126134424" lon="12.7727639670431"><ele>799.0</ele><time>2026-05-03T07:19:23.999Z</time></trkpt><trkpt lat="42.948668181291296" lon="12.772903292539297"><ele>798.4000000000001</ele><time>2026-05-03T07:19:24.999Z</time></trkpt><trkpt lat="42.9486465095421" lon="12.77303789505092"><ele>797.8</ele><time>2026-05-03T07:19:25.999Z</time></trkpt><trkpt lat="42.948624231688996" lon="12.773149707407281"><ele>797.2</ele><time>2026-05-03T07:19:26.999Z</time></trkpt><trkpt lat="42.948595551212236" lon="12.773268328528372"><ele>796.5999999999999</ele><time>2026-05-03T07:19:27.999Z</time></trkpt><trkpt lat="42.94856814840006" lon="12.773403790403387"><ele>796.0</ele><time>2026-05-03T07:19:28.999Z</time></trkpt><trkpt lat="42.94855658001671" lon="12.773529934069133"><ele>795.4</ele><time>2026-05-03T07:19:29.999Z</time></trkpt><trkpt lat="42.94853251961374" lon="12.773648801183812"><ele>794.8</ele><time>2026-05-03T07:19:30.999Z</time></trkpt><trkpt lat="42.9485101705747" lon="12.773768772339125"><ele>794.1999999999999</ele><time>2026-05-03T07:19:31.999Z</time></trkpt><trkpt lat="42.94850271961108" lon="12.773894786750724"><ele>793.5999999999999</ele><time>2026-05-03T07:19:32.999Z</time></trkpt><trkpt lat="42.94848639481274" lon="12.774011333774068"><ele>793.0</ele><time>2026-05-03T07:19:33.999Z</time></trkpt><trkpt lat="42.94845373231849" lon="12.774139932897507"><ele>792.9999999999999</ele><time>2026-05-03T07:19:34.999Z</time></trkpt><trkpt lat="42.9484252941452" lon="12.774264587229974"><ele>793.0</ele><time>2026-05-03T07:19:35.999Z</time></trkpt><trkpt lat="42.94839997952481" lon="12.774387598459436"><ele>793.0</ele><time>2026-05-03T07:19:36.999Z</time></trkpt><trkpt lat="42.94837299016743" lon="12.77447384122222"><ele>793.0</ele><time>2026-05-03T07:19:37.999Z</time></trkpt><trkpt lat="42.948351066942706" lon="12.774588616957006"><ele>792.9999999999999</ele><time>2026-05-03T07:19:38.999Z</time></trkpt><trkpt lat="42.94832518410061" lon="12.774718073958468"><ele>793.0</ele><time>2026-05-03T07:19:39.999Z</time></trkpt><trkpt lat="42.94830887719088" lon="12.77485105567065"><ele>800.0</ele><time>2026-05-03T07:19:40.999Z</time></trkpt><trkpt lat="42.948274877155924" lon="12.774988811068239"><ele>807.0</ele><time>2026-05-03T07:19:41.999Z</time></trkpt><trkpt lat="42.94823869532623" lon="12.775113308088041"><ele>814.0</ele><time>2026-05-03T07:19:42.999Z</time></trkpt><trkpt lat="42.948203477658154" lon="12.775230540572716"><ele>821.0</ele><time>2026-05-03T07:19:43.999Z</time></trkpt><trkpt lat="42.94816536197162" lon="12.775339446931786"><ele>828.0</ele><time>2026-05-03T07:19:44.999Z</time></trkpt><trkpt lat="42.94811959629663" lon="12.77543976453228"><ele>828.0</ele><time>2026-05-03T07:19:45.999Z</time></trkpt><trkpt lat="42.948071421608034" lon="12.775553257213945"><ele>828.0</ele><time>2026-05-03T07:19:46.999Z</time></trkpt><trkpt lat="42.94801106107301" lon="12.775654656537471"><ele>828.0</ele><time>2026-05-03T07:19:47.999Z</time></trkpt><trkpt lat="42.94794075154674" lon="12.775751637807444"><ele>828.0</ele><time>2026-05-03T07:19:48.999Z</time></trkpt><trkpt lat="42.94786613649331" lon="12.77583882983436"><ele>828.0</ele><time>2026-05-03T07:19:49.999Z</time></trkpt><trkpt lat="42.94779153850941" lon="12.775932327358092"><ele>832.0</ele><time>2026-05-03T07:19:50.999Z</time></trkpt><trkpt lat="42.9477153122934" lon="12.776025192695245"><ele>836.0</ele><time>2026-05-03T07:19:51.999Z</time></trkpt><trkpt lat="42.947636170402056" lon="12.776113117464064"><ele>840.0</ele><time>2026-05-03T07:19:52.999Z</time></trkpt><trkpt lat="42.947564415995586" lon="12.7761926410393"><ele>844.0</ele><time>2026-05-03T07:19:53.999Z</time></trkpt><trkpt lat="42.947477061480065" lon="12.776289162675537"><ele>848.0</ele><time>2026-05-03T07:19:54.999Z</time></trkpt><trkpt lat="42.94737911931015" lon="12.776385450996155"><ele>848.0</ele><time>2026-05-03T07:19:55.999Z</time></trkpt><trkpt lat="42.94729270414008" lon="12.776472054568211"><ele>848.0</ele><time>2026-05-03T07:19:56.999Z</time></trkpt><trkpt lat="42.94720393097373" lon="12.776569017578389"><ele>848.0</ele><time>2026-05-03T07:19:57.999Z</time></trkpt><trkpt lat="42.94711906234512" lon="12.776680225028702"><ele>848.0</ele><time>2026-05-03T07:19:58.999Z</time></trkpt><trkpt lat="42.9470352642618" lon="12.776794220563325"><ele>844.5999999999999</ele><time>2026-05-03T07:19:59.999Z</time></trkpt><trkpt lat="42.94694878539428" lon="12.776905714281611"><ele>841.1999999999999</ele><time>2026-05-03T07:20:00.999Z</time></trkpt><trkpt lat="42.946869226370964" lon="12.77702056111643"><ele>837.8</ele><time>2026-05-03T07:20:01.999Z</time></trkpt><trkpt lat="42.94680091237419" lon="12.777121498959357"><ele>834.4</ele><time>2026-05-03T07:20:02.999Z</time></trkpt><trkpt lat="42.94672651965458" lon="12.777212875236767"><ele>831.0</ele><time>2026-05-03T07:20:03.999Z</time></trkpt><trkpt lat="42.946662161187746" lon="12.777326973111883"><ele>838.3333333333334</ele><time>2026-05-03T07:20:04.999Z</time></trkpt><trkpt lat="42.94661784123089" lon="12.777435630340396"><ele>845.6666666666667</ele><time>2026-05-03T07:20:05.999Z</time></trkpt><trkpt lat="42.94659741569143" lon="12.777547639403524"><ele>853.0</ele><time>2026-05-03T07:20:06.999Z</time></trkpt><trkpt lat="42.94657098728929" lon="12.777665450405307"><ele>860.3333333333334</ele><time>2026-05-03T07:20:07.999Z</time></trkpt><trkpt lat="42.9465564034945" lon="12.777792310089119"><ele>867.6666666666667</ele><time>2026-05-03T07:20:08.999Z</time></trkpt><trkpt lat="42.946537212726966" lon="12.777911268292367"><ele>875.0</ele><time>2026-05-03T07:20:09.999Z</time></trkpt><trkpt lat="42.946525492404035" lon="12.778042263523998"><ele>875.0000000000001</ele><time>2026-05-03T07:20:10.999Z</time></trkpt><trkpt lat="42.946510077265195" lon="12.778165173944267"><ele>875.0</ele><time>2026-05-03T07:20:11.999Z</time></trkpt><trkpt lat="42.94649495752807" lon="12.778285003906175"><ele>875.0</ele><time>2026-05-03T07:20:12.999Z</time></trkpt><trkpt lat="42.94649163285833" lon="12.778398148846094"><ele>875.0</ele><time>2026-05-03T07:20:13.999Z</time></trkpt><trkpt lat="42.94649507095996" lon="12.77851369913785"><ele>875.0000000000001</ele><time>2026-05-03T07:20:14.999Z</time></trkpt><trkpt lat="42.94649308897555" lon="12.778616129880474"><ele>875.0</ele><time>2026-05-03T07:20:15.999Z</time></trkpt><trkpt lat="42.94648951281239" lon="12.778717012253802"><ele>874.8333333333334</ele><time>2026-05-03T07:20:17Z</time></trkpt><trkpt lat="42.94648254900846" lon="12.778831859555684"><ele>874.6666666666667</ele><time>2026-05-03T07:20:18Z</time></trkpt><trkpt lat="42.94647579810501" lon="12.778937431818"><ele>874.5</ele><time>2026-05-03T07:20:19Z</time></trkpt><trkpt lat="42.94646790490585" lon="12.77904275891899"><ele>874.3333333333333</ele><time>2026-05-03T07:20:20Z</time></trkpt><trkpt lat="42.94644771102898" lon="12.779151749217036"><ele>874.1666666666666</ele><time>2026-05-03T07:20:21Z</time></trkpt><trkpt lat="42.94642482373143" lon="12.779265264716127"><ele>874.0</ele><time>2026-05-03T07:20:22Z</time></trkpt><trkpt lat="42.94641103149205" lon="12.779377378110253"><ele>873.4000000000001</ele><time>2026-05-03T07:20:23Z</time></trkpt><trkpt lat="42.94640561323419" lon="12.779492827250033"><ele>872.8000000000001</ele><time>2026-05-03T07:20:24Z</time></trkpt><trkpt lat="42.94638660895227" lon="12.779616821300229"><ele>872.1999999999999</ele><time>2026-05-03T07:20:25Z</time></trkpt><trkpt lat="42.94635684988535" lon="12.779740114476493"><ele>871.5999999999999</ele><time>2026-05-03T07:20:26Z</time></trkpt><trkpt lat="42.946334194247214" lon="12.779865071644624"><ele>871.0</ele><time>2026-05-03T07:20:27Z</time></trkpt><trkpt lat="42.946337522700816" lon="12.77997828765352"><ele>870.9999999999999</ele><time>2026-05-03T07:20:28Z</time></trkpt><trkpt lat="42.94635270748618" lon="12.780098829141142"><ele>871.0</ele><time>2026-05-03T07:20:29Z</time></trkpt><trkpt lat="42.946361957564484" lon="12.780218282291088"><ele>871.0</ele><time>2026-05-03T07:20:30Z</time></trkpt><trkpt lat="42.946361355780255" lon="12.780339019360573"><ele>871.0</ele><time>2026-05-03T07:20:31Z</time></trkpt><trkpt lat="42.94634634153832" lon="12.780448039539575"><ele>870.9999999999999</ele><time>2026-05-03T07:20:32Z</time></trkpt><trkpt lat="42.94632921992493" lon="12.780556246336701"><ele>871.0</ele><time>2026-05-03T07:20:33Z</time></trkpt><trkpt lat="42.94629755570641" lon="12.780643180051907"><ele>872.6666666666666</ele><time>2026-05-03T07:20:34Z</time></trkpt><trkpt lat="42.94621756530543" lon="12.78077730394661"><ele>874.3333333333333</ele><time>2026-05-03T07:20:36Z</time></trkpt><trkpt lat="42.94617141835138" lon="12.780850195778937"><ele>876.0</ele><time>2026-05-03T07:20:37Z</time></trkpt><trkpt lat="42.94611284875438" lon="12.780938155462128"><ele>877.6666666666667</ele><time>2026-05-03T07:20:38Z</time></trkpt><trkpt lat="42.946054306538" lon="12.781002634899325"><ele>879.3333333333334</ele><time>2026-05-03T07:20:39Z</time></trkpt><trkpt lat="42.94598786308019" lon="12.781060951091376"><ele>881.0</ele><time>2026-05-03T07:20:40Z</time></trkpt><trkpt lat="42.94591309603262" lon="12.7811341297698"><ele>885.6666666666667</ele><time>2026-05-03T07:20:41Z</time></trkpt><trkpt lat="42.94584844780445" lon="12.78121036180934"><ele>890.3333333333334</ele><time>2026-05-03T07:20:42Z</time></trkpt><trkpt lat="42.94578395161148" lon="12.78128131159613"><ele>895.0</ele><time>2026-05-03T07:20:43Z</time></trkpt><trkpt lat="42.94572270763018" lon="12.781338058058113"><ele>899.6666666666667</ele><time>2026-05-03T07:20:44Z</time></trkpt><trkpt lat="42.94565155978616" lon="12.78138859184726"><ele>904.3333333333334</ele><time>2026-05-03T07:20:45Z</time></trkpt><trkpt lat="42.94558637277973" lon="12.781435103066961"><ele>909.0</ele><time>2026-05-03T07:20:46Z</time></trkpt><trkpt lat="42.945539662912665" lon="12.781493101159684"><ele>909.0</ele><time>2026-05-03T07:20:47Z</time></trkpt><trkpt lat="42.94552314139832" lon="12.781588776585828"><ele>909.0</ele><time>2026-05-03T07:20:49Z</time></trkpt><trkpt lat="42.94549640644914" lon="12.78168613811598"><ele>909.0</ele><time>2026-05-03T07:20:51Z</time></trkpt><trkpt lat="42.9455155719525" lon="12.781812360766837"><ele>909.0</ele><time>2026-05-03T07:20:53Z</time></trkpt><trkpt lat="42.945515010407135" lon="12.781942106900233"><ele>909.0</ele><time>2026-05-03T07:20:55Z</time></trkpt><trkpt lat="42.94554260553815" lon="12.78204581074527"><ele>909.0</ele><time>2026-05-03T07:20:57Z</time></trkpt><trkpt lat="42.94556825202705" lon="12.782139829125565"><ele>909.5</ele><time>2026-05-03T07:21:03Z</time></trkpt><trkpt lat="42.9456352256676" lon="12.782358484503314"><ele>910.0</ele><time>2026-05-03T07:22:28Z</time></trkpt><trkpt lat="42.94567924821049" lon="12.782483771160306"><ele>910.5</ele><time>2026-05-03T07:22:29Z</time></trkpt><trkpt lat="42.94571509098388" lon="12.782609780212928"><ele>911.0</ele><time>2026-05-03T07:22:30Z</time></trkpt><trkpt lat="42.945739228046776" lon="12.782714755974695"><ele>914.0000000000001</ele><time>2026-05-03T07:22:31Z</time></trkpt><trkpt lat="42.94576935410453" lon="12.782826567043411"><ele>917.0</ele><time>2026-05-03T07:22:32Z</time></trkpt><trkpt lat="42.945807938213584" lon="12.782918968778935"><ele>920.0</ele><time>2026-05-03T07:22:33Z</time></trkpt><trkpt lat="42.94586622384858" lon="12.782976018876386"><ele>923.0</ele><time>2026-05-03T07:22:34Z</time></trkpt><trkpt lat="42.94593777172291" lon="12.7830021560031"><ele>926.0000000000001</ele><time>2026-05-03T07:22:35Z</time></trkpt><trkpt lat="42.94601880536756" lon="12.782965363008014"><ele>929.0</ele><time>2026-05-03T07:22:36Z</time></trkpt><trkpt lat="42.946091574506866" lon="12.782926493445208"><ele>929.0000000000001</ele><time>2026-05-03T07:22:37Z</time></trkpt><trkpt lat="42.946194453564125" lon="12.783015875336794"><ele>929.0</ele><time>2026-05-03T07:22:39Z</time></trkpt><trkpt lat="42.94623726924017" lon="12.78309742310639"><ele>929.0</ele><time>2026-05-03T07:22:40Z</time></trkpt><trkpt lat="42.94629585771753" lon="12.78317113286167"><ele>929.0</ele><time>2026-05-03T07:22:41Z</time></trkpt><trkpt lat="42.94636278257792" lon="12.783234043909417"><ele>929.0000000000001</ele><time>2026-05-03T07:22:42Z</time></trkpt><trkpt lat="42.94643282183455" lon="12.783266045325767"><ele>929.0</ele><time>2026-05-03T07:22:43Z</time></trkpt><trkpt lat="42.94650007035369" lon="12.783294977298715"><ele>929.0000000000001</ele><time>2026-05-03T07:22:44Z</time></trkpt><trkpt lat="42.94663525297459" lon="12.783351938845485"><ele>929.0</ele><time>2026-05-03T07:22:46Z</time></trkpt><trkpt lat="42.94669799904136" lon="12.783399698740467"><ele>929.0</ele><time>2026-05-03T07:22:47Z</time></trkpt><trkpt lat="42.94675553730557" lon="12.783444992495552"><ele>929.0</ele><time>2026-05-03T07:22:48Z</time></trkpt><trkpt lat="42.946821526353666" lon="12.783474886517498"><ele>929.0000000000001</ele><time>2026-05-03T07:22:49Z</time></trkpt><trkpt lat="42.94688276538003" lon="12.783497468333756"><ele>929.0</ele><time>2026-05-03T07:22:50Z</time></trkpt><trkpt lat="42.946940487151664" lon="12.783551484639702"><ele>927.4000000000001</ele><time>2026-05-03T07:22:51Z</time></trkpt><trkpt lat="42.947002545404395" lon="12.783678742674725"><ele>925.8000000000001</ele><time>2026-05-03T07:22:53Z</time></trkpt><trkpt lat="42.94703859598664" lon="12.783836498400346"><ele>924.1999999999999</ele><time>2026-05-03T07:22:55Z</time></trkpt><trkpt lat="42.94704052027707" lon="12.783924278948133"><ele>922.5999999999999</ele><time>2026-05-03T07:22:56Z</time></trkpt><trkpt lat="42.947012975262865" lon="12.78406952302458"><ele>921.0</ele><time>2026-05-03T07:22:58Z</time></trkpt><trkpt lat="42.94700372837275" lon="12.784233452706133"><ele>921.3333333333334</ele><time>2026-05-03T07:23:00Z</time></trkpt><trkpt lat="42.9469950610055" lon="12.784353365997875"><ele>921.6666666666667</ele><time>2026-05-03T07:23:01Z</time></trkpt><trkpt lat="42.946991416262506" lon="12.78447812808947"><ele>922.0</ele><time>2026-05-03T07:23:02Z</time></trkpt><trkpt lat="42.94698758246042" lon="12.784595265715799"><ele>922.3333333333334</ele><time>2026-05-03T07:23:03Z</time></trkpt><trkpt lat="42.94699002517875" lon="12.784687178740771"><ele>922.6666666666667</ele><time>2026-05-03T07:23:04Z</time></trkpt><trkpt lat="42.94699281529346" lon="12.784787206098741"><ele>923.0</ele><time>2026-05-03T07:23:05Z</time></trkpt><trkpt lat="42.946993185187644" lon="12.784902318014472"><ele>923.0000000000001</ele><time>2026-05-03T07:23:06Z</time></trkpt><trkpt lat="42.94698473424395" lon="12.784999518051555"><ele>923.0</ele><time>2026-05-03T07:23:07Z</time></trkpt><trkpt lat="42.94696580032827" lon="12.785093281424839"><ele>923.0</ele><time>2026-05-03T07:23:08Z</time></trkpt><trkpt lat="42.94694845224762" lon="12.785184328671997"><ele>923.0</ele><time>2026-05-03T07:23:09Z</time></trkpt><trkpt lat="42.94691592828914" lon="12.785355390511983"><ele>923.0000000000001</ele><time>2026-05-03T07:23:10.999Z</time></trkpt><trkpt lat="42.94689789942699" lon="12.7854608747795"><ele>923.0</ele><time>2026-05-03T07:23:11.999Z</time></trkpt><trkpt lat="42.94688024539099" lon="12.785553623595295"><ele>923.3333333333334</ele><time>2026-05-03T07:23:12.999Z</time></trkpt><trkpt lat="42.946861934082705" lon="12.785641926799162"><ele>923.6666666666667</ele><time>2026-05-03T07:23:13.999Z</time></trkpt><trkpt lat="42.94684275846582" lon="12.78573806590053"><ele>924.0</ele><time>2026-05-03T07:23:14.999Z</time></trkpt><trkpt lat="42.94681312655722" lon="12.785833908516937"><ele>924.3333333333333</ele><time>2026-05-03T07:23:15.999Z</time></trkpt><trkpt lat="42.94678386406097" lon="12.785938436696094"><ele>924.6666666666666</ele><time>2026-05-03T07:23:16.999Z</time></trkpt><trkpt lat="42.94676719147691" lon="12.786039107460402"><ele>925.0</ele><time>2026-05-03T07:23:17.999Z</time></trkpt><trkpt lat="42.946751748405354" lon="12.786146779510714"><ele>924.3333333333333</ele><time>2026-05-03T07:23:18.999Z</time></trkpt><trkpt lat="42.94673926813647" lon="12.786242480963265"><ele>923.6666666666666</ele><time>2026-05-03T07:23:19.999Z</time></trkpt><trkpt lat="42.94672551492764" lon="12.786338573591394"><ele>923.0</ele><time>2026-05-03T07:23:20.999Z</time></trkpt><trkpt lat="42.94671362783416" lon="12.786430986730574"><ele>922.3333333333333</ele><time>2026-05-03T07:23:21.999Z</time></trkpt><trkpt lat="42.946693047332865" lon="12.786563364599946"><ele>921.6666666666666</ele><time>2026-05-03T07:23:23.999Z</time></trkpt><trkpt lat="42.94668280912022" lon="12.7866577907447"><ele>921.0</ele><time>2026-05-03T07:23:24.999Z</time></trkpt><trkpt lat="42.94667678025715" lon="12.786816020999776"><ele>923.0</ele><time>2026-05-03T07:23:26.999Z</time></trkpt><trkpt lat="42.946623118381716" lon="12.78686935366901"><ele>925.0</ele><time>2026-05-03T07:23:27.999Z</time></trkpt><trkpt lat="42.946544605868276" lon="12.786906969834284"><ele>927.0</ele><time>2026-05-03T07:23:28.999Z</time></trkpt><trkpt lat="42.946479387974584" lon="12.786944938632512"><ele>929.0</ele><time>2026-05-03T07:23:29.999Z</time></trkpt><trkpt lat="42.946416183821825" lon="12.7870366305661"><ele>931.0</ele><time>2026-05-03T07:23:31.999Z</time></trkpt><trkpt lat="42.94636815020891" lon="12.787158732165175"><ele>933.0</ele><time>2026-05-03T07:23:33.999Z</time></trkpt><trkpt lat="42.94633743909466" lon="12.787235751778983"><ele>933.0</ele><time>2026-05-03T07:23:34.999Z</time></trkpt><trkpt lat="42.9463071635544" lon="12.787332106104241"><ele>932.9999999999999</ele><time>2026-05-03T07:23:35.999Z</time></trkpt><trkpt lat="42.94630470744207" lon="12.78743386789014"><ele>933.0</ele><time>2026-05-03T07:23:36.999Z</time></trkpt><trkpt lat="42.94629949687991" lon="12.787529607490512"><ele>933.0</ele><time>2026-05-03T07:23:37.999Z</time></trkpt><trkpt lat="42.946270936414635" lon="12.787618289334787"><ele>932.9999999999999</ele><time>2026-05-03T07:23:38.999Z</time></trkpt><trkpt lat="42.94622348894381" lon="12.787687437046774"><ele>933.0</ele><time>2026-05-03T07:23:39.999Z</time></trkpt><trkpt lat="42.94617568845154" lon="12.787756945325242"><ele>933.0</ele><time>2026-05-03T07:23:40.999Z</time></trkpt><trkpt lat="42.94614353315626" lon="12.787853569984616"><ele>934.5</ele><time>2026-05-03T07:23:41.999Z</time></trkpt><trkpt lat="42.946112088600586" lon="12.787936215777961"><ele>936.0</ele><time>2026-05-03T07:23:42.999Z</time></trkpt><trkpt lat="42.94603435421645" lon="12.788039780058337"><ele>937.5</ele><time>2026-05-03T07:23:44.999Z</time></trkpt><trkpt lat="42.94598090603675" lon="12.788114111120871"><ele>939.0</ele><time>2026-05-03T07:23:47.999Z</time></trkpt><trkpt lat="42.94593453618846" lon="12.788204726044393"><ele>940.5</ele><time>2026-05-03T07:23:49.999Z</time></trkpt><trkpt lat="42.945917851751524" lon="12.788306826899033"><ele>942.0</ele><time>2026-05-03T07:23:51.999Z</time></trkpt><trkpt lat="42.945873901517665" lon="12.788422241216816"><ele>942.0</ele><time>2026-05-03T07:23:53.999Z</time></trkpt><trkpt lat="42.94579716474496" lon="12.788494369777695"><ele>942.0</ele><time>2026-05-03T07:23:54.999Z</time></trkpt><trkpt lat="42.945720863678424" lon="12.788564326426174"><ele>942.0</ele><time>2026-05-03T07:23:55.999Z</time></trkpt><trkpt lat="42.945661830565285" lon="12.788666193508469"><ele>942.0</ele><time>2026-05-03T07:23:56.999Z</time></trkpt><trkpt lat="42.945585653535" lon="12.788728339060007"><ele>942.0</ele><time>2026-05-03T07:23:58.999Z</time></trkpt><trkpt lat="42.94547584794885" lon="12.788778223964622"><ele>942.4000000000001</ele><time>2026-05-03T07:24:00.999Z</time></trkpt><trkpt lat="42.945358015046914" lon="12.788833400400382"><ele>942.8000000000001</ele><time>2026-05-03T07:24:02.999Z</time></trkpt><trkpt lat="42.945301122148614" lon="12.788876769602435"><ele>943.2</ele><time>2026-05-03T07:24:03.999Z</time></trkpt><trkpt lat="42.94524809999695" lon="12.788959894588544"><ele>943.6</ele><time>2026-05-03T07:24:04.999Z</time></trkpt><trkpt lat="42.94517017245117" lon="12.789009446007237"><ele>944.0</ele><time>2026-05-03T07:24:05.999Z</time></trkpt><trkpt lat="42.94508364231526" lon="12.789066627423852"><ele>946.6</ele><time>2026-05-03T07:24:06.999Z</time></trkpt><trkpt lat="42.94501281015162" lon="12.789120801807222"><ele>949.2</ele><time>2026-05-03T07:24:07.999Z</time></trkpt><trkpt lat="42.944958401318054" lon="12.78917592012136"><ele>951.8000000000001</ele><time>2026-05-03T07:24:08.999Z</time></trkpt><trkpt lat="42.94486466462555" lon="12.789285148038685"><ele>954.4000000000001</ele><time>2026-05-03T07:24:10.999Z</time></trkpt><trkpt lat="42.94480423044427" lon="12.789349255934287"><ele>957.0</ele><time>2026-05-03T07:24:11.999Z</time></trkpt><trkpt lat="42.94470654426104" lon="12.789450305816603"><ele>957.0</ele><time>2026-05-03T07:24:13.999Z</time></trkpt><trkpt lat="42.94465604242639" lon="12.789512909391423"><ele>957.0</ele><time>2026-05-03T07:24:14.999Z</time></trkpt><trkpt lat="42.94458593454" lon="12.789613567313191"><ele>957.0</ele><time>2026-05-03T07:24:16.999Z</time></trkpt><trkpt lat="42.94451846151862" lon="12.78968670545845"><ele>957.0</ele><time>2026-05-03T07:24:17.999Z</time></trkpt><trkpt lat="42.94444983431492" lon="12.789728276655767"><ele>957.0</ele><time>2026-05-03T07:24:18.999Z</time></trkpt><trkpt lat="42.944348048521825" lon="12.789717953715142"><ele>957.0</ele><time>2026-05-03T07:24:20.999Z</time></trkpt><trkpt lat="42.94427895178995" lon="12.789728862171318"><ele>959.0</ele><time>2026-05-03T07:24:24.999Z</time></trkpt><trkpt lat="42.94418214577009" lon="12.78979038719955"><ele>961.0</ele><time>2026-05-03T07:38:23.999Z</time></trkpt><trkpt lat="42.944075194977174" lon="12.789813638907928"><ele>963.0</ele><time>2026-05-03T07:38:25.999Z</time></trkpt><trkpt lat="42.94398593192063" lon="12.78981975705421"><ele>965.0</ele><time>2026-05-03T07:38:26.999Z</time></trkpt><trkpt lat="42.94388254955818" lon="12.78986617542114"><ele>967.0</ele><time>2026-05-03T07:38:28.999Z</time></trkpt><trkpt lat="42.94383232342524" lon="12.790001194696506"><ele>967.0</ele><time>2026-05-03T07:38:31.999Z</time></trkpt><trkpt lat="42.943785136790005" lon="12.790061963853493"><ele>967.0</ele><time>2026-05-03T07:38:33.999Z</time></trkpt><trkpt lat="42.943713994293375" lon="12.790128993483556"><ele>967.0</ele><time>2026-05-03T07:38:35.999Z</time></trkpt><trkpt lat="42.94365980735169" lon="12.790187729155333"><ele>967.0</ele><time>2026-05-03T07:38:37.999Z</time></trkpt><trkpt lat="42.94359400233948" lon="12.790226965119917"><ele>967.0</ele><time>2026-05-03T07:38:38.999Z</time></trkpt><trkpt lat="42.94352547813757" lon="12.790272401397129"><ele>967.0</ele><time>2026-05-03T07:38:39.999Z</time></trkpt><trkpt lat="42.94346561156039" lon="12.7903165384816"><ele>967.0</ele><time>2026-05-03T07:38:40.999Z</time></trkpt><trkpt lat="42.94339020417306" lon="12.790405046278684"><ele>969.2</ele><time>2026-05-03T07:38:42.999Z</time></trkpt><trkpt lat="42.94330751596462" lon="12.790509221361203"><ele>971.4000000000001</ele><time>2026-05-03T07:38:44.999Z</time></trkpt><trkpt lat="42.94325634655104" lon="12.790574966649345"><ele>973.5999999999999</ele><time>2026-05-03T07:38:45.999Z</time></trkpt><trkpt lat="42.94317802680428" lon="12.790615670295521"><ele>975.8</ele><time>2026-05-03T07:38:46.999Z</time></trkpt><trkpt lat="42.94311160937479" lon="12.79068671438827"><ele>978.0</ele><time>2026-05-03T07:38:47.999Z</time></trkpt><trkpt lat="42.94302754080284" lon="12.790782679335706"><ele>978.0</ele><time>2026-05-03T07:38:49.999Z</time></trkpt><trkpt lat="42.94298367468235" lon="12.790928943542914"><ele>978.0</ele><time>2026-05-03T07:38:51.999Z</time></trkpt><trkpt lat="42.9428824933423" lon="12.791013719698519"><ele>978.0</ele><time>2026-05-03T07:38:53.999Z</time></trkpt><trkpt lat="42.94287756489797" lon="12.791126216395964"><ele>978.0</ele><time>2026-05-03T07:39:06.999Z</time></trkpt><trkpt lat="42.94296266325597" lon="12.791281487833672"><ele>978.8333333333334</ele><time>2026-05-03T07:39:13Z</time></trkpt><trkpt lat="42.94303052768097" lon="12.79132151633066"><ele>979.6666666666667</ele><time>2026-05-03T07:39:14Z</time></trkpt><trkpt lat="42.94309521375891" lon="12.791392759308168"><ele>980.5</ele><time>2026-05-03T07:39:15Z</time></trkpt><trkpt lat="42.94314546036534" lon="12.791482096408755"><ele>981.3333333333334</ele><time>2026-05-03T07:39:16Z</time></trkpt><trkpt lat="42.94318868528495" lon="12.791564477785734"><ele>982.1666666666667</ele><time>2026-05-03T07:39:17Z</time></trkpt><trkpt lat="42.94319605137667" lon="12.791685905503684"><ele>983.0</ele><time>2026-05-03T07:39:19Z</time></trkpt><trkpt lat="42.943110491472225" lon="12.791761380433844"><ele>983.0000000000001</ele><time>2026-05-03T07:39:21Z</time></trkpt><trkpt lat="42.94301975000357" lon="12.791826098095967"><ele>983.0</ele><time>2026-05-03T07:39:22Z</time></trkpt><trkpt lat="42.942940345849465" lon="12.791906956965336"><ele>983.0</ele><time>2026-05-03T07:39:23Z</time></trkpt><trkpt lat="42.942863915786326" lon="12.791959854371182"><ele>983.0</ele><time>2026-05-03T07:39:24Z</time></trkpt><trkpt lat="42.94279747295674" lon="12.792003445935917"><ele>983.0000000000001</ele><time>2026-05-03T07:39:25Z</time></trkpt><trkpt lat="42.942729698438065" lon="12.792067579816681"><ele>983.0</ele><time>2026-05-03T07:39:26Z</time></trkpt><trkpt lat="42.94265996562535" lon="12.792150912550241"><ele>984.2</ele><time>2026-05-03T07:39:27Z</time></trkpt><trkpt lat="42.94259722231751" lon="12.792231010251703"><ele>985.4</ele><time>2026-05-03T07:39:28Z</time></trkpt><trkpt lat="42.94253365319497" lon="12.792295164527726"><ele>986.6000000000001</ele><time>2026-05-03T07:39:29Z</time></trkpt><trkpt lat="42.94247299936615" lon="12.792322276072747"><ele>987.8000000000001</ele><time>2026-05-03T07:39:30Z</time></trkpt><trkpt lat="42.9423409984038" lon="12.79237357695888"><ele>989.0</ele><time>2026-05-03T07:39:32Z</time></trkpt><trkpt lat="42.94226250972192" lon="12.792427990228095"><ele>989.0</ele><time>2026-05-03T07:39:33Z</time></trkpt><trkpt lat="42.94220157255109" lon="12.792494929410369"><ele>989.0000000000001</ele><time>2026-05-03T07:39:34Z</time></trkpt><trkpt lat="42.94213511712102" lon="12.79260353148675"><ele>989.0000000000001</ele><time>2026-05-03T07:39:35Z</time></trkpt><trkpt lat="42.942073320896284" lon="12.792721703975017"><ele>989.0</ele><time>2026-05-03T07:39:36Z</time></trkpt><trkpt lat="42.94200739742522" lon="12.792802178801425"><ele>989.0</ele><time>2026-05-03T07:39:37Z</time></trkpt><trkpt lat="42.941961937591685" lon="12.792922183775545"><ele>989.0</ele><time>2026-05-03T07:39:38Z</time></trkpt><trkpt lat="42.94193173408695" lon="12.79301221514192"><ele>989.0000000000001</ele><time>2026-05-03T07:39:39Z</time></trkpt><trkpt lat="42.941946034775185" lon="12.793182431767564"><ele>989.0000000000001</ele><time>2026-05-03T07:39:41Z</time></trkpt><trkpt lat="42.94198070316296" lon="12.793291202915025"><ele>989.0</ele><time>2026-05-03T07:39:42Z</time></trkpt><trkpt lat="42.94200763633404" lon="12.79340487841983"><ele>989.0</ele><time>2026-05-03T07:39:43Z</time></trkpt><trkpt lat="42.94203607007155" lon="12.793519730041348"><ele>986.8000000000001</ele><time>2026-05-03T07:39:44Z</time></trkpt><trkpt lat="42.942061166175414" lon="12.79363294223739"><ele>984.6000000000001</ele><time>2026-05-03T07:39:45Z</time></trkpt><trkpt lat="42.942074030853924" lon="12.793749708495337"><ele>982.4</ele><time>2026-05-03T07:39:46Z</time></trkpt><trkpt lat="42.94209480814832" lon="12.793869912022696"><ele>980.2</ele><time>2026-05-03T07:39:47Z</time></trkpt><trkpt lat="42.94211396407291" lon="12.793996942190017"><ele>978.0</ele><time>2026-05-03T07:39:48Z</time></trkpt><trkpt lat="42.94214155370895" lon="12.79412200213266"><ele>978.0</ele><time>2026-05-03T07:39:49Z</time></trkpt><trkpt lat="42.94216485063053" lon="12.794238272385094"><ele>978.0</ele><time>2026-05-03T07:39:50Z</time></trkpt><trkpt lat="42.94220278979954" lon="12.794360039519919"><ele>978.0</ele><time>2026-05-03T07:39:51Z</time></trkpt><trkpt lat="42.94223935416163" lon="12.794495790771391"><ele>978.0</ele><time>2026-05-03T07:39:52Z</time></trkpt><trkpt lat="42.94226359562203" lon="12.794628895943989"><ele>978.0</ele><time>2026-05-03T07:39:53Z</time></trkpt><trkpt lat="42.942264652076865" lon="12.794755641518309"><ele>977.8</ele><time>2026-05-03T07:39:54Z</time></trkpt><trkpt lat="42.94222738789571" lon="12.794900238035591"><ele>977.5999999999999</ele><time>2026-05-03T07:39:55Z</time></trkpt><trkpt lat="42.94217498833706" lon="12.795044753627867"><ele>977.4000000000001</ele><time>2026-05-03T07:39:56Z</time></trkpt><trkpt lat="42.942129762875126" lon="12.79516137812488"><ele>977.2</ele><time>2026-05-03T07:39:57Z</time></trkpt><trkpt lat="42.94208943727623" lon="12.795276261394283"><ele>977.0</ele><time>2026-05-03T07:39:58Z</time></trkpt><trkpt lat="42.94206341621858" lon="12.79539614140806"><ele>978.0</ele><time>2026-05-03T07:39:59Z</time></trkpt><trkpt lat="42.942029191345476" lon="12.795526213459075"><ele>979.0</ele><time>2026-05-03T07:40:00Z</time></trkpt><trkpt lat="42.94198601837869" lon="12.79565804048791"><ele>980.0</ele><time>2026-05-03T07:40:01Z</time></trkpt><trkpt lat="42.94194842573777" lon="12.795799650094581"><ele>981.0</ele><time>2026-05-03T07:40:02Z</time></trkpt><trkpt lat="42.94192016501841" lon="12.795942519376274"><ele>982.0</ele><time>2026-05-03T07:40:03Z</time></trkpt><trkpt lat="42.94191089600153" lon="12.796073587144981"><ele>982.0</ele><time>2026-05-03T07:40:04Z</time></trkpt><trkpt lat="42.941903349709555" lon="12.796193319906655"><ele>982.0</ele><time>2026-05-03T07:40:05Z</time></trkpt><trkpt lat="42.941883789014746" lon="12.796334611066587"><ele>982.0</ele><time>2026-05-03T07:40:06Z</time></trkpt><trkpt lat="42.941863991343375" lon="12.796486034567682"><ele>982.0</ele><time>2026-05-03T07:40:07Z</time></trkpt><trkpt lat="42.94185669831001" lon="12.796614596455651"><ele>982.0</ele><time>2026-05-03T07:40:08Z</time></trkpt><trkpt lat="42.94183117417439" lon="12.796734305679994"><ele>980.6</ele><time>2026-05-03T07:40:09Z</time></trkpt><trkpt lat="42.941793321643765" lon="12.79684603902294"><ele>979.2</ele><time>2026-05-03T07:40:09.999Z</time></trkpt><trkpt lat="42.94173282445164" lon="12.796944890402655"><ele>977.8</ele><time>2026-05-03T07:40:10.999Z</time></trkpt><trkpt lat="42.941671091415536" lon="12.797052403226191"><ele>976.4</ele><time>2026-05-03T07:40:11.999Z</time></trkpt><trkpt lat="42.94160847573893" lon="12.797149741418975"><ele>975.0</ele><time>2026-05-03T07:40:12.999Z</time></trkpt><trkpt lat="42.94155195165144" lon="12.797220917092973"><ele>975.0</ele><time>2026-05-03T07:40:13.999Z</time></trkpt><trkpt lat="42.9415144272562" lon="12.79733572170604"><ele>975.0</ele><time>2026-05-03T07:40:15.999Z</time></trkpt><trkpt lat="42.94160258565241" lon="12.797406449654305"><ele>975.0</ele><time>2026-05-03T07:40:18.999Z</time></trkpt><trkpt lat="42.94167929829959" lon="12.797402675174473"><ele>975.0</ele><time>2026-05-03T07:40:19.999Z</time></trkpt><trkpt lat="42.94175412630588" lon="12.797397292155086"><ele>975.0</ele><time>2026-05-03T07:40:20.999Z</time></trkpt><trkpt lat="42.94190877265038" lon="12.797380209288548"><ele>973.3333333333334</ele><time>2026-05-03T07:40:22.999Z</time></trkpt><trkpt lat="42.94199620702761" lon="12.797357681126298"><ele>971.6666666666667</ele><time>2026-05-03T07:40:23.999Z</time></trkpt><trkpt lat="42.94208025324483" lon="12.797328293576523"><ele>970.0</ele><time>2026-05-03T07:40:24.999Z</time></trkpt><trkpt lat="42.942153203921634" lon="12.797301783131857"><ele>968.3333333333334</ele><time>2026-05-03T07:40:25.999Z</time></trkpt><trkpt lat="42.942231039987284" lon="12.79727635476915"><ele>966.6666666666667</ele><time>2026-05-03T07:40:26.999Z</time></trkpt><trkpt lat="42.94230245464756" lon="12.797256656289816"><ele>965.0</ele><time>2026-05-03T07:40:27.999Z</time></trkpt><trkpt lat="42.942365612298616" lon="12.797236949493414"><ele>965.0</ele><time>2026-05-03T07:40:28.999Z</time></trkpt><trkpt lat="42.94244368485391" lon="12.797257940048631"><ele>965.0</ele><time>2026-05-03T07:40:30.999Z</time></trkpt><trkpt lat="42.942398086535945" lon="12.797409878627732"><ele>965.0</ele><time>2026-05-03T07:40:32.999Z</time></trkpt><trkpt lat="42.94232877381579" lon="12.79745705494366"><ele>965.0</ele><time>2026-05-03T07:40:33.999Z</time></trkpt><trkpt lat="42.942239551471054" lon="12.797497332819148"><ele>965.0</ele><time>2026-05-03T07:40:34.999Z</time></trkpt><trkpt lat="42.94215025779746" lon="12.797570696384094"><ele>965.0</ele><time>2026-05-03T07:40:35.999Z</time></trkpt><trkpt lat="42.942061570851855" lon="12.797667276528912"><ele>965.0</ele><time>2026-05-03T07:40:36.999Z</time></trkpt><trkpt lat="42.94197063495087" lon="12.797777090179"><ele>965.0</ele><time>2026-05-03T07:40:37.999Z</time></trkpt><trkpt lat="42.94189085829068" lon="12.797876294139266"><ele>965.0</ele><time>2026-05-03T07:40:38.999Z</time></trkpt><trkpt lat="42.94180884818603" lon="12.797954178383552"><ele>965.0</ele><time>2026-05-03T07:40:39.999Z</time></trkpt><trkpt lat="42.94176009707434" lon="12.79801970837536"><ele>965.0</ele><time>2026-05-03T07:40:40.999Z</time></trkpt><trkpt lat="42.94172869764658" lon="12.798102204837328"><ele>965.0</ele><time>2026-05-03T07:40:41.999Z</time></trkpt><trkpt lat="42.94175040235352" lon="12.7982244233368"><ele>965.0</ele><time>2026-05-03T07:40:42.999Z</time></trkpt><trkpt lat="42.941781817765936" lon="12.798379368369666"><ele>965.0</ele><time>2026-05-03T07:40:43.999Z</time></trkpt><trkpt lat="42.941808706003094" lon="12.798511198889756"><ele>965.0</ele><time>2026-05-03T07:40:44.999Z</time></trkpt><trkpt lat="42.94184600801593" lon="12.798619371320735"><ele>965.8</ele><time>2026-05-03T07:40:45.999Z</time></trkpt><trkpt lat="42.941902641500576" lon="12.79870509019224"><ele>966.6</ele><time>2026-05-03T07:40:46.999Z</time></trkpt><trkpt lat="42.94191922741825" lon="12.798857493091559"><ele>967.4000000000001</ele><time>2026-05-03T07:40:48.999Z</time></trkpt><trkpt lat="42.94188718622073" lon="12.798950764873037"><ele>968.2</ele><time>2026-05-03T07:40:49.999Z</time></trkpt><trkpt lat="42.94185721457429" lon="12.799091364812728"><ele>969.0</ele><time>2026-05-03T07:40:50.999Z</time></trkpt><trkpt lat="42.94182511145697" lon="12.799245584114594"><ele>967.0</ele><time>2026-05-03T07:40:51.999Z</time></trkpt><trkpt lat="42.941817606024586" lon="12.799424265597803"><ele>965.0000000000001</ele><time>2026-05-03T07:40:52.999Z</time></trkpt><trkpt lat="42.941831672538086" lon="12.799567848192792"><ele>963.0000000000001</ele><time>2026-05-03T07:40:53.999Z</time></trkpt><trkpt lat="42.941808401221" lon="12.799695654032194"><ele>961.0</ele><time>2026-05-03T07:40:54.999Z</time></trkpt><trkpt lat="42.9417568958804" lon="12.799824530747678"><ele>959.0</ele><time>2026-05-03T07:40:55.999Z</time></trkpt><trkpt lat="42.941680670672625" lon="12.799937177551461"><ele>959.0</ele><time>2026-05-03T07:40:56.999Z</time></trkpt><trkpt lat="42.941615958879595" lon="12.800033649318944"><ele>959.0000000000001</ele><time>2026-05-03T07:40:57.999Z</time></trkpt><trkpt lat="42.94156334253855" lon="12.800111739215893"><ele>959.0000000000001</ele><time>2026-05-03T07:40:58.999Z</time></trkpt><trkpt lat="42.94153585238333" lon="12.80026985490218"><ele>959.0</ele><time>2026-05-03T07:41:00.999Z</time></trkpt><trkpt lat="42.941596996167036" lon="12.800436677690639"><ele>959.0</ele><time>2026-05-03T07:41:02.999Z</time></trkpt><trkpt lat="42.94168251317682" lon="12.800514862561116"><ele>955.8000000000001</ele><time>2026-05-03T07:41:03.999Z</time></trkpt><trkpt lat="42.94173599534798" lon="12.800593455161946"><ele>952.6000000000001</ele><time>2026-05-03T07:41:04.999Z</time></trkpt><trkpt lat="42.94180519907555" lon="12.800666462717668"><ele>949.4</ele><time>2026-05-03T07:41:05.999Z</time></trkpt><trkpt lat="42.94188114482067" lon="12.80071294308344"><ele>946.2</ele><time>2026-05-03T07:41:06.999Z</time></trkpt><trkpt lat="42.94197947964723" lon="12.80071417772965"><ele>943.0</ele><time>2026-05-03T07:41:07.999Z</time></trkpt><trkpt lat="42.942083206996834" lon="12.800696429584216"><ele>943.0</ele><time>2026-05-03T07:41:08.999Z</time></trkpt><trkpt lat="42.942190158193725" lon="12.800660022579631"><ele>943.0</ele><time>2026-05-03T07:41:09.999Z</time></trkpt><trkpt lat="42.94229391530183" lon="12.800614378361368"><ele>943.0</ele><time>2026-05-03T07:41:10.999Z</time></trkpt><trkpt lat="42.942392764883806" lon="12.800606344459824"><ele>943.0</ele><time>2026-05-03T07:41:11.999Z</time></trkpt><trkpt lat="42.942484392931796" lon="12.800631651057957"><ele>943.0</ele><time>2026-05-03T07:41:12.999Z</time></trkpt><trkpt lat="42.94255891814909" lon="12.8006720782488"><ele>942.3333333333333</ele><time>2026-05-03T07:41:13.999Z</time></trkpt><trkpt lat="42.9426286632845" lon="12.800735401439566"><ele>941.6666666666666</ele><time>2026-05-03T07:41:14.999Z</time></trkpt><trkpt lat="42.942668766086065" lon="12.800818583254213"><ele>941.0</ele><time>2026-05-03T07:41:15.999Z</time></trkpt><trkpt lat="42.94270908441464" lon="12.800930562779357"><ele>940.3333333333333</ele><time>2026-05-03T07:41:17Z</time></trkpt><trkpt lat="42.9427734927575" lon="12.80104302090824"><ele>939.6666666666666</ele><time>2026-05-03T07:41:18Z</time></trkpt><trkpt lat="42.942845784804675" lon="12.801127879876072"><ele>939.0</ele><time>2026-05-03T07:41:19Z</time></trkpt><trkpt lat="42.94291863601466" lon="12.8012227356061"><ele>939.0</ele><time>2026-05-03T07:41:20Z</time></trkpt><trkpt lat="42.942980368174645" lon="12.801335771714248"><ele>939.0000000000001</ele><time>2026-05-03T07:41:21Z</time></trkpt><trkpt lat="42.943044299413046" lon="12.80146477092986"><ele>939.0000000000001</ele><time>2026-05-03T07:41:22Z</time></trkpt><trkpt lat="42.94309745414603" lon="12.801578949389175"><ele>939.0</ele><time>2026-05-03T07:41:23Z</time></trkpt><trkpt lat="42.94313315514506" lon="12.801671802183359"><ele>939.0</ele><time>2026-05-03T07:41:24Z</time></trkpt><trkpt lat="42.94314689553652" lon="12.801769760787636"><ele>939.2</ele><time>2026-05-03T07:41:25Z</time></trkpt><trkpt lat="42.94312720042026" lon="12.801881289948895"><ele>939.4000000000001</ele><time>2026-05-03T07:41:26Z</time></trkpt><trkpt lat="42.94307794140812" lon="12.80198401111503"><ele>939.6</ele><time>2026-05-03T07:41:27Z</time></trkpt><trkpt lat="42.943007253543946" lon="12.80207985756558"><ele>939.8</ele><time>2026-05-03T07:41:28Z</time></trkpt><trkpt lat="42.9429376154975" lon="12.802184035191656"><ele>940.0</ele><time>2026-05-03T07:41:29Z</time></trkpt><trkpt lat="42.942889545597275" lon="12.802298093454977"><ele>939.9999999999999</ele><time>2026-05-03T07:41:30Z</time></trkpt><trkpt lat="42.942843562758135" lon="12.80241807774916"><ele>940.0</ele><time>2026-05-03T07:41:31Z</time></trkpt><trkpt lat="42.94278929264652" lon="12.802539066608986"><ele>940.0</ele><time>2026-05-03T07:41:32Z</time></trkpt><trkpt lat="42.94274275104242" lon="12.802629257234996"><ele>940.0</ele><time>2026-05-03T07:41:33Z</time></trkpt><trkpt lat="42.9426945435945" lon="12.802711289012684"><ele>939.9999999999999</ele><time>2026-05-03T07:41:34Z</time></trkpt><trkpt lat="42.942633693994054" lon="12.802771225112677"><ele>940.0</ele><time>2026-05-03T07:41:35Z</time></trkpt><trkpt lat="42.942561168496226" lon="12.802815806939227"><ele>938.6666666666666</ele><time>2026-05-03T07:41:36Z</time></trkpt><trkpt lat="42.94249541316376" lon="12.80287815756978"><ele>937.3333333333333</ele><time>2026-05-03T07:41:37Z</time></trkpt><trkpt lat="42.942446223750935" lon="12.802943322249005"><ele>936.0</ele><time>2026-05-03T07:41:38Z</time></trkpt><trkpt lat="42.942412424339686" lon="12.803019126732865"><ele>934.6666666666667</ele><time>2026-05-03T07:41:39Z</time></trkpt><trkpt lat="42.942392690505116" lon="12.803147575346003"><ele>933.3333333333334</ele><time>2026-05-03T07:41:41Z</time></trkpt><trkpt lat="42.942399684580955" lon="12.803233929317965"><ele>932.0</ele><time>2026-05-03T07:41:42Z</time></trkpt><trkpt lat="42.942437186690064" lon="12.803326263768538"><ele>932.0</ele><time>2026-05-03T07:41:43Z</time></trkpt><trkpt lat="42.942496976524424" lon="12.803420876567998"><ele>932.0</ele><time>2026-05-03T07:41:44Z</time></trkpt><trkpt lat="42.94256704455629" lon="12.803505472463112"><ele>932.0</ele><time>2026-05-03T07:41:45Z</time></trkpt><trkpt lat="42.94261948918741" lon="12.803564323137362"><ele>932.0</ele><time>2026-05-03T07:41:46Z</time></trkpt><trkpt lat="42.94266003170041" lon="12.80369824324491"><ele>932.0</ele><time>2026-05-03T07:41:48Z</time></trkpt><trkpt lat="42.942596023265224" lon="12.803890596741455"><ele>930.5</ele><time>2026-05-03T07:41:50Z</time></trkpt><trkpt lat="42.94253905126214" lon="12.804022244374593"><ele>929.0</ele><time>2026-05-03T07:41:51Z</time></trkpt><trkpt lat="42.94247919973293" lon="12.804200103777877"><ele>927.5</ele><time>2026-05-03T07:41:52Z</time></trkpt><trkpt lat="42.94242644462974" lon="12.804369395331134"><ele>926.0</ele><time>2026-05-03T07:41:53Z</time></trkpt><trkpt lat="42.94238597241553" lon="12.804506498103553"><ele>925.8333333333334</ele><time>2026-05-03T07:41:54Z</time></trkpt><trkpt lat="42.94234801704115" lon="12.804602963626794"><ele>925.6666666666667</ele><time>2026-05-03T07:41:55Z</time></trkpt><trkpt lat="42.94230458274881" lon="12.804673601045288"><ele>925.5</ele><time>2026-05-03T07:41:56Z</time></trkpt><trkpt lat="42.94222840908233" lon="12.804764631277196"><ele>925.3333333333333</ele><time>2026-05-03T07:41:58Z</time></trkpt><trkpt lat="42.94216024082621" lon="12.804798899406139"><ele>925.1666666666666</ele><time>2026-05-03T07:44:05Z</time></trkpt><trkpt lat="42.94207767757459" lon="12.804866116567519"><ele>925.0</ele><time>2026-05-03T07:44:07Z</time></trkpt><trkpt lat="42.94201529790807" lon="12.804899485716755"><ele>924.9999999999999</ele><time>2026-05-03T07:44:08Z</time></trkpt><trkpt lat="42.9419282484171" lon="12.804987425314803"><ele>925.0</ele><time>2026-05-03T07:44:10Z</time></trkpt><trkpt lat="42.94188100731843" lon="12.805052159580491"><ele>925.0</ele><time>2026-05-03T07:44:12Z</time></trkpt><trkpt lat="42.9418251798255" lon="12.805146610127808"><ele>925.0</ele><time>2026-05-03T07:44:14Z</time></trkpt><trkpt lat="42.941762313968" lon="12.805277591158914"><ele>924.9999999999999</ele><time>2026-05-03T07:44:15.999Z</time></trkpt><trkpt lat="42.94172745286454" lon="12.805352836812553"><ele>925.0</ele><time>2026-05-03T07:44:16.999Z</time></trkpt><trkpt lat="42.94168093523551" lon="12.80545118790557"><ele>926.3333333333333</ele><time>2026-05-03T07:44:17.999Z</time></trkpt><trkpt lat="42.94163696543218" lon="12.805539420499958"><ele>927.6666666666666</ele><time>2026-05-03T07:44:18.999Z</time></trkpt><trkpt lat="42.94158286117365" lon="12.80560008030212"><ele>929.0</ele><time>2026-05-03T07:44:19.999Z</time></trkpt><trkpt lat="42.94152773200927" lon="12.805651692912205"><ele>930.3333333333333</ele><time>2026-05-03T07:44:20.999Z</time></trkpt><trkpt lat="42.941447432264276" lon="12.805734358414863"><ele>931.6666666666666</ele><time>2026-05-03T07:44:22.999Z</time></trkpt><trkpt lat="42.941366318095916" lon="12.805833710288157"><ele>933.0</ele><time>2026-05-03T07:44:24.999Z</time></trkpt><trkpt lat="42.941323656381684" lon="12.805906358299438"><ele>937.1666666666666</ele><time>2026-05-03T07:44:25.999Z</time></trkpt><trkpt lat="42.94124079053927" lon="12.806038295231197"><ele>941.3333333333333</ele><time>2026-05-03T07:44:27.999Z</time></trkpt><trkpt lat="42.941188443606286" lon="12.806097805107054"><ele>945.5</ele><time>2026-05-03T07:44:28.999Z</time></trkpt><trkpt lat="42.94112499975145" lon="12.806146429513145"><ele>949.6666666666666</ele><time>2026-05-03T07:44:29.999Z</time></trkpt><trkpt lat="42.941044360596415" lon="12.806144706437005"><ele>953.8333333333333</ele><time>2026-05-03T07:44:30.999Z</time></trkpt><trkpt lat="42.94096954998282" lon="12.806139635641975"><ele>958.0</ele><time>2026-05-03T07:44:31.999Z</time></trkpt><trkpt lat="42.94089689550223" lon="12.806106174334083"><ele>956.2</ele><time>2026-05-03T07:44:32.999Z</time></trkpt><trkpt lat="42.940817006804224" lon="12.806066089200696"><ele>954.4</ele><time>2026-05-03T07:44:33.999Z</time></trkpt><trkpt lat="42.940738427504904" lon="12.80602853662931"><ele>952.6000000000001</ele><time>2026-05-03T07:44:34.999Z</time></trkpt><trkpt lat="42.94063427799823" lon="12.806001299865683"><ele>950.8000000000001</ele><time>2026-05-03T07:44:36.999Z</time></trkpt><trkpt lat="42.940569458285026" lon="12.80597404886542"><ele>949.0</ele><time>2026-05-03T07:44:37.999Z</time></trkpt><trkpt lat="42.940459695439976" lon="12.805943589530386"><ele>948.7142857142858</ele><time>2026-05-03T07:44:39.999Z</time></trkpt><trkpt lat="42.94039478720943" lon="12.805931520508958"><ele>948.4285714285714</ele><time>2026-05-03T07:44:40.999Z</time></trkpt><trkpt lat="42.94032865165119" lon="12.805926822992932"><ele>948.1428571428571</ele><time>2026-05-03T07:44:41.999Z</time></trkpt><trkpt lat="42.940261909989886" lon="12.805918274956959"><ele>947.8571428571429</ele><time>2026-05-03T07:44:42.999Z</time></trkpt><trkpt lat="42.94018949580927" lon="12.80592094481313"><ele>947.5714285714284</ele><time>2026-05-03T07:44:43.999Z</time></trkpt><trkpt lat="42.9401264925491" lon="12.805942165352153"><ele>947.2857142857142</ele><time>2026-05-03T07:44:44.999Z</time></trkpt><trkpt lat="42.940063835533685" lon="12.805967097558494"><ele>947.0</ele><time>2026-05-03T07:44:45.999Z</time></trkpt><trkpt lat="42.93999491398798" lon="12.80600267470262"><ele>947.0000000000001</ele><time>2026-05-03T07:44:46.999Z</time></trkpt><trkpt lat="42.93992188996566" lon="12.806065679049015"><ele>947.0</ele><time>2026-05-03T07:44:47.999Z</time></trkpt><trkpt lat="42.93985045364162" lon="12.806112798084891"><ele>947.0</ele><time>2026-05-03T07:44:48.999Z</time></trkpt><trkpt lat="42.939781460222505" lon="12.80616970183994"><ele>947.0</ele><time>2026-05-03T07:44:49.999Z</time></trkpt><trkpt lat="42.93972655667905" lon="12.806216260721683"><ele>947.0000000000001</ele><time>2026-05-03T07:44:50.999Z</time></trkpt><trkpt lat="42.939681474382375" lon="12.806280365999703"><ele>947.0</ele><time>2026-05-03T07:44:51.999Z</time></trkpt><trkpt lat="42.93957539735695" lon="12.806374626877021"><ele>947.0</ele><time>2026-05-03T07:44:53.999Z</time></trkpt><trkpt lat="42.939486736962394" lon="12.80647975379402"><ele>947.0</ele><time>2026-05-03T07:44:55.999Z</time></trkpt><trkpt lat="42.939413093157484" lon="12.806558486853037"><ele>947.0</ele><time>2026-05-03T07:44:57.999Z</time></trkpt><trkpt lat="42.93936700061038" lon="12.806620039087292"><ele>947.0</ele><time>2026-05-03T07:44:59.999Z</time></trkpt><trkpt lat="42.93941114961959" lon="12.80675757557575"><ele>947.0</ele><time>2026-05-03T07:45:02.999Z</time></trkpt><trkpt lat="42.93952854809358" lon="12.806734589637484"><ele>947.0</ele><time>2026-05-03T07:45:04.999Z</time></trkpt><trkpt lat="42.939648851994924" lon="12.806745572883973"><ele>947.0</ele><time>2026-05-03T07:45:06.999Z</time></trkpt><trkpt lat="42.93972817198041" lon="12.80678383875451"><ele>947.0</ele><time>2026-05-03T07:45:07.999Z</time></trkpt><trkpt lat="42.93980045837243" lon="12.806825866195421"><ele>947.0</ele><time>2026-05-03T07:45:08.999Z</time></trkpt><trkpt lat="42.93987951927734" lon="12.806862572226478"><ele>947.0</ele><time>2026-05-03T07:45:09.999Z</time></trkpt><trkpt lat="42.93997789579171" lon="12.806907632175156"><ele>951.4000000000001</ele><time>2026-05-03T07:45:10.999Z</time></trkpt><trkpt lat="42.94006852356565" lon="12.806960260816366"><ele>955.8000000000001</ele><time>2026-05-03T07:45:11.999Z</time></trkpt><trkpt lat="42.9401712982521" lon="12.807018045876712"><ele>960.2</ele><time>2026-05-03T07:45:12.999Z</time></trkpt><trkpt lat="42.940274820022" lon="12.807029300576955"><ele>964.6</ele><time>2026-05-03T07:45:13.999Z</time></trkpt><trkpt lat="42.94038507426703" lon="12.807016421190376"><ele>969.0</ele><time>2026-05-03T07:45:14.999Z</time></trkpt><trkpt lat="42.940477211191016" lon="12.80702566665415"><ele>969.0</ele><time>2026-05-03T07:45:15.999Z</time></trkpt><trkpt lat="42.94054632462484" lon="12.807047011431173"><ele>969.0</ele><time>2026-05-03T07:45:16.999Z</time></trkpt><trkpt lat="42.94064530329513" lon="12.807165807994673"><ele>969.0</ele><time>2026-05-03T07:45:18.999Z</time></trkpt><trkpt lat="42.94070284730439" lon="12.80731912021183"><ele>969.0</ele><time>2026-05-03T07:45:19.999Z</time></trkpt><trkpt lat="42.94075722405213" lon="12.807479686224347"><ele>969.0</ele><time>2026-05-03T07:45:20.999Z</time></trkpt><trkpt lat="42.94079432558892" lon="12.80759445704732"><ele>969.0</ele><time>2026-05-03T07:45:21.999Z</time></trkpt><trkpt lat="42.94083537648602" lon="12.807671529408934"><ele>969.0</ele><time>2026-05-03T07:45:22.999Z</time></trkpt><trkpt lat="42.940890895388016" lon="12.807739472266178"><ele>969.0</ele><time>2026-05-03T07:45:23.999Z</time></trkpt><trkpt lat="42.9409667668134" lon="12.80784494807188"><ele>969.0</ele><time>2026-05-03T07:45:24.999Z</time></trkpt><trkpt lat="42.94103325682834" lon="12.80793916521539"><ele>969.0</ele><time>2026-05-03T07:45:25.999Z</time></trkpt><trkpt lat="42.94110993449125" lon="12.808006675442963"><ele>972.3333333333334</ele><time>2026-05-03T07:45:26.999Z</time></trkpt><trkpt lat="42.94119252189515" lon="12.808054487165643"><ele>975.6666666666667</ele><time>2026-05-03T07:45:27.999Z</time></trkpt><trkpt lat="42.94126912315162" lon="12.808099974706275"><ele>979.0</ele><time>2026-05-03T07:45:29Z</time></trkpt><trkpt lat="42.94135221323715" lon="12.808150895555778"><ele>982.3333333333334</ele><time>2026-05-03T07:45:30Z</time></trkpt><trkpt lat="42.94143362539929" lon="12.808210441396032"><ele>985.6666666666667</ele><time>2026-05-03T07:45:31Z</time></trkpt><trkpt lat="42.94150353673365" lon="12.80828675094707"><ele>989.0</ele><time>2026-05-03T07:45:32Z</time></trkpt><trkpt lat="42.941561626113135" lon="12.80838215642175"><ele>989.0</ele><time>2026-05-03T07:45:33Z</time></trkpt><trkpt lat="42.941615772370774" lon="12.808475302941464"><ele>989.0000000000001</ele><time>2026-05-03T07:45:34Z</time></trkpt><trkpt lat="42.94167652265305" lon="12.808564073652795"><ele>989.0000000000001</ele><time>2026-05-03T07:45:35Z</time></trkpt><trkpt lat="42.941749860251534" lon="12.808656081555883"><ele>989.0</ele><time>2026-05-03T07:45:36Z</time></trkpt><trkpt lat="42.94182407387104" lon="12.808752098256127"><ele>989.0</ele><time>2026-05-03T07:45:37Z</time></trkpt><trkpt lat="42.94188917014555" lon="12.80883875987144"><ele>991.3333333333334</ele><time>2026-05-03T07:45:38Z</time></trkpt><trkpt lat="42.94195058235825" lon="12.808915759410858"><ele>993.6666666666667</ele><time>2026-05-03T07:45:39Z</time></trkpt><trkpt lat="42.94201838922298" lon="12.808995506425319"><ele>996.0</ele><time>2026-05-03T07:45:40Z</time></trkpt><trkpt lat="42.94207690949544" lon="12.809061057134864"><ele>998.3333333333333</ele><time>2026-05-03T07:45:41Z</time></trkpt><trkpt lat="42.94213469982677" lon="12.809116064560724"><ele>1000.6666666666666</ele><time>2026-05-03T07:45:42Z</time></trkpt><trkpt lat="42.94221496360436" lon="12.809182463363001"><ele>1003.0</ele><time>2026-05-03T07:45:43Z</time></trkpt><trkpt lat="42.94232114769484" lon="12.809259538106968"><ele>1003.75</ele><time>2026-05-03T07:45:44Z</time></trkpt><trkpt lat="42.94242133573618" lon="12.809335972774562"><ele>1004.5</ele><time>2026-05-03T07:45:45Z</time></trkpt><trkpt lat="42.94251450520255" lon="12.809409446821826"><ele>1005.25</ele><time>2026-05-03T07:45:46Z</time></trkpt><trkpt lat="42.94262546889641" lon="12.809483131453446"><ele>1006.0</ele><time>2026-05-03T07:45:47Z</time></trkpt><trkpt lat="42.94272976941274" lon="12.809546363613299"><ele>1006.0</ele><time>2026-05-03T07:45:48Z</time></trkpt><trkpt lat="42.94281274768793" lon="12.809600542207361"><ele>1006.0000000000001</ele><time>2026-05-03T07:45:49Z</time></trkpt><trkpt lat="42.942882849027285" lon="12.809653616647216"><ele>1006.0</ele><time>2026-05-03T07:45:50Z</time></trkpt><trkpt lat="42.94294656489975" lon="12.809699414479581"><ele>1006.0</ele><time>2026-05-03T07:45:51Z</time></trkpt><trkpt lat="42.942998692706645" lon="12.809754891673354"><ele>1006.0000000000001</ele><time>2026-05-03T07:45:52Z</time></trkpt><trkpt lat="42.94304946310097" lon="12.809821969856724"><ele>1006.0</ele><time>2026-05-03T07:45:53Z</time></trkpt><trkpt lat="42.94309360207785" lon="12.809886877339602"><ele>1006.0</ele><time>2026-05-03T07:45:54Z</time></trkpt><trkpt lat="42.94314581940794" lon="12.809936641863315"><ele>1006.0</ele><time>2026-05-03T07:45:55Z</time></trkpt><trkpt lat="42.94329529877885" lon="12.809985764158592"><ele>1006.0</ele><time>2026-05-03T07:45:57Z</time></trkpt><trkpt lat="42.943397674251266" lon="12.810027870995093"><ele>1006.0</ele><time>2026-05-03T07:45:58Z</time></trkpt><trkpt lat="42.94349616545606" lon="12.810072993491882"><ele>1006.0</ele><time>2026-05-03T07:45:59Z</time></trkpt><trkpt lat="42.94359064594016" lon="12.810119749174634"><ele>1007.4</ele><time>2026-05-03T07:46:00Z</time></trkpt><trkpt lat="42.94368389624828" lon="12.810166625329147"><ele>1008.8</ele><time>2026-05-03T07:46:01Z</time></trkpt><trkpt lat="42.94377859431426" lon="12.810213416882824"><ele>1010.1999999999999</ele><time>2026-05-03T07:46:02Z</time></trkpt><trkpt lat="42.94387727184031" lon="12.81025645817545"><ele>1011.5999999999999</ele><time>2026-05-03T07:46:03Z</time></trkpt><trkpt lat="42.94397251610308" lon="12.810301430584017"><ele>1013.0</ele><time>2026-05-03T07:46:04Z</time></trkpt><trkpt lat="42.94407020243724" lon="12.810346193639264"><ele>1013.0000000000001</ele><time>2026-05-03T07:46:05Z</time></trkpt><trkpt lat="42.94416062299961" lon="12.810378762074368"><ele>1013.0</ele><time>2026-05-03T07:46:06Z</time></trkpt><trkpt lat="42.94424183248535" lon="12.810400548213694"><ele>1013.0</ele><time>2026-05-03T07:46:07Z</time></trkpt><trkpt lat="42.944314374079916" lon="12.810412711303199"><ele>1013.0</ele><time>2026-05-03T07:46:08Z</time></trkpt><trkpt lat="42.94438453360807" lon="12.810423126019176"><ele>1013.0000000000001</ele><time>2026-05-03T07:46:09Z</time></trkpt><trkpt lat="42.94445904093064" lon="12.810424424959455"><ele>1013.0</ele><time>2026-05-03T07:46:10Z</time></trkpt><trkpt lat="42.94454964237781" lon="12.810429575220699"><ele>1014.5</ele><time>2026-05-03T07:46:11Z</time></trkpt><trkpt lat="42.94465673139386" lon="12.810458938817595"><ele>1016.0</ele><time>2026-05-03T07:46:12Z</time></trkpt><trkpt lat="42.94478170558565" lon="12.810524353152825"><ele>1017.5</ele><time>2026-05-03T07:46:13Z</time></trkpt><trkpt lat="42.94488745679859" lon="12.810597426855855"><ele>1019.0</ele><time>2026-05-03T07:46:14Z</time></trkpt><trkpt lat="42.94498160351841" lon="12.810670831082604"><ele>1020.3333333333334</ele><time>2026-05-03T07:46:15Z</time></trkpt><trkpt lat="42.9450843378232" lon="12.81074441045488"><ele>1021.6666666666667</ele><time>2026-05-03T07:46:16Z</time></trkpt><trkpt lat="42.94517647912162" lon="12.81080220756883"><ele>1023.0</ele><time>2026-05-03T07:46:17Z</time></trkpt><trkpt lat="42.945253230128245" lon="12.8108397962381"><ele>1024.3333333333333</ele><time>2026-05-03T07:46:18Z</time></trkpt><trkpt lat="42.94532808844926" lon="12.810866946972315"><ele>1025.6666666666665</ele><time>2026-05-03T07:46:19Z</time></trkpt><trkpt lat="42.945390574870494" lon="12.810900455713362"><ele>1027.0</ele><time>2026-05-03T07:46:20Z</time></trkpt><trkpt lat="42.945450631898034" lon="12.810949710549338"><ele>1027.0</ele><time>2026-05-03T07:46:21Z</time></trkpt><trkpt lat="42.94549589001147" lon="12.811021153119079"><ele>1027.0</ele><time>2026-05-03T07:46:22Z</time></trkpt><trkpt lat="42.945550285051254" lon="12.811073835057117"><ele>1027.0</ele><time>2026-05-03T07:46:23Z</time></trkpt><trkpt lat="42.94564060784003" lon="12.811078324775366"><ele>1027.0</ele><time>2026-05-03T07:46:23.999Z</time></trkpt><trkpt lat="42.94573941657306" lon="12.811042719038692"><ele>1027.0</ele><time>2026-05-03T07:46:24.999Z</time></trkpt><trkpt lat="42.945828587589155" lon="12.811021939857428"><ele>1027.0</ele><time>2026-05-03T07:46:25.999Z</time></trkpt><trkpt lat="42.94590591872508" lon="12.811044583157976"><ele>1027.4</ele><time>2026-05-03T07:46:26.999Z</time></trkpt><trkpt lat="42.94596599635086" lon="12.811098024163034"><ele>1027.8000000000002</ele><time>2026-05-03T07:46:27.999Z</time></trkpt><trkpt lat="42.94602162769233" lon="12.81117434165674"><ele>1028.2</ele><time>2026-05-03T07:46:29.999Z</time></trkpt><trkpt lat="42.9461165796668" lon="12.811282380332141"><ele>1028.6000000000001</ele><time>2026-05-03T07:46:31.999Z</time></trkpt><trkpt lat="42.946183742552904" lon="12.81135771361333"><ele>1029.0</ele><time>2026-05-03T07:46:32.999Z</time></trkpt><trkpt lat="42.94626102866237" lon="12.81144625356152"><ele>1029.0</ele><time>2026-05-03T07:46:33.999Z</time></trkpt><trkpt lat="42.94632905501968" lon="12.81153417290245"><ele>1029.0</ele><time>2026-05-03T07:46:34.999Z</time></trkpt><trkpt lat="42.94639210886646" lon="12.811621235205282"><ele>1029.0</ele><time>2026-05-03T07:46:35.999Z</time></trkpt><trkpt lat="42.94645555502773" lon="12.811706045702376"><ele>1029.0</ele><time>2026-05-03T07:46:36.999Z</time></trkpt><trkpt lat="42.946517602262276" lon="12.811783871255662"><ele>1029.0</ele><time>2026-05-03T07:46:37.999Z</time></trkpt><trkpt lat="42.94657711178426" lon="12.811850748778742"><ele>1029.0</ele><time>2026-05-03T07:46:38.999Z</time></trkpt><trkpt lat="42.94663410675675" lon="12.811922502565002"><ele>1029.142857142857</ele><time>2026-05-03T07:46:39.999Z</time></trkpt><trkpt lat="42.946681430320275" lon="12.811987870734951"><ele>1029.2857142857142</ele><time>2026-05-03T07:46:40.999Z</time></trkpt><trkpt lat="42.946716366437336" lon="12.812118933460347"><ele>1029.4285714285716</ele><time>2026-05-03T07:46:42.999Z</time></trkpt><trkpt lat="42.94668034430976" lon="12.812191476136453"><ele>1029.5714285714284</ele><time>2026-05-03T07:46:45.999Z</time></trkpt><trkpt lat="42.946675459171594" lon="12.812287803674263"><ele>1029.7142857142858</ele><time>2026-05-03T07:47:11.999Z</time></trkpt><trkpt lat="42.94665312209694" lon="12.81238270064077"><ele>1029.857142857143</ele><time>2026-05-03T07:47:12.999Z</time></trkpt><trkpt lat="42.94662814687876" lon="12.812470700513439"><ele>1030.0</ele><time>2026-05-03T07:47:13.999Z</time></trkpt><trkpt lat="42.94658863362561" lon="12.812539531576455"><ele>1030.0</ele><time>2026-05-03T07:47:14.999Z</time></trkpt><trkpt lat="42.94652700934523" lon="12.812611580169573"><ele>1030.0</ele><time>2026-05-03T07:47:15.999Z</time></trkpt><trkpt lat="42.946441476777814" lon="12.812699175411497"><ele>1030.0</ele><time>2026-05-03T07:47:16.999Z</time></trkpt><trkpt lat="42.94636120767567" lon="12.812774165133938"><ele>1030.0</ele><time>2026-05-03T07:47:17.999Z</time></trkpt><trkpt lat="42.946279393343346" lon="12.812836614907622"><ele>1030.0</ele><time>2026-05-03T07:47:18.999Z</time></trkpt><trkpt lat="42.94619738976834" lon="12.812883956435066"><ele>1029.1666666666665</ele><time>2026-05-03T07:47:19.999Z</time></trkpt><trkpt lat="42.94611935073904" lon="12.81292180796442"><ele>1028.3333333333333</ele><time>2026-05-03T07:47:20.999Z</time></trkpt><trkpt lat="42.94604322885049" lon="12.812963456980304"><ele>1027.5</ele><time>2026-05-03T07:47:21.999Z</time></trkpt><trkpt lat="42.945970163736085" lon="12.81300387903912"><ele>1026.6666666666667</ele><time>2026-05-03T07:47:22.999Z</time></trkpt><trkpt lat="42.94590226420111" lon="12.81305463891246"><ele>1025.8333333333335</ele><time>2026-05-03T07:47:23.999Z</time></trkpt><trkpt lat="42.94584277762584" lon="12.813119874768445"><ele>1025.0</ele><time>2026-05-03T07:47:24.999Z</time></trkpt><trkpt lat="42.9457845708534" lon="12.813201743934922"><ele>1025.0</ele><time>2026-05-03T07:47:25.999Z</time></trkpt><trkpt lat="42.94573059242902" lon="12.813293871183392"><ele>1025.0</ele><time>2026-05-03T07:47:26.999Z</time></trkpt><trkpt lat="42.94568076828449" lon="12.813384683153048"><ele>1025.0</ele><time>2026-05-03T07:47:27.999Z</time></trkpt><trkpt lat="42.94562580229654" lon="12.813481875253752"><ele>1025.0</ele><time>2026-05-03T07:47:28.999Z</time></trkpt><trkpt lat="42.94558022149483" lon="12.813581799434145"><ele>1025.0</ele><time>2026-05-03T07:47:29.999Z</time></trkpt><trkpt lat="42.94553271122075" lon="12.81368839403941"><ele>1025.0</ele><time>2026-05-03T07:47:30.999Z</time></trkpt><trkpt lat="42.94547553593845" lon="12.813782627372698"><ele>1027.4</ele><time>2026-05-03T07:47:31.999Z</time></trkpt><trkpt lat="42.94540932304615" lon="12.813865369983695"><ele>1029.8</ele><time>2026-05-03T07:47:32.999Z</time></trkpt><trkpt lat="42.94533763423883" lon="12.813937007515626"><ele>1032.2</ele><time>2026-05-03T07:47:33.999Z</time></trkpt><trkpt lat="42.945263940753414" lon="12.814000264693522"><ele>1034.6</ele><time>2026-05-03T07:47:35Z</time></trkpt><trkpt lat="42.945181993008305" lon="12.814053086344954"><ele>1037.0</ele><time>2026-05-03T07:47:36Z</time></trkpt><trkpt lat="42.94508965219821" lon="12.814096530558496"><ele>1033.0</ele><time>2026-05-03T07:47:37Z</time></trkpt><trkpt lat="42.94499153044376" lon="12.814134205756837"><ele>1029.0</ele><time>2026-05-03T07:47:38Z</time></trkpt><trkpt lat="42.944894700114475" lon="12.814167407418594"><ele>1025.0</ele><time>2026-05-03T07:47:39Z</time></trkpt><trkpt lat="42.94479229213506" lon="12.814196846763343"><ele>1021.0</ele><time>2026-05-03T07:47:40Z</time></trkpt><trkpt lat="42.94469465035756" lon="12.814234815849316"><ele>1017.0</ele><time>2026-05-03T07:47:41Z</time></trkpt><trkpt lat="42.94460400012964" lon="12.814283460119556"><ele>1015.6</ele><time>2026-05-03T07:47:42Z</time></trkpt><trkpt lat="42.94451423667502" lon="12.814336814210199"><ele>1014.2</ele><time>2026-05-03T07:47:43Z</time></trkpt><trkpt lat="42.944420652468146" lon="12.814385823807934"><ele>1012.8</ele><time>2026-05-03T07:47:44Z</time></trkpt><trkpt lat="42.94433504755825" lon="12.814420818370671"><ele>1011.4</ele><time>2026-05-03T07:47:45Z</time></trkpt><trkpt lat="42.944252372755116" lon="12.814426096250903"><ele>1010.0</ele><time>2026-05-03T07:47:46Z</time></trkpt><trkpt lat="42.94416868639908" lon="12.81439963055624"><ele>1010.0</ele><time>2026-05-03T07:47:47Z</time></trkpt><trkpt lat="42.94408352612801" lon="12.814357201506398"><ele>1010.0</ele><time>2026-05-03T07:47:48Z</time></trkpt><trkpt lat="42.94398992665778" lon="12.814329964922592"><ele>1010.0</ele><time>2026-05-03T07:47:49Z</time></trkpt><trkpt lat="42.94390393613826" lon="12.814355318757375"><ele>1010.0</ele><time>2026-05-03T07:47:50Z</time></trkpt><trkpt lat="42.9438196911281" lon="12.814394057470246"><ele>1010.0</ele><time>2026-05-03T07:47:51Z</time></trkpt><trkpt lat="42.94372694536787" lon="12.81442827994133"><ele>1010.0000000000001</ele><time>2026-05-03T07:47:52Z</time></trkpt><trkpt lat="42.943636121328396" lon="12.814447279715202"><ele>1010.0</ele><time>2026-05-03T07:47:53Z</time></trkpt><trkpt lat="42.943546920958205" lon="12.814472035980229"><ele>1010.0</ele><time>2026-05-03T07:47:54Z</time></trkpt><trkpt lat="42.943480011453126" lon="12.814531753678864"><ele>1010.0</ele><time>2026-05-03T07:47:55Z</time></trkpt><trkpt lat="42.94342295165963" lon="12.814626801572967"><ele>1010.0000000000001</ele><time>2026-05-03T07:47:56Z</time></trkpt><trkpt lat="42.943360266344285" lon="12.814718663317748"><ele>1010.0</ele><time>2026-05-03T07:47:57Z</time></trkpt><trkpt lat="42.94328024719834" lon="12.814776045006635"><ele>1008.0000000000001</ele><time>2026-05-03T07:47:58Z</time></trkpt><trkpt lat="42.9431737529971" lon="12.81477766504076"><ele>1006.0</ele><time>2026-05-03T07:47:59Z</time></trkpt><trkpt lat="42.94307059989213" lon="12.814761569014621"><ele>1004.0</ele><time>2026-05-03T07:48:00Z</time></trkpt><trkpt lat="42.942991359666905" lon="12.81476704493295"><ele>1002.0</ele><time>2026-05-03T07:48:01Z</time></trkpt><trkpt lat="42.94291887104193" lon="12.814807209036104"><ele>1000.0000000000001</ele><time>2026-05-03T07:48:02Z</time></trkpt><trkpt lat="42.94284534263992" lon="12.814837535272666"><ele>998.0</ele><time>2026-05-03T07:48:03Z</time></trkpt><trkpt lat="42.94276361088025" lon="12.814812203479"><ele>998.0</ele><time>2026-05-03T07:48:04Z</time></trkpt><trkpt lat="42.94267162798273" lon="12.814748782948886"><ele>998.0</ele><time>2026-05-03T07:48:05Z</time></trkpt><trkpt lat="42.94257762580815" lon="12.814687768538041"><ele>998.0</ele><time>2026-05-03T07:48:06Z</time></trkpt><trkpt lat="42.942485542035904" lon="12.81462898942432"><ele>998.0</ele><time>2026-05-03T07:48:07Z</time></trkpt><trkpt lat="42.94239510960863" lon="12.814570645899352"><ele>998.0</ele><time>2026-05-03T07:48:08Z</time></trkpt><trkpt lat="42.94230984365651" lon="12.814542257730267"><ele>996.4</ele><time>2026-05-03T07:48:09Z</time></trkpt><trkpt lat="42.942222553912224" lon="12.814546418124687"><ele>994.8</ele><time>2026-05-03T07:48:10Z</time></trkpt><trkpt lat="42.94212259039164" lon="12.814588910444757"><ele>993.2</ele><time>2026-05-03T07:48:11Z</time></trkpt><trkpt lat="42.94201584139858" lon="12.814628814789081"><ele>991.6</ele><time>2026-05-03T07:48:12Z</time></trkpt><trkpt lat="42.94191255383431" lon="12.814705581623862"><ele>990.0</ele><time>2026-05-03T07:48:13Z</time></trkpt><trkpt lat="42.94181060898381" lon="12.814772180132033"><ele>987.75</ele><time>2026-05-03T07:48:14Z</time></trkpt><trkpt lat="42.94169292385301" lon="12.814783920125247"><ele>985.5</ele><time>2026-05-03T07:48:15Z</time></trkpt><trkpt lat="42.9415863438912" lon="12.814757126265423"><ele>983.25</ele><time>2026-05-03T07:48:16Z</time></trkpt><trkpt lat="42.94147744544405" lon="12.814738437937534"><ele>981.0</ele><time>2026-05-03T07:48:17Z</time></trkpt><trkpt lat="42.941363226215074" lon="12.814736944552441"><ele>981.0</ele><time>2026-05-03T07:48:18Z</time></trkpt><trkpt lat="42.94125159190863" lon="12.81474457498236"><ele>980.9999999999999</ele><time>2026-05-03T07:48:19Z</time></trkpt><trkpt lat="42.941133137579435" lon="12.81475809912012"><ele>980.9999999999999</ele><time>2026-05-03T07:48:20Z</time></trkpt><trkpt lat="42.94103025046058" lon="12.814758434852838"><ele>981.0</ele><time>2026-05-03T07:48:21Z</time></trkpt><trkpt lat="42.94092931249849" lon="12.814761663540521"><ele>981.0</ele><time>2026-05-03T07:48:22Z</time></trkpt><trkpt lat="42.940830347725374" lon="12.814746520698854"><ele>980.1999999999999</ele><time>2026-05-03T07:48:23Z</time></trkpt><trkpt lat="42.940738884827134" lon="12.81471085084349"><ele>979.3999999999999</ele><time>2026-05-03T07:48:24Z</time></trkpt><trkpt lat="42.940650325315936" lon="12.81469233648709"><ele>978.6</ele><time>2026-05-03T07:48:25Z</time></trkpt><trkpt lat="42.94056203153464" lon="12.814683085951286"><ele>977.8</ele><time>2026-05-03T07:48:26Z</time></trkpt><trkpt lat="42.94046875868444" lon="12.814691768434189"><ele>977.0</ele><time>2026-05-03T07:48:27Z</time></trkpt><trkpt lat="42.940383755311835" lon="12.814702402118662"><ele>977.0000000000001</ele><time>2026-05-03T07:48:28Z</time></trkpt><trkpt lat="42.940303794551866" lon="12.814697421396122"><ele>977.0</ele><time>2026-05-03T07:48:29Z</time></trkpt><trkpt lat="42.940218360697685" lon="12.814692868165851"><ele>977.0</ele><time>2026-05-03T07:48:30Z</time></trkpt><trkpt lat="42.94012759364467" lon="12.814667927977322"><ele>977.0</ele><time>2026-05-03T07:48:31Z</time></trkpt><trkpt lat="42.94005334983949" lon="12.814632304619993"><ele>977.0000000000001</ele><time>2026-05-03T07:48:32Z</time></trkpt><trkpt lat="42.93997901880583" lon="12.814526827800464"><ele>977.0</ele><time>2026-05-03T07:48:34Z</time></trkpt><trkpt lat="42.93994453415549" lon="12.814441799085749"><ele>976.1428571428573</ele><time>2026-05-03T07:48:35.999Z</time></trkpt><trkpt lat="42.93987895735381" lon="12.81445019333284"><ele>975.2857142857143</ele><time>2026-05-03T07:48:38.999Z</time></trkpt><trkpt lat="42.939811219095525" lon="12.814507806474621"><ele>974.4285714285716</ele><time>2026-05-03T07:48:41.999Z</time></trkpt><trkpt lat="42.939747604676036" lon="12.814507809509603"><ele>973.5714285714287</ele><time>2026-05-03T07:48:43.999Z</time></trkpt><trkpt lat="42.93968840596137" lon="12.814455155468186"><ele>972.7142857142858</ele><time>2026-05-03T07:48:45.999Z</time></trkpt><trkpt lat="42.93962030349484" lon="12.814386081175686"><ele>971.8571428571429</ele><time>2026-05-03T07:48:47.999Z</time></trkpt><trkpt lat="42.93956913814339" lon="12.814330631874597"><ele>971.0</ele><time>2026-05-03T07:48:49.999Z</time></trkpt><trkpt lat="42.93948927962405" lon="12.814220603200091"><ele>970.0</ele><time>2026-05-03T07:49:06.999Z</time></trkpt><trkpt lat="42.939430827286294" lon="12.814132024444955"><ele>968.9999999999999</ele><time>2026-05-03T07:49:07.999Z</time></trkpt><trkpt lat="42.93936057928233" lon="12.814035211221896"><ele>967.9999999999999</ele><time>2026-05-03T07:49:08.999Z</time></trkpt><trkpt lat="42.93928434864142" lon="12.813949270282922"><ele>967.0</ele><time>2026-05-03T07:49:09.999Z</time></trkpt><trkpt lat="42.93917590245178" lon="12.81389404865246"><ele>966.0</ele><time>2026-05-03T07:49:10.999Z</time></trkpt><trkpt lat="42.93906951231125" lon="12.813855759339624"><ele>966.0</ele><time>2026-05-03T07:49:11.999Z</time></trkpt><trkpt lat="42.93896452740693" lon="12.813818149995866"><ele>966.0</ele><time>2026-05-03T07:49:12.999Z</time></trkpt><trkpt lat="42.9388486262218" lon="12.81378976861067"><ele>966.0</ele><time>2026-05-03T07:49:13.999Z</time></trkpt><trkpt lat="42.93873697162383" lon="12.813763627210752"><ele>966.0</ele><time>2026-05-03T07:49:14.999Z</time></trkpt><trkpt lat="42.93861904721056" lon="12.813743642713453"><ele>966.0</ele><time>2026-05-03T07:49:15.999Z</time></trkpt><trkpt lat="42.93851628372823" lon="12.813743207662379"><ele>965.9999999999999</ele><time>2026-05-03T07:49:16.999Z</time></trkpt><trkpt lat="42.938431350475135" lon="12.813750388044928"><ele>965.9999999999999</ele><time>2026-05-03T07:49:17.999Z</time></trkpt><trkpt lat="42.93833718386839" lon="12.81376630786582"><ele>966.0</ele><time>2026-05-03T07:49:18.999Z</time></trkpt><trkpt lat="42.93823974345957" lon="12.813796480494744"><ele>966.0</ele><time>2026-05-03T07:49:19.999Z</time></trkpt><trkpt lat="42.93815260999392" lon="12.813830264166498"><ele>966.0</ele><time>2026-05-03T07:49:20.999Z</time></trkpt><trkpt lat="42.93807738898755" lon="12.81387545693455"><ele>966.0</ele><time>2026-05-03T07:49:21.999Z</time></trkpt><trkpt lat="42.938004030147376" lon="12.813913668996554"><ele>966.0</ele><time>2026-05-03T07:49:22.999Z</time></trkpt><trkpt lat="42.937929635343394" lon="12.813938000594188"><ele>966.0</ele><time>2026-05-03T07:49:23.999Z</time></trkpt><trkpt lat="42.937848675198126" lon="12.81398280326685"><ele>966.0</ele><time>2026-05-03T07:49:24.999Z</time></trkpt><trkpt lat="42.937772637469685" lon="12.814030800597642"><ele>966.0</ele><time>2026-05-03T07:49:25.999Z</time></trkpt><trkpt lat="42.937710511042646" lon="12.814078972405715"><ele>966.0</ele><time>2026-05-03T07:49:26.999Z</time></trkpt><trkpt lat="42.93764936850479" lon="12.814136615902328"><ele>966.0</ele><time>2026-05-03T07:49:27.999Z</time></trkpt><trkpt lat="42.9375975679539" lon="12.814204124342977"><ele>966.0</ele><time>2026-05-03T07:49:28.999Z</time></trkpt><trkpt lat="42.93755138008361" lon="12.814274026427007"><ele>966.0</ele><time>2026-05-03T07:49:29.999Z</time></trkpt><trkpt lat="42.93751038247639" lon="12.814352389514854"><ele>966.0</ele><time>2026-05-03T07:49:30.999Z</time></trkpt><trkpt lat="42.93747404776634" lon="12.814445043076567"><ele>966.0</ele><time>2026-05-03T07:49:31.999Z</time></trkpt><trkpt lat="42.93744216057819" lon="12.814526718853818"><ele>966.0</ele><time>2026-05-03T07:49:32.999Z</time></trkpt><trkpt lat="42.93740638127784" lon="12.814605338620881"><ele>964.8333333333334</ele><time>2026-05-03T07:49:33.999Z</time></trkpt><trkpt lat="42.93737248883589" lon="12.81469632832589"><ele>963.6666666666667</ele><time>2026-05-03T07:49:34.999Z</time></trkpt><trkpt lat="42.93732475342731" lon="12.814780761991111"><ele>962.5</ele><time>2026-05-03T07:49:35.999Z</time></trkpt><trkpt lat="42.937275905350084" lon="12.814864265363399"><ele>961.3333333333334</ele><time>2026-05-03T07:49:36.999Z</time></trkpt><trkpt lat="42.93723481597307" lon="12.814960558528728"><ele>960.1666666666667</ele><time>2026-05-03T07:49:37.999Z</time></trkpt><trkpt lat="42.93719456545277" lon="12.8150571460771"><ele>959.0</ele><time>2026-05-03T07:49:38.999Z</time></trkpt><trkpt lat="42.93713881018905" lon="12.815137379401227"><ele>961.8000000000001</ele><time>2026-05-03T07:49:39.999Z</time></trkpt><trkpt lat="42.93702499353954" lon="12.81518371736911"><ele>964.6000000000001</ele><time>2026-05-03T07:49:42Z</time></trkpt><trkpt lat="42.9369407542156" lon="12.815240493275573"><ele>967.4</ele><time>2026-05-03T07:49:44Z</time></trkpt><trkpt lat="42.936851704327054" lon="12.815341174350984"><ele>970.2</ele><time>2026-05-03T07:49:46Z</time></trkpt><trkpt lat="42.93678880722381" lon="12.815410454399844"><ele>973.0</ele><time>2026-05-03T07:49:48Z</time></trkpt><trkpt lat="42.936668373139135" lon="12.81544815020491"><ele>965.5</ele><time>2026-05-03T07:49:52Z</time></trkpt><trkpt lat="42.936606362889094" lon="12.815486059659236"><ele>958.0</ele><time>2026-05-03T07:49:54Z</time></trkpt><trkpt lat="42.93663858905731" lon="12.815570449468508"><ele>950.5</ele><time>2026-05-03T07:50:09Z</time></trkpt><trkpt lat="42.936642295806664" lon="12.815731821131141"><ele>943.0</ele><time>2026-05-03T07:50:11Z</time></trkpt><trkpt lat="42.9363511773088" lon="12.81584782432386"><ele>945.0</ele><time>2026-05-03T07:50:12Z</time></trkpt><trkpt lat="42.936333517061406" lon="12.815987366618339"><ele>947.0</ele><time>2026-05-03T07:50:13Z</time></trkpt><trkpt lat="42.93630187757567" lon="12.816134709223872"><ele>949.0</ele><time>2026-05-03T07:50:14Z</time></trkpt><trkpt lat="42.93626146584032" lon="12.816257854972172"><ele>951.0</ele><time>2026-05-03T07:50:15Z</time></trkpt><trkpt lat="42.93618968487806" lon="12.816263441064836"><ele>953.0</ele><time>2026-05-03T07:50:16Z</time></trkpt><trkpt lat="42.93611923063632" lon="12.816285476750032"><ele>953.0</ele><time>2026-05-03T07:50:17Z</time></trkpt><trkpt lat="42.93605021073028" lon="12.816407471136094"><ele>953.0</ele><time>2026-05-03T07:50:18Z</time></trkpt><trkpt lat="42.936019303936476" lon="12.816489469587609"><ele>953.0</ele><time>2026-05-03T07:50:19Z</time></trkpt><trkpt lat="42.936495709007545" lon="12.81720305291469"><ele>953.25</ele><time>2026-05-03T07:50:20Z</time></trkpt><trkpt lat="42.936553727760305" lon="12.81732321535959"><ele>953.5</ele><time>2026-05-03T07:50:21Z</time></trkpt><trkpt lat="42.93662688262779" lon="12.817493141232529"><ele>953.75</ele><time>2026-05-03T07:50:22Z</time></trkpt><trkpt lat="42.936712734552444" lon="12.817640673890274"><ele>954.0</ele><time>2026-05-03T07:50:23Z</time></trkpt><trkpt lat="42.93678169964108" lon="12.817750750539288"><ele>960.8000000000001</ele><time>2026-05-03T07:50:24Z</time></trkpt><trkpt lat="42.93681502849874" lon="12.817852865904221"><ele>967.6000000000001</ele><time>2026-05-03T07:50:25Z</time></trkpt><trkpt lat="42.93680934301366" lon="12.81796300641991"><ele>974.4</ele><time>2026-05-03T07:50:26Z</time></trkpt><trkpt lat="42.93677152529008" lon="12.818099296051118"><ele>981.2</ele><time>2026-05-03T07:50:27Z</time></trkpt><trkpt lat="42.93673684388482" lon="12.818257374068011"><ele>988.0</ele><time>2026-05-03T07:50:28Z</time></trkpt><trkpt lat="42.93673470932782" lon="12.818436867701399"><ele>993.25</ele><time>2026-05-03T07:50:29Z</time></trkpt><trkpt lat="42.9367472617756" lon="12.818616565348147"><ele>998.5</ele><time>2026-05-03T07:50:30Z</time></trkpt><trkpt lat="42.93674923525424" lon="12.81881344379213"><ele>1003.75</ele><time>2026-05-03T07:50:31Z</time></trkpt><trkpt lat="42.9367394547354" lon="12.818975866897219"><ele>1009.0</ele><time>2026-05-03T07:50:32Z</time></trkpt><trkpt lat="42.936738989710044" lon="12.819138752577945"><ele>1009.0</ele><time>2026-05-03T07:50:33Z</time></trkpt><trkpt lat="42.936745503974215" lon="12.819310882146786"><ele>1009.0000000000001</ele><time>2026-05-03T07:50:34Z</time></trkpt><trkpt lat="42.93675853899632" lon="12.819482480438628"><ele>1009.0000000000001</ele><time>2026-05-03T07:50:35Z</time></trkpt><trkpt lat="42.93676625905562" lon="12.819616625474014"><ele>1009.0</ele><time>2026-05-03T07:50:36Z</time></trkpt><trkpt lat="42.93677964328154" lon="12.819741787765675"><ele>1009.0</ele><time>2026-05-03T07:50:37Z</time></trkpt><trkpt lat="42.93680047525135" lon="12.819878062504957"><ele>1010.0</ele><time>2026-05-03T07:50:38Z</time></trkpt><trkpt lat="42.93681346124572" lon="12.819995082536025"><ele>1011.0000000000001</ele><time>2026-05-03T07:50:39Z</time></trkpt><trkpt lat="42.93681975477146" lon="12.82013172514464"><ele>1012.0000000000001</ele><time>2026-05-03T07:50:40Z</time></trkpt><trkpt lat="42.936837204209255" lon="12.820262912736158"><ele>1013.0</ele><time>2026-05-03T07:50:41Z</time></trkpt><trkpt lat="42.936875105042176" lon="12.82038014758442"><ele>1014.0</ele><time>2026-05-03T07:50:41.999Z</time></trkpt><trkpt lat="42.93691440893141" lon="12.820521343557468"><ele>1014.0</ele><time>2026-05-03T07:50:42.999Z</time></trkpt><trkpt lat="42.93693144982445" lon="12.820687483024397"><ele>1014.0</ele><time>2026-05-03T07:50:43.999Z</time></trkpt><trkpt lat="42.93694116873475" lon="12.820880532574131"><ele>1014.0</ele><time>2026-05-03T07:50:44.999Z</time></trkpt><trkpt lat="42.93694871112537" lon="12.821039627033894"><ele>1014.0</ele><time>2026-05-03T07:50:45.999Z</time></trkpt><trkpt lat="42.93696011732816" lon="12.82115573646308"><ele>1013.6</ele><time>2026-05-03T07:50:46.999Z</time></trkpt><trkpt lat="42.936969041099466" lon="12.821241048267593"><ele>1013.2</ele><time>2026-05-03T07:50:47.999Z</time></trkpt><trkpt lat="42.93697385444701" lon="12.821351763812558"><ele>1012.8000000000001</ele><time>2026-05-03T07:50:49.999Z</time></trkpt><trkpt lat="42.936954861726406" lon="12.821475038580362"><ele>1012.4000000000001</ele><time>2026-05-03T07:51:12.999Z</time></trkpt><trkpt lat="42.936924263772816" lon="12.821641135707079"><ele>1012.0</ele><time>2026-05-03T07:51:14.999Z</time></trkpt><trkpt lat="42.93691857538633" lon="12.821788895949656"><ele>1012.2</ele><time>2026-05-03T07:51:15.999Z</time></trkpt><trkpt lat="42.936916819187886" lon="12.821916329319013"><ele>1012.4000000000001</ele><time>2026-05-03T07:51:16.999Z</time></trkpt><trkpt lat="42.93691836928782" lon="12.822040408015289"><ele>1012.5999999999999</ele><time>2026-05-03T07:51:17.999Z</time></trkpt><trkpt lat="42.936929925028714" lon="12.822167635798657"><ele>1012.8</ele><time>2026-05-03T07:51:18.999Z</time></trkpt><trkpt lat="42.93694211579334" lon="12.822294099409254"><ele>1013.0</ele><time>2026-05-03T07:51:19.999Z</time></trkpt><trkpt lat="42.9369404707919" lon="12.822423825290896"><ele>1013.0000000000001</ele><time>2026-05-03T07:51:20.999Z</time></trkpt><trkpt lat="42.93692526929359" lon="12.822544481779115"><ele>1013.0</ele><time>2026-05-03T07:51:21.999Z</time></trkpt><trkpt lat="42.93691561324879" lon="12.82266687595213"><ele>1013.0</ele><time>2026-05-03T07:51:22.999Z</time></trkpt><trkpt lat="42.93690614664137" lon="12.822762849853438"><ele>1013.0</ele><time>2026-05-03T07:51:23.999Z</time></trkpt><trkpt lat="42.936885608878754" lon="12.822863812876015"><ele>1013.0000000000001</ele><time>2026-05-03T07:51:24.999Z</time></trkpt><trkpt lat="42.93685917321878" lon="12.822963489747643"><ele>1013.0</ele><time>2026-05-03T07:51:25.999Z</time></trkpt><trkpt lat="42.93683514319747" lon="12.82304578923949"><ele>1012.5000000000001</ele><time>2026-05-03T07:51:26.999Z</time></trkpt><trkpt lat="42.936799011509" lon="12.823189207684367"><ele>1012.0</ele><time>2026-05-03T07:51:28.999Z</time></trkpt><trkpt lat="42.93676894154211" lon="12.82326631121556"><ele>1011.5</ele><time>2026-05-03T07:51:29.999Z</time></trkpt><trkpt lat="42.93675282881497" lon="12.82335424525482"><ele>1011.0</ele><time>2026-05-03T07:51:30.999Z</time></trkpt><trkpt lat="42.936761351736465" lon="12.823456209337825"><ele>1010.5000000000001</ele><time>2026-05-03T07:51:31.999Z</time></trkpt><trkpt lat="42.93678127699031" lon="12.823568343073601"><ele>1010.0</ele><time>2026-05-03T07:51:32.999Z</time></trkpt><trkpt lat="42.93678875766793" lon="12.823687852982724"><ele>1009.0000000000001</ele><time>2026-05-03T07:51:33.999Z</time></trkpt><trkpt lat="42.93679580564238" lon="12.823804017890765"><ele>1008.0</ele><time>2026-05-03T07:51:34.999Z</time></trkpt><trkpt lat="42.93682864522346" lon="12.823903151909287"><ele>1007.0</ele><time>2026-05-03T07:51:35.999Z</time></trkpt><trkpt lat="42.936871582043175" lon="12.824005369816373"><ele>1006.0</ele><time>2026-05-03T07:51:36.999Z</time></trkpt><trkpt lat="42.93689982518792" lon="12.824109766260932"><ele>1005.0000000000001</ele><time>2026-05-03T07:51:37.999Z</time></trkpt><trkpt lat="42.93691936695517" lon="12.82421095399306"><ele>1004.0</ele><time>2026-05-03T07:51:38.999Z</time></trkpt><trkpt lat="42.93694985682794" lon="12.824379701332077"><ele>1002.6666666666667</ele><time>2026-05-03T07:51:40.999Z</time></trkpt><trkpt lat="42.936949540252485" lon="12.824534903304402"><ele>1001.3333333333334</ele><time>2026-05-03T07:51:42.999Z</time></trkpt><trkpt lat="42.93693951509859" lon="12.824638378749214"><ele>1000.0</ele><time>2026-05-03T07:51:43.999Z</time></trkpt><trkpt lat="42.936936695088455" lon="12.824746155458175"><ele>998.6666666666667</ele><time>2026-05-03T07:51:44.999Z</time></trkpt><trkpt lat="42.93694101793631" lon="12.824849133065737"><ele>997.3333333333334</ele><time>2026-05-03T07:51:45.999Z</time></trkpt><trkpt lat="42.93692755674882" lon="12.824966761632437"><ele>996.0</ele><time>2026-05-03T07:51:47Z</time></trkpt><trkpt lat="42.93695342339884" lon="12.825140601785325"><ele>994.1666666666666</ele><time>2026-05-03T07:51:49Z</time></trkpt><trkpt lat="42.936961653010826" lon="12.825228806755765"><ele>992.3333333333333</ele><time>2026-05-03T07:51:50Z</time></trkpt><trkpt lat="42.93698391059709" lon="12.825312205355987"><ele>990.5</ele><time>2026-05-03T07:51:51Z</time></trkpt><trkpt lat="42.93699089269434" lon="12.825479685890693"><ele>988.6666666666666</ele><time>2026-05-03T07:51:53Z</time></trkpt><trkpt lat="42.937003223845615" lon="12.825564843975204"><ele>986.8333333333333</ele><time>2026-05-03T07:51:54Z</time></trkpt><trkpt lat="42.9370114081247" lon="12.825654863588678"><ele>985.0</ele><time>2026-05-03T07:51:55Z</time></trkpt><trkpt lat="42.937017520773594" lon="12.825826562723005"><ele>984.9999999999999</ele><time>2026-05-03T07:51:57Z</time></trkpt><trkpt lat="42.937008852021656" lon="12.825919830840572"><ele>985.0</ele><time>2026-05-03T07:51:58Z</time></trkpt><trkpt lat="42.93699431053546" lon="12.826016729929192"><ele>985.0</ele><time>2026-05-03T07:51:59Z</time></trkpt><trkpt lat="42.93697885009823" lon="12.826141900367528"><ele>985.0</ele><time>2026-05-03T07:52:00Z</time></trkpt><trkpt lat="42.936969967730825" lon="12.826272634322534"><ele>984.9999999999999</ele><time>2026-05-03T07:52:01Z</time></trkpt><trkpt lat="42.93695234738145" lon="12.826381184407731"><ele>985.0</ele><time>2026-05-03T07:52:02Z</time></trkpt><trkpt lat="42.93694803440973" lon="12.826471880726348"><ele>983.8333333333333</ele><time>2026-05-03T07:52:03Z</time></trkpt><trkpt lat="42.93697841952011" lon="12.826567045720688"><ele>982.6666666666666</ele><time>2026-05-03T07:52:06Z</time></trkpt><trkpt lat="42.93704348214947" lon="12.826644272964412"><ele>981.5</ele><time>2026-05-03T07:52:21Z</time></trkpt><trkpt lat="42.9370934632925" lon="12.826710575063979"><ele>980.3333333333333</ele><time>2026-05-03T07:52:24Z</time></trkpt><trkpt lat="42.937139121512324" lon="12.826795018625614"><ele>979.1666666666666</ele><time>2026-05-03T07:52:26Z</time></trkpt><trkpt lat="42.93715884833073" lon="12.826880317817311"><ele>978.0</ele><time>2026-05-03T07:52:35Z</time></trkpt><trkpt lat="42.93713762319603" lon="12.826986944189247"><ele>977.0</ele><time>2026-05-03T07:53:06.999Z</time></trkpt><trkpt lat="42.93714532677469" lon="12.827100079064321"><ele>976.0</ele><time>2026-05-03T07:53:09.999Z</time></trkpt><trkpt lat="42.93718723200521" lon="12.827182265411905"><ele>975.0</ele><time>2026-05-03T07:53:10.999Z</time></trkpt><trkpt lat="42.93724760943542" lon="12.82732110330761"><ele>974.0</ele><time>2026-05-03T07:53:12.999Z</time></trkpt><trkpt lat="42.93725125807154" lon="12.827432701754546"><ele>973.0</ele><time>2026-05-03T07:53:13.999Z</time></trkpt><trkpt lat="42.937261142487316" lon="12.827550577029223"><ele>972.0</ele><time>2026-05-03T07:53:14.999Z</time></trkpt><trkpt lat="42.93725560277926" lon="12.827677742851218"><ele>970.0</ele><time>2026-05-03T07:53:16.999Z</time></trkpt><trkpt lat="42.937205877527845" lon="12.827818698941874"><ele>968.0</ele><time>2026-05-03T07:53:18.999Z</time></trkpt><trkpt lat="42.9371950388623" lon="12.827990130473438"><ele>966.0</ele><time>2026-05-03T07:53:20.999Z</time></trkpt><trkpt lat="42.937166181162226" lon="12.828089823323209"><ele>964.0</ele><time>2026-05-03T07:53:21.999Z</time></trkpt><trkpt lat="42.93710510929262" lon="12.828168339500984"><ele>962.0</ele><time>2026-05-03T07:53:23.999Z</time></trkpt><trkpt lat="42.937111335014784" lon="12.828283218369084"><ele>962.0</ele><time>2026-05-03T07:53:25.999Z</time></trkpt><trkpt lat="42.937139735034954" lon="12.828413963223806"><ele>962.0</ele><time>2026-05-03T07:53:27.999Z</time></trkpt><trkpt lat="42.93722256744483" lon="12.828537732492737"><ele>962.0</ele><time>2026-05-03T07:53:29.999Z</time></trkpt><trkpt lat="42.937268948605826" lon="12.828617638662605"><ele>962.0</ele><time>2026-05-03T07:53:30.999Z</time></trkpt><trkpt lat="42.93727858150635" lon="12.828755758084183"><ele>962.0</ele><time>2026-05-03T07:53:32.999Z</time></trkpt><trkpt lat="42.93730539107042" lon="12.828879087945069"><ele>960.1666666666667</ele><time>2026-05-03T07:53:34.999Z</time></trkpt><trkpt lat="42.937328005984114" lon="12.828986229463192"><ele>958.3333333333334</ele><time>2026-05-03T07:53:35.999Z</time></trkpt><trkpt lat="42.93737096887158" lon="12.829176717915397"><ele>956.5</ele><time>2026-05-03T07:53:37.999Z</time></trkpt><trkpt lat="42.9373973863923" lon="12.829267681980301"><ele>954.6666666666667</ele><time>2026-05-03T07:53:38.999Z</time></trkpt><trkpt lat="42.93742603202969" lon="12.829353997410687"><ele>952.8333333333334</ele><time>2026-05-03T07:53:39.999Z</time></trkpt><trkpt lat="42.937448337910816" lon="12.82943743189373"><ele>951.0</ele><time>2026-05-03T07:53:40.999Z</time></trkpt><trkpt lat="42.93746276962219" lon="12.829529717083402"><ele>950.1999999999999</ele><time>2026-05-03T07:53:42.999Z</time></trkpt><trkpt lat="42.937416327969714" lon="12.82962282553514"><ele>949.3999999999999</ele><time>2026-05-03T07:53:47.999Z</time></trkpt><trkpt lat="42.93749636551044" lon="12.82969899794495"><ele>948.6</ele><time>2026-05-03T07:53:49.999Z</time></trkpt><trkpt lat="42.93748395976563" lon="12.829891393826685"><ele>947.8</ele><time>2026-05-03T07:53:51.999Z</time></trkpt><trkpt lat="42.93747633775203" lon="12.829994051479886"><ele>947.0</ele><time>2026-05-03T07:53:53Z</time></trkpt><trkpt lat="42.93753102491084" lon="12.830070327076724"><ele>947.1666666666667</ele><time>2026-05-03T07:53:57Z</time></trkpt><trkpt lat="42.937555927837245" lon="12.830163941565994"><ele>947.3333333333334</ele><time>2026-05-03T07:53:59Z</time></trkpt><trkpt lat="42.93758200021847" lon="12.830264029111213"><ele>947.5</ele><time>2026-05-03T07:54:01Z</time></trkpt><trkpt lat="42.93763920190665" lon="12.83035162662438"><ele>947.6666666666667</ele><time>2026-05-03T07:54:03Z</time></trkpt><trkpt lat="42.93769966003098" lon="12.830459153685823"><ele>947.8333333333334</ele><time>2026-05-03T07:54:06Z</time></trkpt><trkpt lat="42.93773047196099" lon="12.830564695472878"><ele>948.0</ele><time>2026-05-03T07:54:08Z</time></trkpt><trkpt lat="42.93775287392533" lon="12.830698422082452"><ele>948.0</ele><time>2026-05-03T07:54:09Z</time></trkpt><trkpt lat="42.93779090119225" lon="12.830854768135806"><ele>948.0</ele><time>2026-05-03T07:54:11Z</time></trkpt><trkpt lat="42.937812940167866" lon="12.830950967080883"><ele>948.0</ele><time>2026-05-03T07:54:12Z</time></trkpt><trkpt lat="42.937857557459736" lon="12.831098987227923"><ele>948.0</ele><time>2026-05-03T07:54:14Z</time></trkpt><trkpt lat="42.93789619861767" lon="12.831235900614693"><ele>948.0</ele><time>2026-05-03T07:54:16Z</time></trkpt><trkpt lat="42.937931019060045" lon="12.831314039360343"><ele>945.2</ele><time>2026-05-03T07:54:19Z</time></trkpt><trkpt lat="42.93797301903111" lon="12.831479266222253"><ele>942.4</ele><time>2026-05-03T07:54:23Z</time></trkpt><trkpt lat="42.93796554358112" lon="12.831599548771282"><ele>939.6000000000001</ele><time>2026-05-03T07:54:26Z</time></trkpt><trkpt lat="42.93794692793295" lon="12.831724298900589"><ele>936.8000000000001</ele><time>2026-05-03T07:54:29Z</time></trkpt><trkpt lat="42.93801018013484" lon="12.83185362761521"><ele>934.0</ele><time>2026-05-03T07:54:32Z</time></trkpt><trkpt lat="42.938012399614784" lon="12.831951038867393"><ele>932.9999999999999</ele><time>2026-05-03T07:54:39Z</time></trkpt><trkpt lat="42.93804213139521" lon="12.832033280965089"><ele>932.0</ele><time>2026-05-03T07:55:16.999Z</time></trkpt><trkpt lat="42.93806467785371" lon="12.832135785229752"><ele>931.0</ele><time>2026-05-03T07:55:18.999Z</time></trkpt><trkpt lat="42.938117921134804" lon="12.832263846793817"><ele>930.0</ele><time>2026-05-03T07:55:20.999Z</time></trkpt><trkpt lat="42.93811957767483" lon="12.832375328106561"><ele>928.9999999999999</ele><time>2026-05-03T07:55:22.999Z</time></trkpt><trkpt lat="42.938095931659326" lon="12.832459749059899"><ele>928.0</ele><time>2026-05-03T07:55:26.999Z</time></trkpt><trkpt lat="42.93811248635348" lon="12.832557771485389"><ele>926.6666666666666</ele><time>2026-05-03T07:55:29.999Z</time></trkpt><trkpt lat="42.93813787626424" lon="12.832669641395134"><ele>925.3333333333333</ele><time>2026-05-03T07:55:31.999Z</time></trkpt><trkpt lat="42.938166190383775" lon="12.832795491140152"><ele>924.0</ele><time>2026-05-03T07:55:33.999Z</time></trkpt><trkpt lat="42.938185799949444" lon="12.832910495141467"><ele>922.6666666666667</ele><time>2026-05-03T07:55:35.999Z</time></trkpt><trkpt lat="42.938200160561856" lon="12.832998944789903"><ele>921.3333333333334</ele><time>2026-05-03T07:55:36.999Z</time></trkpt><trkpt lat="42.93822111754977" lon="12.833120719824368"><ele>920.0</ele><time>2026-05-03T07:55:38.999Z</time></trkpt><trkpt lat="42.93825177289155" lon="12.83326977455009"><ele>920.0000000000001</ele><time>2026-05-03T07:55:40.999Z</time></trkpt><trkpt lat="42.93823256204554" lon="12.833359900613235"><ele>920.0</ele><time>2026-05-03T07:55:44.999Z</time></trkpt><trkpt lat="42.93818608196834" lon="12.833472565779061"><ele>920.0</ele><time>2026-05-03T07:55:47.999Z</time></trkpt><trkpt lat="42.93814529619525" lon="12.83359791116487"><ele>920.0</ele><time>2026-05-03T07:55:49.999Z</time></trkpt><trkpt lat="42.93809839714936" lon="12.833698423231017"><ele>920.0000000000001</ele><time>2026-05-03T07:55:52.999Z</time></trkpt><trkpt lat="42.93807241372498" lon="12.833813727885818"><ele>920.0</ele><time>2026-05-03T07:55:54.999Z</time></trkpt><trkpt lat="42.93806149849538" lon="12.833900570564305"><ele>919.5000000000001</ele><time>2026-05-03T07:55:56.999Z</time></trkpt><trkpt lat="42.93803586303832" lon="12.83401139229516"><ele>919.0</ele><time>2026-05-03T07:56:00Z</time></trkpt><trkpt lat="42.938002104432755" lon="12.83412967899406"><ele>918.5</ele><time>2026-05-03T07:56:04Z</time></trkpt><trkpt lat="42.9380037070839" lon="12.8342208233938"><ele>918.0</ele><time>2026-05-03T07:56:05Z</time></trkpt><trkpt lat="42.93800535332073" lon="12.834349162685122"><ele>917.5000000000001</ele><time>2026-05-03T07:56:08Z</time></trkpt><trkpt lat="42.937997642077505" lon="12.834459311285414"><ele>917.0</ele><time>2026-05-03T07:56:11Z</time></trkpt><trkpt lat="42.93799858587075" lon="12.834547219399877"><ele>916.8333333333334</ele><time>2026-05-03T07:56:15Z</time></trkpt><trkpt lat="42.93799232865473" lon="12.83463399658318"><ele>916.6666666666667</ele><time>2026-05-03T07:56:18Z</time></trkpt><trkpt lat="42.937977105686244" lon="12.834771821620357"><ele>916.5</ele><time>2026-05-03T07:56:22Z</time></trkpt><trkpt lat="42.937909473962755" lon="12.834854584285488"><ele>916.3333333333333</ele><time>2026-05-03T07:56:25Z</time></trkpt><trkpt lat="42.93785166573043" lon="12.834930122736417"><ele>916.1666666666666</ele><time>2026-05-03T07:56:29Z</time></trkpt><trkpt lat="42.93781556308115" lon="12.835025351915757"><ele>916.0</ele><time>2026-05-03T07:56:34Z</time></trkpt><trkpt lat="42.937761735621216" lon="12.835143374428466"><ele>917.4285714285713</ele><time>2026-05-03T07:56:37Z</time></trkpt><trkpt lat="42.93773799188824" lon="12.835233807141135"><ele>918.8571428571429</ele><time>2026-05-03T07:56:41Z</time></trkpt><trkpt lat="42.937720590296365" lon="12.83532187802483"><ele>920.2857142857142</ele><time>2026-05-03T07:56:54Z</time></trkpt><trkpt lat="42.937707047659266" lon="12.835409921953538"><ele>921.7142857142857</ele><time>2026-05-03T07:57:02Z</time></trkpt><trkpt lat="42.93769827179796" lon="12.83550186344138"><ele>923.1428571428571</ele><time>2026-05-03T07:57:09.999Z</time></trkpt><trkpt lat="42.9376899229384" lon="12.83560470402755"><ele>924.5714285714286</ele><time>2026-05-03T07:57:13.999Z</time></trkpt><trkpt lat="42.93768940191848" lon="12.835699097013762"><ele>926.0</ele><time>2026-05-03T07:57:17.999Z</time></trkpt><trkpt lat="42.9376311799819" lon="12.835773625870187"><ele>926.0000000000001</ele><time>2026-05-03T07:57:50.999Z</time></trkpt><trkpt lat="42.93764829986858" lon="12.835683893348284"><ele>926.0</ele><time>2026-05-03T07:58:30Z</time></trkpt><trkpt lat="42.93768414861128" lon="12.835583987277007"><ele>926.0</ele><time>2026-05-03T07:58:32Z</time></trkpt><trkpt lat="42.937678098543344" lon="12.835491790291814"><ele>926.0</ele><time>2026-05-03T07:58:41Z</time></trkpt><trkpt lat="42.93765130149347" lon="12.83540443675621"><ele>926.0000000000001</ele><time>2026-05-03T07:58:50Z</time></trkpt><trkpt lat="42.93766124913774" lon="12.835313046484117"><ele>926.0</ele><time>2026-05-03T07:59:15.999Z</time></trkpt><trkpt lat="42.93768404583652" lon="12.835185034676018"><ele>926.0000000000001</ele><time>2026-05-03T07:59:18.999Z</time></trkpt><trkpt lat="42.9377012527111" lon="12.835082641277666"><ele>926.0</ele><time>2026-05-03T07:59:21.999Z</time></trkpt><trkpt lat="42.93770947966029" lon="12.834983517425941"><ele>926.0</ele><time>2026-05-03T07:59:27.999Z</time></trkpt><trkpt lat="42.93774692385834" lon="12.834899980376727"><ele>926.0</ele><time>2026-05-03T07:59:30.999Z</time></trkpt><trkpt lat="42.93777021175569" lon="12.834991663516274"><ele>926.0000000000001</ele><time>2026-05-03T07:59:49.999Z</time></trkpt><trkpt lat="42.93777487930948" lon="12.835093891157898"><ele>926.0</ele><time>2026-05-03T07:59:52.999Z</time></trkpt><trkpt lat="42.93776216719332" lon="12.835218130460317"><ele>926.0000000000001</ele><time>2026-05-03T07:59:55.999Z</time></trkpt><trkpt lat="42.93775947492019" lon="12.835333575108296"><ele>926.0</ele><time>2026-05-03T07:59:59.999Z</time></trkpt><trkpt lat="42.93774474881594" lon="12.835430468440988"><ele>926.0</ele><time>2026-05-03T08:00:01.999Z</time></trkpt><trkpt lat="42.93773748061872" lon="12.835518491118929"><ele>926.0</ele><time>2026-05-03T08:00:03.999Z</time></trkpt><trkpt lat="42.93772549302107" lon="12.835604474142038"><ele>926.0000000000001</ele><time>2026-05-03T08:00:06.999Z</time></trkpt><trkpt lat="42.93769038941048" lon="12.835692030025141"><ele>926.0</ele><time>2026-05-03T08:01:01Z</time></trkpt><trkpt lat="42.937702747175194" lon="12.835844013215292"><ele>926.3333333333334</ele><time>2026-05-03T08:01:06Z</time></trkpt><trkpt lat="42.93771566489566" lon="12.83599198730425"><ele>926.6666666666667</ele><time>2026-05-03T08:01:08Z</time></trkpt><trkpt lat="42.93772549710878" lon="12.836139415731445"><ele>927.0</ele><time>2026-05-03T08:01:10Z</time></trkpt><trkpt lat="42.937730421883074" lon="12.836240218291369"><ele>927.3333333333333</ele><time>2026-05-03T08:01:11Z</time></trkpt><trkpt lat="42.937718839066484" lon="12.836338032836853"><ele>927.6666666666666</ele><time>2026-05-03T08:01:12Z</time></trkpt><trkpt lat="42.937723177951376" lon="12.83643160127361"><ele>928.0</ele><time>2026-05-03T08:01:13Z</time></trkpt><trkpt lat="42.93772390142888" lon="12.836543111127286"><ele>928.0</ele><time>2026-05-03T08:01:14Z</time></trkpt><trkpt lat="42.937698295545516" lon="12.836706527233904"><ele>928.0</ele><time>2026-05-03T08:01:16Z</time></trkpt><trkpt lat="42.93767710688533" lon="12.836842199422081"><ele>928.0</ele><time>2026-05-03T08:01:17Z</time></trkpt><trkpt lat="42.9376472314201" lon="12.83697193623196"><ele>928.0</ele><time>2026-05-03T08:01:18Z</time></trkpt><trkpt lat="42.93763262655178" lon="12.837085782913707"><ele>928.0</ele><time>2026-05-03T08:01:19Z</time></trkpt><trkpt lat="42.93762650668115" lon="12.837194093178173"><ele>927.8333333333333</ele><time>2026-05-03T08:01:20Z</time></trkpt><trkpt lat="42.93761833846036" lon="12.837311216509802"><ele>927.6666666666666</ele><time>2026-05-03T08:01:21Z</time></trkpt><trkpt lat="42.93762300234897" lon="12.837417635787906"><ele>927.5</ele><time>2026-05-03T08:01:22Z</time></trkpt><trkpt lat="42.93762913910136" lon="12.837534873399434"><ele>927.3333333333333</ele><time>2026-05-03T08:01:22.999Z</time></trkpt><trkpt lat="42.93763846340536" lon="12.837629905243896"><ele>927.1666666666666</ele><time>2026-05-03T08:01:23.999Z</time></trkpt><trkpt lat="42.93764151170277" lon="12.83773012770568"><ele>927.0</ele><time>2026-05-03T08:01:24.999Z</time></trkpt><trkpt lat="42.9376462674909" lon="12.837843616169675"><ele>926.6666666666666</ele><time>2026-05-03T08:01:25.999Z</time></trkpt><trkpt lat="42.93765392879921" lon="12.837945407290478"><ele>926.3333333333333</ele><time>2026-05-03T08:01:26.999Z</time></trkpt><trkpt lat="42.93766008635688" lon="12.83805421452375"><ele>926.0</ele><time>2026-05-03T08:01:27.999Z</time></trkpt><trkpt lat="42.93766596381972" lon="12.838163133410735"><ele>925.6666666666666</ele><time>2026-05-03T08:01:28.999Z</time></trkpt><trkpt lat="42.93767008183729" lon="12.83828658796911"><ele>925.3333333333333</ele><time>2026-05-03T08:01:29.999Z</time></trkpt><trkpt lat="42.9376504729322" lon="12.83841092616079"><ele>925.0</ele><time>2026-05-03T08:01:30.999Z</time></trkpt><trkpt lat="42.93763569141597" lon="12.838536352322375"><ele>923.4</ele><time>2026-05-03T08:01:31.999Z</time></trkpt><trkpt lat="42.93761607495208" lon="12.838655563687395"><ele>921.8</ele><time>2026-05-03T08:01:32.999Z</time></trkpt><trkpt lat="42.93758192737896" lon="12.838780518787788"><ele>920.2</ele><time>2026-05-03T08:01:33.999Z</time></trkpt><trkpt lat="42.93754624048526" lon="12.838894888179343"><ele>918.6</ele><time>2026-05-03T08:01:34.999Z</time></trkpt><trkpt lat="42.937518296198675" lon="12.839005345573158"><ele>917.0</ele><time>2026-05-03T08:01:35.999Z</time></trkpt><trkpt lat="42.93749251157076" lon="12.83912931678353"><ele>911.1666666666667</ele><time>2026-05-03T08:01:36.999Z</time></trkpt><trkpt lat="42.93748796535276" lon="12.839247833256472"><ele>905.3333333333334</ele><time>2026-05-03T08:01:37.999Z</time></trkpt><trkpt lat="42.93747485629822" lon="12.839375032463018"><ele>899.5</ele><time>2026-05-03T08:01:38.999Z</time></trkpt><trkpt lat="42.93746800754647" lon="12.839498438615287"><ele>893.6666666666667</ele><time>2026-05-03T08:01:39.999Z</time></trkpt><trkpt lat="42.93745647652255" lon="12.8396070831701"><ele>887.8333333333334</ele><time>2026-05-03T08:01:40.999Z</time></trkpt><trkpt lat="42.93743367981759" lon="12.839704579157909"><ele>882.0</ele><time>2026-05-03T08:01:41.999Z</time></trkpt><trkpt lat="42.93741753159985" lon="12.839803420930822"><ele>879.8571428571429</ele><time>2026-05-03T08:01:42.999Z</time></trkpt><trkpt lat="42.93740793977278" lon="12.839900570371098"><ele>877.7142857142858</ele><time>2026-05-03T08:01:43.999Z</time></trkpt><trkpt lat="42.937414488357675" lon="12.84000003086885"><ele>875.5714285714286</ele><time>2026-05-03T08:01:44.999Z</time></trkpt><trkpt lat="42.9374101100181" lon="12.840088450289402"><ele>873.4285714285714</ele><time>2026-05-03T08:01:45.999Z</time></trkpt><trkpt lat="42.93743313292528" lon="12.840191211472694"><ele>871.2857142857143</ele><time>2026-05-03T08:01:46.999Z</time></trkpt><trkpt lat="42.93746163650548" lon="12.840274352842263"><ele>869.1428571428571</ele><time>2026-05-03T08:01:47.999Z</time></trkpt><trkpt lat="42.93749628768389" lon="12.840351953202319"><ele>867.0</ele><time>2026-05-03T08:01:48.999Z</time></trkpt><trkpt lat="42.93754240007207" lon="12.840423693071273"><ele>867.3333333333334</ele><time>2026-05-03T08:01:49.999Z</time></trkpt><trkpt lat="42.93758639865148" lon="12.840495212765955"><ele>867.6666666666667</ele><time>2026-05-03T08:01:50.999Z</time></trkpt><trkpt lat="42.93762463768199" lon="12.840576302476606"><ele>868.0</ele><time>2026-05-03T08:01:51.999Z</time></trkpt><trkpt lat="42.937670461150404" lon="12.840654661097533"><ele>868.3333333333334</ele><time>2026-05-03T08:01:52.999Z</time></trkpt><trkpt lat="42.93775119610369" lon="12.840799308123804"><ele>868.6666666666667</ele><time>2026-05-03T08:01:54.999Z</time></trkpt><trkpt lat="42.93779485878044" lon="12.840884764591209"><ele>869.0</ele><time>2026-05-03T08:01:55.999Z</time></trkpt><trkpt lat="42.93784976222649" lon="12.840967122503177"><ele>864.0000000000001</ele><time>2026-05-03T08:01:56.999Z</time></trkpt><trkpt lat="42.93789163794118" lon="12.84104783227852"><ele>859.0</ele><time>2026-05-03T08:01:57.999Z</time></trkpt><trkpt lat="42.937965210613754" lon="12.84116023046155"><ele>854.0</ele><time>2026-05-03T08:01:59.999Z</time></trkpt><trkpt lat="42.93803488674748" lon="12.841237321258568"><ele>849.0</ele><time>2026-05-03T08:02:01.999Z</time></trkpt><trkpt lat="42.9381004859868" lon="12.841257603972542"><ele>844.0000000000001</ele><time>2026-05-03T08:02:02.999Z</time></trkpt><trkpt lat="42.93817338597877" lon="12.84128087019641"><ele>839.0</ele><time>2026-05-03T08:02:03.999Z</time></trkpt><trkpt lat="42.938243045858144" lon="12.841329484767051"><ele>839.0</ele><time>2026-05-03T08:02:04.999Z</time></trkpt><trkpt lat="42.938299555020805" lon="12.841373188168456"><ele>839.0</ele><time>2026-05-03T08:02:05.999Z</time></trkpt><trkpt lat="42.938355369917666" lon="12.841423299328584"><ele>839.0</ele><time>2026-05-03T08:02:06.999Z</time></trkpt><trkpt lat="42.93840692564816" lon="12.841484223288255"><ele>839.0</ele><time>2026-05-03T08:02:07.999Z</time></trkpt><trkpt lat="42.93845693041938" lon="12.841552221817068"><ele>839.0</ele><time>2026-05-03T08:02:08.999Z</time></trkpt><trkpt lat="42.93850012115937" lon="12.841622170447986"><ele>839.0</ele><time>2026-05-03T08:02:09.999Z</time></trkpt><trkpt lat="42.938536619527135" lon="12.841707277971949"><ele>839.0</ele><time>2026-05-03T08:02:10.999Z</time></trkpt><trkpt lat="42.93857631885724" lon="12.84187392771989"><ele>836.8000000000001</ele><time>2026-05-03T08:02:12.999Z</time></trkpt><trkpt lat="42.93862832762623" lon="12.842014226760675"><ele>834.6</ele><time>2026-05-03T08:02:14.999Z</time></trkpt><trkpt lat="42.938699804155924" lon="12.842155664420778"><ele>832.4</ele><time>2026-05-03T08:02:17Z</time></trkpt><trkpt lat="42.93874968001337" lon="12.842231831369935"><ele>830.2</ele><time>2026-05-03T08:02:18Z</time></trkpt><trkpt lat="42.938802279920885" lon="12.84231046971219"><ele>828.0</ele><time>2026-05-03T08:02:19Z</time></trkpt><trkpt lat="42.93885479358141" lon="12.842397484306721"><ele>828.0</ele><time>2026-05-03T08:02:20Z</time></trkpt><trkpt lat="42.93891117059734" lon="12.84246109062868"><ele>828.0</ele><time>2026-05-03T08:02:21Z</time></trkpt><trkpt lat="42.93896108857513" lon="12.842535572243333"><ele>828.0</ele><time>2026-05-03T08:02:22Z</time></trkpt><trkpt lat="42.93904260386054" lon="12.84262180690934"><ele>828.0</ele><time>2026-05-03T08:02:24Z</time></trkpt><trkpt lat="42.939104952052894" lon="12.842666942998225"><ele>828.0</ele><time>2026-05-03T08:02:35Z</time></trkpt><trkpt lat="42.93915424735217" lon="12.842742133292077"><ele>828.0</ele><time>2026-05-03T08:02:38Z</time></trkpt><trkpt lat="42.93922315761005" lon="12.842848345995526"><ele>825.25</ele><time>2026-05-03T08:02:41Z</time></trkpt><trkpt lat="42.9393989944314" lon="12.842957851908158"><ele>822.5</ele><time>2026-05-03T08:02:44Z</time></trkpt><trkpt lat="42.93946467400972" lon="12.84300632765151"><ele>819.75</ele><time>2026-05-03T08:02:45Z</time></trkpt><trkpt lat="42.93957215041084" lon="12.843096499795672"><ele>817.0</ele><time>2026-05-03T08:02:47Z</time></trkpt><trkpt lat="42.939648165741296" lon="12.843141398150571"><ele>816.9999999999999</ele><time>2026-05-03T08:02:48Z</time></trkpt><trkpt lat="42.939722010449586" lon="12.843203867662965"><ele>817.0</ele><time>2026-05-03T08:02:49Z</time></trkpt><trkpt lat="42.93979599856424" lon="12.843265020046212"><ele>817.0</ele><time>2026-05-03T08:02:50Z</time></trkpt><trkpt lat="42.939870065607025" lon="12.84331943171838"><ele>817.0</ele><time>2026-05-03T08:02:51Z</time></trkpt><trkpt lat="42.93994096286178" lon="12.843381477668586"><ele>816.9999999999999</ele><time>2026-05-03T08:02:52Z</time></trkpt><trkpt lat="42.94001109334421" lon="12.843456855298832"><ele>817.0</ele><time>2026-05-03T08:02:53Z</time></trkpt><trkpt lat="42.9400808821321" lon="12.843520989763114"><ele>815.6</ele><time>2026-05-03T08:02:54Z</time></trkpt><trkpt lat="42.94017110151799" lon="12.84360455828597"><ele>814.2</ele><time>2026-05-03T08:02:55Z</time></trkpt><trkpt lat="42.940243150773256" lon="12.84370622903297"><ele>812.8</ele><time>2026-05-03T08:02:56Z</time></trkpt><trkpt lat="42.940276746111934" lon="12.843806116952745"><ele>811.4</ele><time>2026-05-03T08:02:57Z</time></trkpt><trkpt lat="42.94030328410599" lon="12.843955939527827"><ele>810.0</ele><time>2026-05-03T08:02:59Z</time></trkpt><trkpt lat="42.94031416944689" lon="12.844058008916775"><ele>810.0</ele><time>2026-05-03T08:03:00Z</time></trkpt><trkpt lat="42.940308082803206" lon="12.844155680568727"><ele>810.0</ele><time>2026-05-03T08:03:01Z</time></trkpt><trkpt lat="42.94031391796835" lon="12.844340403044232"><ele>810.0</ele><time>2026-05-03T08:03:03Z</time></trkpt><trkpt lat="42.940332490258044" lon="12.844427770569158"><ele>810.0</ele><time>2026-05-03T08:03:04Z</time></trkpt><trkpt lat="42.9403491952874" lon="12.844512233059948"><ele>810.0</ele><time>2026-05-03T08:03:05Z</time></trkpt><trkpt lat="42.94040486872371" lon="12.844579038758203"><ele>810.0</ele><time>2026-05-03T08:03:06Z</time></trkpt><trkpt lat="42.940491262469585" lon="12.844614912108222"><ele>809.0</ele><time>2026-05-03T08:03:07Z</time></trkpt><trkpt lat="42.940560688852045" lon="12.84464963199066"><ele>808.0</ele><time>2026-05-03T08:03:08Z</time></trkpt><trkpt lat="42.94063747844163" lon="12.844699710468726"><ele>807.0</ele><time>2026-05-03T08:03:09Z</time></trkpt><trkpt lat="42.940726000590836" lon="12.844777005572354"><ele>806.0</ele><time>2026-05-03T08:03:10Z</time></trkpt><trkpt lat="42.940806854269255" lon="12.844869749689554"><ele>805.0</ele><time>2026-05-03T08:03:11Z</time></trkpt><trkpt lat="42.94089955322463" lon="12.844975076846984"><ele>805.0</ele><time>2026-05-03T08:03:12Z</time></trkpt><trkpt lat="42.940991812244626" lon="12.845081726209473"><ele>805.0</ele><time>2026-05-03T08:03:13Z</time></trkpt><trkpt lat="42.94105316116373" lon="12.845178609138479"><ele>805.0</ele><time>2026-05-03T08:03:14Z</time></trkpt><trkpt lat="42.94110894072947" lon="12.845267399796473"><ele>805.0</ele><time>2026-05-03T08:03:15Z</time></trkpt><trkpt lat="42.94117879583501" lon="12.845381284361341"><ele>805.0</ele><time>2026-05-03T08:03:16Z</time></trkpt><trkpt lat="42.94123773309831" lon="12.845498961572178"><ele>800.8</ele><time>2026-05-03T08:03:17Z</time></trkpt><trkpt lat="42.94130500404468" lon="12.845600329619641"><ele>796.6</ele><time>2026-05-03T08:03:18Z</time></trkpt><trkpt lat="42.94136709219383" lon="12.845674629706423"><ele>792.4000000000001</ele><time>2026-05-03T08:03:19Z</time></trkpt><trkpt lat="42.94143776884873" lon="12.845726936440315"><ele>788.2</ele><time>2026-05-03T08:03:20Z</time></trkpt><trkpt lat="42.94152750983138" lon="12.845808056014864"><ele>784.0</ele><time>2026-05-03T08:03:22Z</time></trkpt><trkpt lat="42.94158577898933" lon="12.845927964255566"><ele>784.8000000000001</ele><time>2026-05-03T08:03:24Z</time></trkpt><trkpt lat="42.94163570495399" lon="12.846061690903928"><ele>785.6</ele><time>2026-05-03T08:03:26Z</time></trkpt><trkpt lat="42.94167122887449" lon="12.846132889778795"><ele>786.4</ele><time>2026-05-03T08:03:27Z</time></trkpt><trkpt lat="42.941736781391064" lon="12.846259841964306"><ele>787.2</ele><time>2026-05-03T08:03:28.999Z</time></trkpt><trkpt lat="42.94177091049644" lon="12.846409547674195"><ele>788.0</ele><time>2026-05-03T08:03:30.999Z</time></trkpt><trkpt lat="42.94179959163773" lon="12.846502822822332"><ele>786.0</ele><time>2026-05-03T08:03:31.999Z</time></trkpt><trkpt lat="42.941841638054015" lon="12.846593319922391"><ele>784.0</ele><time>2026-05-03T08:03:32.999Z</time></trkpt><trkpt lat="42.94191058571678" lon="12.846661797747489"><ele>782.0</ele><time>2026-05-03T08:03:33.999Z</time></trkpt><trkpt lat="42.941987110921346" lon="12.846726121366014"><ele>780.0</ele><time>2026-05-03T08:03:34.999Z</time></trkpt><trkpt lat="42.94207643635871" lon="12.8467960919943"><ele>778.0</ele><time>2026-05-03T08:03:35.999Z</time></trkpt><trkpt lat="42.94216002501406" lon="12.846867309540308"><ele>778.0</ele><time>2026-05-03T08:03:36.999Z</time></trkpt><trkpt lat="42.9422466978317" lon="12.846925255508747"><ele>778.0</ele><time>2026-05-03T08:03:37.999Z</time></trkpt><trkpt lat="42.942329228707" lon="12.846992666763743"><ele>778.0</ele><time>2026-05-03T08:03:38.999Z</time></trkpt><trkpt lat="42.94240800742963" lon="12.847058619164631"><ele>778.0</ele><time>2026-05-03T08:03:39.999Z</time></trkpt><trkpt lat="42.942484106404855" lon="12.847121792211064"><ele>778.0</ele><time>2026-05-03T08:03:40.999Z</time></trkpt><trkpt lat="42.942567457791775" lon="12.84717267399459"><ele>775.9999999999999</ele><time>2026-05-03T08:03:41.999Z</time></trkpt><trkpt lat="42.94265940760886" lon="12.847209061333475"><ele>774.0</ele><time>2026-05-03T08:03:42.999Z</time></trkpt><trkpt lat="42.942740709000205" lon="12.847237814037221"><ele>772.0</ele><time>2026-05-03T08:03:43.999Z</time></trkpt><trkpt lat="42.94281234297391" lon="12.847288131501571"><ele>770.0</ele><time>2026-05-03T08:03:44.999Z</time></trkpt><trkpt lat="42.94288792569414" lon="12.847357397782593"><ele>768.0</ele><time>2026-05-03T08:03:45.999Z</time></trkpt><trkpt lat="42.94296500616754" lon="12.847432422251623"><ele>766.0</ele><time>2026-05-03T08:03:46.999Z</time></trkpt><trkpt lat="42.943041796705955" lon="12.84751570913048"><ele>766.0</ele><time>2026-05-03T08:03:47.999Z</time></trkpt><trkpt lat="42.94312544359225" lon="12.847597188845576"><ele>766.0</ele><time>2026-05-03T08:03:48.999Z</time></trkpt><trkpt lat="42.943207659918194" lon="12.847690013910581"><ele>766.0</ele><time>2026-05-03T08:03:49.999Z</time></trkpt><trkpt lat="42.94328887424975" lon="12.84776462815995"><ele>766.0</ele><time>2026-05-03T08:03:50.999Z</time></trkpt><trkpt lat="42.943379962530564" lon="12.84780269029715"><ele>766.0</ele><time>2026-05-03T08:03:51.999Z</time></trkpt><trkpt lat="42.943453218763665" lon="12.847836304234466"><ele>763.0</ele><time>2026-05-03T08:03:52.999Z</time></trkpt><trkpt lat="42.94351285043073" lon="12.847877218575713"><ele>760.0</ele><time>2026-05-03T08:03:53.999Z</time></trkpt><trkpt lat="42.943596951027594" lon="12.84802156094067"><ele>757.0</ele><time>2026-05-03T08:03:55.999Z</time></trkpt><trkpt lat="42.94363840925205" lon="12.848100532331713"><ele>754.0</ele><time>2026-05-03T08:03:56.999Z</time></trkpt><trkpt lat="42.94367550907348" lon="12.848180447307367"><ele>751.0</ele><time>2026-05-03T08:03:57.999Z</time></trkpt><trkpt lat="42.94372199219051" lon="12.848264495580034"><ele>748.0</ele><time>2026-05-03T08:03:58.999Z</time></trkpt><trkpt lat="42.94378537735507" lon="12.848330772428122"><ele>748.0</ele><time>2026-05-03T08:03:59.999Z</time></trkpt><trkpt lat="42.94385538094832" lon="12.848379473284915"><ele>748.0</ele><time>2026-05-03T08:04:00.999Z</time></trkpt><trkpt lat="42.943918551774644" lon="12.848425486566226"><ele>748.0</ele><time>2026-05-03T08:04:01.999Z</time></trkpt><trkpt lat="42.943969356011486" lon="12.848488149413418"><ele>748.0</ele><time>2026-05-03T08:04:02.999Z</time></trkpt><trkpt lat="42.94400630752846" lon="12.848558164615763"><ele>748.0</ele><time>2026-05-03T08:04:03.999Z</time></trkpt><trkpt lat="42.94404011656421" lon="12.848631204719368"><ele>748.0</ele><time>2026-05-03T08:04:05.999Z</time></trkpt><trkpt lat="42.94406817736694" lon="12.848713973698166"><ele>748.0</ele><time>2026-05-03T08:04:29Z</time></trkpt><trkpt lat="42.94408104902703" lon="12.848915300380488"><ele>747.6666666666667</ele><time>2026-05-03T08:04:31Z</time></trkpt><trkpt lat="42.94406592380273" lon="12.849031165274383"><ele>747.3333333333334</ele><time>2026-05-03T08:04:32Z</time></trkpt><trkpt lat="42.944054468232714" lon="12.849144467347939"><ele>747.0</ele><time>2026-05-03T08:04:33Z</time></trkpt><trkpt lat="42.944060269328894" lon="12.849252605402029"><ele>746.6666666666666</ele><time>2026-05-03T08:04:34Z</time></trkpt><trkpt lat="42.9440872562423" lon="12.849369671085798"><ele>746.3333333333333</ele><time>2026-05-03T08:04:35Z</time></trkpt><trkpt lat="42.944126149002685" lon="12.849500292156236"><ele>746.0</ele><time>2026-05-03T08:04:36Z</time></trkpt><trkpt lat="42.94415525312193" lon="12.849637661562838"><ele>746.8</ele><time>2026-05-03T08:04:37Z</time></trkpt><trkpt lat="42.94416697958063" lon="12.849743948958086"><ele>747.5999999999999</ele><time>2026-05-03T08:04:38Z</time></trkpt><trkpt lat="42.94415097576422" lon="12.849847079232687"><ele>748.4</ele><time>2026-05-03T08:04:40Z</time></trkpt><trkpt lat="42.94406974365281" lon="12.849835096134832"><ele>749.2</ele><time>2026-05-03T08:04:42Z</time></trkpt><trkpt lat="42.944032747526244" lon="12.849722965641025"><ele>750.0</ele><time>2026-05-03T08:04:44Z</time></trkpt><trkpt lat="42.94394390879661" lon="12.84957818554213"><ele>750.0</ele><time>2026-05-03T08:04:46Z</time></trkpt><trkpt lat="42.94388535388652" lon="12.849496663764102"><ele>750.0</ele><time>2026-05-03T08:04:47Z</time></trkpt><trkpt lat="42.943807995785285" lon="12.849375688004663"><ele>750.0</ele><time>2026-05-03T08:04:48Z</time></trkpt><trkpt lat="42.94373513845776" lon="12.849264735513431"><ele>750.0</ele><time>2026-05-03T08:04:49Z</time></trkpt><trkpt lat="42.94366500453172" lon="12.849156875801564"><ele>750.0</ele><time>2026-05-03T08:04:50Z</time></trkpt><trkpt lat="42.94358145762863" lon="12.849036357857798"><ele>749.2</ele><time>2026-05-03T08:04:51Z</time></trkpt><trkpt lat="42.94351167649492" lon="12.8489369323847"><ele>748.4</ele><time>2026-05-03T08:04:52Z</time></trkpt><trkpt lat="42.94341402542233" lon="12.848826773034398"><ele>747.5999999999999</ele><time>2026-05-03T08:04:53Z</time></trkpt><trkpt lat="42.94334472330825" lon="12.848730557741725"><ele>746.8</ele><time>2026-05-03T08:04:54Z</time></trkpt><trkpt lat="42.94326644131188" lon="12.848631643666664"><ele>746.0</ele><time>2026-05-03T08:04:55Z</time></trkpt><trkpt lat="42.94318501163256" lon="12.848540295534377"><ele>751.5</ele><time>2026-05-03T08:04:56Z</time></trkpt><trkpt lat="42.943094825686345" lon="12.848446417336376"><ele>757.0</ele><time>2026-05-03T08:04:57Z</time></trkpt><trkpt lat="42.94299272968669" lon="12.848361815341434"><ele>762.5</ele><time>2026-05-03T08:04:58Z</time></trkpt><trkpt lat="42.94285619282389" lon="12.84827773224695"><ele>768.0</ele><time>2026-05-03T08:04:59Z</time></trkpt><trkpt lat="42.94276020537468" lon="12.84823309550693"><ele>768.0</ele><time>2026-05-03T08:05:00Z</time></trkpt><trkpt lat="42.9426868953232" lon="12.848217747838666"><ele>768.0</ele><time>2026-05-03T08:05:01Z</time></trkpt><trkpt lat="42.94262257521899" lon="12.848220029086526"><ele>768.0</ele><time>2026-05-03T08:05:02Z</time></trkpt><trkpt lat="42.942562547283394" lon="12.848246171432567"><ele>768.0</ele><time>2026-05-03T08:05:03Z</time></trkpt><trkpt lat="42.94248090957997" lon="12.848305238845455"><ele>768.0</ele><time>2026-05-03T08:05:04Z</time></trkpt><trkpt lat="42.942389925300006" lon="12.848360181174286"><ele>768.0</ele><time>2026-05-03T08:05:05Z</time></trkpt><trkpt lat="42.94229185588679" lon="12.848388070354579"><ele>773.4</ele><time>2026-05-03T08:05:07Z</time></trkpt><trkpt lat="42.94223940610657" lon="12.848296397549479"><ele>778.8</ele><time>2026-05-03T08:05:17Z</time></trkpt><trkpt lat="42.94219368941516" lon="12.848200828571107"><ele>784.2</ele><time>2026-05-03T08:05:18Z</time></trkpt><trkpt lat="42.94213386853625" lon="12.848094541343878"><ele>789.6</ele><time>2026-05-03T08:05:19Z</time></trkpt><trkpt lat="42.942066614488986" lon="12.84799087067851"><ele>795.0</ele><time>2026-05-03T08:05:20Z</time></trkpt><trkpt lat="42.94200143751484" lon="12.847920657984371"><ele>795.0</ele><time>2026-05-03T08:05:21Z</time></trkpt><trkpt lat="42.941931680942524" lon="12.847892527571378"><ele>795.0</ele><time>2026-05-03T08:05:22Z</time></trkpt><trkpt lat="42.94184419203308" lon="12.84783941453087"><ele>795.0</ele><time>2026-05-03T08:05:23Z</time></trkpt><trkpt lat="42.94174493426052" lon="12.847751967428147"><ele>795.0</ele><time>2026-05-03T08:05:24Z</time></trkpt><trkpt lat="42.941671631549646" lon="12.847662867744626"><ele>795.0</ele><time>2026-05-03T08:05:25Z</time></trkpt><trkpt lat="42.94159460008745" lon="12.847585695777497"><ele>797.2</ele><time>2026-05-03T08:05:26Z</time></trkpt><trkpt lat="42.94150639688404" lon="12.847516074249798"><ele>799.4</ele><time>2026-05-03T08:05:27Z</time></trkpt><trkpt lat="42.94140656022762" lon="12.8474547910311"><ele>801.5999999999999</ele><time>2026-05-03T08:05:28Z</time></trkpt><trkpt lat="42.94129917362591" lon="12.84740086037156"><ele>803.8</ele><time>2026-05-03T08:05:29Z</time></trkpt><trkpt lat="42.941187447136414" lon="12.84736092555338"><ele>806.0</ele><time>2026-05-03T08:05:30Z</time></trkpt><trkpt lat="42.941123856920164" lon="12.847300249805409"><ele>806.0</ele><time>2026-05-03T08:05:31Z</time></trkpt><trkpt lat="42.94108724473366" lon="12.847195718627283"><ele>806.0</ele><time>2026-05-03T08:05:32Z</time></trkpt><trkpt lat="42.94104415528438" lon="12.847083388167302"><ele>806.0</ele><time>2026-05-03T08:05:33Z</time></trkpt><trkpt lat="42.9409824514579" lon="12.846984590641627"><ele>806.0</ele><time>2026-05-03T08:05:34Z</time></trkpt><trkpt lat="42.94089287686618" lon="12.846897438623749"><ele>806.0</ele><time>2026-05-03T08:05:35Z</time></trkpt><trkpt lat="42.94079390891466" lon="12.846812676746714"><ele>808.8</ele><time>2026-05-03T08:05:35.999Z</time></trkpt><trkpt lat="42.94067094898269" lon="12.84672153878893"><ele>811.5999999999999</ele><time>2026-05-03T08:05:36.999Z</time></trkpt><trkpt lat="42.940576642535" lon="12.846617144952614"><ele>814.4</ele><time>2026-05-03T08:05:37.999Z</time></trkpt><trkpt lat="42.940496096040526" lon="12.84653819662706"><ele>817.2</ele><time>2026-05-03T08:05:38.999Z</time></trkpt><trkpt lat="42.9404139683721" lon="12.84650796731043"><ele>820.0</ele><time>2026-05-03T08:05:39.999Z</time></trkpt><trkpt lat="42.940317509379675" lon="12.846488000151604"><ele>820.0</ele><time>2026-05-03T08:05:40.999Z</time></trkpt><trkpt lat="42.94024147284387" lon="12.84649573377719"><ele>820.0</ele><time>2026-05-03T08:05:41.999Z</time></trkpt><trkpt lat="42.94014154499446" lon="12.846621870298787"><ele>820.0</ele><time>2026-05-03T08:05:43.999Z</time></trkpt><trkpt lat="42.94009602073972" lon="12.846736759210687"><ele>820.0</ele><time>2026-05-03T08:05:44.999Z</time></trkpt><trkpt lat="42.94006447024243" lon="12.846830899723422"><ele>820.0</ele><time>2026-05-03T08:05:45.999Z</time></trkpt><trkpt lat="42.94001710553342" lon="12.846929482720297"><ele>824.1666666666666</ele><time>2026-05-03T08:05:47.999Z</time></trkpt><trkpt lat="42.93994798396745" lon="12.846988522793954"><ele>828.3333333333333</ele><time>2026-05-03T08:06:00.999Z</time></trkpt><trkpt lat="42.93988909466807" lon="12.847063086783871"><ele>832.5</ele><time>2026-05-03T08:06:01.999Z</time></trkpt><trkpt lat="42.93983027125622" lon="12.84714697261951"><ele>836.6666666666667</ele><time>2026-05-03T08:06:02.999Z</time></trkpt><trkpt lat="42.939792204357786" lon="12.847233472893407"><ele>840.8333333333334</ele><time>2026-05-03T08:06:07.999Z</time></trkpt><trkpt lat="42.93970983135426" lon="12.847347269434248"><ele>845.0</ele><time>2026-05-03T08:06:09.999Z</time></trkpt><trkpt lat="42.939635401256375" lon="12.847444242984974"><ele>845.0000000000001</ele><time>2026-05-03T08:06:11.999Z</time></trkpt><trkpt lat="42.939531956755175" lon="12.847543366306583"><ele>845.0</ele><time>2026-05-03T08:06:13.999Z</time></trkpt><trkpt lat="42.939470188064355" lon="12.8475945275933"><ele>845.0</ele><time>2026-05-03T08:06:14.999Z</time></trkpt><trkpt lat="42.939409089479646" lon="12.847660880557342"><ele>845.0</ele><time>2026-05-03T08:06:15.999Z</time></trkpt><trkpt lat="42.93932985928148" lon="12.84773044672309"><ele>845.0000000000001</ele><time>2026-05-03T08:06:16.999Z</time></trkpt><trkpt lat="42.93926476058764" lon="12.84775664821737"><ele>845.0</ele><time>2026-05-03T08:06:17.999Z</time></trkpt><trkpt lat="42.93919209206001" lon="12.847778844816013"><ele>846.1666666666667</ele><time>2026-05-03T08:06:18.999Z</time></trkpt><trkpt lat="42.93911427153838" lon="12.847806262109684"><ele>847.3333333333334</ele><time>2026-05-03T08:06:19.999Z</time></trkpt><trkpt lat="42.93903547985084" lon="12.847842841138679"><ele>848.5</ele><time>2026-05-03T08:06:20.999Z</time></trkpt><trkpt lat="42.93895489820269" lon="12.847882083739632"><ele>849.6666666666667</ele><time>2026-05-03T08:06:21.999Z</time></trkpt><trkpt lat="42.9388784281066" lon="12.847920161060316"><ele>850.8333333333334</ele><time>2026-05-03T08:06:22.999Z</time></trkpt><trkpt lat="42.938811777664064" lon="12.847943718900314"><ele>852.0</ele><time>2026-05-03T08:06:23.999Z</time></trkpt><trkpt lat="42.93873574056317" lon="12.847974011966185"><ele>851.9999999999999</ele><time>2026-05-03T08:06:24.999Z</time></trkpt><trkpt lat="42.938684750787345" lon="12.848031595891792"><ele>852.0</ele><time>2026-05-03T08:06:25.999Z</time></trkpt><trkpt lat="42.93863480426047" lon="12.848105104522267"><ele>852.0</ele><time>2026-05-03T08:06:26.999Z</time></trkpt><trkpt lat="42.93857459736102" lon="12.84818110218403"><ele>852.0</ele><time>2026-05-03T08:06:27.999Z</time></trkpt><trkpt lat="42.938534318163114" lon="12.848267158785571"><ele>852.0</ele><time>2026-05-03T08:06:29Z</time></trkpt><trkpt lat="42.93850691511935" lon="12.848364114730112"><ele>851.9999999999999</ele><time>2026-05-03T08:06:30Z</time></trkpt><trkpt lat="42.938498248959554" lon="12.848454498602505"><ele>852.0</ele><time>2026-05-03T08:06:31Z</time></trkpt><trkpt lat="42.93847796152041" lon="12.848540881034344"><ele>852.8</ele><time>2026-05-03T08:06:32Z</time></trkpt><trkpt lat="42.93837578836524" lon="12.84861993243425"><ele>853.6</ele><time>2026-05-03T08:06:34Z</time></trkpt><trkpt lat="42.938307774583954" lon="12.848674413255857"><ele>854.3999999999999</ele><time>2026-05-03T08:06:35Z</time></trkpt><trkpt lat="42.93824480127866" lon="12.848750044548314"><ele>855.1999999999999</ele><time>2026-05-03T08:06:36Z</time></trkpt><trkpt lat="42.93819544231596" lon="12.848850291526576"><ele>856.0</ele><time>2026-05-03T08:06:37Z</time></trkpt><trkpt lat="42.93815825792379" lon="12.848959657613799"><ele>856.0</ele><time>2026-05-03T08:06:38Z</time></trkpt><trkpt lat="42.9380864826069" lon="12.849058865648278"><ele>855.9999999999999</ele><time>2026-05-03T08:06:39Z</time></trkpt><trkpt lat="42.93802015838181" lon="12.849149140420343"><ele>855.9999999999999</ele><time>2026-05-03T08:06:40Z</time></trkpt><trkpt lat="42.93795826364656" lon="12.84924985676642"><ele>856.0</ele><time>2026-05-03T08:06:41Z</time></trkpt><trkpt lat="42.937895505100634" lon="12.849340411373456"><ele>856.0</ele><time>2026-05-03T08:06:42Z</time></trkpt><trkpt lat="42.93783320293958" lon="12.849437645896751"><ele>855.4</ele><time>2026-05-03T08:06:43Z</time></trkpt><trkpt lat="42.93775091576091" lon="12.849523770399818"><ele>854.8</ele><time>2026-05-03T08:06:44Z</time></trkpt><trkpt lat="42.937671452288654" lon="12.849597627181604"><ele>854.1999999999999</ele><time>2026-05-03T08:06:45Z</time></trkpt><trkpt lat="42.937582372596474" lon="12.849653627117608"><ele>853.5999999999999</ele><time>2026-05-03T08:06:46Z</time></trkpt><trkpt lat="42.93747289361941" lon="12.849733742499309"><ele>853.0</ele><time>2026-05-03T08:06:47Z</time></trkpt><trkpt lat="42.93739038162566" lon="12.849837000942701"><ele>856.0</ele><time>2026-05-03T08:06:48Z</time></trkpt><trkpt lat="42.93728922060202" lon="12.849921960241012"><ele>859.0</ele><time>2026-05-03T08:06:49Z</time></trkpt><trkpt lat="42.93719477310244" lon="12.84999083060591"><ele>862.0</ele><time>2026-05-03T08:06:50Z</time></trkpt><trkpt lat="42.937100488288365" lon="12.850050971741615"><ele>865.0</ele><time>2026-05-03T08:06:51Z</time></trkpt><trkpt lat="42.93703395550468" lon="12.850107751233978"><ele>868.0</ele><time>2026-05-03T08:06:52Z</time></trkpt><trkpt lat="42.93696205524414" lon="12.850174160386562"><ele>868.4999999999999</ele><time>2026-05-03T08:06:53Z</time></trkpt><trkpt lat="42.93691190755081" lon="12.850262095904416"><ele>869.0</ele><time>2026-05-03T08:06:54Z</time></trkpt><trkpt lat="42.936856142474845" lon="12.850355202125607"><ele>869.5</ele><time>2026-05-03T08:06:55Z</time></trkpt><trkpt lat="42.93679940703289" lon="12.850449881598806"><ele>870.0</ele><time>2026-05-03T08:06:56Z</time></trkpt><trkpt lat="42.936753192268924" lon="12.850530702350268"><ele>870.4999999999999</ele><time>2026-05-03T08:06:57Z</time></trkpt><trkpt lat="42.93672956836853" lon="12.85061493639989"><ele>871.0</ele><time>2026-05-03T08:06:58Z</time></trkpt><trkpt lat="42.936706451851855" lon="12.850697865851878"><ele>873.4</ele><time>2026-05-03T08:06:59Z</time></trkpt><trkpt lat="42.93667676437412" lon="12.850818559838702"><ele>875.8</ele><time>2026-05-03T08:07:01Z</time></trkpt><trkpt lat="42.936695745104934" lon="12.85092769886784"><ele>878.1999999999999</ele><time>2026-05-03T08:07:02Z</time></trkpt><trkpt lat="42.93666918807708" lon="12.851060609063154"><ele>880.5999999999999</ele><time>2026-05-03T08:07:03Z</time></trkpt><trkpt lat="42.93664043349119" lon="12.851202932935234"><ele>883.0</ele><time>2026-05-03T08:07:04Z</time></trkpt><trkpt lat="42.936646095810886" lon="12.851319470810433"><ele>882.9999999999999</ele><time>2026-05-03T08:07:05Z</time></trkpt><trkpt lat="42.936633365681296" lon="12.851415432683371"><ele>883.0</ele><time>2026-05-03T08:07:06Z</time></trkpt><trkpt lat="42.936586284805" lon="12.851510269222484"><ele>883.0</ele><time>2026-05-03T08:07:07Z</time></trkpt><trkpt lat="42.936517347384715" lon="12.851610997076305"><ele>883.0</ele><time>2026-05-03T08:07:08Z</time></trkpt><trkpt lat="42.936447303007704" lon="12.851699801631318"><ele>882.9999999999999</ele><time>2026-05-03T08:07:09Z</time></trkpt><trkpt lat="42.93637139322286" lon="12.851771044776445"><ele>883.0</ele><time>2026-05-03T08:07:10Z</time></trkpt><trkpt lat="42.93627195841024" lon="12.851804282394296"><ele>884.5999999999999</ele><time>2026-05-03T08:07:11Z</time></trkpt><trkpt lat="42.936172471761545" lon="12.85181298857164"><ele>886.1999999999999</ele><time>2026-05-03T08:07:12Z</time></trkpt><trkpt lat="42.936076865420034" lon="12.851813479119867"><ele>887.8</ele><time>2026-05-03T08:07:13Z</time></trkpt><trkpt lat="42.93597647867075" lon="12.851815056816426"><ele>889.4</ele><time>2026-05-03T08:07:14Z</time></trkpt><trkpt lat="42.93586202419102" lon="12.851836257114806"><ele>891.0</ele><time>2026-05-03T08:07:15Z</time></trkpt><trkpt lat="42.93576052120812" lon="12.85183881888316"><ele>891.8</ele><time>2026-05-03T08:07:16Z</time></trkpt><trkpt lat="42.93565279836124" lon="12.851848586712205"><ele>892.5999999999999</ele><time>2026-05-03T08:07:17Z</time></trkpt><trkpt lat="42.93551389997074" lon="12.851867270574346"><ele>893.4</ele><time>2026-05-03T08:07:18Z</time></trkpt><trkpt lat="42.93538830475337" lon="12.851883374225633"><ele>894.2</ele><time>2026-05-03T08:07:19Z</time></trkpt><trkpt lat="42.93532594037959" lon="12.851936662712896"><ele>895.0</ele><time>2026-05-03T08:07:21Z</time></trkpt><trkpt lat="42.93535571654128" lon="12.852097123171616"><ele>894.9999999999999</ele><time>2026-05-03T08:07:23Z</time></trkpt><trkpt lat="42.93538988294076" lon="12.852187319407305"><ele>895.0</ele><time>2026-05-03T08:07:24Z</time></trkpt><trkpt lat="42.9353089241241" lon="12.852228856372976"><ele>895.0</ele><time>2026-05-03T08:07:27Z</time></trkpt><trkpt lat="42.93525037540691" lon="12.852261696193604"><ele>895.0</ele><time>2026-05-03T08:07:31Z</time></trkpt><trkpt lat="42.935184669601476" lon="12.852126893060444"><ele>894.9999999999999</ele><time>2026-05-03T08:07:45.999Z</time></trkpt><trkpt lat="42.93516335323288" lon="12.852029914684884"><ele>895.0</ele><time>2026-05-03T08:07:46.999Z</time></trkpt><trkpt lat="42.93516112719879" lon="12.851885624710965"><ele>894.9999999999999</ele><time>2026-05-03T08:07:48.999Z</time></trkpt><trkpt lat="42.935176346849914" lon="12.851799743883747"><ele>895.0</ele><time>2026-05-03T08:07:49.999Z</time></trkpt><trkpt lat="42.93518716902149" lon="12.85171207022707"><ele>895.0</ele><time>2026-05-03T08:07:50.999Z</time></trkpt><trkpt lat="42.935130114453926" lon="12.851612131744151"><ele>895.0</ele><time>2026-05-03T08:07:52.999Z</time></trkpt><trkpt lat="42.93506465608354" lon="12.85160962808777"><ele>894.9999999999999</ele><time>2026-05-03T08:07:53.999Z</time></trkpt><trkpt lat="42.93498998428286" lon="12.85161128370938"><ele>895.0</ele><time>2026-05-03T08:07:54.999Z</time></trkpt><trkpt lat="42.934888622349895" lon="12.851584513289934"><ele>895.5</ele><time>2026-05-03T08:07:55.999Z</time></trkpt><trkpt lat="42.93477364990184" lon="12.851559422966526"><ele>896.0</ele><time>2026-05-03T08:07:56.999Z</time></trkpt><trkpt lat="42.93466258591301" lon="12.851552212554804"><ele>896.5</ele><time>2026-05-03T08:07:57.999Z</time></trkpt><trkpt lat="42.93454449643019" lon="12.851503680229948"><ele>897.0</ele><time>2026-05-03T08:07:58.999Z</time></trkpt><trkpt lat="42.93443873956468" lon="12.851441609016534"><ele>897.0</ele><time>2026-05-03T08:07:59.999Z</time></trkpt><trkpt lat="42.934330309191076" lon="12.851333061516195"><ele>897.0</ele><time>2026-05-03T08:08:01.999Z</time></trkpt><trkpt lat="42.93426848204636" lon="12.851256295893142"><ele>897.0</ele><time>2026-05-03T08:08:02.999Z</time></trkpt><trkpt lat="42.93418964039952" lon="12.851185317976658"><ele>897.0</ele><time>2026-05-03T08:08:03.999Z</time></trkpt><trkpt lat="42.934069821042634" lon="12.8511113419156"><ele>897.0</ele><time>2026-05-03T08:08:04.999Z</time></trkpt><trkpt lat="42.93398802641746" lon="12.851079918541338"><ele>897.6</ele><time>2026-05-03T08:08:05.999Z</time></trkpt><trkpt lat="42.933872524697634" lon="12.851081570006865"><ele>898.2</ele><time>2026-05-03T08:08:06.999Z</time></trkpt><trkpt lat="42.93377819113972" lon="12.851026683635629"><ele>898.8</ele><time>2026-05-03T08:08:07.999Z</time></trkpt><trkpt lat="42.93369769032364" lon="12.850924505278654"><ele>899.4</ele><time>2026-05-03T08:08:08.999Z</time></trkpt><trkpt lat="42.933601400454506" lon="12.850884023458622"><ele>900.0</ele><time>2026-05-03T08:08:09.999Z</time></trkpt><trkpt lat="42.93350966484187" lon="12.850854279790477"><ele>901.3333333333334</ele><time>2026-05-03T08:08:10.999Z</time></trkpt><trkpt lat="42.93342638164701" lon="12.850878762933538"><ele>902.6666666666667</ele><time>2026-05-03T08:08:11.999Z</time></trkpt><trkpt lat="42.933384047313545" lon="12.85098636744047"><ele>904.0</ele><time>2026-05-03T08:08:12.999Z</time></trkpt><trkpt lat="42.93333686265261" lon="12.851108992619878"><ele>905.3333333333334</ele><time>2026-05-03T08:08:13.999Z</time></trkpt><trkpt lat="42.933256485503954" lon="12.85116353565007"><ele>906.6666666666667</ele><time>2026-05-03T08:08:14.999Z</time></trkpt><trkpt lat="42.93317526854639" lon="12.851186772451557"><ele>908.0</ele><time>2026-05-03T08:08:15.999Z</time></trkpt><trkpt lat="42.9331120445024" lon="12.851179150352547"><ele>908.0000000000001</ele><time>2026-05-03T08:08:16.999Z</time></trkpt><trkpt lat="42.93304564128756" lon="12.851090172511684"><ele>908.0</ele><time>2026-05-03T08:08:18.999Z</time></trkpt><trkpt lat="42.93304546308514" lon="12.850983600266396"><ele>908.0</ele><time>2026-05-03T08:08:19.999Z</time></trkpt><trkpt lat="42.933024918943985" lon="12.850880626918867"><ele>908.0</ele><time>2026-05-03T08:08:20.999Z</time></trkpt><trkpt lat="42.93297830977347" lon="12.850808700223784"><ele>908.0000000000001</ele><time>2026-05-03T08:08:21.999Z</time></trkpt><trkpt lat="42.93291805964144" lon="12.850737498358843"><ele>908.0</ele><time>2026-05-03T08:08:22.999Z</time></trkpt><trkpt lat="42.9328305259314" lon="12.850685987012646"><ele>909.5999999999999</ele><time>2026-05-03T08:08:23.999Z</time></trkpt><trkpt lat="42.9327138682856" lon="12.850621549727729"><ele>911.1999999999999</ele><time>2026-05-03T08:08:24.999Z</time></trkpt><trkpt lat="42.93261200232213" lon="12.850556854025225"><ele>912.8</ele><time>2026-05-03T08:08:25.999Z</time></trkpt><trkpt lat="42.932511384516374" lon="12.850494158264512"><ele>914.4</ele><time>2026-05-03T08:08:26.999Z</time></trkpt><trkpt lat="42.932414654619855" lon="12.850471653693763"><ele>916.0</ele><time>2026-05-03T08:08:27.999Z</time></trkpt><trkpt lat="42.93230760226127" lon="12.850497340589836"><ele>916.0</ele><time>2026-05-03T08:08:28.999Z</time></trkpt><trkpt lat="42.93218826271045" lon="12.850525205955195"><ele>915.9999999999999</ele><time>2026-05-03T08:08:29.999Z</time></trkpt><trkpt lat="42.932082797105934" lon="12.850545273009384"><ele>915.9999999999999</ele><time>2026-05-03T08:08:30.999Z</time></trkpt><trkpt lat="42.93198870988151" lon="12.85055402934342"><ele>916.0</ele><time>2026-05-03T08:08:31.999Z</time></trkpt><trkpt lat="42.931901599071836" lon="12.850551880381994"><ele>916.0</ele><time>2026-05-03T08:08:32.999Z</time></trkpt><trkpt lat="42.93181107516412" lon="12.850507006168828"><ele>915.4999999999999</ele><time>2026-05-03T08:08:33.999Z</time></trkpt><trkpt lat="42.93171586032615" lon="12.850471020483958"><ele>915.0</ele><time>2026-05-03T08:08:35Z</time></trkpt><trkpt lat="42.93162819255633" lon="12.850451067700817"><ele>914.5</ele><time>2026-05-03T08:08:36Z</time></trkpt><trkpt lat="42.93153972304264" lon="12.850428589772424"><ele>914.0</ele><time>2026-05-03T08:08:37Z</time></trkpt><trkpt lat="42.9314579096772" lon="12.85041509809191"><ele>913.4999999999999</ele><time>2026-05-03T08:08:38Z</time></trkpt><trkpt lat="42.93139013935685" lon="12.850380259404657"><ele>913.0</ele><time>2026-05-03T08:08:39Z</time></trkpt><trkpt lat="42.93130749272482" lon="12.850329946610863"><ele>913.0</ele><time>2026-05-03T08:08:40Z</time></trkpt><trkpt lat="42.93120834770874" lon="12.850348094676287"><ele>913.0</ele><time>2026-05-03T08:08:41Z</time></trkpt><trkpt lat="42.93111043590448" lon="12.850374077343263"><ele>913.0</ele><time>2026-05-03T08:08:42Z</time></trkpt><trkpt lat="42.931027261316395" lon="12.850436093601095"><ele>913.0</ele><time>2026-05-03T08:08:43Z</time></trkpt><trkpt lat="42.93094903768204" lon="12.850488259059821"><ele>913.0</ele><time>2026-05-03T08:08:44Z</time></trkpt><trkpt lat="42.93087375411888" lon="12.850533410954919"><ele>911.6666666666666</ele><time>2026-05-03T08:08:45Z</time></trkpt><trkpt lat="42.93078980364822" lon="12.850546940271414"><ele>910.3333333333333</ele><time>2026-05-03T08:08:46Z</time></trkpt><trkpt lat="42.93070245644091" lon="12.850557859103896"><ele>909.0</ele><time>2026-05-03T08:08:47Z</time></trkpt><trkpt lat="42.93062597728859" lon="12.850565368505558"><ele>907.6666666666667</ele><time>2026-05-03T08:08:48Z</time></trkpt><trkpt lat="42.930558146347444" lon="12.850555396429737"><ele>906.3333333333334</ele><time>2026-05-03T08:08:49Z</time></trkpt><trkpt lat="42.930497155902" lon="12.85049833882781"><ele>905.0</ele><time>2026-05-03T08:08:50Z</time></trkpt><trkpt lat="42.93044399614867" lon="12.85040832435772"><ele>905.0000000000001</ele><time>2026-05-03T08:08:51Z</time></trkpt><trkpt lat="42.930401204713924" lon="12.850315838589186"><ele>905.0</ele><time>2026-05-03T08:08:52Z</time></trkpt><trkpt lat="42.930360197116066" lon="12.850229470761988"><ele>905.0</ele><time>2026-05-03T08:08:53Z</time></trkpt><trkpt lat="42.9303124713734" lon="12.850165074298577"><ele>905.0</ele><time>2026-05-03T08:08:54Z</time></trkpt><trkpt lat="42.930208178686364" lon="12.850178298483089"><ele>905.0000000000001</ele><time>2026-05-03T08:08:56Z</time></trkpt><trkpt lat="42.93013258008612" lon="12.850217909884858"><ele>905.0</ele><time>2026-05-03T08:08:57Z</time></trkpt><trkpt lat="42.93004613879441" lon="12.850265763413306"><ele>904.6</ele><time>2026-05-03T08:08:58Z</time></trkpt><trkpt lat="42.929945493104434" lon="12.850336169349648"><ele>904.2</ele><time>2026-05-03T08:08:59Z</time></trkpt><trkpt lat="42.92986999075795" lon="12.850401931116231"><ele>903.8</ele><time>2026-05-03T08:09:00Z</time></trkpt><trkpt lat="42.92981299425619" lon="12.850463516041845"><ele>903.4</ele><time>2026-05-03T08:09:01Z</time></trkpt><trkpt lat="42.929716169475945" lon="12.850568192622164"><ele>903.0</ele><time>2026-05-03T08:09:03Z</time></trkpt><trkpt lat="42.929642507879784" lon="12.850586115721907"><ele>903.0</ele><time>2026-05-03T08:09:04Z</time></trkpt><trkpt lat="42.929564406128804" lon="12.85057639895239"><ele>903.0</ele><time>2026-05-03T08:09:05Z</time></trkpt><trkpt lat="42.92948469501372" lon="12.850557650863543"><ele>903.0</ele><time>2026-05-03T08:09:06Z</time></trkpt><trkpt lat="42.92940703789351" lon="12.850527366343174"><ele>903.0</ele><time>2026-05-03T08:09:07Z</time></trkpt><trkpt lat="42.92934302843125" lon="12.850470702545053"><ele>903.0</ele><time>2026-05-03T08:09:08Z</time></trkpt><trkpt lat="42.929276820630626" lon="12.850401191723506"><ele>903.0</ele><time>2026-05-03T08:09:09Z</time></trkpt><trkpt lat="42.92920813046255" lon="12.850327746485517"><ele>903.2</ele><time>2026-05-03T08:09:10Z</time></trkpt><trkpt lat="42.929119253335394" lon="12.850277534048551"><ele>903.4</ele><time>2026-05-03T08:09:11Z</time></trkpt><trkpt lat="42.92902511186528" lon="12.850233297499425"><ele>903.6000000000001</ele><time>2026-05-03T08:09:12Z</time></trkpt><trkpt lat="42.928928825250566" lon="12.850182527814546"><ele>903.8000000000001</ele><time>2026-05-03T08:09:13Z</time></trkpt><trkpt lat="42.92883872039458" lon="12.850137851672763"><ele>904.0</ele><time>2026-05-03T08:09:14Z</time></trkpt><trkpt lat="42.92875003579845" lon="12.850081606847228"><ele>906.6666666666666</ele><time>2026-05-03T08:09:15Z</time></trkpt><trkpt lat="42.92865941590363" lon="12.850010229033442"><ele>909.3333333333333</ele><time>2026-05-03T08:09:16Z</time></trkpt><trkpt lat="42.928578801573316" lon="12.849931566138778"><ele>912.0</ele><time>2026-05-03T08:09:17Z</time></trkpt><trkpt lat="42.928520170367804" lon="12.849848333538608"><ele>914.6666666666667</ele><time>2026-05-03T08:09:18Z</time></trkpt><trkpt lat="42.92848151619284" lon="12.849757313572804"><ele>917.3333333333334</ele><time>2026-05-03T08:09:19Z</time></trkpt><trkpt lat="42.92846285388264" lon="12.849649621270334"><ele>920.0</ele><time>2026-05-03T08:09:20Z</time></trkpt><trkpt lat="42.92843863815895" lon="12.849539061194701"><ele>920.0</ele><time>2026-05-03T08:09:21Z</time></trkpt><trkpt lat="42.92840495842841" lon="12.849432544896239"><ele>920.0</ele><time>2026-05-03T08:09:22Z</time></trkpt><trkpt lat="42.92837323448271" lon="12.849313382795545"><ele>920.0</ele><time>2026-05-03T08:09:23Z</time></trkpt><trkpt lat="42.928347072231176" lon="12.849211885498086"><ele>920.0</ele><time>2026-05-03T08:09:24Z</time></trkpt><trkpt lat="42.928307019114015" lon="12.849125975411853"><ele>920.0</ele><time>2026-05-03T08:09:25Z</time></trkpt><trkpt lat="42.92818369734975" lon="12.849101890555836"><ele>919.0</ele><time>2026-05-03T08:09:27Z</time></trkpt><trkpt lat="42.928108536262805" lon="12.84915751194484"><ele>918.0</ele><time>2026-05-03T08:09:28Z</time></trkpt><trkpt lat="42.92802455703024" lon="12.84923880495505"><ele>917.0</ele><time>2026-05-03T08:09:29Z</time></trkpt><trkpt lat="42.92793213016931" lon="12.849325802250767"><ele>916.0</ele><time>2026-05-03T08:09:30Z</time></trkpt><trkpt lat="42.92784856026421" lon="12.84941929165823"><ele>915.0</ele><time>2026-05-03T08:09:31Z</time></trkpt><trkpt lat="42.92777151257264" lon="12.849485679030929"><ele>915.0</ele><time>2026-05-03T08:09:32Z</time></trkpt><trkpt lat="42.927698552875434" lon="12.849531207599671"><ele>915.0</ele><time>2026-05-03T08:09:33Z</time></trkpt><trkpt lat="42.92762458415534" lon="12.849568283723254"><ele>915.0</ele><time>2026-05-03T08:09:34Z</time></trkpt><trkpt lat="42.927547329630166" lon="12.849593324783056"><ele>915.0</ele><time>2026-05-03T08:09:35Z</time></trkpt><trkpt lat="42.92749049599853" lon="12.84963038324788"><ele>915.0</ele><time>2026-05-03T08:09:36Z</time></trkpt><trkpt lat="42.92744051382609" lon="12.849765181825944"><ele>915.0</ele><time>2026-05-03T08:09:38Z</time></trkpt><trkpt lat="42.92745551409433" lon="12.849855516739188"><ele>915.0</ele><time>2026-05-03T08:09:42.999Z</time></trkpt><trkpt lat="42.92751328507725" lon="12.849893327032845"><ele>915.0</ele><time>2026-05-03T08:09:44.999Z</time></trkpt><trkpt lat="42.92759256999899" lon="12.84996190731462"><ele>915.0</ele><time>2026-05-03T08:10:01.999Z</time></trkpt><trkpt lat="42.92767760611315" lon="12.85004720522634"><ele>915.0</ele><time>2026-05-03T08:10:03.999Z</time></trkpt><trkpt lat="42.92777814184932" lon="12.850158067590806"><ele>915.0</ele><time>2026-05-03T08:10:05.999Z</time></trkpt><trkpt lat="42.92784530909978" lon="12.850239472743468"><ele>914.0</ele><time>2026-05-03T08:10:06.999Z</time></trkpt><trkpt lat="42.92791563115311" lon="12.850322515383908"><ele>913.0</ele><time>2026-05-03T08:10:07.999Z</time></trkpt><trkpt lat="42.92797041506509" lon="12.85040872229067"><ele>912.0</ele><time>2026-05-03T08:10:08.999Z</time></trkpt><trkpt lat="42.92801562191886" lon="12.850491779236506"><ele>911.0</ele><time>2026-05-03T08:10:09.999Z</time></trkpt><trkpt lat="42.928046081061275" lon="12.850604650326764"><ele>910.0</ele><time>2026-05-03T08:10:10.999Z</time></trkpt><trkpt lat="42.92810463335769" lon="12.850744610024334"><ele>910.0</ele><time>2026-05-03T08:10:11.999Z</time></trkpt><trkpt lat="42.92812608724392" lon="12.850877808382704"><ele>910.0</ele><time>2026-05-03T08:10:12.999Z</time></trkpt><trkpt lat="42.92817877554196" lon="12.851035758884178"><ele>910.0</ele><time>2026-05-03T08:10:13.999Z</time></trkpt><trkpt lat="42.92824694955995" lon="12.851157864355974"><ele>910.0</ele><time>2026-05-03T08:10:14.999Z</time></trkpt><trkpt lat="42.92830336706358" lon="12.85128928554563"><ele>910.2</ele><time>2026-05-03T08:10:15.999Z</time></trkpt><trkpt lat="42.92834075091002" lon="12.85144031820274"><ele>910.4</ele><time>2026-05-03T08:10:16.999Z</time></trkpt><trkpt lat="42.928378255706185" lon="12.851569889637883"><ele>910.5999999999999</ele><time>2026-05-03T08:10:17.999Z</time></trkpt><trkpt lat="42.92841471401161" lon="12.851684806624487"><ele>910.8</ele><time>2026-05-03T08:10:18.999Z</time></trkpt><trkpt lat="42.92844411118292" lon="12.851808832076623"><ele>911.0</ele><time>2026-05-03T08:10:19.999Z</time></trkpt><trkpt lat="42.92843233848486" lon="12.851943629338162"><ele>910.25</ele><time>2026-05-03T08:10:20.999Z</time></trkpt><trkpt lat="42.928383296001805" lon="12.852121032211729"><ele>909.5</ele><time>2026-05-03T08:10:21.999Z</time></trkpt><trkpt lat="42.92834650509532" lon="12.852290278869745"><ele>908.75</ele><time>2026-05-03T08:10:22.999Z</time></trkpt><trkpt lat="42.92832738231213" lon="12.852437755202079"><ele>908.0</ele><time>2026-05-03T08:10:23.999Z</time></trkpt><trkpt lat="42.92830349388864" lon="12.852551137212822"><ele>908.5000000000001</ele><time>2026-05-03T08:10:24.999Z</time></trkpt><trkpt lat="42.928283848518234" lon="12.852659264022195"><ele>909.0</ele><time>2026-05-03T08:10:25.999Z</time></trkpt><trkpt lat="42.92826466252082" lon="12.852778193585323"><ele>909.5</ele><time>2026-05-03T08:10:26.999Z</time></trkpt><trkpt lat="42.92824063821161" lon="12.852891085965256"><ele>910.0</ele><time>2026-05-03T08:10:27.999Z</time></trkpt><trkpt lat="42.92820548996454" lon="12.852985599869287"><ele>910.5000000000001</ele><time>2026-05-03T08:10:28.999Z</time></trkpt><trkpt lat="42.92815777611613" lon="12.853048560437069"><ele>911.0</ele><time>2026-05-03T08:10:29.999Z</time></trkpt><trkpt lat="42.92808229411145" lon="12.853086518941334"><ele>911.0</ele><time>2026-05-03T08:10:30.999Z</time></trkpt><trkpt lat="42.92799390868525" lon="12.853125324803578"><ele>910.9999999999999</ele><time>2026-05-03T08:10:31.999Z</time></trkpt><trkpt lat="42.927908136855486" lon="12.853195112484839"><ele>910.9999999999999</ele><time>2026-05-03T08:10:32.999Z</time></trkpt><trkpt lat="42.92782875483755" lon="12.853277635915026"><ele>911.0</ele><time>2026-05-03T08:10:33.999Z</time></trkpt><trkpt lat="42.9277641632014" lon="12.853369153898418"><ele>911.0</ele><time>2026-05-03T08:10:34.999Z</time></trkpt><trkpt lat="42.92772580549927" lon="12.853475726385872"><ele>913.1999999999999</ele><time>2026-05-03T08:10:35.999Z</time></trkpt><trkpt lat="42.92770647677177" lon="12.853601025312628"><ele>915.3999999999999</ele><time>2026-05-03T08:10:36.999Z</time></trkpt><trkpt lat="42.927696698779954" lon="12.853748686289345"><ele>917.6</ele><time>2026-05-03T08:10:37.999Z</time></trkpt><trkpt lat="42.9276830705831" lon="12.853866314814447"><ele>919.8</ele><time>2026-05-03T08:10:38.999Z</time></trkpt><trkpt lat="42.9276484137907" lon="12.853968700523447"><ele>922.0</ele><time>2026-05-03T08:10:39.999Z</time></trkpt><trkpt lat="42.92756252206294" lon="12.854017524001"><ele>923.2</ele><time>2026-05-03T08:10:41Z</time></trkpt><trkpt lat="42.92746202519414" lon="12.85407784430667"><ele>924.4000000000001</ele><time>2026-05-03T08:10:42Z</time></trkpt><trkpt lat="42.92739871826251" lon="12.85417555870486"><ele>925.5999999999999</ele><time>2026-05-03T08:10:43Z</time></trkpt><trkpt lat="42.927339781745395" lon="12.854279566182642"><ele>926.8</ele><time>2026-05-03T08:10:44Z</time></trkpt><trkpt lat="42.92728470724247" lon="12.854394665189634"><ele>928.0</ele><time>2026-05-03T08:10:45Z</time></trkpt><trkpt lat="42.927212917517316" lon="12.854505878807165"><ele>928.0</ele><time>2026-05-03T08:10:46Z</time></trkpt><trkpt lat="42.927139310715596" lon="12.85463004596919"><ele>928.0</ele><time>2026-05-03T08:10:47Z</time></trkpt><trkpt lat="42.92706116957316" lon="12.854714900508531"><ele>928.0</ele><time>2026-05-03T08:10:48Z</time></trkpt><trkpt lat="42.92701154698089" lon="12.854826736211198"><ele>928.0</ele><time>2026-05-03T08:10:49Z</time></trkpt><trkpt lat="42.92694233895434" lon="12.854901040447626"><ele>928.0</ele><time>2026-05-03T08:10:50Z</time></trkpt><trkpt lat="42.92688286443167" lon="12.855000145257703"><ele>928.0</ele><time>2026-05-03T08:10:51Z</time></trkpt><trkpt lat="42.92683349377679" lon="12.855106308289386"><ele>928.0</ele><time>2026-05-03T08:10:52Z</time></trkpt><trkpt lat="42.92677442713923" lon="12.8551970161312"><ele>928.0</ele><time>2026-05-03T08:10:53Z</time></trkpt><trkpt lat="42.92669562965608" lon="12.855277381685552"><ele>928.0</ele><time>2026-05-03T08:10:54Z</time></trkpt><trkpt lat="42.926613299307824" lon="12.855372295924518"><ele>928.0</ele><time>2026-05-03T08:10:55Z</time></trkpt><trkpt lat="42.926554226749985" lon="12.855492420913581"><ele>927.4999999999999</ele><time>2026-05-03T08:10:56Z</time></trkpt><trkpt lat="42.92650021468001" lon="12.855595116319483"><ele>927.0</ele><time>2026-05-03T08:10:57Z</time></trkpt><trkpt lat="42.926473744739155" lon="12.855681804584842"><ele>926.5</ele><time>2026-05-03T08:10:58Z</time></trkpt><trkpt lat="42.92646067772635" lon="12.855774911355995"><ele>926.0</ele><time>2026-05-03T08:10:59Z</time></trkpt><trkpt lat="42.92646522504358" lon="12.855875812772863"><ele>925.4999999999999</ele><time>2026-05-03T08:11:00Z</time></trkpt><trkpt lat="42.92645474946452" lon="12.855987884533098"><ele>925.0</ele><time>2026-05-03T08:11:01Z</time></trkpt><trkpt lat="42.92646017982148" lon="12.856119802482905"><ele>924.9999999999999</ele><time>2026-05-03T08:11:02Z</time></trkpt><trkpt lat="42.926486346914984" lon="12.856237883106669"><ele>925.0</ele><time>2026-05-03T08:11:03Z</time></trkpt><trkpt lat="42.92649456052819" lon="12.85635027168486"><ele>925.0</ele><time>2026-05-03T08:11:04Z</time></trkpt><trkpt lat="42.92649926570054" lon="12.856455172149388"><ele>925.0</ele><time>2026-05-03T08:11:05Z</time></trkpt><trkpt lat="42.92650879323945" lon="12.856557930885748"><ele>924.9999999999999</ele><time>2026-05-03T08:11:06Z</time></trkpt><trkpt lat="42.92652283708086" lon="12.856653141184468"><ele>925.0</ele><time>2026-05-03T08:11:07Z</time></trkpt><trkpt lat="42.926562287477246" lon="12.856806485988137"><ele>922.75</ele><time>2026-05-03T08:11:09Z</time></trkpt><trkpt lat="42.926552003724076" lon="12.856953544282563"><ele>920.5</ele><time>2026-05-03T08:11:11Z</time></trkpt><trkpt lat="42.92656229008237" lon="12.85710526889177"><ele>918.25</ele><time>2026-05-03T08:11:13Z</time></trkpt><trkpt lat="42.92670508659042" lon="12.857198170848866"><ele>916.0</ele><time>2026-05-03T08:11:14Z</time></trkpt><trkpt lat="42.92675771211897" lon="12.857279616284913"><ele>915.9999999999999</ele><time>2026-05-03T08:11:15Z</time></trkpt><trkpt lat="42.926811447717405" lon="12.857352219769064"><ele>916.0</ele><time>2026-05-03T08:11:16Z</time></trkpt><trkpt lat="42.92686668854178" lon="12.857418031638488"><ele>916.0</ele><time>2026-05-03T08:11:17Z</time></trkpt><trkpt lat="42.92692463832002" lon="12.857462859652665"><ele>916.0</ele><time>2026-05-03T08:11:18Z</time></trkpt><trkpt lat="42.927027896623954" lon="12.857517942968725"><ele>915.9999999999999</ele><time>2026-05-03T08:11:20Z</time></trkpt><trkpt lat="42.92701520847277" lon="12.857620713035734"><ele>916.0</ele><time>2026-05-03T08:11:22Z</time></trkpt><trkpt lat="42.9269039849943" lon="12.857655314035176"><ele>913.1999999999999</ele><time>2026-05-03T08:11:24Z</time></trkpt><trkpt lat="42.926806662002456" lon="12.857654442770666"><ele>910.3999999999999</ele><time>2026-05-03T08:11:25Z</time></trkpt><trkpt lat="42.92669407565132" lon="12.857653140418668"><ele>907.6</ele><time>2026-05-03T08:11:26Z</time></trkpt><trkpt lat="42.92659083872577" lon="12.857655182685484"><ele>904.8</ele><time>2026-05-03T08:11:27Z</time></trkpt><trkpt lat="42.92649901163662" lon="12.857646904439948"><ele>902.0</ele><time>2026-05-03T08:11:28Z</time></trkpt><trkpt lat="42.92641946232764" lon="12.857631499973287"><ele>904.4000000000001</ele><time>2026-05-03T08:11:29Z</time></trkpt><trkpt lat="42.92633117982201" lon="12.857607834864105"><ele>906.8000000000001</ele><time>2026-05-03T08:11:30Z</time></trkpt><trkpt lat="42.92624219762242" lon="12.85757742941961"><ele>909.2</ele><time>2026-05-03T08:11:31Z</time></trkpt><trkpt lat="42.92615044827032" lon="12.857544645095066"><ele>911.6</ele><time>2026-05-03T08:11:32Z</time></trkpt><trkpt lat="42.926064706258764" lon="12.857525087747234"><ele>914.0</ele><time>2026-05-03T08:11:33Z</time></trkpt><trkpt lat="42.92597963938574" lon="12.857586070051966"><ele>910.8000000000001</ele><time>2026-05-03T08:11:35Z</time></trkpt><trkpt lat="42.92599929569008" lon="12.857706603018782"><ele>907.6000000000001</ele><time>2026-05-03T08:11:37Z</time></trkpt><trkpt lat="42.92607972781293" lon="12.857736198253793"><ele>904.4</ele><time>2026-05-03T08:11:38Z</time></trkpt><trkpt lat="42.92617205904593" lon="12.857790255947325"><ele>901.2</ele><time>2026-05-03T08:11:39Z</time></trkpt><trkpt lat="42.92623907024113" lon="12.857903191349303"><ele>898.0</ele><time>2026-05-03T08:11:40Z</time></trkpt><trkpt lat="42.92630107093683" lon="12.858038131341177"><ele>897.9999999999999</ele><time>2026-05-03T08:11:41Z</time></trkpt><trkpt lat="42.926360436245936" lon="12.85816876637693"><ele>898.0</ele><time>2026-05-03T08:11:42Z</time></trkpt><trkpt lat="42.926413734583505" lon="12.858294465454698"><ele>898.0</ele><time>2026-05-03T08:11:43Z</time></trkpt><trkpt lat="42.92646401934821" lon="12.858392213910678"><ele>898.0</ele><time>2026-05-03T08:11:44Z</time></trkpt><trkpt lat="42.926514870340185" lon="12.858469756087526"><ele>897.9999999999999</ele><time>2026-05-03T08:11:45Z</time></trkpt><trkpt lat="42.92655582671329" lon="12.858536016671092"><ele>898.0</ele><time>2026-05-03T08:11:46Z</time></trkpt><trkpt lat="42.926583804050246" lon="12.858643314144297"><ele>895.0</ele><time>2026-05-03T08:11:48Z</time></trkpt><trkpt lat="42.92655862591662" lon="12.858801232252262"><ele>892.0</ele><time>2026-05-03T08:11:50Z</time></trkpt><trkpt lat="42.92655409920331" lon="12.858915586926887"><ele>889.0</ele><time>2026-05-03T08:11:51.999Z</time></trkpt><trkpt lat="42.926548161809514" lon="12.859003361228625"><ele>886.0</ele><time>2026-05-03T08:11:53.999Z</time></trkpt><trkpt lat="42.92657002212" lon="12.85909278935015"><ele>883.0</ele><time>2026-05-03T08:11:54.999Z</time></trkpt><trkpt lat="42.92665256775303" lon="12.859228848342456"><ele>880.4999999999999</ele><time>2026-05-03T08:11:56.999Z</time></trkpt><trkpt lat="42.92670207687313" lon="12.859306444313253"><ele>878.0</ele><time>2026-05-03T08:11:57.999Z</time></trkpt><trkpt lat="42.92675448943058" lon="12.859362329496994"><ele>875.5</ele><time>2026-05-03T08:11:58.999Z</time></trkpt><trkpt lat="42.92681168558192" lon="12.859423545744722"><ele>873.0</ele><time>2026-05-03T08:11:59.999Z</time></trkpt><trkpt lat="42.92688657261322" lon="12.859487734442986"><ele>870.4999999999999</ele><time>2026-05-03T08:12:00.999Z</time></trkpt><trkpt lat="42.92693763854132" lon="12.859556189504428"><ele>868.0</ele><time>2026-05-03T08:12:01.999Z</time></trkpt><trkpt lat="42.92700363129744" lon="12.859628864600003"><ele>867.9999999999999</ele><time>2026-05-03T08:12:02.999Z</time></trkpt><trkpt lat="42.92706987374887" lon="12.859705730404775"><ele>868.0</ele><time>2026-05-03T08:12:03.999Z</time></trkpt><trkpt lat="42.927139635820566" lon="12.859773522411773"><ele>868.0</ele><time>2026-05-03T08:12:04.999Z</time></trkpt><trkpt lat="42.92721765788974" lon="12.859838914590846"><ele>868.0</ele><time>2026-05-03T08:12:05.999Z</time></trkpt><trkpt lat="42.92729693052854" lon="12.859898065990937"><ele>867.9999999999999</ele><time>2026-05-03T08:12:06.999Z</time></trkpt><trkpt lat="42.92736911215393" lon="12.859966919615516"><ele>868.0</ele><time>2026-05-03T08:12:07.999Z</time></trkpt><trkpt lat="42.92744205135872" lon="12.860028930254067"><ele>867.9999999999999</ele><time>2026-05-03T08:12:08.999Z</time></trkpt><trkpt lat="42.92750608037729" lon="12.860096900612783"><ele>868.0</ele><time>2026-05-03T08:12:09.999Z</time></trkpt><trkpt lat="42.92756352012064" lon="12.860139748245096"><ele>868.0</ele><time>2026-05-03T08:12:10.999Z</time></trkpt><trkpt lat="42.9276410931995" lon="12.86016266992018"><ele>868.0</ele><time>2026-05-03T08:12:12.999Z</time></trkpt><trkpt lat="42.92767004983428" lon="12.860251387462815"><ele>867.9999999999999</ele><time>2026-05-03T08:12:15.999Z</time></trkpt><trkpt lat="42.927557331525215" lon="12.860261358288655"><ele>868.0</ele><time>2026-05-03T08:12:17.999Z</time></trkpt><trkpt lat="42.92743700845589" lon="12.860251381202534"><ele>862.3333333333333</ele><time>2026-05-03T08:12:19.999Z</time></trkpt><trkpt lat="42.92736017993335" lon="12.860279419182216"><ele>856.6666666666666</ele><time>2026-05-03T08:12:20.999Z</time></trkpt><trkpt lat="42.927285649433216" lon="12.860290437079584"><ele>851.0</ele><time>2026-05-03T08:12:21.999Z</time></trkpt><trkpt lat="42.92720816012085" lon="12.860315715187895"><ele>845.3333333333333</ele><time>2026-05-03T08:12:22.999Z</time></trkpt><trkpt lat="42.92712402121331" lon="12.86030662873406"><ele>839.6666666666666</ele><time>2026-05-03T08:12:23.999Z</time></trkpt><trkpt lat="42.92704010928638" lon="12.860319835496924"><ele>834.0</ele><time>2026-05-03T08:12:24.999Z</time></trkpt><trkpt lat="42.92695632224017" lon="12.860332279271919"><ele>834.0</ele><time>2026-05-03T08:12:25.999Z</time></trkpt><trkpt lat="42.92687397195024" lon="12.86035045928049"><ele>834.0</ele><time>2026-05-03T08:12:26.999Z</time></trkpt><trkpt lat="42.92678954388266" lon="12.860341190394985"><ele>834.0</ele><time>2026-05-03T08:12:27.999Z</time></trkpt><trkpt lat="42.92669876630866" lon="12.860335267596936"><ele>834.0</ele><time>2026-05-03T08:12:28.999Z</time></trkpt><trkpt lat="42.926617497910804" lon="12.860324974687751"><ele>834.0</ele><time>2026-05-03T08:12:29.999Z</time></trkpt><trkpt lat="42.92652927386364" lon="12.860306991601044"><ele>834.0</ele><time>2026-05-03T08:12:30.999Z</time></trkpt><trkpt lat="42.926439163064664" lon="12.86030098133119"><ele>831.1666666666666</ele><time>2026-05-03T08:12:31.999Z</time></trkpt><trkpt lat="42.92636120604455" lon="12.860313028798402"><ele>828.3333333333333</ele><time>2026-05-03T08:12:32.999Z</time></trkpt><trkpt lat="42.92628681294322" lon="12.860318492060918"><ele>825.5</ele><time>2026-05-03T08:12:33.999Z</time></trkpt><trkpt lat="42.92621011672153" lon="12.8603149258866"><ele>822.6666666666666</ele><time>2026-05-03T08:12:34.999Z</time></trkpt><trkpt lat="42.92613974632753" lon="12.860309172704424"><ele>819.8333333333333</ele><time>2026-05-03T08:12:35.999Z</time></trkpt><trkpt lat="42.92605036452162" lon="12.86028935507331"><ele>817.0</ele><time>2026-05-03T08:12:36.999Z</time></trkpt><trkpt lat="42.92596802921036" lon="12.860284155034362"><ele>819.1666666666666</ele><time>2026-05-03T08:12:37.999Z</time></trkpt><trkpt lat="42.92589236694139" lon="12.860265433721562"><ele>821.3333333333333</ele><time>2026-05-03T08:12:38.999Z</time></trkpt><trkpt lat="42.92582194254432" lon="12.860269023974439"><ele>823.5</ele><time>2026-05-03T08:12:39.999Z</time></trkpt><trkpt lat="42.92574956354559" lon="12.860245317749325"><ele>825.6666666666667</ele><time>2026-05-03T08:12:40.999Z</time></trkpt><trkpt lat="42.92564174766897" lon="12.860184832126368"><ele>827.8333333333334</ele><time>2026-05-03T08:12:42.999Z</time></trkpt><trkpt lat="42.92559199041187" lon="12.860127024917896"><ele>830.0</ele><time>2026-05-03T08:12:43.999Z</time></trkpt><trkpt lat="42.92555074217223" lon="12.860060750941017"><ele>830.0000000000001</ele><time>2026-05-03T08:12:44.999Z</time></trkpt><trkpt lat="42.92552014825043" lon="12.859985162760895"><ele>830.0</ele><time>2026-05-03T08:12:45.999Z</time></trkpt><trkpt lat="42.9254848821087" lon="12.859902981294757"><ele>830.0</ele><time>2026-05-03T08:12:47Z</time></trkpt><trkpt lat="42.92539785161047" lon="12.859820818778728"><ele>830.0</ele><time>2026-05-03T08:12:49Z</time></trkpt><trkpt lat="42.92528669137445" lon="12.859891569708363"><ele>830.0000000000001</ele><time>2026-05-03T08:12:51Z</time></trkpt><trkpt lat="42.92522309618693" lon="12.859943110859485"><ele>830.0</ele><time>2026-05-03T08:12:52Z</time></trkpt><trkpt lat="42.92515135468471" lon="12.859980952842836"><ele>830.0000000000001</ele><time>2026-05-03T08:12:53Z</time></trkpt><trkpt lat="42.92507481813119" lon="12.860012244012744"><ele>830.0</ele><time>2026-05-03T08:12:54Z</time></trkpt><trkpt lat="42.924995920670575" lon="12.860055998270553"><ele>830.0</ele><time>2026-05-03T08:12:55Z</time></trkpt><trkpt lat="42.92491187001277" lon="12.860107781003409"><ele>830.0</ele><time>2026-05-03T08:12:56Z</time></trkpt><trkpt lat="42.924831177474765" lon="12.860160160062463"><ele>830.0000000000001</ele><time>2026-05-03T08:12:57Z</time></trkpt><trkpt lat="42.924748937829484" lon="12.860197741806699"><ele>830.0</ele><time>2026-05-03T08:12:58Z</time></trkpt><trkpt lat="42.9246697934283" lon="12.860217612512974"><ele>821.6666666666667</ele><time>2026-05-03T08:12:59Z</time></trkpt><trkpt lat="42.92458696187525" lon="12.860245305873462"><ele>813.3333333333334</ele><time>2026-05-03T08:13:00Z</time></trkpt><trkpt lat="42.924508218753175" lon="12.860262127866488"><ele>805.0</ele><time>2026-05-03T08:13:01Z</time></trkpt><trkpt lat="42.924436729915115" lon="12.860270876389293"><ele>796.6666666666667</ele><time>2026-05-03T08:13:02Z</time></trkpt><trkpt lat="42.92435512951173" lon="12.860285010322665"><ele>788.3333333333334</ele><time>2026-05-03T08:13:03Z</time></trkpt><trkpt lat="42.92427759797521" lon="12.860290779010116"><ele>780.0</ele><time>2026-05-03T08:13:04Z</time></trkpt><trkpt lat="42.924190329401526" lon="12.860293556810339"><ele>778.2</ele><time>2026-05-03T08:13:05Z</time></trkpt><trkpt lat="42.92409568032268" lon="12.860289461640761"><ele>776.4</ele><time>2026-05-03T08:13:06Z</time></trkpt><trkpt lat="42.92400968096396" lon="12.86027482329338"><ele>774.5999999999999</ele><time>2026-05-03T08:13:07Z</time></trkpt><trkpt lat="42.9238994685858" lon="12.860332269123612"><ele>772.8</ele><time>2026-05-03T08:13:08Z</time></trkpt><trkpt lat="42.923809083412664" lon="12.86030278970602"><ele>771.0</ele><time>2026-05-03T08:13:09Z</time></trkpt><trkpt lat="42.92372973098847" lon="12.86027844435816"><ele>771.0</ele><time>2026-05-03T08:13:10Z</time></trkpt><trkpt lat="42.923655017949756" lon="12.860257919127962"><ele>771.0</ele><time>2026-05-03T08:13:11Z</time></trkpt><trkpt lat="42.92357563328327" lon="12.860233548657751"><ele>771.0</ele><time>2026-05-03T08:13:12Z</time></trkpt><trkpt lat="42.92350532866144" lon="12.860204444011009"><ele>771.0</ele><time>2026-05-03T08:13:13Z</time></trkpt><trkpt lat="42.923438878138406" lon="12.86020648976716"><ele>771.0</ele><time>2026-05-03T08:13:14Z</time></trkpt><trkpt lat="42.923377766579875" lon="12.860178623585357"><ele>771.0</ele><time>2026-05-03T08:13:15Z</time></trkpt><trkpt lat="42.923289461739344" lon="12.8601141484064"><ele>773.1666666666666</ele><time>2026-05-03T08:13:17Z</time></trkpt><trkpt lat="42.92318207018234" lon="12.860017459573795"><ele>775.3333333333333</ele><time>2026-05-03T08:13:19Z</time></trkpt><trkpt lat="42.923122062623555" lon="12.859962521701203"><ele>777.5</ele><time>2026-05-03T08:13:20Z</time></trkpt><trkpt lat="42.92306114920605" lon="12.859907033037373"><ele>779.6666666666666</ele><time>2026-05-03T08:13:21Z</time></trkpt><trkpt lat="42.923005202469454" lon="12.859858855189204"><ele>781.8333333333333</ele><time>2026-05-03T08:13:22Z</time></trkpt><trkpt lat="42.92293237432985" lon="12.859797901840992"><ele>784.0</ele><time>2026-05-03T08:13:24Z</time></trkpt><trkpt lat="42.92287762509753" lon="12.85985354134721"><ele>783.9999999999999</ele><time>2026-05-03T08:14:27.999Z</time></trkpt><trkpt lat="42.92281266576844" lon="12.859783681444695"><ele>784.0</ele><time>2026-05-03T08:14:30.999Z</time></trkpt><trkpt lat="42.92275799703144" lon="12.85972830538436"><ele>784.0</ele><time>2026-05-03T08:14:31.999Z</time></trkpt><trkpt lat="42.92269589615884" lon="12.859685329467329"><ele>784.0</ele><time>2026-05-03T08:14:32.999Z</time></trkpt><trkpt lat="42.922633997215854" lon="12.859518259911681"><ele>783.9999999999999</ele><time>2026-05-03T08:14:34.999Z</time></trkpt><trkpt lat="42.92255927709075" lon="12.85944569874207"><ele>784.0</ele><time>2026-05-03T08:14:35.999Z</time></trkpt><trkpt lat="42.92249592871148" lon="12.859392120930476"><ele>783.4000000000001</ele><time>2026-05-03T08:14:36.999Z</time></trkpt><trkpt lat="42.92242003408667" lon="12.859333662282465"><ele>782.8</ele><time>2026-05-03T08:14:37.999Z</time></trkpt><trkpt lat="42.9223360794548" lon="12.859272633354365"><ele>782.2</ele><time>2026-05-03T08:14:38.999Z</time></trkpt><trkpt lat="42.92224442827674" lon="12.859212432073406"><ele>781.5999999999999</ele><time>2026-05-03T08:14:39.999Z</time></trkpt><trkpt lat="42.92215228415684" lon="12.859152683286585"><ele>781.0</ele><time>2026-05-03T08:14:40.999Z</time></trkpt><trkpt lat="42.92206348005155" lon="12.859093056450602"><ele>781.0</ele><time>2026-05-03T08:14:41.999Z</time></trkpt><trkpt lat="42.92197136735198" lon="12.859026433691232"><ele>781.0</ele><time>2026-05-03T08:14:42.999Z</time></trkpt><trkpt lat="42.92189107044084" lon="12.85895828637909"><ele>781.0</ele><time>2026-05-03T08:14:43.999Z</time></trkpt><trkpt lat="42.921814315416796" lon="12.858884114459393"><ele>781.0</ele><time>2026-05-03T08:14:44.999Z</time></trkpt><trkpt lat="42.92173656111962" lon="12.85880772196988"><ele>781.0</ele><time>2026-05-03T08:14:45.999Z</time></trkpt><trkpt lat="42.921669403938076" lon="12.858737193843485"><ele>776.4999999999999</ele><time>2026-05-03T08:14:46.999Z</time></trkpt><trkpt lat="42.921609147787294" lon="12.858671730372603"><ele>772.0</ele><time>2026-05-03T08:14:47.999Z</time></trkpt><trkpt lat="42.92155754451882" lon="12.858621116279943"><ele>767.5</ele><time>2026-05-03T08:14:48.999Z</time></trkpt><trkpt lat="42.92149127474413" lon="12.85857764786724"><ele>763.0</ele><time>2026-05-03T08:14:50.999Z</time></trkpt><trkpt lat="42.921505754692504" lon="12.858731872108686"><ele>758.5</ele><time>2026-05-03T08:14:54Z</time></trkpt><trkpt lat="42.92154586455441" lon="12.858815048380398"><ele>754.0</ele><time>2026-05-03T08:14:55Z</time></trkpt><trkpt lat="42.921593285972094" lon="12.858902586197608"><ele>754.0</ele><time>2026-05-03T08:14:56Z</time></trkpt><trkpt lat="42.92162226314675" lon="12.858981435397816"><ele>754.0</ele><time>2026-05-03T08:14:57Z</time></trkpt><trkpt lat="42.9216477329903" lon="12.85907988267845"><ele>754.0</ele><time>2026-05-03T08:14:58Z</time></trkpt><trkpt lat="42.92166447106085" lon="12.859186520116493"><ele>754.0</ele><time>2026-05-03T08:14:59Z</time></trkpt><trkpt lat="42.92166518771572" lon="12.859305646814752"><ele>754.0</ele><time>2026-05-03T08:15:00Z</time></trkpt><trkpt lat="42.92166646546795" lon="12.859411767947208"><ele>754.0</ele><time>2026-05-03T08:15:01Z</time></trkpt><trkpt lat="42.92167903964546" lon="12.85952779488585"><ele>752.4000000000001</ele><time>2026-05-03T08:15:02Z</time></trkpt><trkpt lat="42.921694701530996" lon="12.859654498150203"><ele>750.8</ele><time>2026-05-03T08:15:03Z</time></trkpt><trkpt lat="42.92170118743963" lon="12.859786665925837"><ele>749.2</ele><time>2026-05-03T08:15:04Z</time></trkpt><trkpt lat="42.921715620597034" lon="12.859918243887611"><ele>747.5999999999999</ele><time>2026-05-03T08:15:05Z</time></trkpt><trkpt lat="42.92171915619184" lon="12.860056034521683"><ele>746.0</ele><time>2026-05-03T08:15:06Z</time></trkpt><trkpt lat="42.92173183836536" lon="12.860181689949176"><ele>745.4</ele><time>2026-05-03T08:15:07Z</time></trkpt><trkpt lat="42.921733689824876" lon="12.860306299427808"><ele>744.8</ele><time>2026-05-03T08:15:08Z</time></trkpt><trkpt lat="42.92176200691543" lon="12.86042315007389"><ele>744.1999999999999</ele><time>2026-05-03T08:15:09Z</time></trkpt><trkpt lat="42.92176723746449" lon="12.860532903373347"><ele>743.5999999999999</ele><time>2026-05-03T08:15:10Z</time></trkpt><trkpt lat="42.92177901071406" lon="12.860659731193797"><ele>743.0</ele><time>2026-05-03T08:15:11Z</time></trkpt><trkpt lat="42.92180219970896" lon="12.860786077297206"><ele>743.0</ele><time>2026-05-03T08:15:12Z</time></trkpt><trkpt lat="42.92181291564959" lon="12.860905774906996"><ele>743.0</ele><time>2026-05-03T08:15:13Z</time></trkpt><trkpt lat="42.92180828763819" lon="12.861031048797887"><ele>743.0</ele><time>2026-05-03T08:15:14Z</time></trkpt><trkpt lat="42.92177210267213" lon="12.861167589746048"><ele>743.0</ele><time>2026-05-03T08:15:15Z</time></trkpt><trkpt lat="42.921703627243836" lon="12.861291167147234"><ele>743.0</ele><time>2026-05-03T08:15:16Z</time></trkpt><trkpt lat="42.921609867355315" lon="12.861424736793998"><ele>739.25</ele><time>2026-05-03T08:15:17Z</time></trkpt><trkpt lat="42.92150543376699" lon="12.861546348895482"><ele>735.5</ele><time>2026-05-03T08:15:18Z</time></trkpt><trkpt lat="42.92140727765008" lon="12.861677922459888"><ele>731.75</ele><time>2026-05-03T08:15:19Z</time></trkpt><trkpt lat="42.92131491328415" lon="12.861807276959297"><ele>728.0</ele><time>2026-05-03T08:15:20Z</time></trkpt><trkpt lat="42.92122001317961" lon="12.861930582057507"><ele>727.75</ele><time>2026-05-03T08:15:21Z</time></trkpt><trkpt lat="42.92112690066129" lon="12.862043055248838"><ele>727.5</ele><time>2026-05-03T08:15:22Z</time></trkpt><trkpt lat="42.921038372131115" lon="12.862168566854937"><ele>727.25</ele><time>2026-05-03T08:15:23Z</time></trkpt><trkpt lat="42.92094261400751" lon="12.862273012476159"><ele>727.0</ele><time>2026-05-03T08:15:24Z</time></trkpt><trkpt lat="42.920856797390755" lon="12.862381659814629"><ele>725.5</ele><time>2026-05-03T08:15:25Z</time></trkpt><trkpt lat="42.92076544615707" lon="12.862482367993005"><ele>724.0</ele><time>2026-05-03T08:15:26Z</time></trkpt><trkpt lat="42.920663671823846" lon="12.862563330974904"><ele>722.5</ele><time>2026-05-03T08:15:27Z</time></trkpt><trkpt lat="42.920553240680185" lon="12.862639660274644"><ele>721.0</ele><time>2026-05-03T08:15:28Z</time></trkpt><trkpt lat="42.92045177899201" lon="12.862703868573561"><ele>721.8</ele><time>2026-05-03T08:15:29Z</time></trkpt><trkpt lat="42.92035047914437" lon="12.862759178043216"><ele>722.5999999999999</ele><time>2026-05-03T08:15:30Z</time></trkpt><trkpt lat="42.92024523578683" lon="12.862800535307889"><ele>723.4</ele><time>2026-05-03T08:15:31Z</time></trkpt><trkpt lat="42.92013864449985" lon="12.862855164286906"><ele>724.2</ele><time>2026-05-03T08:15:32Z</time></trkpt><trkpt lat="42.920024620838525" lon="12.862863563054411"><ele>725.0</ele><time>2026-05-03T08:15:33Z</time></trkpt><trkpt lat="42.91991118432231" lon="12.862884132257978"><ele>725.0</ele><time>2026-05-03T08:15:34Z</time></trkpt><trkpt lat="42.91979448820372" lon="12.862902179767591"><ele>725.0</ele><time>2026-05-03T08:15:35Z</time></trkpt><trkpt lat="42.91967778923446" lon="12.86289634692392"><ele>725.0</ele><time>2026-05-03T08:15:36Z</time></trkpt><trkpt lat="42.91955910276445" lon="12.862878724331884"><ele>725.0</ele><time>2026-05-03T08:15:37Z</time></trkpt><trkpt lat="42.91943382034169" lon="12.862857000774095"><ele>725.0</ele><time>2026-05-03T08:15:38Z</time></trkpt><trkpt lat="42.91931536076285" lon="12.86283455520509"><ele>725.0</ele><time>2026-05-03T08:15:39Z</time></trkpt><trkpt lat="42.919201982895295" lon="12.862815163662722"><ele>725.0</ele><time>2026-05-03T08:15:40Z</time></trkpt><trkpt lat="42.919088955113295" lon="12.862823801874265"><ele>725.0</ele><time>2026-05-03T08:15:41Z</time></trkpt><trkpt lat="42.91898063281516" lon="12.862794803498831"><ele>722.0</ele><time>2026-05-03T08:15:42Z</time></trkpt><trkpt lat="42.91887865464545" lon="12.862811366145028"><ele>719.0</ele><time>2026-05-03T08:15:43Z</time></trkpt><trkpt lat="42.9187928635129" lon="12.862864445061334"><ele>716.0</ele><time>2026-05-03T08:15:44Z</time></trkpt><trkpt lat="42.91871925610906" lon="12.86289976515181"><ele>713.0</ele><time>2026-05-03T08:15:45Z</time></trkpt><trkpt lat="42.91865201533422" lon="12.862940221414206"><ele>710.0</ele><time>2026-05-03T08:15:46Z</time></trkpt><trkpt lat="42.91855455152657" lon="12.86299451354579"><ele>710.0</ele><time>2026-05-03T08:15:48Z</time></trkpt><trkpt lat="42.918491926803675" lon="12.863009858151935"><ele>710.0</ele><time>2026-05-03T08:15:50Z</time></trkpt><trkpt lat="42.91840751839931" lon="12.862950639879028"><ele>710.0</ele><time>2026-05-03T08:15:52Z</time></trkpt><trkpt lat="42.91834999679496" lon="12.862884187457041"><ele>710.0</ele><time>2026-05-03T08:15:53Z</time></trkpt><trkpt lat="42.91828574917795" lon="12.862753004151928"><ele>710.0</ele><time>2026-05-03T08:15:54Z</time></trkpt><trkpt lat="42.91822683602276" lon="12.862639331895128"><ele>709.2</ele><time>2026-05-03T08:15:55Z</time></trkpt><trkpt lat="42.91818172272252" lon="12.862518751143226"><ele>708.4</ele><time>2026-05-03T08:15:56Z</time></trkpt><trkpt lat="42.91814563111064" lon="12.862398784290749"><ele>707.5999999999999</ele><time>2026-05-03T08:15:57Z</time></trkpt><trkpt lat="42.918093778039605" lon="12.862268915575674"><ele>706.8</ele><time>2026-05-03T08:15:58Z</time></trkpt><trkpt lat="42.918071373042416" lon="12.862115507631136"><ele>706.0</ele><time>2026-05-03T08:15:59Z</time></trkpt><trkpt lat="42.91803939240887" lon="12.861986045310534"><ele>706.0</ele><time>2026-05-03T08:16:00Z</time></trkpt><trkpt lat="42.91800538770729" lon="12.861853508276258"><ele>706.0</ele><time>2026-05-03T08:16:01Z</time></trkpt><trkpt lat="42.91796626814835" lon="12.861727734583514"><ele>706.0</ele><time>2026-05-03T08:16:02Z</time></trkpt><trkpt lat="42.91791957163239" lon="12.86159986289449"><ele>706.0</ele><time>2026-05-03T08:16:03Z</time></trkpt><trkpt lat="42.91786046675489" lon="12.861485918039714"><ele>706.0</ele><time>2026-05-03T08:16:04Z</time></trkpt><trkpt lat="42.917827528877275" lon="12.861363990748904"><ele>706.5999999999999</ele><time>2026-05-03T08:16:05Z</time></trkpt><trkpt lat="42.91777181291901" lon="12.861233623619466"><ele>707.2</ele><time>2026-05-03T08:16:06Z</time></trkpt><trkpt lat="42.91772630375121" lon="12.861129234367814"><ele>707.8</ele><time>2026-05-03T08:16:07Z</time></trkpt><trkpt lat="42.917675045513256" lon="12.861018440445669"><ele>708.4000000000001</ele><time>2026-05-03T08:16:08Z</time></trkpt><trkpt lat="42.91762451447469" lon="12.860910403421073"><ele>709.0</ele><time>2026-05-03T08:16:08.999Z</time></trkpt><trkpt lat="42.91757025473581" lon="12.860794394312594"><ele>709.25</ele><time>2026-05-03T08:16:09.999Z</time></trkpt><trkpt lat="42.917506275650865" lon="12.860655877160358"><ele>709.5</ele><time>2026-05-03T08:16:10.999Z</time></trkpt><trkpt lat="42.91744353818776" lon="12.860504942718254"><ele>709.75</ele><time>2026-05-03T08:16:11.999Z</time></trkpt><trkpt lat="42.91738764458685" lon="12.860336877217366"><ele>710.0</ele><time>2026-05-03T08:16:12.999Z</time></trkpt><trkpt lat="42.917352914407225" lon="12.860152868253797"><ele>710.5</ele><time>2026-05-03T08:16:13.999Z</time></trkpt><trkpt lat="42.917351679179724" lon="12.8599610343849"><ele>711.0</ele><time>2026-05-03T08:16:14.999Z</time></trkpt><trkpt lat="42.91736713036824" lon="12.859734450223502"><ele>711.5</ele><time>2026-05-03T08:16:15.999Z</time></trkpt><trkpt lat="42.91738599498293" lon="12.859566200914228"><ele>712.0</ele><time>2026-05-03T08:16:16.999Z</time></trkpt><trkpt lat="42.91740586686289" lon="12.859379188363064"><ele>713.25</ele><time>2026-05-03T08:16:17.999Z</time></trkpt><trkpt lat="42.917412934953504" lon="12.859211233408383"><ele>714.5</ele><time>2026-05-03T08:16:18.999Z</time></trkpt><trkpt lat="42.91741455112352" lon="12.859054654987329"><ele>715.75</ele><time>2026-05-03T08:16:19.999Z</time></trkpt><trkpt lat="42.91740738352827" lon="12.858899856937725"><ele>717.0</ele><time>2026-05-03T08:16:20.999Z</time></trkpt><trkpt lat="42.917384810948825" lon="12.858745612679233"><ele>717.0</ele><time>2026-05-03T08:16:21.999Z</time></trkpt><trkpt lat="42.917356157617185" lon="12.85859750299493"><ele>717.0</ele><time>2026-05-03T08:16:22.999Z</time></trkpt><trkpt lat="42.91732791182238" lon="12.858462251749804"><ele>717.0</ele><time>2026-05-03T08:16:23.999Z</time></trkpt><trkpt lat="42.917286509658084" lon="12.858342477711922"><ele>717.0</ele><time>2026-05-03T08:16:24.999Z</time></trkpt><trkpt lat="42.917276278028" lon="12.858231443388974"><ele>717.0</ele><time>2026-05-03T08:16:25.999Z</time></trkpt><trkpt lat="42.91724710973456" lon="12.858131285326772"><ele>717.6666666666666</ele><time>2026-05-03T08:16:26.999Z</time></trkpt><trkpt lat="42.91721152784514" lon="12.858045400482867"><ele>718.3333333333334</ele><time>2026-05-03T08:16:27.999Z</time></trkpt><trkpt lat="42.917149471302466" lon="12.857951385229455"><ele>719.0</ele><time>2026-05-03T08:16:29.999Z</time></trkpt><trkpt lat="42.91716547818455" lon="12.857857868744166"><ele>719.6666666666667</ele><time>2026-05-03T08:16:32.999Z</time></trkpt><trkpt lat="42.91720285847045" lon="12.857775948125306"><ele>720.3333333333334</ele><time>2026-05-03T08:16:35.999Z</time></trkpt><trkpt lat="42.91729374327061" lon="12.857742654171638"><ele>721.0</ele><time>2026-05-03T08:20:21.999Z</time></trkpt><trkpt lat="42.91720806065778" lon="12.857875522265578"><ele>721.0</ele><time>2026-05-03T08:20:32.999Z</time></trkpt><trkpt lat="42.91716144727237" lon="12.857954999971582"><ele>721.0</ele><time>2026-05-03T08:20:33.999Z</time></trkpt><trkpt lat="42.917211811566766" lon="12.857784685183283"><ele>721.0</ele><time>2026-05-03T08:20:35.999Z</time></trkpt><trkpt lat="42.917157093698165" lon="12.85770863148147"><ele>721.0</ele><time>2026-05-03T08:20:49.999Z</time></trkpt><trkpt lat="42.91713517547035" lon="12.85779710110408"><ele>721.0</ele><time>2026-05-03T08:21:41Z</time></trkpt><trkpt lat="42.91720720470258" lon="12.857758449966854"><ele>721.0</ele><time>2026-05-03T08:21:45Z</time></trkpt><trkpt lat="42.917263236939974" lon="12.85780681380771"><ele>721.0</ele><time>2026-05-03T08:22:04Z</time></trkpt><trkpt lat="42.91725504027986" lon="12.857717751171439"><ele>721.0</ele><time>2026-05-03T08:22:19Z</time></trkpt><trkpt lat="42.91710085517984" lon="12.857671011467243"><ele>721.0</ele><time>2026-05-03T08:22:44.999Z</time></trkpt><trkpt lat="42.91715572228279" lon="12.85771565316994"><ele>721.0</ele><time>2026-05-03T08:22:46.999Z</time></trkpt><trkpt lat="42.9172626056354" lon="12.85770335582172"><ele>721.0</ele><time>2026-05-03T08:29:06Z</time></trkpt><trkpt lat="42.91733089520285" lon="12.857720780959331"><ele>721.0</ele><time>2026-05-03T08:29:11Z</time></trkpt><trkpt lat="42.91725354877408" lon="12.857716986317465"><ele>721.0</ele><time>2026-05-03T08:29:12Z</time></trkpt><trkpt lat="42.91718458987193" lon="12.857670618272001"><ele>721.0</ele><time>2026-05-03T08:29:17Z</time></trkpt><trkpt lat="42.91724879963718" lon="12.857654823324994"><ele>721.0</ele><time>2026-05-03T08:29:26Z</time></trkpt><trkpt lat="42.91722076832409" lon="12.857738071909761"><ele>721.0</ele><time>2026-05-03T08:29:56Z</time></trkpt><trkpt lat="42.917187335127664" lon="12.857811985699342"><ele>721.0</ele><time>2026-05-03T08:30:36Z</time></trkpt><trkpt lat="42.91711019230585" lon="12.857788330124512"><ele>721.0</ele><time>2026-05-03T08:34:42Z</time></trkpt><trkpt lat="42.91701196883998" lon="12.85771567793208"><ele>722.8333333333334</ele><time>2026-05-03T08:34:57Z</time></trkpt><trkpt lat="42.91697266078655" lon="12.85759507616708"><ele>724.6666666666667</ele><time>2026-05-03T08:34:58Z</time></trkpt><trkpt lat="42.916924815124226" lon="12.857500132489118"><ele>726.5</ele><time>2026-05-03T08:34:59Z</time></trkpt><trkpt lat="42.91689845893451" lon="12.857411280588856"><ele>728.3333333333334</ele><time>2026-05-03T08:35:00Z</time></trkpt><trkpt lat="42.91684384503775" lon="12.857261047406029"><ele>730.1666666666666</ele><time>2026-05-03T08:35:02Z</time></trkpt><trkpt lat="42.91680463689004" lon="12.85718319477486"><ele>732.0</ele><time>2026-05-03T08:35:03Z</time></trkpt><trkpt lat="42.9167585037152" lon="12.857066159865392"><ele>730.0</ele><time>2026-05-03T08:35:04Z</time></trkpt><trkpt lat="42.91671348379625" lon="12.856940174194186"><ele>728.0</ele><time>2026-05-03T08:35:05Z</time></trkpt><trkpt lat="42.916664221138156" lon="12.856795243037103"><ele>726.0</ele><time>2026-05-03T08:35:06Z</time></trkpt><trkpt lat="42.9166233184676" lon="12.856663337183727"><ele>724.0</ele><time>2026-05-03T08:35:07Z</time></trkpt><trkpt lat="42.91659061479675" lon="12.856555297690988"><ele>722.0</ele><time>2026-05-03T08:35:08Z</time></trkpt><trkpt lat="42.9165467410127" lon="12.856452933612237"><ele>722.0</ele><time>2026-05-03T08:35:09Z</time></trkpt><trkpt lat="42.91650878951779" lon="12.856334034494528"><ele>722.0</ele><time>2026-05-03T08:35:10Z</time></trkpt><trkpt lat="42.91646137549515" lon="12.856191385716254"><ele>722.0</ele><time>2026-05-03T08:35:11Z</time></trkpt><trkpt lat="42.916420085423155" lon="12.856066563169868"><ele>722.0</ele><time>2026-05-03T08:35:12Z</time></trkpt><trkpt lat="42.91639119816616" lon="12.855956122469138"><ele>722.0</ele><time>2026-05-03T08:35:13Z</time></trkpt><trkpt lat="42.91636036855841" lon="12.855845541969726"><ele>723.6666666666666</ele><time>2026-05-03T08:35:14Z</time></trkpt><trkpt lat="42.91633436450273" lon="12.85573483875376"><ele>725.3333333333333</ele><time>2026-05-03T08:35:15Z</time></trkpt><trkpt lat="42.91631252207209" lon="12.855629886030814"><ele>727.0</ele><time>2026-05-03T08:35:16Z</time></trkpt><trkpt lat="42.91629684845084" lon="12.855530584618448"><ele>728.6666666666666</ele><time>2026-05-03T08:35:17Z</time></trkpt><trkpt lat="42.91628702525044" lon="12.85542661044991"><ele>730.3333333333334</ele><time>2026-05-03T08:35:18Z</time></trkpt><trkpt lat="42.91627587342542" lon="12.855312628855742"><ele>732.0</ele><time>2026-05-03T08:35:19Z</time></trkpt><trkpt lat="42.9162617772708" lon="12.855202124996742"><ele>734.3333333333334</ele><time>2026-05-03T08:35:20Z</time></trkpt><trkpt lat="42.91624254899965" lon="12.855093857715092"><ele>736.6666666666666</ele><time>2026-05-03T08:35:21Z</time></trkpt><trkpt lat="42.91624231035796" lon="12.85497408691647"><ele>739.0</ele><time>2026-05-03T08:35:22Z</time></trkpt><trkpt lat="42.91621872832824" lon="12.854864032045946"><ele>741.3333333333333</ele><time>2026-05-03T08:35:23Z</time></trkpt><trkpt lat="42.91618435229536" lon="12.854748572514318"><ele>743.6666666666666</ele><time>2026-05-03T08:35:24Z</time></trkpt><trkpt lat="42.91613626403829" lon="12.854641798824296"><ele>746.0</ele><time>2026-05-03T08:35:25Z</time></trkpt><trkpt lat="42.91608851091271" lon="12.854545193907935"><ele>746.0</ele><time>2026-05-03T08:35:26Z</time></trkpt><trkpt lat="42.916037579453494" lon="12.85445031608859"><ele>746.0</ele><time>2026-05-03T08:35:27Z</time></trkpt><trkpt lat="42.91598657387213" lon="12.8543545378192"><ele>746.0</ele><time>2026-05-03T08:35:28Z</time></trkpt><trkpt lat="42.91593847635992" lon="12.854264220312563"><ele>746.0</ele><time>2026-05-03T08:35:29Z</time></trkpt><trkpt lat="42.91589177235539" lon="12.854175782825186"><ele>746.0</ele><time>2026-05-03T08:35:30Z</time></trkpt><trkpt lat="42.91583082175365" lon="12.854092924824167"><ele>746.0</ele><time>2026-05-03T08:35:31Z</time></trkpt><trkpt lat="42.91579630260569" lon="12.853978815163748"><ele>745.4</ele><time>2026-05-03T08:35:32Z</time></trkpt><trkpt lat="42.91575232704166" lon="12.853876098415736"><ele>744.8</ele><time>2026-05-03T08:35:33Z</time></trkpt><trkpt lat="42.915704068748965" lon="12.853771386758064"><ele>744.1999999999999</ele><time>2026-05-03T08:35:34Z</time></trkpt><trkpt lat="42.915676162674394" lon="12.853641289316531"><ele>743.5999999999999</ele><time>2026-05-03T08:35:35Z</time></trkpt><trkpt lat="42.91565453387283" lon="12.853511808694519"><ele>743.0</ele><time>2026-05-03T08:35:36Z</time></trkpt><trkpt lat="42.915641836225404" lon="12.853371662965971"><ele>742.4</ele><time>2026-05-03T08:35:37Z</time></trkpt><trkpt lat="42.915635076280694" lon="12.853217396066837"><ele>741.8</ele><time>2026-05-03T08:35:38Z</time></trkpt><trkpt lat="42.91563325534754" lon="12.853073397402653"><ele>741.2</ele><time>2026-05-03T08:35:39Z</time></trkpt><trkpt lat="42.91563231467263" lon="12.85291895963127"><ele>740.6</ele><time>2026-05-03T08:35:40Z</time></trkpt><trkpt lat="42.9156410014227" lon="12.85279000730087"><ele>740.0</ele><time>2026-05-03T08:35:41Z</time></trkpt><trkpt lat="42.915619559867075" lon="12.852677278323899"><ele>741.4</ele><time>2026-05-03T08:35:42Z</time></trkpt><trkpt lat="42.915621248448645" lon="12.852560646615752"><ele>742.8</ele><time>2026-05-03T08:35:43Z</time></trkpt><trkpt lat="42.915605628760005" lon="12.852425855899048"><ele>744.2</ele><time>2026-05-03T08:35:44Z</time></trkpt><trkpt lat="42.915583536635" lon="12.852304350171712"><ele>745.6</ele><time>2026-05-03T08:35:45Z</time></trkpt><trkpt lat="42.915554442755486" lon="12.852180827583288"><ele>747.0</ele><time>2026-05-03T08:35:46Z</time></trkpt><trkpt lat="42.91553583721678" lon="12.852045147901054"><ele>747.0</ele><time>2026-05-03T08:35:47Z</time></trkpt><trkpt lat="42.915485114449886" lon="12.851912145044437"><ele>747.0</ele><time>2026-05-03T08:35:48Z</time></trkpt><trkpt lat="42.91544822186035" lon="12.85176311703408"><ele>747.0</ele><time>2026-05-03T08:35:49Z</time></trkpt><trkpt lat="42.91542184562685" lon="12.851601138027739"><ele>747.0</ele><time>2026-05-03T08:35:50Z</time></trkpt><trkpt lat="42.915385315954914" lon="12.851450178179395"><ele>746.75</ele><time>2026-05-03T08:35:51Z</time></trkpt><trkpt lat="42.91535377237944" lon="12.851302634495525"><ele>746.5</ele><time>2026-05-03T08:35:52Z</time></trkpt><trkpt lat="42.91532924100788" lon="12.851153814314584"><ele>746.25</ele><time>2026-05-03T08:35:53Z</time></trkpt><trkpt lat="42.91531171883626" lon="12.85098275891326"><ele>746.0</ele><time>2026-05-03T08:35:54Z</time></trkpt><trkpt lat="42.91529412529055" lon="12.850782013571612"><ele>747.0</ele><time>2026-05-03T08:35:55Z</time></trkpt><trkpt lat="42.91527757254077" lon="12.850567555804956"><ele>748.0</ele><time>2026-05-03T08:35:56Z</time></trkpt><trkpt lat="42.9152615513047" lon="12.850385557057075"><ele>749.0</ele><time>2026-05-03T08:35:57Z</time></trkpt><trkpt lat="42.91523520536572" lon="12.850217664225218"><ele>750.0</ele><time>2026-05-03T08:35:58Z</time></trkpt><trkpt lat="42.91516979349396" lon="12.850036643649617"><ele>748.5</ele><time>2026-05-03T08:35:59Z</time></trkpt><trkpt lat="42.91510659344645" lon="12.849865539495978"><ele>747.0</ele><time>2026-05-03T08:36:00Z</time></trkpt><trkpt lat="42.915034740297784" lon="12.84970857587571"><ele>745.5</ele><time>2026-05-03T08:36:01Z</time></trkpt><trkpt lat="42.91498038404326" lon="12.849556906182764"><ele>744.0</ele><time>2026-05-03T08:36:02Z</time></trkpt><trkpt lat="42.91491340450486" lon="12.849420754213277"><ele>744.0</ele><time>2026-05-03T08:36:03Z</time></trkpt><trkpt lat="42.91485113589985" lon="12.849295555807458"><ele>744.0</ele><time>2026-05-03T08:36:04Z</time></trkpt><trkpt lat="42.91478891215784" lon="12.849172160979588"><ele>744.0</ele><time>2026-05-03T08:36:05Z</time></trkpt><trkpt lat="42.91472962270707" lon="12.849058921513059"><ele>744.0</ele><time>2026-05-03T08:36:06Z</time></trkpt><trkpt lat="42.914664193126534" lon="12.848938877498698"><ele>744.0</ele><time>2026-05-03T08:36:07Z</time></trkpt><trkpt lat="42.91460071499245" lon="12.848837961665973"><ele>744.6666666666666</ele><time>2026-05-03T08:36:08Z</time></trkpt><trkpt lat="42.91454354877879" lon="12.848756343151843"><ele>745.3333333333334</ele><time>2026-05-03T08:36:09Z</time></trkpt><trkpt lat="42.914495851035774" lon="12.848689171804068"><ele>746.0</ele><time>2026-05-03T08:36:10Z</time></trkpt><trkpt lat="42.91444939268049" lon="12.84862942194778"><ele>746.6666666666667</ele><time>2026-05-03T08:36:11Z</time></trkpt><trkpt lat="42.91438492340372" lon="12.848811045479534"><ele>747.3333333333334</ele><time>2026-05-03T08:36:15Z</time></trkpt><trkpt lat="42.91443965633613" lon="12.848885233125234"><ele>748.0</ele><time>2026-05-03T08:36:18Z</time></trkpt><trkpt lat="42.9144792574113" lon="12.84895712664387"><ele>748.0</ele><time>2026-05-03T08:36:20Z</time></trkpt><trkpt lat="42.91451859913362" lon="12.849031625476083"><ele>748.0</ele><time>2026-05-03T08:36:23Z</time></trkpt><trkpt lat="42.914502196069016" lon="12.849114935694073"><ele>748.0</ele><time>2026-05-03T08:36:25Z</time></trkpt><trkpt lat="42.91448266214316" lon="12.849205569521173"><ele>748.0</ele><time>2026-05-03T08:36:26Z</time></trkpt><trkpt lat="42.91447995455106" lon="12.849311022309424"><ele>748.0</ele><time>2026-05-03T08:36:28Z</time></trkpt><trkpt lat="42.91446258291823" lon="12.849397495533493"><ele>748.0</ele><time>2026-05-03T08:36:30Z</time></trkpt><trkpt lat="42.91439876295715" lon="12.849476047367702"><ele>748.0</ele><time>2026-05-03T08:36:32Z</time></trkpt><trkpt lat="42.91432435659508" lon="12.849510937403466"><ele>747.2</ele><time>2026-05-03T08:36:33Z</time></trkpt><trkpt lat="42.914242849579686" lon="12.849564383139574"><ele>746.4</ele><time>2026-05-03T08:36:34Z</time></trkpt><trkpt lat="42.91416891949995" lon="12.84962287091783"><ele>745.6</ele><time>2026-05-03T08:36:35Z</time></trkpt><trkpt lat="42.91407552800314" lon="12.849693266159672"><ele>744.8000000000001</ele><time>2026-05-03T08:36:36Z</time></trkpt><trkpt lat="42.91399783910694" lon="12.849730431268192"><ele>744.0</ele><time>2026-05-03T08:36:37Z</time></trkpt><trkpt lat="42.913906626138015" lon="12.849767862961224"><ele>745.5</ele><time>2026-05-03T08:36:38Z</time></trkpt><trkpt lat="42.91383896356816" lon="12.849799945369089"><ele>747.0</ele><time>2026-05-03T08:36:39Z</time></trkpt><trkpt lat="42.91378140771117" lon="12.849837573273689"><ele>748.5</ele><time>2026-05-03T08:36:40Z</time></trkpt><trkpt lat="42.91370160348091" lon="12.849873493788298"><ele>750.0</ele><time>2026-05-03T08:36:41Z</time></trkpt><trkpt lat="42.91362070944423" lon="12.849903882305037"><ele>751.5</ele><time>2026-05-03T08:36:42Z</time></trkpt><trkpt lat="42.91354481225746" lon="12.849941639524358"><ele>753.0</ele><time>2026-05-03T08:36:43Z</time></trkpt><trkpt lat="42.91345568088114" lon="12.849993560270848"><ele>755.8333333333334</ele><time>2026-05-03T08:36:44Z</time></trkpt><trkpt lat="42.9133812219876" lon="12.850028831677808"><ele>758.6666666666667</ele><time>2026-05-03T08:36:45Z</time></trkpt><trkpt lat="42.91330029375761" lon="12.850070042837748"><ele>761.5</ele><time>2026-05-03T08:36:46Z</time></trkpt><trkpt lat="42.913227474561474" lon="12.850106635742042"><ele>764.3333333333334</ele><time>2026-05-03T08:36:47Z</time></trkpt><trkpt lat="42.91310900505486" lon="12.850178682072777"><ele>767.1666666666667</ele><time>2026-05-03T08:36:49Z</time></trkpt><trkpt lat="42.91305614742809" lon="12.85022975146626"><ele>770.0</ele><time>2026-05-03T08:36:50Z</time></trkpt><trkpt lat="42.91299629956884" lon="12.850298411438926"><ele>770.8333333333334</ele><time>2026-05-03T08:36:51Z</time></trkpt><trkpt lat="42.91293313040914" lon="12.850370107553262"><ele>771.6666666666667</ele><time>2026-05-03T08:36:52Z</time></trkpt><trkpt lat="42.91287008601066" lon="12.850425131748407"><ele>772.5</ele><time>2026-05-03T08:36:53Z</time></trkpt><trkpt lat="42.91281862996975" lon="12.850484915976274"><ele>773.3333333333333</ele><time>2026-05-03T08:36:54Z</time></trkpt><trkpt lat="42.91273605980471" lon="12.8506001857366"><ele>774.1666666666666</ele><time>2026-05-03T08:36:56Z</time></trkpt><trkpt lat="42.91268009711062" lon="12.850673320903757"><ele>775.0</ele><time>2026-05-03T08:36:57Z</time></trkpt><trkpt lat="42.91262155780485" lon="12.85075148641804"><ele>776.8333333333333</ele><time>2026-05-03T08:36:58Z</time></trkpt><trkpt lat="42.912560714011256" lon="12.850817682076611"><ele>778.6666666666666</ele><time>2026-05-03T08:36:59Z</time></trkpt><trkpt lat="42.91250014192827" lon="12.850885670521745"><ele>780.5</ele><time>2026-05-03T08:37:00Z</time></trkpt><trkpt lat="42.912440337299685" lon="12.850944594375164"><ele>782.3333333333333</ele><time>2026-05-03T08:37:01Z</time></trkpt><trkpt lat="42.91238016339422" lon="12.851006147846212"><ele>784.1666666666666</ele><time>2026-05-03T08:37:02Z</time></trkpt><trkpt lat="42.9123195754151" lon="12.8510781101096"><ele>786.0</ele><time>2026-05-03T08:37:03Z</time></trkpt><trkpt lat="42.91225916079275" lon="12.851157348463426"><ele>788.6666666666666</ele><time>2026-05-03T08:37:04Z</time></trkpt><trkpt lat="42.91220091875193" lon="12.851234997186488"><ele>791.3333333333333</ele><time>2026-05-03T08:37:05Z</time></trkpt><trkpt lat="42.91215281775072" lon="12.851311539485677"><ele>794.0</ele><time>2026-05-03T08:37:06Z</time></trkpt><trkpt lat="42.91212259454264" lon="12.851459300639492"><ele>796.6666666666666</ele><time>2026-05-03T08:37:08Z</time></trkpt><trkpt lat="42.91212632015944" lon="12.851616927023677"><ele>799.3333333333333</ele><time>2026-05-03T08:37:10Z</time></trkpt><trkpt lat="42.91210552063047" lon="12.851699262096334"><ele>802.0</ele><time>2026-05-03T08:37:11Z</time></trkpt><trkpt lat="42.912030379047195" lon="12.85180308978016"><ele>804.6</ele><time>2026-05-03T08:37:13Z</time></trkpt><trkpt lat="42.91190002795364" lon="12.85182386457217"><ele>807.2</ele><time>2026-05-03T08:37:15Z</time></trkpt><trkpt lat="42.91177802814156" lon="12.851852905768194"><ele>809.8</ele><time>2026-05-03T08:37:16Z</time></trkpt><trkpt lat="42.91167387359211" lon="12.851893512074145"><ele>812.4</ele><time>2026-05-03T08:37:17Z</time></trkpt><trkpt lat="42.91159102958158" lon="12.851871576775808"><ele>815.0</ele><time>2026-05-03T08:37:19Z</time></trkpt><trkpt lat="42.91146319705201" lon="12.851776903438951"><ele>815.0000000000001</ele><time>2026-05-03T08:37:21Z</time></trkpt><trkpt lat="42.91135682567475" lon="12.851772934822531"><ele>815.0</ele><time>2026-05-03T08:37:22Z</time></trkpt><trkpt lat="42.911289043095394" lon="12.851742127892336"><ele>815.0</ele><time>2026-05-03T08:37:23Z</time></trkpt><trkpt lat="42.911270707396675" lon="12.851623066348765"><ele>815.0</ele><time>2026-05-03T08:37:25Z</time></trkpt><trkpt lat="42.91125041880071" lon="12.851536594243433"><ele>815.0000000000001</ele><time>2026-05-03T08:37:27Z</time></trkpt><trkpt lat="42.91126093512009" lon="12.85140063169176"><ele>815.0</ele><time>2026-05-03T08:37:30Z</time></trkpt><trkpt lat="42.91126064658417" lon="12.85115263633781"><ele>815.0</ele><time>2026-05-03T08:37:31Z</time></trkpt><trkpt lat="42.91124350471491" lon="12.851025308321054"><ele>815.0</ele><time>2026-05-03T08:37:32Z</time></trkpt><trkpt lat="42.91123430950421" lon="12.850876498768548"><ele>815.0</ele><time>2026-05-03T08:37:33Z</time></trkpt><trkpt lat="42.91120774352325" lon="12.850776833293219"><ele>815.0</ele><time>2026-05-03T08:37:34Z</time></trkpt><trkpt lat="42.91116950606815" lon="12.850634310500899"><ele>815.0</ele><time>2026-05-03T08:37:35Z</time></trkpt><trkpt lat="42.9111589522988" lon="12.85050881632507"><ele>814.6</ele><time>2026-05-03T08:37:36Z</time></trkpt><trkpt lat="42.91115694101887" lon="12.850384847473714"><ele>814.2</ele><time>2026-05-03T08:37:37Z</time></trkpt><trkpt lat="42.91116733104157" lon="12.85027832526696"><ele>813.8</ele><time>2026-05-03T08:37:38Z</time></trkpt><trkpt lat="42.91121641866499" lon="12.850150413032686"><ele>813.4</ele><time>2026-05-03T08:37:39Z</time></trkpt><trkpt lat="42.911241192901" lon="12.850032366343317"><ele>813.0</ele><time>2026-05-03T08:37:40Z</time></trkpt><trkpt lat="42.911270375856326" lon="12.8499179724275"><ele>814.1666666666666</ele><time>2026-05-03T08:37:41Z</time></trkpt><trkpt lat="42.91128148863019" lon="12.849810438317471"><ele>815.3333333333333</ele><time>2026-05-03T08:37:42Z</time></trkpt><trkpt lat="42.91119259466801" lon="12.849782182276916"><ele>816.5</ele><time>2026-05-03T08:37:44Z</time></trkpt><trkpt lat="42.91116469230611" lon="12.84967145262616"><ele>817.6666666666666</ele><time>2026-05-03T08:37:45Z</time></trkpt><trkpt lat="42.91119854560235" lon="12.849594960232157"><ele>818.8333333333333</ele><time>2026-05-03T08:37:46Z</time></trkpt><trkpt lat="42.91123598149542" lon="12.84950741663713"><ele>820.0</ele><time>2026-05-03T08:37:47Z</time></trkpt><trkpt lat="42.91123226403366" lon="12.849350760582299"><ele>821.8</ele><time>2026-05-03T08:37:49Z</time></trkpt><trkpt lat="42.91117601418106" lon="12.849178905516775"><ele>823.6</ele><time>2026-05-03T08:37:51Z</time></trkpt><trkpt lat="42.9111273568632" lon="12.849082278710354"><ele>825.4000000000001</ele><time>2026-05-03T08:37:52Z</time></trkpt><trkpt lat="42.91108406993589" lon="12.848972316015319"><ele>827.2</ele><time>2026-05-03T08:37:53Z</time></trkpt><trkpt lat="42.911031602970915" lon="12.848861056681638"><ele>829.0</ele><time>2026-05-03T08:37:54Z</time></trkpt><trkpt lat="42.910979557209565" lon="12.848719278886513"><ele>829.0</ele><time>2026-05-03T08:37:55Z</time></trkpt><trkpt lat="42.91093033745796" lon="12.848636693727268"><ele>829.0</ele><time>2026-05-03T08:37:56Z</time></trkpt><trkpt lat="42.91080863133344" lon="12.848627570504082"><ele>829.0</ele><time>2026-05-03T08:37:58Z</time></trkpt><trkpt lat="42.91073402677193" lon="12.848673871186651"><ele>829.0</ele><time>2026-05-03T08:37:59Z</time></trkpt><trkpt lat="42.910657069431124" lon="12.848756398286072"><ele>829.0</ele><time>2026-05-03T08:38:00Z</time></trkpt><trkpt lat="42.91057426692898" lon="12.848866909818518"><ele>834.6</ele><time>2026-05-03T08:38:01Z</time></trkpt><trkpt lat="42.91047963571239" lon="12.848959846095628"><ele>840.2</ele><time>2026-05-03T08:38:02Z</time></trkpt><trkpt lat="42.91039344712459" lon="12.849044506236849"><ele>845.8000000000001</ele><time>2026-05-03T08:38:03Z</time></trkpt><trkpt lat="42.91032584842377" lon="12.849124704409647"><ele>851.4000000000001</ele><time>2026-05-03T08:38:04Z</time></trkpt><trkpt lat="42.91026458637666" lon="12.849196344976836"><ele>857.0</ele><time>2026-05-03T08:38:05Z</time></trkpt><trkpt lat="42.910196282356644" lon="12.84927273705725"><ele>855.0000000000001</ele><time>2026-05-03T08:38:06Z</time></trkpt><trkpt lat="42.91012349834337" lon="12.84934389007523"><ele>853.0</ele><time>2026-05-03T08:38:07Z</time></trkpt><trkpt lat="42.91005414612601" lon="12.84940080647175"><ele>851.0</ele><time>2026-05-03T08:38:08Z</time></trkpt><trkpt lat="42.90998403915931" lon="12.849455291566684"><ele>849.0</ele><time>2026-05-03T08:38:09Z</time></trkpt><trkpt lat="42.90991370327147" lon="12.849512626649055"><ele>847.0000000000001</ele><time>2026-05-03T08:38:10Z</time></trkpt><trkpt lat="42.90984874011234" lon="12.849551649793343"><ele>845.0</ele><time>2026-05-03T08:38:11Z</time></trkpt><trkpt lat="42.9097738609009" lon="12.849578363414206"><ele>849.3333333333334</ele><time>2026-05-03T08:38:12Z</time></trkpt><trkpt lat="42.90969105227521" lon="12.84960666978433"><ele>853.6666666666667</ele><time>2026-05-03T08:38:13Z</time></trkpt><trkpt lat="42.90961736891071" lon="12.8496301744517"><ele>858.0</ele><time>2026-05-03T08:38:14Z</time></trkpt><trkpt lat="42.90952613541563" lon="12.849645106611339"><ele>862.3333333333333</ele><time>2026-05-03T08:38:15Z</time></trkpt><trkpt lat="42.909435190200384" lon="12.849656741348607"><ele>866.6666666666666</ele><time>2026-05-03T08:38:16Z</time></trkpt><trkpt lat="42.909340392115205" lon="12.849670241184723"><ele>871.0</ele><time>2026-05-03T08:38:17Z</time></trkpt><trkpt lat="42.90923950618058" lon="12.849679829018376"><ele>874.4999999999999</ele><time>2026-05-03T08:38:18Z</time></trkpt><trkpt lat="42.90914073477968" lon="12.849701090667823"><ele>878.0</ele><time>2026-05-03T08:38:19Z</time></trkpt><trkpt lat="42.909052278876196" lon="12.849716725644472"><ele>881.5</ele><time>2026-05-03T08:38:20Z</time></trkpt><trkpt lat="42.90897773810689" lon="12.849732658682262"><ele>885.0</ele><time>2026-05-03T08:38:21Z</time></trkpt><trkpt lat="42.90889862558921" lon="12.849754338549385"><ele>888.4999999999999</ele><time>2026-05-03T08:38:22Z</time></trkpt><trkpt lat="42.9088196325607" lon="12.84977381202455"><ele>892.0</ele><time>2026-05-03T08:38:23Z</time></trkpt><trkpt lat="42.90873854701757" lon="12.849806086205872"><ele>891.9999999999999</ele><time>2026-05-03T08:38:24Z</time></trkpt><trkpt lat="42.908651951257326" lon="12.849829744757109"><ele>892.0</ele><time>2026-05-03T08:38:25Z</time></trkpt><trkpt lat="42.90856739823924" lon="12.849871095409453"><ele>892.0</ele><time>2026-05-03T08:38:26Z</time></trkpt><trkpt lat="42.90849618192442" lon="12.849897518556954"><ele>892.0</ele><time>2026-05-03T08:38:27Z</time></trkpt><trkpt lat="42.90839655114998" lon="12.849893738632083"><ele>891.9999999999999</ele><time>2026-05-03T08:39:01Z</time></trkpt><trkpt lat="42.90842012311929" lon="12.849778139051102"><ele>892.0</ele><time>2026-05-03T08:39:05Z</time></trkpt><trkpt lat="42.908464431975645" lon="12.849711996571228"><ele>892.0</ele><time>2026-05-03T08:39:06Z</time></trkpt><trkpt lat="42.908557547896706" lon="12.849598829923918"><ele>892.0</ele><time>2026-05-03T08:39:07Z</time></trkpt><trkpt lat="42.90863065057924" lon="12.84950864738952"><ele>892.0</ele><time>2026-05-03T08:39:08Z</time></trkpt><trkpt lat="42.90869501165952" lon="12.84941152534752"><ele>892.0</ele><time>2026-05-03T08:39:09Z</time></trkpt><trkpt lat="42.90875415983299" lon="12.849295638731654"><ele>892.0</ele><time>2026-05-03T08:39:10Z</time></trkpt><trkpt lat="42.90878600007816" lon="12.849172361494041"><ele>896.0</ele><time>2026-05-03T08:39:11Z</time></trkpt><trkpt lat="42.90881989355646" lon="12.849012067928218"><ele>900.0</ele><time>2026-05-03T08:39:12Z</time></trkpt><trkpt lat="42.908883597653436" lon="12.848825973548873"><ele>904.0</ele><time>2026-05-03T08:39:13Z</time></trkpt><trkpt lat="42.908955674204876" lon="12.848655249373039"><ele>908.0</ele><time>2026-05-03T08:39:14Z</time></trkpt><trkpt lat="42.90902194814605" lon="12.848491355567317"><ele>911.8</ele><time>2026-05-03T08:39:15Z</time></trkpt><trkpt lat="42.909068852629936" lon="12.848343578911338"><ele>915.5999999999999</ele><time>2026-05-03T08:39:16Z</time></trkpt><trkpt lat="42.9091119493331" lon="12.848197237096391"><ele>919.4000000000001</ele><time>2026-05-03T08:39:17Z</time></trkpt><trkpt lat="42.9091539793278" lon="12.848055473777121"><ele>923.2</ele><time>2026-05-03T08:39:18Z</time></trkpt><trkpt lat="42.90918978680968" lon="12.847933408002051"><ele>927.0</ele><time>2026-05-03T08:39:19Z</time></trkpt><trkpt lat="42.90922493923416" lon="12.847821373388522"><ele>921.8333333333334</ele><time>2026-05-03T08:39:20Z</time></trkpt><trkpt lat="42.90925436724106" lon="12.847716535688557"><ele>916.6666666666667</ele><time>2026-05-03T08:39:21Z</time></trkpt><trkpt lat="42.90927900140916" lon="12.84762115544536"><ele>911.5</ele><time>2026-05-03T08:39:22Z</time></trkpt><trkpt lat="42.909308810173236" lon="12.847503272381958"><ele>906.3333333333334</ele><time>2026-05-03T08:39:23Z</time></trkpt><trkpt lat="42.90933418159637" lon="12.84738554117756"><ele>901.1666666666667</ele><time>2026-05-03T08:39:24Z</time></trkpt><trkpt lat="42.909342531774456" lon="12.84727528295338"><ele>896.0</ele><time>2026-05-03T08:39:25Z</time></trkpt><trkpt lat="42.909343490843014" lon="12.84717108511439"><ele>896.0000000000001</ele><time>2026-05-03T08:39:26Z</time></trkpt><trkpt lat="42.90934918057112" lon="12.847008093009574"><ele>896.0</ele><time>2026-05-03T08:39:28Z</time></trkpt><trkpt lat="42.909336168878795" lon="12.84691120332356"><ele>896.0</ele><time>2026-05-03T08:39:29Z</time></trkpt><trkpt lat="42.90930926640982" lon="12.846820430681046"><ele>896.0</ele><time>2026-05-03T08:39:30Z</time></trkpt><trkpt lat="42.90927138300496" lon="12.846737167947861"><ele>896.0000000000001</ele><time>2026-05-03T08:39:31Z</time></trkpt><trkpt lat="42.90921273347048" lon="12.846635479829844"><ele>896.0</ele><time>2026-05-03T08:39:32Z</time></trkpt><trkpt lat="42.90915528886251" lon="12.8465508720498"><ele>904.0000000000001</ele><time>2026-05-03T08:39:33Z</time></trkpt><trkpt lat="42.90908516251032" lon="12.846485551010268"><ele>912.0</ele><time>2026-05-03T08:39:34Z</time></trkpt><trkpt lat="42.909021687247005" lon="12.8464094359776"><ele>920.0</ele><time>2026-05-03T08:39:35Z</time></trkpt><trkpt lat="42.908958893149375" lon="12.846344628553544"><ele>928.0</ele><time>2026-05-03T08:39:36Z</time></trkpt><trkpt lat="42.908895679269726" lon="12.846292877590097"><ele>936.0000000000001</ele><time>2026-05-03T08:39:37Z</time></trkpt><trkpt lat="42.90883363082334" lon="12.846263768335922"><ele>944.0</ele><time>2026-05-03T08:39:38Z</time></trkpt><trkpt lat="42.908768183922255" lon="12.846243598061458"><ele>944.0</ele><time>2026-05-03T08:39:39Z</time></trkpt><trkpt lat="42.90868023879521" lon="12.84607302680275"><ele>944.0000000000001</ele><time>2026-05-03T08:39:41Z</time></trkpt><trkpt lat="42.90865626345084" lon="12.845955615312494"><ele>944.0000000000001</ele><time>2026-05-03T08:39:42Z</time></trkpt><trkpt lat="42.90861469271784" lon="12.845881618878465"><ele>944.0</ele><time>2026-05-03T08:39:43Z</time></trkpt><trkpt lat="42.90855301072213" lon="12.845819265373358"><ele>944.0</ele><time>2026-05-03T08:39:44Z</time></trkpt><trkpt lat="42.90849421616968" lon="12.845732562204688"><ele>942.5000000000001</ele><time>2026-05-03T08:39:45Z</time></trkpt><trkpt lat="42.90844309588211" lon="12.845650761621679"><ele>941.0</ele><time>2026-05-03T08:39:46Z</time></trkpt><trkpt lat="42.90838019953765" lon="12.845585174395488"><ele>939.5</ele><time>2026-05-03T08:39:47Z</time></trkpt><trkpt lat="42.908299385795495" lon="12.845534552138474"><ele>938.0</ele><time>2026-05-03T08:39:48Z</time></trkpt><trkpt lat="42.90820707685551" lon="12.845500010371465"><ele>936.5000000000001</ele><time>2026-05-03T08:39:49Z</time></trkpt><trkpt lat="42.90811579747985" lon="12.845455896643974"><ele>935.0</ele><time>2026-05-03T08:39:50Z</time></trkpt><trkpt lat="42.908028852952356" lon="12.845383118507774"><ele>940.2</ele><time>2026-05-03T08:39:51Z</time></trkpt><trkpt lat="42.907952324841276" lon="12.845279129680454"><ele>945.4</ele><time>2026-05-03T08:39:52Z</time></trkpt><trkpt lat="42.90790438522334" lon="12.84515182389864"><ele>950.5999999999999</ele><time>2026-05-03T08:39:53Z</time></trkpt><trkpt lat="42.90786446667753" lon="12.845010475152685"><ele>955.8</ele><time>2026-05-03T08:39:54Z</time></trkpt><trkpt lat="42.90783515178674" lon="12.84489693204567"><ele>961.0</ele><time>2026-05-03T08:39:55Z</time></trkpt><trkpt lat="42.90781205419865" lon="12.844779466431325"><ele>961.0</ele><time>2026-05-03T08:39:56Z</time></trkpt><trkpt lat="42.907770523418215" lon="12.84467242666972"><ele>960.9999999999999</ele><time>2026-05-03T08:39:57Z</time></trkpt><trkpt lat="42.90770642732418" lon="12.844569719904365"><ele>960.9999999999999</ele><time>2026-05-03T08:39:58Z</time></trkpt><trkpt lat="42.9076405766625" lon="12.844449800966197"><ele>961.0</ele><time>2026-05-03T08:39:59Z</time></trkpt><trkpt lat="42.907572266255386" lon="12.844326988273108"><ele>961.0</ele><time>2026-05-03T08:40:00Z</time></trkpt><trkpt lat="42.90749711684646" lon="12.844218869115325"><ele>964.4999999999999</ele><time>2026-05-03T08:40:01Z</time></trkpt><trkpt lat="42.90743822075286" lon="12.844154280209624"><ele>968.0</ele><time>2026-05-03T08:40:02Z</time></trkpt><trkpt lat="42.90737732330166" lon="12.844121923725668"><ele>971.5</ele><time>2026-05-03T08:40:09Z</time></trkpt><trkpt lat="42.907299583938105" lon="12.844126658593646"><ele>975.0</ele><time>2026-05-03T08:40:12Z</time></trkpt><trkpt lat="42.90723859468012" lon="12.844153763787391"><ele>978.4999999999999</ele><time>2026-05-03T08:40:13Z</time></trkpt><trkpt lat="42.907134453501975" lon="12.84422382592766"><ele>982.0</ele><time>2026-05-03T08:40:14Z</time></trkpt><trkpt lat="42.907015271833984" lon="12.8443127370166"><ele>982.6</ele><time>2026-05-03T08:40:15Z</time></trkpt><trkpt lat="42.9069022527371" lon="12.844396514561222"><ele>983.2</ele><time>2026-05-03T08:40:16Z</time></trkpt><trkpt lat="42.9067950998765" lon="12.84446810611177"><ele>983.8</ele><time>2026-05-03T08:40:17Z</time></trkpt><trkpt lat="42.906707163648925" lon="12.844522838423023"><ele>984.4</ele><time>2026-05-03T08:40:18Z</time></trkpt><trkpt lat="42.90663490444078" lon="12.844567501386074"><ele>985.0</ele><time>2026-05-03T08:40:19Z</time></trkpt><trkpt lat="42.90658354748156" lon="12.84463538917468"><ele>987.3333333333333</ele><time>2026-05-03T08:40:20Z</time></trkpt><trkpt lat="42.90654144026241" lon="12.844726777957515"><ele>989.6666666666666</ele><time>2026-05-03T08:40:21Z</time></trkpt><trkpt lat="42.90649387397488" lon="12.844798261420415"><ele>992.0</ele><time>2026-05-03T08:40:22Z</time></trkpt><trkpt lat="42.90642024776724" lon="12.8448563737092"><ele>994.3333333333333</ele><time>2026-05-03T08:40:23Z</time></trkpt><trkpt lat="42.90634036802578" lon="12.84490207056748"><ele>996.6666666666666</ele><time>2026-05-03T08:40:24Z</time></trkpt><trkpt lat="42.906254378010345" lon="12.844958067368395"><ele>999.0</ele><time>2026-05-03T08:40:25Z</time></trkpt><trkpt lat="42.90617463530783" lon="12.845035938628532"><ele>999.8000000000001</ele><time>2026-05-03T08:40:26Z</time></trkpt><trkpt lat="42.906097386407474" lon="12.845130320858956"><ele>1000.6000000000001</ele><time>2026-05-03T08:40:27Z</time></trkpt><trkpt lat="42.906011629380146" lon="12.845219029151426"><ele>1001.4</ele><time>2026-05-03T08:40:28Z</time></trkpt><trkpt lat="42.905910401428415" lon="12.845295632693777"><ele>1002.2</ele><time>2026-05-03T08:40:29Z</time></trkpt><trkpt lat="42.905804934684845" lon="12.84536774130238"><ele>1003.0</ele><time>2026-05-03T08:40:30Z</time></trkpt><trkpt lat="42.90569434564404" lon="12.845421795344405"><ele>1007.4</ele><time>2026-05-03T08:40:31Z</time></trkpt><trkpt lat="42.90559582842966" lon="12.845460104648204"><ele>1011.8</ele><time>2026-05-03T08:40:32Z</time></trkpt><trkpt lat="42.90550641274454" lon="12.845493948431352"><ele>1016.2</ele><time>2026-05-03T08:40:33Z</time></trkpt><trkpt lat="42.905408422709044" lon="12.845513132467136"><ele>1020.6</ele><time>2026-05-03T08:40:34Z</time></trkpt><trkpt lat="42.905338988785076" lon="12.845492026092355"><ele>1025.0</ele><time>2026-05-03T08:40:35Z</time></trkpt><trkpt lat="42.90526424268426" lon="12.845438948923054"><ele>1025.0</ele><time>2026-05-03T08:40:36Z</time></trkpt><trkpt lat="42.905178361240786" lon="12.845396462484727"><ele>1025.0</ele><time>2026-05-03T08:40:37Z</time></trkpt><trkpt lat="42.905084865384545" lon="12.845397755491343"><ele>1025.0</ele><time>2026-05-03T08:40:38Z</time></trkpt><trkpt lat="42.9049763819013" lon="12.84543384445405"><ele>1025.0</ele><time>2026-05-03T08:40:39Z</time></trkpt><trkpt lat="42.90486138095846" lon="12.845450712626365"><ele>1025.0</ele><time>2026-05-03T08:40:40Z</time></trkpt><trkpt lat="42.9047676960968" lon="12.84543216252028"><ele>1028.6</ele><time>2026-05-03T08:40:41Z</time></trkpt><trkpt lat="42.90467532267468" lon="12.845403211780793"><ele>1032.2</ele><time>2026-05-03T08:40:42Z</time></trkpt><trkpt lat="42.90457603749818" lon="12.845384903117534"><ele>1035.8</ele><time>2026-05-03T08:40:43Z</time></trkpt><trkpt lat="42.90447027188715" lon="12.845368964953066"><ele>1039.4</ele><time>2026-05-03T08:40:44Z</time></trkpt><trkpt lat="42.90436518159242" lon="12.845342490333909"><ele>1043.0</ele><time>2026-05-03T08:40:45Z</time></trkpt><trkpt lat="42.904262173863955" lon="12.845314368653755"><ele>1043.6</ele><time>2026-05-03T08:40:46Z</time></trkpt><trkpt lat="42.904166404820835" lon="12.84528424830251"><ele>1044.1999999999998</ele><time>2026-05-03T08:40:47Z</time></trkpt><trkpt lat="42.90408520246197" lon="12.845258517375806"><ele>1044.8</ele><time>2026-05-03T08:40:48Z</time></trkpt><trkpt lat="42.904000178899786" lon="12.845225752426188"><ele>1045.3999999999999</ele><time>2026-05-03T08:40:49Z</time></trkpt><trkpt lat="42.903903797005164" lon="12.845198117903134"><ele>1046.0</ele><time>2026-05-03T08:40:50Z</time></trkpt><trkpt lat="42.90379888334515" lon="12.845189980184214"><ele>1046.0</ele><time>2026-05-03T08:40:51Z</time></trkpt><trkpt lat="42.9036965660741" lon="12.845176463696756"><ele>1046.0</ele><time>2026-05-03T08:40:52Z</time></trkpt><trkpt lat="42.903601196328054" lon="12.845137563686228"><ele>1046.0</ele><time>2026-05-03T08:40:53Z</time></trkpt><trkpt lat="42.90349934660651" lon="12.845085534212785"><ele>1046.0</ele><time>2026-05-03T08:40:54Z</time></trkpt><trkpt lat="42.903404312228155" lon="12.845039546847882"><ele>1046.0</ele><time>2026-05-03T08:40:55Z</time></trkpt><trkpt lat="42.90330670931805" lon="12.844994075031963"><ele>1044.2</ele><time>2026-05-03T08:40:56Z</time></trkpt><trkpt lat="42.90322026647341" lon="12.844954600680424"><ele>1042.3999999999999</ele><time>2026-05-03T08:40:57Z</time></trkpt><trkpt lat="42.903139887948" lon="12.84495188939565"><ele>1040.6</ele><time>2026-05-03T08:40:58Z</time></trkpt><trkpt lat="42.90304634039576" lon="12.844994875163133"><ele>1038.8</ele><time>2026-05-03T08:40:59Z</time></trkpt><trkpt lat="42.90296389696468" lon="12.845037771389553"><ele>1037.0</ele><time>2026-05-03T08:41:00Z</time></trkpt><trkpt lat="42.90285594203261" lon="12.84506490672646"><ele>1037.0</ele><time>2026-05-03T08:41:01Z</time></trkpt><trkpt lat="42.90275517068984" lon="12.845065422265632"><ele>1037.0</ele><time>2026-05-03T08:41:02Z</time></trkpt><trkpt lat="42.90264011952913" lon="12.845068134961853"><ele>1037.0</ele><time>2026-05-03T08:41:03Z</time></trkpt><trkpt lat="42.902529453556916" lon="12.845068509859848"><ele>1037.0</ele><time>2026-05-03T08:41:04Z</time></trkpt><trkpt lat="42.90243435689734" lon="12.845081248956813"><ele>1037.0</ele><time>2026-05-03T08:41:05Z</time></trkpt><trkpt lat="42.90234080917339" lon="12.845104457967572"><ele>1040.0</ele><time>2026-05-03T08:41:06Z</time></trkpt><trkpt lat="42.90225643945143" lon="12.845136186810468"><ele>1043.0</ele><time>2026-05-03T08:41:07Z</time></trkpt><trkpt lat="42.90218615932609" lon="12.84519802770206"><ele>1046.0</ele><time>2026-05-03T08:41:08Z</time></trkpt><trkpt lat="42.90210338134305" lon="12.845280332264576"><ele>1049.0</ele><time>2026-05-03T08:41:09Z</time></trkpt><trkpt lat="42.90203882201657" lon="12.845371923861515"><ele>1052.0</ele><time>2026-05-03T08:41:10Z</time></trkpt><trkpt lat="42.90201011183196" lon="12.845476226100596"><ele>1055.0</ele><time>2026-05-03T08:41:11Z</time></trkpt><trkpt lat="42.902022962879066" lon="12.845590637534002"><ele>1055.0</ele><time>2026-05-03T08:41:12Z</time></trkpt><trkpt lat="42.90205367002296" lon="12.845713482010161"><ele>1055.0</ele><time>2026-05-03T08:41:13Z</time></trkpt><trkpt lat="42.90205696877989" lon="12.845871340123724"><ele>1055.0</ele><time>2026-05-03T08:41:14Z</time></trkpt><trkpt lat="42.90204696823299" lon="12.846028139430267"><ele>1055.0</ele><time>2026-05-03T08:41:15Z</time></trkpt><trkpt lat="42.902047897458935" lon="12.846172647930599"><ele>1055.0</ele><time>2026-05-03T08:41:16Z</time></trkpt><trkpt lat="42.9020552820848" lon="12.84630804672761"><ele>1056.5</ele><time>2026-05-03T08:41:17Z</time></trkpt><trkpt lat="42.90205595814099" lon="12.846444991375375"><ele>1058.0</ele><time>2026-05-03T08:41:18Z</time></trkpt><trkpt lat="42.9020337330862" lon="12.84656006223625"><ele>1059.5</ele><time>2026-05-03T08:41:19Z</time></trkpt><trkpt lat="42.90200259240025" lon="12.846655779082697"><ele>1061.0</ele><time>2026-05-03T08:41:20Z</time></trkpt><trkpt lat="42.90197467521146" lon="12.846741925565253"><ele>1062.5</ele><time>2026-05-03T08:41:21Z</time></trkpt><trkpt lat="42.901957178480856" lon="12.846825325828291"><ele>1064.0</ele><time>2026-05-03T08:41:22Z</time></trkpt><trkpt lat="42.90194168153628" lon="12.846973834537817"><ele>1064.1666666666667</ele><time>2026-05-03T08:41:24Z</time></trkpt><trkpt lat="42.90191702971249" lon="12.847101609467414"><ele>1064.3333333333335</ele><time>2026-05-03T08:41:26Z</time></trkpt><trkpt lat="42.90187213516055" lon="12.847241023597716"><ele>1064.5</ele><time>2026-05-03T08:41:28Z</time></trkpt><trkpt lat="42.90185147273773" lon="12.847334800477954"><ele>1064.6666666666667</ele><time>2026-05-03T08:41:29Z</time></trkpt><trkpt lat="42.90183992598346" lon="12.847429411526717"><ele>1064.8333333333333</ele><time>2026-05-03T08:41:30Z</time></trkpt><trkpt lat="42.90182768277756" lon="12.84753058253442"><ele>1065.0</ele><time>2026-05-03T08:41:31Z</time></trkpt><trkpt lat="42.9018102836507" lon="12.847634190055777"><ele>1065.0</ele><time>2026-05-03T08:41:32Z</time></trkpt><trkpt lat="42.901794783531386" lon="12.847733600615905"><ele>1065.0</ele><time>2026-05-03T08:41:33Z</time></trkpt><trkpt lat="42.901784376064306" lon="12.847822472346145"><ele>1065.0</ele><time>2026-05-03T08:41:34Z</time></trkpt><trkpt lat="42.90176372229193" lon="12.84790663232193"><ele>1065.0</ele><time>2026-05-03T08:41:35Z</time></trkpt><trkpt lat="42.9017182995848" lon="12.848057799021596"><ele>1065.0</ele><time>2026-05-03T08:41:37Z</time></trkpt><trkpt lat="42.90168613309962" lon="12.84813547167102"><ele>1065.0</ele><time>2026-05-03T08:41:38Z</time></trkpt><trkpt lat="42.90160334829813" lon="12.848272026285176"><ele>1064.0</ele><time>2026-05-03T08:41:40Z</time></trkpt><trkpt lat="42.90156006358148" lon="12.848352810387683"><ele>1063.0</ele><time>2026-05-03T08:41:41Z</time></trkpt><trkpt lat="42.90152896209574" lon="12.84844247803276"><ele>1062.0</ele><time>2026-05-03T08:41:42Z</time></trkpt><trkpt lat="42.90149599539508" lon="12.848530923353943"><ele>1061.0</ele><time>2026-05-03T08:41:43Z</time></trkpt><trkpt lat="42.90143823268848" lon="12.848600041456587"><ele>1060.0</ele><time>2026-05-03T08:41:44Z</time></trkpt><trkpt lat="42.90137205880316" lon="12.84862860881433"><ele>1059.0</ele><time>2026-05-03T08:41:45Z</time></trkpt><trkpt lat="42.90129583393429" lon="12.848619264391232"><ele>1058.0</ele><time>2026-05-03T08:41:46Z</time></trkpt><trkpt lat="42.9011998622245" lon="12.848609664946501"><ele>1057.0</ele><time>2026-05-03T08:41:47Z</time></trkpt><trkpt lat="42.90109402898562" lon="12.848618626467433"><ele>1056.0</ele><time>2026-05-03T08:41:48Z</time></trkpt><trkpt lat="42.900973459876234" lon="12.848653138283458"><ele>1055.0</ele><time>2026-05-03T08:41:49Z</time></trkpt><trkpt lat="42.90084508059926" lon="12.848712650422842"><ele>1054.0</ele><time>2026-05-03T08:41:50Z</time></trkpt><trkpt lat="42.90074925454929" lon="12.848802116629445"><ele>1053.3333333333333</ele><time>2026-05-03T08:41:51Z</time></trkpt><trkpt lat="42.90067283282809" lon="12.848912012663064"><ele>1052.6666666666665</ele><time>2026-05-03T08:41:52Z</time></trkpt><trkpt lat="42.900615515182096" lon="12.849024212870548"><ele>1052.0</ele><time>2026-05-03T08:41:53Z</time></trkpt><trkpt lat="42.90057186358573" lon="12.849113631088173"><ele>1051.3333333333333</ele><time>2026-05-03T08:41:54Z</time></trkpt><trkpt lat="42.900529779262115" lon="12.849189795993707"><ele>1050.6666666666667</ele><time>2026-05-03T08:41:55Z</time></trkpt><trkpt lat="42.90048120084863" lon="12.849276557576953"><ele>1050.0</ele><time>2026-05-03T08:41:56Z</time></trkpt><trkpt lat="42.900421302009384" lon="12.849371256303858"><ele>1047.0</ele><time>2026-05-03T08:41:57Z</time></trkpt><trkpt lat="42.900359401425455" lon="12.84946587775375"><ele>1044.0</ele><time>2026-05-03T08:41:58Z</time></trkpt><trkpt lat="42.900290968617085" lon="12.849573728385472"><ele>1041.0</ele><time>2026-05-03T08:41:59Z</time></trkpt><trkpt lat="42.90021899647437" lon="12.849694303634248"><ele>1038.0</ele><time>2026-05-03T08:42:00Z</time></trkpt><trkpt lat="42.90014997950425" lon="12.849827640265788"><ele>1035.0</ele><time>2026-05-03T08:42:01Z</time></trkpt><trkpt lat="42.90008810034287" lon="12.84995211063021"><ele>1033.6</ele><time>2026-05-03T08:42:02Z</time></trkpt><trkpt lat="42.9000251451978" lon="12.850049743033887"><ele>1032.2</ele><time>2026-05-03T08:42:03Z</time></trkpt><trkpt lat="42.89995138850184" lon="12.850122113446233"><ele>1030.8</ele><time>2026-05-03T08:42:04Z</time></trkpt><trkpt lat="42.899853842692046" lon="12.850168216107555"><ele>1029.4</ele><time>2026-05-03T08:42:05Z</time></trkpt><trkpt lat="42.89973487295854" lon="12.8502202879031"><ele>1028.0</ele><time>2026-05-03T08:42:06Z</time></trkpt><trkpt lat="42.89961548632194" lon="12.850287681524053"><ele>1028.0</ele><time>2026-05-03T08:42:07Z</time></trkpt><trkpt lat="42.89950720626579" lon="12.850370004386635"><ele>1028.0</ele><time>2026-05-03T08:42:08Z</time></trkpt><trkpt lat="42.89941456169212" lon="12.85046186827636"><ele>1028.0</ele><time>2026-05-03T08:42:09Z</time></trkpt><trkpt lat="42.89934944385913" lon="12.850544953825338"><ele>1028.0</ele><time>2026-05-03T08:42:10Z</time></trkpt><trkpt lat="42.899316939191884" lon="12.85064805104552"><ele>1028.0</ele><time>2026-05-03T08:42:11Z</time></trkpt><trkpt lat="42.899306548322144" lon="12.850778636179433"><ele>1028.0</ele><time>2026-05-03T08:42:12Z</time></trkpt><trkpt lat="42.89930711841939" lon="12.850920386425964"><ele>1028.0</ele><time>2026-05-03T08:42:13Z</time></trkpt><trkpt lat="42.89929736723318" lon="12.85103974907333"><ele>1028.0</ele><time>2026-05-03T08:42:14Z</time></trkpt><trkpt lat="42.89926394738201" lon="12.851133609664263"><ele>1028.0</ele><time>2026-05-03T08:42:15Z</time></trkpt><trkpt lat="42.89920677087968" lon="12.851226406974439"><ele>1028.0</ele><time>2026-05-03T08:42:16Z</time></trkpt><trkpt lat="42.89913821032701" lon="12.851287695654719"><ele>1028.0</ele><time>2026-05-03T08:42:17Z</time></trkpt><trkpt lat="42.89906760294147" lon="12.851319192099838"><ele>1028.6</ele><time>2026-05-03T08:42:18Z</time></trkpt><trkpt lat="42.89899666123384" lon="12.851350099806648"><ele>1029.1999999999998</ele><time>2026-05-03T08:42:19Z</time></trkpt><trkpt lat="42.89891724686894" lon="12.851421060020451"><ele>1029.8</ele><time>2026-05-03T08:42:20Z</time></trkpt><trkpt lat="42.898847357614045" lon="12.851529085976692"><ele>1030.3999999999999</ele><time>2026-05-03T08:42:21Z</time></trkpt><trkpt lat="42.89876615870472" lon="12.851632006540761"><ele>1031.0</ele><time>2026-05-03T08:42:22Z</time></trkpt><trkpt lat="42.898697732356844" lon="12.851708187235879"><ele>1031.0</ele><time>2026-05-03T08:42:23Z</time></trkpt><trkpt lat="42.89863244228656" lon="12.85177853289164"><ele>1031.0</ele><time>2026-05-03T08:42:24Z</time></trkpt><trkpt lat="42.898536725850114" lon="12.851855798608312"><ele>1031.0</ele><time>2026-05-03T08:42:26Z</time></trkpt><trkpt lat="42.898430068726235" lon="12.85187373680343"><ele>1031.0</ele><time>2026-05-03T08:42:28Z</time></trkpt><trkpt lat="42.898367789387166" lon="12.8518488796001"><ele>1031.0</ele><time>2026-05-03T08:42:29Z</time></trkpt><trkpt lat="42.8983061615677" lon="12.851822668510964"><ele>1031.0</ele><time>2026-05-03T08:42:30Z</time></trkpt><trkpt lat="42.898236285753256" lon="12.851804071671229"><ele>1031.1666666666667</ele><time>2026-05-03T08:42:31Z</time></trkpt><trkpt lat="42.89816755816332" lon="12.851823337865191"><ele>1031.3333333333335</ele><time>2026-05-03T08:42:32Z</time></trkpt><trkpt lat="42.89810759894467" lon="12.851883922473771"><ele>1031.5</ele><time>2026-05-03T08:42:33Z</time></trkpt><trkpt lat="42.898051682751706" lon="12.851968123397986"><ele>1031.6666666666667</ele><time>2026-05-03T08:42:34Z</time></trkpt><trkpt lat="42.89798774143592" lon="12.852055774336195"><ele>1031.8333333333333</ele><time>2026-05-03T08:42:35Z</time></trkpt><trkpt lat="42.89791329542853" lon="12.852121504783348"><ele>1032.0</ele><time>2026-05-03T08:42:36Z</time></trkpt><trkpt lat="42.8978306375662" lon="12.852163295758348"><ele>1032.0</ele><time>2026-05-03T08:42:37Z</time></trkpt><trkpt lat="42.89775534346748" lon="12.852175995409393"><ele>1032.0</ele><time>2026-05-03T08:42:38Z</time></trkpt><trkpt lat="42.89768400333035" lon="12.852156608181602"><ele>1032.0</ele><time>2026-05-03T08:42:39Z</time></trkpt><trkpt lat="42.89761933216648" lon="12.852091675759276"><ele>1032.0</ele><time>2026-05-03T08:42:40Z</time></trkpt><trkpt lat="42.89755230775754" lon="12.851995473126417"><ele>1032.0</ele><time>2026-05-03T08:42:41Z</time></trkpt><trkpt lat="42.89749898738722" lon="12.85190281322957"><ele>1032.0</ele><time>2026-05-03T08:42:42Z</time></trkpt><trkpt lat="42.89745326388519" lon="12.851808099015228"><ele>1035.1666666666667</ele><time>2026-05-03T08:42:43Z</time></trkpt><trkpt lat="42.897411663769475" lon="12.85171689765314"><ele>1038.3333333333333</ele><time>2026-05-03T08:42:44Z</time></trkpt><trkpt lat="42.89736307764551" lon="12.851622912501588"><ele>1041.5</ele><time>2026-05-03T08:42:45Z</time></trkpt><trkpt lat="42.897316950300095" lon="12.851522848675447"><ele>1044.6666666666665</ele><time>2026-05-03T08:42:46Z</time></trkpt><trkpt lat="42.897271753476296" lon="12.851417360141445"><ele>1047.8333333333333</ele><time>2026-05-03T08:42:47Z</time></trkpt><trkpt lat="42.897231183017276" lon="12.851317034738615"><ele>1051.0</ele><time>2026-05-03T08:42:48Z</time></trkpt><trkpt lat="42.8971683988023" lon="12.851241662462488"><ele>1051.0</ele><time>2026-05-03T08:42:49Z</time></trkpt><trkpt lat="42.897095956749325" lon="12.851207201212041"><ele>1051.0</ele><time>2026-05-03T08:42:50Z</time></trkpt><trkpt lat="42.89701373899536" lon="12.851191350913584"><ele>1051.0</ele><time>2026-05-03T08:42:51Z</time></trkpt><trkpt lat="42.8969263616232" lon="12.851190289399858"><ele>1051.0</ele><time>2026-05-03T08:42:52Z</time></trkpt><trkpt lat="42.89685506901253" lon="12.85120089873771"><ele>1051.0</ele><time>2026-05-03T08:42:53Z</time></trkpt><trkpt lat="42.89678778364849" lon="12.851158385317095"><ele>1051.0</ele><time>2026-05-03T08:42:55Z</time></trkpt><trkpt lat="42.89682985945" lon="12.851039105049606"><ele>1051.0</ele><time>2026-05-03T08:42:57Z</time></trkpt><trkpt lat="42.896905111477416" lon="12.850985858850837"><ele>1051.0</ele><time>2026-05-03T08:42:58Z</time></trkpt><trkpt lat="42.89697417156726" lon="12.850918743636704"><ele>1051.0</ele><time>2026-05-03T08:42:59Z</time></trkpt><trkpt lat="42.89705601645056" lon="12.850824408114837"><ele>1051.0</ele><time>2026-05-03T08:43:00Z</time></trkpt><trkpt lat="42.897124678284854" lon="12.850732056047725"><ele>1051.0</ele><time>2026-05-03T08:43:01Z</time></trkpt><trkpt lat="42.89717866230127" lon="12.85061493978792"><ele>1052.8</ele><time>2026-05-03T08:43:02Z</time></trkpt><trkpt lat="42.897238472038794" lon="12.850490590521668"><ele>1054.6</ele><time>2026-05-03T08:43:03Z</time></trkpt><trkpt lat="42.897304728709074" lon="12.850398813786455"><ele>1056.4</ele><time>2026-05-03T08:43:04Z</time></trkpt><trkpt lat="42.89734542000158" lon="12.850292283142457"><ele>1058.2</ele><time>2026-05-03T08:43:05Z</time></trkpt><trkpt lat="42.89737576669066" lon="12.850156652187762"><ele>1060.0</ele><time>2026-05-03T08:43:06Z</time></trkpt><trkpt lat="42.89741602524003" lon="12.85003383075468"><ele>1060.0</ele><time>2026-05-03T08:43:07Z</time></trkpt><trkpt lat="42.89745665166682" lon="12.849912563273751"><ele>1060.0</ele><time>2026-05-03T08:43:08Z</time></trkpt><trkpt lat="42.897489270789826" lon="12.849757116135704"><ele>1060.0</ele><time>2026-05-03T08:43:09Z</time></trkpt><trkpt lat="42.89753762765543" lon="12.849606069947553"><ele>1060.0</ele><time>2026-05-03T08:43:10Z</time></trkpt><trkpt lat="42.89760284333227" lon="12.849465300707834"><ele>1060.0</ele><time>2026-05-03T08:43:11Z</time></trkpt><trkpt lat="42.897662037277044" lon="12.849334456989126"><ele>1060.0</ele><time>2026-05-03T08:43:12Z</time></trkpt><trkpt lat="42.89770607715965" lon="12.849204812649239"><ele>1060.0</ele><time>2026-05-03T08:43:13Z</time></trkpt><trkpt lat="42.897741720267106" lon="12.849074607669884"><ele>1060.0</ele><time>2026-05-03T08:43:14Z</time></trkpt><trkpt lat="42.89778000330156" lon="12.848958377103694"><ele>1060.0</ele><time>2026-05-03T08:43:15Z</time></trkpt><trkpt lat="42.89782613424936" lon="12.848844347490324"><ele>1062.2</ele><time>2026-05-03T08:43:16Z</time></trkpt><trkpt lat="42.89787968591644" lon="12.848736361366411"><ele>1064.4</ele><time>2026-05-03T08:43:17Z</time></trkpt><trkpt lat="42.897923432484866" lon="12.848605944116263"><ele>1066.6</ele><time>2026-05-03T08:43:18Z</time></trkpt><trkpt lat="42.8979637766974" lon="12.848470375568215"><ele>1068.8</ele><time>2026-05-03T08:43:19Z</time></trkpt><trkpt lat="42.89800858231975" lon="12.848346734970875"><ele>1071.0</ele><time>2026-05-03T08:43:20Z</time></trkpt><trkpt lat="42.8980591171497" lon="12.848231385607928"><ele>1071.3999999999999</ele><time>2026-05-03T08:43:21Z</time></trkpt><trkpt lat="42.89810810319853" lon="12.848104412213042"><ele>1071.8</ele><time>2026-05-03T08:43:22Z</time></trkpt><trkpt lat="42.898147130888695" lon="12.847973427718172"><ele>1072.1999999999998</ele><time>2026-05-03T08:43:23Z</time></trkpt><trkpt lat="42.898182332271915" lon="12.847829173831483"><ele>1072.6</ele><time>2026-05-03T08:43:24Z</time></trkpt><trkpt lat="42.898218357855455" lon="12.847693355338254"><ele>1073.0</ele><time>2026-05-03T08:43:25Z</time></trkpt><trkpt lat="42.898255055929084" lon="12.84756468809795"><ele>1073.4</ele><time>2026-05-03T08:43:26Z</time></trkpt><trkpt lat="42.89828484299729" lon="12.847438107519837"><ele>1073.8</ele><time>2026-05-03T08:43:27Z</time></trkpt><trkpt lat="42.89829580965547" lon="12.84732467948821"><ele>1074.2</ele><time>2026-05-03T08:43:28Z</time></trkpt><trkpt lat="42.898290225102" lon="12.84723710949283"><ele>1074.6</ele><time>2026-05-03T08:43:29Z</time></trkpt><trkpt lat="42.898237844871275" lon="12.84711863043332"><ele>1075.0</ele><time>2026-05-03T08:43:31Z</time></trkpt><trkpt lat="42.8981361657191" lon="12.8470459017421"><ele>1075.0</ele><time>2026-05-03T08:43:33Z</time></trkpt><trkpt lat="42.89804567078869" lon="12.847138407611281"><ele>1075.0</ele><time>2026-05-03T08:43:35Z</time></trkpt><trkpt lat="42.89799160644792" lon="12.847213878949692"><ele>1075.0</ele><time>2026-05-03T08:43:36Z</time></trkpt><trkpt lat="42.89791363463444" lon="12.847281096313937"><ele>1075.0</ele><time>2026-05-03T08:43:37Z</time></trkpt><trkpt lat="42.89784400482464" lon="12.847346542586397"><ele>1075.0</ele><time>2026-05-03T08:43:38Z</time></trkpt><trkpt lat="42.89776391586444" lon="12.847415559197303"><ele>1075.0</ele><time>2026-05-03T08:43:39Z</time></trkpt><trkpt lat="42.897689341775845" lon="12.847486509232292"><ele>1075.0</ele><time>2026-05-03T08:43:40Z</time></trkpt><trkpt lat="42.89760943092036" lon="12.847561415584085"><ele>1075.0</ele><time>2026-05-03T08:43:41Z</time></trkpt><trkpt lat="42.89753098807043" lon="12.847645825118706"><ele>1075.0</ele><time>2026-05-03T08:43:42Z</time></trkpt><trkpt lat="42.89744448267493" lon="12.84773931871294"><ele>1075.0</ele><time>2026-05-03T08:43:43Z</time></trkpt><trkpt lat="42.89735301472423" lon="12.847823965762835"><ele>1081.0</ele><time>2026-05-03T08:43:44Z</time></trkpt><trkpt lat="42.89723261204948" lon="12.847911160655158"><ele>1087.0</ele><time>2026-05-03T08:43:45Z</time></trkpt><trkpt lat="42.897084917022966" lon="12.847994799230712"><ele>1093.0</ele><time>2026-05-03T08:43:46Z</time></trkpt><trkpt lat="42.896925045178435" lon="12.848058047343493"><ele>1093.0</ele><time>2026-05-03T08:43:47Z</time></trkpt><trkpt lat="42.89676800188641" lon="12.848093407639821"><ele>1093.0</ele><time>2026-05-03T08:43:48Z</time></trkpt><trkpt lat="42.89662701537735" lon="12.84812114388873"><ele>1093.0</ele><time>2026-05-03T08:43:49Z</time></trkpt><trkpt lat="42.89648911919246" lon="12.84814105823862"><ele>1093.0</ele><time>2026-05-03T08:43:50Z</time></trkpt><trkpt lat="42.8963250831018" lon="12.848152566953416"><ele>1097.25</ele><time>2026-05-03T08:43:51Z</time></trkpt><trkpt lat="42.896173348352434" lon="12.84816272227886"><ele>1101.5</ele><time>2026-05-03T08:43:52Z</time></trkpt><trkpt lat="42.89604743905797" lon="12.848146680413748"><ele>1105.75</ele><time>2026-05-03T08:43:53Z</time></trkpt><trkpt lat="42.895942085623425" lon="12.848109114544782"><ele>1110.0</ele><time>2026-05-03T08:43:54Z</time></trkpt><trkpt lat="42.89585420640225" lon="12.84804859581423"><ele>1110.2</ele><time>2026-05-03T08:43:55Z</time></trkpt><trkpt lat="42.89578633101082" lon="12.84797051792945"><ele>1110.4</ele><time>2026-05-03T08:43:56Z</time></trkpt><trkpt lat="42.895734823646755" lon="12.847865339085287"><ele>1110.6</ele><time>2026-05-03T08:43:57Z</time></trkpt><trkpt lat="42.89569110897608" lon="12.847746967676937"><ele>1110.8</ele><time>2026-05-03T08:43:58Z</time></trkpt><trkpt lat="42.89564523314417" lon="12.847623858879142"><ele>1111.0</ele><time>2026-05-03T08:43:59Z</time></trkpt><trkpt lat="42.895604068152394" lon="12.847500984534774"><ele>1110.1666666666665</ele><time>2026-05-03T08:44:00Z</time></trkpt><trkpt lat="42.89556895827671" lon="12.84738461435534"><ele>1109.3333333333333</ele><time>2026-05-03T08:44:01Z</time></trkpt><trkpt lat="42.8955228033235" lon="12.84728950788975"><ele>1108.5</ele><time>2026-05-03T08:44:02Z</time></trkpt><trkpt lat="42.89545831027483" lon="12.847214877232306"><ele>1107.6666666666667</ele><time>2026-05-03T08:44:03Z</time></trkpt><trkpt lat="42.895387627419346" lon="12.847157481260528"><ele>1106.8333333333335</ele><time>2026-05-03T08:44:04Z</time></trkpt><trkpt lat="42.895321276583005" lon="12.847113316593301"><ele>1106.0</ele><time>2026-05-03T08:44:05Z</time></trkpt><trkpt lat="42.895251998119775" lon="12.847085918879952"><ele>1106.0</ele><time>2026-05-03T08:44:06Z</time></trkpt><trkpt lat="42.89518249744642" lon="12.84705548274092"><ele>1106.0</ele><time>2026-05-03T08:44:07Z</time></trkpt><trkpt lat="42.895113665761336" lon="12.847027828593239"><ele>1106.0</ele><time>2026-05-03T08:44:08Z</time></trkpt><trkpt lat="42.89504709936023" lon="12.84700580581164"><ele>1106.0</ele><time>2026-05-03T08:44:09Z</time></trkpt><trkpt lat="42.89498332436078" lon="12.846981359624262"><ele>1106.0</ele><time>2026-05-03T08:44:10Z</time></trkpt><trkpt lat="42.89491356289597" lon="12.84695909646311"><ele>1106.0</ele><time>2026-05-03T08:44:11Z</time></trkpt><trkpt lat="42.89483957376654" lon="12.846927475777042"><ele>1106.0</ele><time>2026-05-03T08:44:11.999Z</time></trkpt><trkpt lat="42.894767370152096" lon="12.846895278653564"><ele>1105.1666666666667</ele><time>2026-05-03T08:44:12.999Z</time></trkpt><trkpt lat="42.894699020440754" lon="12.846860331171765"><ele>1104.3333333333335</ele><time>2026-05-03T08:44:13.999Z</time></trkpt><trkpt lat="42.89462046923282" lon="12.846824545417245"><ele>1103.5</ele><time>2026-05-03T08:44:14.999Z</time></trkpt><trkpt lat="42.89453458978251" lon="12.84678596380137"><ele>1102.6666666666667</ele><time>2026-05-03T08:44:15.999Z</time></trkpt><trkpt lat="42.894451851569094" lon="12.846731655988123"><ele>1101.8333333333333</ele><time>2026-05-03T08:44:17Z</time></trkpt><trkpt lat="42.89437256626517" lon="12.846658020012514"><ele>1101.0</ele><time>2026-05-03T08:44:18Z</time></trkpt><trkpt lat="42.89429999534556" lon="12.84659567782359"><ele>1100.3333333333333</ele><time>2026-05-03T08:44:19Z</time></trkpt><trkpt lat="42.89423246385279" lon="12.846542309564931"><ele>1099.6666666666667</ele><time>2026-05-03T08:44:20Z</time></trkpt><trkpt lat="42.894173130872865" lon="12.846478843200616"><ele>1099.0</ele><time>2026-05-03T08:44:21Z</time></trkpt><trkpt lat="42.89411494258464" lon="12.84641434634612"><ele>1098.3333333333335</ele><time>2026-05-03T08:44:22Z</time></trkpt><trkpt lat="42.89405638533639" lon="12.846355268217586"><ele>1097.6666666666667</ele><time>2026-05-03T08:44:23Z</time></trkpt><trkpt lat="42.894002247851226" lon="12.846283134472518"><ele>1097.0</ele><time>2026-05-03T08:44:24Z</time></trkpt><trkpt lat="42.89395067048016" lon="12.846195575898106"><ele>1097.0</ele><time>2026-05-03T08:44:25Z</time></trkpt><trkpt lat="42.893887056578365" lon="12.846094320093044"><ele>1097.0</ele><time>2026-05-03T08:44:26Z</time></trkpt><trkpt lat="42.89383088302221" lon="12.845973682444066"><ele>1097.0</ele><time>2026-05-03T08:44:27Z</time></trkpt><trkpt lat="42.89378816374784" lon="12.845841880332296"><ele>1097.0</ele><time>2026-05-03T08:44:28Z</time></trkpt><trkpt lat="42.89374592857751" lon="12.845736378818106"><ele>1097.0</ele><time>2026-05-03T08:44:29Z</time></trkpt><trkpt lat="42.89370150661841" lon="12.845663233917366"><ele>1098.142857142857</ele><time>2026-05-03T08:44:30Z</time></trkpt><trkpt lat="42.893651056192994" lon="12.845598860876109"><ele>1099.2857142857144</ele><time>2026-05-03T08:44:31Z</time></trkpt><trkpt lat="42.89360076806031" lon="12.845534341300395"><ele>1100.4285714285716</ele><time>2026-05-03T08:44:32Z</time></trkpt><trkpt lat="42.89354984018754" lon="12.845468422134877"><ele>1101.5714285714287</ele><time>2026-05-03T08:44:33Z</time></trkpt><trkpt lat="42.89349622317929" lon="12.8454003102397"><ele>1102.7142857142858</ele><time>2026-05-03T08:44:34Z</time></trkpt><trkpt lat="42.89344080008336" lon="12.845329102123141"><ele>1103.857142857143</ele><time>2026-05-03T08:44:35Z</time></trkpt><trkpt lat="42.89339501339631" lon="12.845244162075845"><ele>1105.0</ele><time>2026-05-03T08:44:36Z</time></trkpt><trkpt lat="42.89335314843507" lon="12.845147466659595"><ele>1103.4</ele><time>2026-05-03T08:44:37Z</time></trkpt><trkpt lat="42.89331815034861" lon="12.84503716505173"><ele>1101.8</ele><time>2026-05-03T08:44:38Z</time></trkpt><trkpt lat="42.89329432514409" lon="12.844915035077527"><ele>1100.2</ele><time>2026-05-03T08:44:39Z</time></trkpt><trkpt lat="42.893284135166745" lon="12.844795611821306"><ele>1098.6</ele><time>2026-05-03T08:44:40Z</time></trkpt><trkpt lat="42.893279213235154" lon="12.8446710388347"><ele>1097.0</ele><time>2026-05-03T08:44:41Z</time></trkpt><trkpt lat="42.89327832520345" lon="12.84454640003526"><ele>1097.0</ele><time>2026-05-03T08:44:42Z</time></trkpt><trkpt lat="42.89326710820755" lon="12.844417212067931"><ele>1097.0</ele><time>2026-05-03T08:44:43Z</time></trkpt><trkpt lat="42.89324602351641" lon="12.84429021299423"><ele>1097.0</ele><time>2026-05-03T08:44:44Z</time></trkpt><trkpt lat="42.8932095578413" lon="12.844171910640346"><ele>1097.0</ele><time>2026-05-03T08:44:45Z</time></trkpt><trkpt lat="42.89315238514016" lon="12.84406229092322"><ele>1097.0</ele><time>2026-05-03T08:44:46Z</time></trkpt><trkpt lat="42.89308113152721" lon="12.843966561335717"><ele>1098.0</ele><time>2026-05-03T08:44:47Z</time></trkpt><trkpt lat="42.8930083606294" lon="12.843898237609748"><ele>1099.0</ele><time>2026-05-03T08:44:48Z</time></trkpt><trkpt lat="42.89294118736921" lon="12.843854473214915"><ele>1100.0</ele><time>2026-05-03T08:44:49Z</time></trkpt><trkpt lat="42.89287455707073" lon="12.84382634848619"><ele>1101.0</ele><time>2026-05-03T08:44:50Z</time></trkpt><trkpt lat="42.89280979121189" lon="12.843802333316432"><ele>1102.0</ele><time>2026-05-03T08:44:51Z</time></trkpt><trkpt lat="42.89274310550261" lon="12.843777165790469"><ele>1103.0</ele><time>2026-05-03T08:44:52Z</time></trkpt><trkpt lat="42.89267200320209" lon="12.843741493710183"><ele>1104.0</ele><time>2026-05-03T08:44:53Z</time></trkpt><trkpt lat="42.8925932695466" lon="12.84368743883761"><ele>1102.6000000000001</ele><time>2026-05-03T08:44:54Z</time></trkpt><trkpt lat="42.89251054124577" lon="12.843612364090541"><ele>1101.2</ele><time>2026-05-03T08:44:55Z</time></trkpt><trkpt lat="42.89243816419884" lon="12.843509305930333"><ele>1099.8000000000002</ele><time>2026-05-03T08:44:56Z</time></trkpt><trkpt lat="42.89237289926515" lon="12.843403428430296"><ele>1098.4</ele><time>2026-05-03T08:44:57Z</time></trkpt><trkpt lat="42.89229662359742" lon="12.843310577661123"><ele>1097.0</ele><time>2026-05-03T08:44:58Z</time></trkpt><trkpt lat="42.892210768624345" lon="12.843222469241484"><ele>1097.0</ele><time>2026-05-03T08:44:59Z</time></trkpt><trkpt lat="42.89212795005603" lon="12.843143301348956"><ele>1097.0</ele><time>2026-05-03T08:45:00Z</time></trkpt><trkpt lat="42.892050052648" lon="12.843078969950675"><ele>1097.0</ele><time>2026-05-03T08:45:01Z</time></trkpt><trkpt lat="42.89197361750484" lon="12.843043245590076"><ele>1097.0</ele><time>2026-05-03T08:45:02Z</time></trkpt><trkpt lat="42.89190797397385" lon="12.843025837106836"><ele>1097.0</ele><time>2026-05-03T08:45:03Z</time></trkpt><trkpt lat="42.89183377021739" lon="12.84299122472475"><ele>1097.0</ele><time>2026-05-03T08:45:05Z</time></trkpt><trkpt lat="42.89176037673953" lon="12.84290001688733"><ele>1097.142857142857</ele><time>2026-05-03T08:45:31Z</time></trkpt><trkpt lat="42.8917442059261" lon="12.842805685129292"><ele>1097.2857142857144</ele><time>2026-05-03T08:45:32Z</time></trkpt><trkpt lat="42.89172527277674" lon="12.842701454898819"><ele>1097.4285714285716</ele><time>2026-05-03T08:45:33Z</time></trkpt><trkpt lat="42.891716110111794" lon="12.842616072865338"><ele>1097.5714285714287</ele><time>2026-05-03T08:45:34Z</time></trkpt><trkpt lat="42.891714216895345" lon="12.842502882747386"><ele>1097.7142857142858</ele><time>2026-05-03T08:45:35Z</time></trkpt><trkpt lat="42.89171463496609" lon="12.842414069431435"><ele>1097.857142857143</ele><time>2026-05-03T08:45:36Z</time></trkpt><trkpt lat="42.89172120357208" lon="12.84231521104963"><ele>1098.0</ele><time>2026-05-03T08:45:37Z</time></trkpt><trkpt lat="42.891743499020215" lon="12.842234106057"><ele>1098.0</ele><time>2026-05-03T08:45:38Z</time></trkpt><trkpt lat="42.891786645888956" lon="12.842144467126525"><ele>1098.0</ele><time>2026-05-03T08:45:39Z</time></trkpt><trkpt lat="42.891830015209194" lon="12.842063425065788"><ele>1098.0</ele><time>2026-05-03T08:45:40Z</time></trkpt><trkpt lat="42.89187258318649" lon="12.841966817771851"><ele>1098.0</ele><time>2026-05-03T08:45:41Z</time></trkpt><trkpt lat="42.891902148952376" lon="12.841841941859487"><ele>1098.0</ele><time>2026-05-03T08:45:42Z</time></trkpt><trkpt lat="42.89190516553176" lon="12.841702623487548"><ele>1098.0</ele><time>2026-05-03T08:45:43Z</time></trkpt><trkpt lat="42.89189399014964" lon="12.841569868356764"><ele>1096.8</ele><time>2026-05-03T08:45:44Z</time></trkpt><trkpt lat="42.891883913769" lon="12.841438044759407"><ele>1095.6</ele><time>2026-05-03T08:45:45Z</time></trkpt><trkpt lat="42.8918713008388" lon="12.841310247984207"><ele>1094.4</ele><time>2026-05-03T08:45:46Z</time></trkpt><trkpt lat="42.89186190380955" lon="12.841176417929908"><ele>1093.2</ele><time>2026-05-03T08:45:47Z</time></trkpt><trkpt lat="42.89188261258197" lon="12.841061631655041"><ele>1092.0</ele><time>2026-05-03T08:45:48Z</time></trkpt><trkpt lat="42.89190900309031" lon="12.84095531703417"><ele>1091.0</ele><time>2026-05-03T08:45:49Z</time></trkpt><trkpt lat="42.891963368613574" lon="12.840859543108337"><ele>1090.0</ele><time>2026-05-03T08:45:50Z</time></trkpt><trkpt lat="42.89200308891001" lon="12.84074593637436"><ele>1089.0</ele><time>2026-05-03T08:45:51Z</time></trkpt><trkpt lat="42.89200508897956" lon="12.840618902133562"><ele>1088.0</ele><time>2026-05-03T08:45:52Z</time></trkpt><trkpt lat="42.89199974428458" lon="12.840499722996814"><ele>1087.0</ele><time>2026-05-03T08:45:53Z</time></trkpt><trkpt lat="42.89199288539103" lon="12.840376733132654"><ele>1087.0</ele><time>2026-05-03T08:45:54Z</time></trkpt><trkpt lat="42.89197411878973" lon="12.840243800184437"><ele>1087.0</ele><time>2026-05-03T08:45:55Z</time></trkpt><trkpt lat="42.89195649283995" lon="12.84010493748996"><ele>1087.0</ele><time>2026-05-03T08:45:56Z</time></trkpt><trkpt lat="42.89194762103565" lon="12.83996267633215"><ele>1087.0</ele><time>2026-05-03T08:45:57Z</time></trkpt><trkpt lat="42.89193095851698" lon="12.839816521611779"><ele>1087.0</ele><time>2026-05-03T08:45:58Z</time></trkpt><trkpt lat="42.891913998759875" lon="12.839670523986074"><ele>1085.4</ele><time>2026-05-03T08:45:59Z</time></trkpt><trkpt lat="42.891900277755234" lon="12.83952165250976"><ele>1083.8000000000002</ele><time>2026-05-03T08:46:00Z</time></trkpt><trkpt lat="42.89187963213337" lon="12.839382778246934"><ele>1082.2</ele><time>2026-05-03T08:46:01Z</time></trkpt><trkpt lat="42.89185861720799" lon="12.839247907391487"><ele>1080.6000000000001</ele><time>2026-05-03T08:46:02Z</time></trkpt><trkpt lat="42.89184157463587" lon="12.839109414792844"><ele>1079.0</ele><time>2026-05-03T08:46:03Z</time></trkpt><trkpt lat="42.8918148601298" lon="12.83899080668065"><ele>1077.6000000000001</ele><time>2026-05-03T08:46:04Z</time></trkpt><trkpt lat="42.89179147018377" lon="12.83890597657999"><ele>1076.2</ele><time>2026-05-03T08:46:05Z</time></trkpt><trkpt lat="42.89178037210636" lon="12.838808868925641"><ele>1074.8000000000002</ele><time>2026-05-03T08:46:07Z</time></trkpt><trkpt lat="42.89178097991158" lon="12.83867099135587"><ele>1073.4</ele><time>2026-05-03T08:46:10Z</time></trkpt><trkpt lat="42.891778117601596" lon="12.83853081455689"><ele>1072.0</ele><time>2026-05-03T08:46:12Z</time></trkpt><trkpt lat="42.89176832339725" lon="12.83837858530532"><ele>1073.0</ele><time>2026-05-03T08:46:14Z</time></trkpt><trkpt lat="42.891748195548914" lon="12.838225875764993"><ele>1074.0</ele><time>2026-05-03T08:46:16Z</time></trkpt><trkpt lat="42.89173951317604" lon="12.838136995196924"><ele>1075.0</ele><time>2026-05-03T08:46:17Z</time></trkpt><trkpt lat="42.89173575757516" lon="12.83796644366965"><ele>1076.0</ele><time>2026-05-03T08:46:19Z</time></trkpt><trkpt lat="42.89172936390355" lon="12.837861870650404"><ele>1077.0</ele><time>2026-05-03T08:46:20Z</time></trkpt><trkpt lat="42.89171234106067" lon="12.837768877758633"><ele>1075.1666666666667</ele><time>2026-05-03T08:46:21Z</time></trkpt><trkpt lat="42.891688211458785" lon="12.837635107234297"><ele>1073.3333333333333</ele><time>2026-05-03T08:46:23Z</time></trkpt><trkpt lat="42.89166388046718" lon="12.837553495296648"><ele>1071.5</ele><time>2026-05-03T08:46:24Z</time></trkpt><trkpt lat="42.89165489123937" lon="12.837467578898938"><ele>1069.6666666666665</ele><time>2026-05-03T08:46:25Z</time></trkpt><trkpt lat="42.89162438425141" lon="12.837316990628391"><ele>1067.8333333333333</ele><time>2026-05-03T08:46:27Z</time></trkpt><trkpt lat="42.89159222796922" lon="12.83719655412267"><ele>1066.0</ele><time>2026-05-03T08:46:29Z</time></trkpt><trkpt lat="42.89157417451221" lon="12.837107238690391"><ele>1066.0</ele><time>2026-05-03T08:46:31Z</time></trkpt><trkpt lat="42.89155435769622" lon="12.836983410559288"><ele>1066.0</ele><time>2026-05-03T08:46:33Z</time></trkpt><trkpt lat="42.891536016314305" lon="12.83685197586221"><ele>1066.0</ele><time>2026-05-03T08:46:35Z</time></trkpt><trkpt lat="42.8914960719311" lon="12.836709619025916"><ele>1066.0</ele><time>2026-05-03T08:46:37Z</time></trkpt><trkpt lat="42.8914747463082" lon="12.83659490230666"><ele>1066.0</ele><time>2026-05-03T08:46:38Z</time></trkpt><trkpt lat="42.89145686926983" lon="12.836486122066686"><ele>1064.0</ele><time>2026-05-03T08:46:39Z</time></trkpt><trkpt lat="42.891440290328894" lon="12.83631539124729"><ele>1062.0</ele><time>2026-05-03T08:46:41Z</time></trkpt><trkpt lat="42.89140955566994" lon="12.83616690610759"><ele>1060.0</ele><time>2026-05-03T08:46:43Z</time></trkpt><trkpt lat="42.89138968120374" lon="12.836081522434572"><ele>1058.0</ele><time>2026-05-03T08:46:44Z</time></trkpt><trkpt lat="42.89134505235083" lon="12.835927535552191"><ele>1056.0</ele><time>2026-05-03T08:46:46Z</time></trkpt><trkpt lat="42.89131694850156" lon="12.835842117950373"><ele>1055.0</ele><time>2026-05-03T08:46:47Z</time></trkpt><trkpt lat="42.89128528588365" lon="12.83575957315992"><ele>1054.0</ele><time>2026-05-03T08:46:48Z</time></trkpt><trkpt lat="42.89121991035181" lon="12.835623854003467"><ele>1053.0</ele><time>2026-05-03T08:46:50Z</time></trkpt><trkpt lat="42.89109339028822" lon="12.835266682316442"><ele>1053.0</ele><time>2026-05-03T08:48:50Z</time></trkpt><trkpt lat="42.891074551983074" lon="12.835157553225683"><ele>1053.0</ele><time>2026-05-03T08:48:51Z</time></trkpt><trkpt lat="42.891042350616345" lon="12.835063000457112"><ele>1053.0</ele><time>2026-05-03T08:48:52Z</time></trkpt><trkpt lat="42.89097371622136" lon="12.834955464601514"><ele>1053.0</ele><time>2026-05-03T08:48:54Z</time></trkpt><trkpt lat="42.89099081045199" lon="12.834845590888996"><ele>1053.0</ele><time>2026-05-03T08:48:58Z</time></trkpt><trkpt lat="42.89102740877144" lon="12.834770141481185"><ele>1053.0</ele><time>2026-05-03T08:49:00Z</time></trkpt><trkpt lat="42.89101895012025" lon="12.834650502927369"><ele>1053.8333333333333</ele><time>2026-05-03T08:49:03Z</time></trkpt><trkpt lat="42.89097977327979" lon="12.834549809380212"><ele>1054.6666666666667</ele><time>2026-05-03T08:49:06Z</time></trkpt><trkpt lat="42.89103666291167" lon="12.83449801811524"><ele>1055.5</ele><time>2026-05-03T08:49:08Z</time></trkpt><trkpt lat="42.89110782885594" lon="12.834549561708531"><ele>1056.3333333333335</ele><time>2026-05-03T08:49:10Z</time></trkpt><trkpt lat="42.89110451012193" lon="12.834432862155829"><ele>1057.1666666666667</ele><time>2026-05-03T08:49:38Z</time></trkpt><trkpt lat="42.89107609231102" lon="12.834335879403463"><ele>1058.0</ele><time>2026-05-03T08:49:40Z</time></trkpt><trkpt lat="42.891108916111364" lon="12.834254003181833"><ele>1058.8</ele><time>2026-05-03T08:49:41Z</time></trkpt><trkpt lat="42.8910458195496" lon="12.83413467844063"><ele>1059.6</ele><time>2026-05-03T08:49:43Z</time></trkpt><trkpt lat="42.89100426432728" lon="12.834019573137061"><ele>1060.4</ele><time>2026-05-03T08:49:45Z</time></trkpt><trkpt lat="42.89097505744842" lon="12.833895741948327"><ele>1061.2</ele><time>2026-05-03T08:49:47Z</time></trkpt><trkpt lat="42.890942916151594" lon="12.833755848691148"><ele>1062.0</ele><time>2026-05-03T08:49:50Z</time></trkpt><trkpt lat="42.89090599916234" lon="12.833659349822069"><ele>1057.0</ele><time>2026-05-03T08:49:52Z</time></trkpt><trkpt lat="42.89090103192477" lon="12.833525528487549"><ele>1052.0</ele><time>2026-05-03T08:49:54Z</time></trkpt><trkpt lat="42.89091525075178" lon="12.83342114871007"><ele>1047.0</ele><time>2026-05-03T08:49:57Z</time></trkpt><trkpt lat="42.890901874198335" lon="12.833309694240084"><ele>1042.0</ele><time>2026-05-03T08:50:00Z</time></trkpt><trkpt lat="42.89085449657205" lon="12.833173242495638"><ele>1037.0</ele><time>2026-05-03T08:50:02Z</time></trkpt><trkpt lat="42.89085311742214" lon="12.833022916706666"><ele>1035.8</ele><time>2026-05-03T08:50:04Z</time></trkpt><trkpt lat="42.890863128151864" lon="12.83288010372768"><ele>1034.6</ele><time>2026-05-03T08:50:06Z</time></trkpt><trkpt lat="42.89089482094031" lon="12.832757858095535"><ele>1033.3999999999999</ele><time>2026-05-03T08:50:08Z</time></trkpt><trkpt lat="42.8909236715902" lon="12.832623356262161"><ele>1032.2</ele><time>2026-05-03T08:50:10Z</time></trkpt><trkpt lat="42.89091862551146" lon="12.832481500182139"><ele>1031.0</ele><time>2026-05-03T08:50:12Z</time></trkpt><trkpt lat="42.89090489131096" lon="12.832370718040929"><ele>1030.7142857142858</ele><time>2026-05-03T08:50:14Z</time></trkpt><trkpt lat="42.890915683672866" lon="12.832270426432926"><ele>1030.4285714285713</ele><time>2026-05-03T08:50:16Z</time></trkpt><trkpt lat="42.890930870114175" lon="12.832159189576336"><ele>1030.142857142857</ele><time>2026-05-03T08:50:18Z</time></trkpt><trkpt lat="42.89094870741193" lon="12.832045629689025"><ele>1029.857142857143</ele><time>2026-05-03T08:50:20Z</time></trkpt><trkpt lat="42.89097282372264" lon="12.8319642360874"><ele>1029.5714285714284</ele><time>2026-05-03T08:50:22Z</time></trkpt><trkpt lat="42.89097346349323" lon="12.831873616943861"><ele>1029.2857142857142</ele><time>2026-05-03T08:50:29.999Z</time></trkpt><trkpt lat="42.89091535583611" lon="12.831908212736401"><ele>1029.0</ele><time>2026-05-03T08:50:45Z</time></trkpt><trkpt lat="42.890874301458076" lon="12.832008938895507"><ele>1027.142857142857</ele><time>2026-05-03T08:50:53Z</time></trkpt><trkpt lat="42.89081184056948" lon="12.832028210363005"><ele>1025.2857142857142</ele><time>2026-05-03T08:50:59Z</time></trkpt><trkpt lat="42.89082231249904" lon="12.831914506325056"><ele>1023.4285714285714</ele><time>2026-05-03T08:52:31.999Z</time></trkpt><trkpt lat="42.8908288017761" lon="12.831819532948273"><ele>1021.5714285714286</ele><time>2026-05-03T08:52:34.999Z</time></trkpt><trkpt lat="42.890832405778156" lon="12.83173200273824"><ele>1019.7142857142857</ele><time>2026-05-03T08:52:41Z</time></trkpt><trkpt lat="42.890860091953414" lon="12.831646804365404"><ele>1017.8571428571429</ele><time>2026-05-03T08:53:01Z</time></trkpt><trkpt lat="42.89086397767461" lon="12.831521041125955"><ele>1016.0</ele><time>2026-05-03T08:53:25Z</time></trkpt><trkpt lat="42.890847725852176" lon="12.831430516106437"><ele>1012.0</ele><time>2026-05-03T08:53:29Z</time></trkpt><trkpt lat="42.89080730345173" lon="12.831342306803037"><ele>1007.9999999999999</ele><time>2026-05-03T08:54:30.999Z</time></trkpt><trkpt lat="42.89076307138274" lon="12.831251605231802"><ele>1003.9999999999999</ele><time>2026-05-03T08:54:32.999Z</time></trkpt><trkpt lat="42.89072513826089" lon="12.83110336248058"><ele>1000.0</ele><time>2026-05-03T08:54:35.999Z</time></trkpt><trkpt lat="42.890741648877274" lon="12.830974709567093"><ele>996.0</ele><time>2026-05-03T08:54:37.999Z</time></trkpt><trkpt lat="42.890712600378066" lon="12.83083778985187"><ele>991.4</ele><time>2026-05-03T08:54:41.999Z</time></trkpt><trkpt lat="42.89068652338646" lon="12.830691100280113"><ele>986.8</ele><time>2026-05-03T08:54:43.999Z</time></trkpt><trkpt lat="42.89064621334408" lon="12.83055375202521"><ele>982.1999999999999</ele><time>2026-05-03T08:54:45.999Z</time></trkpt><trkpt lat="42.89061107160861" lon="12.830420944146631"><ele>977.5999999999999</ele><time>2026-05-03T08:54:48Z</time></trkpt><trkpt lat="42.89059900956721" lon="12.830263112095363"><ele>973.0</ele><time>2026-05-03T08:54:50Z</time></trkpt><trkpt lat="42.89058260874312" lon="12.830179612517943"><ele>968.8333333333333</ele><time>2026-05-03T08:54:51Z</time></trkpt><trkpt lat="42.890525414644664" lon="12.830085405248521"><ele>964.6666666666666</ele><time>2026-05-03T08:54:53Z</time></trkpt><trkpt lat="42.8904579471204" lon="12.830007004445525"><ele>960.5</ele><time>2026-05-03T08:54:55Z</time></trkpt><trkpt lat="42.89040125225352" lon="12.829962459333808"><ele>956.3333333333333</ele><time>2026-05-03T08:54:57Z</time></trkpt><trkpt lat="42.890331893658214" lon="12.829897517128785"><ele>952.1666666666666</ele><time>2026-05-03T08:54:59Z</time></trkpt><trkpt lat="42.890229140787" lon="12.8298375544287"><ele>948.0</ele><time>2026-05-03T08:55:01Z</time></trkpt><trkpt lat="42.89013718890553" lon="12.829791022441258"><ele>948.0</ele><time>2026-05-03T08:55:03Z</time></trkpt><trkpt lat="42.89009432713498" lon="12.829694864823278"><ele>948.0</ele><time>2026-05-03T08:55:05Z</time></trkpt><trkpt lat="42.89003079774421" lon="12.829588282915488"><ele>948.0</ele><time>2026-05-03T08:55:07Z</time></trkpt><trkpt lat="42.88998107488668" lon="12.829471040642108"><ele>948.0</ele><time>2026-05-03T08:55:09Z</time></trkpt><trkpt lat="42.88992878364187" lon="12.829334211535445"><ele>948.0</ele><time>2026-05-03T08:55:11Z</time></trkpt><trkpt lat="42.88984754968003" lon="12.829252100398582"><ele>949.0</ele><time>2026-05-03T08:55:13Z</time></trkpt><trkpt lat="42.889747570393034" lon="12.829141641847754"><ele>950.0</ele><time>2026-05-03T08:55:15Z</time></trkpt><trkpt lat="42.889672288935074" lon="12.82900937912895"><ele>951.0</ele><time>2026-05-03T08:55:17Z</time></trkpt><trkpt lat="42.88957871681237" lon="12.82892742886996"><ele>952.0</ele><time>2026-05-03T08:55:19Z</time></trkpt><trkpt lat="42.88948443067601" lon="12.828810713824927"><ele>952.0</ele><time>2026-05-03T08:55:21Z</time></trkpt><trkpt lat="42.889401761805786" lon="12.828714296035487"><ele>952.0</ele><time>2026-05-03T08:55:23Z</time></trkpt><trkpt lat="42.88930658406254" lon="12.82863752945323"><ele>952.0</ele><time>2026-05-03T08:55:25Z</time></trkpt><trkpt lat="42.88920929474363" lon="12.82857489992816"><ele>952.0</ele><time>2026-05-03T08:55:27Z</time></trkpt><trkpt lat="42.889146983076465" lon="12.828529803579185"><ele>952.0</ele><time>2026-05-03T08:55:28Z</time></trkpt><trkpt lat="42.889087622173996" lon="12.828474999335707"><ele>949.3333333333333</ele><time>2026-05-03T08:55:29Z</time></trkpt><trkpt lat="42.888977801849464" lon="12.828417026388998"><ele>946.6666666666666</ele><time>2026-05-03T08:55:31Z</time></trkpt><trkpt lat="42.88892465680828" lon="12.828367434830557"><ele>944.0</ele><time>2026-05-03T08:55:32Z</time></trkpt><trkpt lat="42.8888663465575" lon="12.828328938780057"><ele>941.3333333333333</ele><time>2026-05-03T08:55:33Z</time></trkpt><trkpt lat="42.888811827884815" lon="12.828269929713297"><ele>938.6666666666666</ele><time>2026-05-03T08:55:34Z</time></trkpt><trkpt lat="42.888757814845874" lon="12.828218160216396"><ele>936.0</ele><time>2026-05-03T08:55:35Z</time></trkpt><trkpt lat="42.888672474186265" lon="12.828115359441123"><ele>936.0</ele><time>2026-05-03T08:55:37Z</time></trkpt><trkpt lat="42.88857167594949" lon="12.82804088566178"><ele>935.9999999999999</ele><time>2026-05-03T08:55:39Z</time></trkpt><trkpt lat="42.88846881343576" lon="12.827979759870793"><ele>935.9999999999999</ele><time>2026-05-03T08:55:41Z</time></trkpt><trkpt lat="42.88841591651842" lon="12.827928864614393"><ele>936.0</ele><time>2026-05-03T08:55:42Z</time></trkpt><trkpt lat="42.88837180303408" lon="12.827841231541"><ele>936.0</ele><time>2026-05-03T08:55:44Z</time></trkpt><trkpt lat="42.888293400210436" lon="12.827779431057678"><ele>938.0</ele><time>2026-05-03T08:55:46Z</time></trkpt><trkpt lat="42.888223510487464" lon="12.827728566764463"><ele>940.0</ele><time>2026-05-03T08:55:48Z</time></trkpt><trkpt lat="42.888156997432596" lon="12.82770706132917"><ele>942.0</ele><time>2026-05-03T08:55:50Z</time></trkpt><trkpt lat="42.88809093231596" lon="12.827651014614915"><ele>944.0</ele><time>2026-05-03T08:55:52Z</time></trkpt><trkpt lat="42.888007502962154" lon="12.827648150965949"><ele>946.0</ele><time>2026-05-03T08:55:55Z</time></trkpt><trkpt lat="42.88790815182949" lon="12.827600544891972"><ele>948.0</ele><time>2026-05-03T08:55:58Z</time></trkpt><trkpt lat="42.88781962052985" lon="12.827574881417416"><ele>944.3333333333334</ele><time>2026-05-03T08:56:00Z</time></trkpt><trkpt lat="42.88775389862737" lon="12.827548672822196"><ele>940.6666666666667</ele><time>2026-05-03T08:56:03Z</time></trkpt><trkpt lat="42.88764801458079" lon="12.82752796036297"><ele>937.0</ele><time>2026-05-03T08:56:05.999Z</time></trkpt><trkpt lat="42.88758513325627" lon="12.827486201940896"><ele>933.3333333333334</ele><time>2026-05-03T08:56:07.999Z</time></trkpt><trkpt lat="42.88750896676888" lon="12.8274886876615"><ele>929.6666666666667</ele><time>2026-05-03T08:56:09.999Z</time></trkpt><trkpt lat="42.887421933536274" lon="12.827491202765096"><ele>926.0</ele><time>2026-05-03T08:56:12.999Z</time></trkpt><trkpt lat="42.88734793059325" lon="12.827487420821312"><ele>926.0000000000001</ele><time>2026-05-03T08:56:14.999Z</time></trkpt><trkpt lat="42.887269357101665" lon="12.827513972541214"><ele>926.0</ele><time>2026-05-03T08:56:17.999Z</time></trkpt><trkpt lat="42.88720134539361" lon="12.827522039134914"><ele>926.0</ele><time>2026-05-03T08:56:20.999Z</time></trkpt><trkpt lat="42.88712376440048" lon="12.827544804209126"><ele>926.0</ele><time>2026-05-03T08:56:22.999Z</time></trkpt><trkpt lat="42.88703769714106" lon="12.82758014856358"><ele>926.0000000000001</ele><time>2026-05-03T08:56:24.999Z</time></trkpt><trkpt lat="42.88696760775644" lon="12.827617526474858"><ele>926.0</ele><time>2026-05-03T08:56:26.999Z</time></trkpt><trkpt lat="42.88681038767625" lon="12.827854282844875"><ele>929.4</ele><time>2026-05-03T08:59:39Z</time></trkpt><trkpt lat="42.88676225176695" lon="12.827961116787543"><ele>932.8</ele><time>2026-05-03T08:59:40Z</time></trkpt><trkpt lat="42.88672180177966" lon="12.828080967020133"><ele>936.1999999999999</ele><time>2026-05-03T08:59:41Z</time></trkpt><trkpt lat="42.88669165918205" lon="12.828173354738913"><ele>939.5999999999999</ele><time>2026-05-03T08:59:42Z</time></trkpt><trkpt lat="42.886613950892524" lon="12.828341498144923"><ele>943.0</ele><time>2026-05-03T08:59:44Z</time></trkpt><trkpt lat="42.88658012540576" lon="12.828440917836936"><ele>945.8</ele><time>2026-05-03T08:59:45Z</time></trkpt><trkpt lat="42.886540788478605" lon="12.828530453802317"><ele>948.5999999999999</ele><time>2026-05-03T08:59:46Z</time></trkpt><trkpt lat="42.886428763312104" lon="12.82870806706371"><ele>951.4000000000001</ele><time>2026-05-03T08:59:48Z</time></trkpt><trkpt lat="42.88638891768946" lon="12.828785742652848"><ele>954.2</ele><time>2026-05-03T08:59:49Z</time></trkpt><trkpt lat="42.88635203047702" lon="12.828858888863243"><ele>957.0</ele><time>2026-05-03T08:59:50Z</time></trkpt><trkpt lat="42.88633195985973" lon="12.82897788552747"><ele>957.0</ele><time>2026-05-03T08:59:51Z</time></trkpt><trkpt lat="42.88629642142853" lon="12.829056446889869"><ele>957.0</ele><time>2026-05-03T08:59:52Z</time></trkpt><trkpt lat="42.88626368400713" lon="12.829135907369375"><ele>957.0</ele><time>2026-05-03T08:59:53Z</time></trkpt><trkpt lat="42.886221821254104" lon="12.829230333746441"><ele>957.0</ele><time>2026-05-03T08:59:54Z</time></trkpt><trkpt lat="42.88618218307112" lon="12.829331009800963"><ele>957.0</ele><time>2026-05-03T08:59:55Z</time></trkpt><trkpt lat="42.88613525310767" lon="12.829465594605258"><ele>957.0</ele><time>2026-05-03T08:59:56Z</time></trkpt><trkpt lat="42.88608839176758" lon="12.82955783803539"><ele>957.3333333333334</ele><time>2026-05-03T08:59:57Z</time></trkpt><trkpt lat="42.88602575761488" lon="12.829660757768282"><ele>957.6666666666667</ele><time>2026-05-03T08:59:58Z</time></trkpt><trkpt lat="42.885973640118195" lon="12.829727137369927"><ele>958.0</ele><time>2026-05-03T08:59:59Z</time></trkpt><trkpt lat="42.885915653015104" lon="12.829780155132125"><ele>958.3333333333334</ele><time>2026-05-03T09:00:00Z</time></trkpt><trkpt lat="42.88585283390043" lon="12.829848955458035"><ele>958.6666666666667</ele><time>2026-05-03T09:00:01Z</time></trkpt><trkpt lat="42.88578519707194" lon="12.829940774963863"><ele>959.0</ele><time>2026-05-03T09:00:02Z</time></trkpt><trkpt lat="42.88573043009483" lon="12.83004557237733"><ele>961.6</ele><time>2026-05-03T09:00:03Z</time></trkpt><trkpt lat="42.885689865259124" lon="12.830151330711425"><ele>964.2</ele><time>2026-05-03T09:00:04Z</time></trkpt><trkpt lat="42.88561245760689" lon="12.830251116544336"><ele>966.8000000000001</ele><time>2026-05-03T09:00:05Z</time></trkpt><trkpt lat="42.8855465767168" lon="12.830323873494413"><ele>969.4000000000001</ele><time>2026-05-03T09:00:06Z</time></trkpt><trkpt lat="42.88546361517295" lon="12.83036311699196"><ele>972.0</ele><time>2026-05-03T09:00:07Z</time></trkpt><trkpt lat="42.88537798127632" lon="12.830384603906884"><ele>972.0</ele><time>2026-05-03T09:00:08Z</time></trkpt><trkpt lat="42.88527922314421" lon="12.830434292167489"><ele>972.0</ele><time>2026-05-03T09:00:09Z</time></trkpt><trkpt lat="42.885189799091464" lon="12.830468309869731"><ele>972.0</ele><time>2026-05-03T09:00:10Z</time></trkpt><trkpt lat="42.885081522395474" lon="12.830482131608719"><ele>972.0</ele><time>2026-05-03T09:00:11Z</time></trkpt><trkpt lat="42.8849806268747" lon="12.830528851050369"><ele>972.0</ele><time>2026-05-03T09:00:12Z</time></trkpt><trkpt lat="42.8849017990635" lon="12.8305636306584"><ele>971.4000000000001</ele><time>2026-05-03T09:00:13Z</time></trkpt><trkpt lat="42.88479994863075" lon="12.8306063516361"><ele>970.8000000000001</ele><time>2026-05-03T09:00:14Z</time></trkpt><trkpt lat="42.88471104740554" lon="12.830652503152717"><ele>970.2</ele><time>2026-05-03T09:00:15Z</time></trkpt><trkpt lat="42.88461970860036" lon="12.830694534262166"><ele>969.6</ele><time>2026-05-03T09:00:16Z</time></trkpt><trkpt lat="42.884550501309846" lon="12.830721040273406"><ele>969.0</ele><time>2026-05-03T09:00:17Z</time></trkpt><trkpt lat="42.88445895639082" lon="12.830741522388381"><ele>969.0</ele><time>2026-05-03T09:00:18Z</time></trkpt><trkpt lat="42.88438742046756" lon="12.83075127207833"><ele>969.0000000000001</ele><time>2026-05-03T09:00:19Z</time></trkpt><trkpt lat="42.884263806100606" lon="12.830762126155449"><ele>969.0000000000001</ele><time>2026-05-03T09:00:20Z</time></trkpt><trkpt lat="42.88416433695559" lon="12.830775916384361"><ele>969.0</ele><time>2026-05-03T09:00:21Z</time></trkpt><trkpt lat="42.88408890129091" lon="12.830779105952917"><ele>969.0</ele><time>2026-05-03T09:00:22Z</time></trkpt><trkpt lat="42.883973167534755" lon="12.83076139987724"><ele>970.8000000000001</ele><time>2026-05-03T09:00:24Z</time></trkpt><trkpt lat="42.88387772660355" lon="12.830742773833798"><ele>972.6000000000001</ele><time>2026-05-03T09:00:25Z</time></trkpt><trkpt lat="42.88378675033009" lon="12.830742585456132"><ele>974.4</ele><time>2026-05-03T09:00:26Z</time></trkpt><trkpt lat="42.883684751906145" lon="12.830742078764539"><ele>976.2</ele><time>2026-05-03T09:00:27Z</time></trkpt><trkpt lat="42.88358682149356" lon="12.83074267322247"><ele>978.0</ele><time>2026-05-03T09:00:28Z</time></trkpt><trkpt lat="42.88350415756666" lon="12.830726920342439"><ele>979.5</ele><time>2026-05-03T09:00:29Z</time></trkpt><trkpt lat="42.88338125436095" lon="12.830680602454093"><ele>981.0</ele><time>2026-05-03T09:00:31Z</time></trkpt><trkpt lat="42.8832598638539" lon="12.830670400073537"><ele>982.5</ele><time>2026-05-03T09:00:32Z</time></trkpt><trkpt lat="42.883159747878054" lon="12.830661979480219"><ele>984.0</ele><time>2026-05-03T09:00:33Z</time></trkpt><trkpt lat="42.88305521184238" lon="12.830650973921237"><ele>984.0</ele><time>2026-05-03T09:00:34Z</time></trkpt><trkpt lat="42.882992004115465" lon="12.830629686945954"><ele>984.0</ele><time>2026-05-03T09:00:35Z</time></trkpt><trkpt lat="42.88291327003405" lon="12.830633289680467"><ele>984.0</ele><time>2026-05-03T09:00:36Z</time></trkpt><trkpt lat="42.88283760730883" lon="12.830620252389904"><ele>984.0</ele><time>2026-05-03T09:00:37Z</time></trkpt><trkpt lat="42.88274951549593" lon="12.830615222035169"><ele>984.0</ele><time>2026-05-03T09:00:38Z</time></trkpt><trkpt lat="42.882652616542046" lon="12.830592341892732"><ele>984.0</ele><time>2026-05-03T09:00:39Z</time></trkpt><trkpt lat="42.88252769660771" lon="12.830578223867613"><ele>985.8000000000001</ele><time>2026-05-03T09:00:40Z</time></trkpt><trkpt lat="42.882412327749876" lon="12.830570587629778"><ele>987.6000000000001</ele><time>2026-05-03T09:00:41Z</time></trkpt><trkpt lat="42.88232089234397" lon="12.83056510849743"><ele>989.4</ele><time>2026-05-03T09:00:42Z</time></trkpt><trkpt lat="42.88222220957747" lon="12.830537196866445"><ele>991.2</ele><time>2026-05-03T09:00:43Z</time></trkpt><trkpt lat="42.882133543823784" lon="12.83050799921046"><ele>993.0</ele><time>2026-05-03T09:00:44Z</time></trkpt><trkpt lat="42.882060798687675" lon="12.830464194173187"><ele>993.0</ele><time>2026-05-03T09:00:45Z</time></trkpt><trkpt lat="42.881970086754485" lon="12.830452752095425"><ele>993.0</ele><time>2026-05-03T09:00:46Z</time></trkpt><trkpt lat="42.881890360373156" lon="12.830414796099882"><ele>993.0</ele><time>2026-05-03T09:00:47Z</time></trkpt><trkpt lat="42.881805646916035" lon="12.830389074943923"><ele>993.0</ele><time>2026-05-03T09:00:48Z</time></trkpt><trkpt lat="42.881711315634995" lon="12.830384772312755"><ele>993.0</ele><time>2026-05-03T09:00:49Z</time></trkpt><trkpt lat="42.881558643369445" lon="12.830359323678024"><ele>995.4</ele><time>2026-05-03T09:00:50Z</time></trkpt><trkpt lat="42.88148597941375" lon="12.830340887999245"><ele>997.8</ele><time>2026-05-03T09:00:51Z</time></trkpt><trkpt lat="42.881398212560114" lon="12.830328316680305"><ele>1000.2</ele><time>2026-05-03T09:00:52Z</time></trkpt><trkpt lat="42.88128330381842" lon="12.830317209149419"><ele>1002.6</ele><time>2026-05-03T09:00:53Z</time></trkpt><trkpt lat="42.88118719747318" lon="12.83031402037796"><ele>1005.0</ele><time>2026-05-03T09:00:54Z</time></trkpt><trkpt lat="42.88109248486141" lon="12.830317817116443"><ele>1005.0</ele><time>2026-05-03T09:00:55Z</time></trkpt><trkpt lat="42.880983866365526" lon="12.83031758313722"><ele>1005.0</ele><time>2026-05-03T09:00:56Z</time></trkpt><trkpt lat="42.88088587184395" lon="12.830311289636109"><ele>1005.0</ele><time>2026-05-03T09:00:57Z</time></trkpt><trkpt lat="42.88081148461354" lon="12.83029393475044"><ele>1005.0</ele><time>2026-05-03T09:00:58Z</time></trkpt><trkpt lat="42.8807417842197" lon="12.830274090611171"><ele>1005.0</ele><time>2026-05-03T09:00:59Z</time></trkpt><trkpt lat="42.880663701508425" lon="12.830275680159728"><ele>1005.0</ele><time>2026-05-03T09:01:00Z</time></trkpt><trkpt lat="42.88058069356897" lon="12.830248340957302"><ele>1007.0</ele><time>2026-05-03T09:01:01Z</time></trkpt><trkpt lat="42.88049563825063" lon="12.83023582300814"><ele>1009.0</ele><time>2026-05-03T09:01:02Z</time></trkpt><trkpt lat="42.88041650088277" lon="12.830221254799492"><ele>1011.0</ele><time>2026-05-03T09:01:03Z</time></trkpt><trkpt lat="42.88034304328997" lon="12.83021380256945"><ele>1013.0</ele><time>2026-05-03T09:01:04Z</time></trkpt><trkpt lat="42.880232786190646" lon="12.83019605878465"><ele>1015.0</ele><time>2026-05-03T09:01:06Z</time></trkpt><trkpt lat="42.880155656625874" lon="12.830192954859752"><ele>1017.0</ele><time>2026-05-03T09:01:08Z</time></trkpt><trkpt lat="42.88008244369037" lon="12.830207797448116"><ele>1018.2</ele><time>2026-05-03T09:01:11Z</time></trkpt><trkpt lat="42.87998001642626" lon="12.830040353925753"><ele>1019.4000000000001</ele><time>2026-05-03T09:05:10Z</time></trkpt><trkpt lat="42.8799061343678" lon="12.830001649438664"><ele>1020.5999999999999</ele><time>2026-05-03T09:05:11Z</time></trkpt><trkpt lat="42.87984380682468" lon="12.829937452624536"><ele>1021.8</ele><time>2026-05-03T09:05:12Z</time></trkpt><trkpt lat="42.87976163989271" lon="12.829840176791842"><ele>1023.0</ele><time>2026-05-03T09:05:14Z</time></trkpt><trkpt lat="42.8796803094416" lon="12.829767870413292"><ele>1023.0</ele><time>2026-05-03T09:05:16Z</time></trkpt><trkpt lat="42.87958773889034" lon="12.829735535657813"><ele>1023.0</ele><time>2026-05-03T09:05:18Z</time></trkpt><trkpt lat="42.879539255409234" lon="12.82966740359089"><ele>1023.0</ele><time>2026-05-03T09:05:20Z</time></trkpt><trkpt lat="42.87949886583441" lon="12.82959277882455"><ele>1023.0</ele><time>2026-05-03T09:05:22Z</time></trkpt><trkpt lat="42.879424772368075" lon="12.82942609363312"><ele>1023.0</ele><time>2026-05-03T09:05:24Z</time></trkpt><trkpt lat="42.87935885525753" lon="12.829331470036758"><ele>1028.2</ele><time>2026-05-03T09:05:25Z</time></trkpt><trkpt lat="42.8792894213068" lon="12.829223937305416"><ele>1033.4</ele><time>2026-05-03T09:05:26Z</time></trkpt><trkpt lat="42.87925073418763" lon="12.829127504268516"><ele>1038.6000000000001</ele><time>2026-05-03T09:05:27Z</time></trkpt><trkpt lat="42.879196868999166" lon="12.829012963713184"><ele>1043.8</ele><time>2026-05-03T09:05:28Z</time></trkpt><trkpt lat="42.879118345550424" lon="12.828930123379221"><ele>1049.0</ele><time>2026-05-03T09:05:29Z</time></trkpt><trkpt lat="42.879061273573555" lon="12.828863507605025"><ele>1050.1666666666667</ele><time>2026-05-03T09:05:30Z</time></trkpt><trkpt lat="42.878997910564514" lon="12.828813725497815"><ele>1051.3333333333335</ele><time>2026-05-03T09:05:31Z</time></trkpt><trkpt lat="42.87892323789299" lon="12.82877931391149"><ele>1052.5</ele><time>2026-05-03T09:05:32Z</time></trkpt><trkpt lat="42.8788052270442" lon="12.828724289941878"><ele>1053.6666666666667</ele><time>2026-05-03T09:05:34Z</time></trkpt><trkpt lat="42.878729238604876" lon="12.828705723082747"><ele>1054.8333333333333</ele><time>2026-05-03T09:05:35Z</time></trkpt><trkpt lat="42.87866722391265" lon="12.828673133621423"><ele>1056.0</ele><time>2026-05-03T09:05:36Z</time></trkpt><trkpt lat="42.87858018611961" lon="12.828617285140522"><ele>1056.0</ele><time>2026-05-03T09:05:37Z</time></trkpt><trkpt lat="42.87850856147281" lon="12.828571987993588"><ele>1056.0</ele><time>2026-05-03T09:05:38Z</time></trkpt><trkpt lat="42.87842265468233" lon="12.828538962031532"><ele>1056.0</ele><time>2026-05-03T09:05:39Z</time></trkpt><trkpt lat="42.87834925733923" lon="12.82851654311343"><ele>1056.0</ele><time>2026-05-03T09:05:40Z</time></trkpt><trkpt lat="42.87826558942165" lon="12.828504791986806"><ele>1056.0</ele><time>2026-05-03T09:05:42Z</time></trkpt><trkpt lat="42.87819912996701" lon="12.828475833770815"><ele>1056.0</ele><time>2026-05-03T09:05:45Z</time></trkpt><trkpt lat="42.87809126271718" lon="12.828433877945129"><ele>1061.6666666666667</ele><time>2026-05-03T09:05:50Z</time></trkpt><trkpt lat="42.878028448435494" lon="12.828398887424076"><ele>1067.3333333333333</ele><time>2026-05-03T09:05:52Z</time></trkpt><trkpt lat="42.877959409383486" lon="12.82834079749162"><ele>1073.0</ele><time>2026-05-03T09:05:55Z</time></trkpt><trkpt lat="42.87790119586191" lon="12.828302526545444"><ele>1078.6666666666665</ele><time>2026-05-03T09:05:56Z</time></trkpt><trkpt lat="42.87782346989753" lon="12.8283167342169"><ele>1084.3333333333333</ele><time>2026-05-03T09:05:59Z</time></trkpt><trkpt lat="42.877734503536686" lon="12.828303926444352"><ele>1090.0</ele><time>2026-05-03T09:06:01Z</time></trkpt><trkpt lat="42.87765573847034" lon="12.828287978853833"><ele>1094.2</ele><time>2026-05-03T09:06:03Z</time></trkpt><trkpt lat="42.87758358170669" lon="12.828270105267817"><ele>1098.4</ele><time>2026-05-03T09:06:06Z</time></trkpt><trkpt lat="42.87747804091033" lon="12.82825513531255"><ele>1102.6</ele><time>2026-05-03T09:06:09Z</time></trkpt><trkpt lat="42.877400799433474" lon="12.828282958520155"><ele>1106.8</ele><time>2026-05-03T09:06:11Z</time></trkpt><trkpt lat="42.87731003120059" lon="12.828273056602756"><ele>1111.0</ele><time>2026-05-03T09:06:13Z</time></trkpt><trkpt lat="42.8771951414425" lon="12.82829521345025"><ele>1111.0</ele><time>2026-05-03T09:06:15Z</time></trkpt><trkpt lat="42.87709983682834" lon="12.828294848457114"><ele>1111.0</ele><time>2026-05-03T09:06:17Z</time></trkpt><trkpt lat="42.8770138835991" lon="12.828301446726224"><ele>1111.0</ele><time>2026-05-03T09:06:19Z</time></trkpt><trkpt lat="42.87691062423028" lon="12.828289566859862"><ele>1111.0</ele><time>2026-05-03T09:06:21Z</time></trkpt><trkpt lat="42.87682440808476" lon="12.828280379244752"><ele>1111.0</ele><time>2026-05-03T09:06:24Z</time></trkpt><trkpt lat="42.87674243019319" lon="12.82827412923532"><ele>1114.6666666666665</ele><time>2026-05-03T09:06:27Z</time></trkpt><trkpt lat="42.876649397392974" lon="12.828280922444543"><ele>1118.3333333333333</ele><time>2026-05-03T09:06:30Z</time></trkpt><trkpt lat="42.8765720800933" lon="12.828300836821272"><ele>1122.0</ele><time>2026-05-03T09:06:32Z</time></trkpt><trkpt lat="42.87650892324609" lon="12.828379355947856"><ele>1125.6666666666667</ele><time>2026-05-03T09:06:37Z</time></trkpt><trkpt lat="42.876421779028256" lon="12.82838028620859"><ele>1129.3333333333335</ele><time>2026-05-03T09:06:39Z</time></trkpt><trkpt lat="42.87633909919707" lon="12.828381769250493"><ele>1133.0</ele><time>2026-05-03T09:06:41Z</time></trkpt><trkpt lat="42.8762744175998" lon="12.828396548976981"><ele>1133.0</ele><time>2026-05-03T09:06:44Z</time></trkpt><trkpt lat="42.87626530526609" lon="12.828292145679136"><ele>1133.0</ele><time>2026-05-03T09:06:50Z</time></trkpt><trkpt lat="42.876431395075414" lon="12.828207434474221"><ele>1133.0</ele><time>2026-05-03T09:09:29Z</time></trkpt><trkpt lat="42.876495337301044" lon="12.8282087686551"><ele>1133.0</ele><time>2026-05-03T09:09:30Z</time></trkpt><trkpt lat="42.87657420180599" lon="12.828207864372208"><ele>1133.0</ele><time>2026-05-03T09:09:31Z</time></trkpt><trkpt lat="42.87665176680605" lon="12.828228846784302"><ele>1133.0</ele><time>2026-05-03T09:09:32Z</time></trkpt><trkpt lat="42.87673171636471" lon="12.828229074516456"><ele>1133.0</ele><time>2026-05-03T09:09:33Z</time></trkpt><trkpt lat="42.87685072925219" lon="12.828226852272325"><ele>1133.0</ele><time>2026-05-03T09:09:35Z</time></trkpt><trkpt lat="42.87693478145634" lon="12.828248647352162"><ele>1133.0</ele><time>2026-05-03T09:09:37Z</time></trkpt><trkpt lat="42.87703494692175" lon="12.828274706269893"><ele>1133.0</ele><time>2026-05-03T09:09:39Z</time></trkpt><trkpt lat="42.877141668771536" lon="12.828310751881483"><ele>1125.6666666666667</ele><time>2026-05-03T09:09:41Z</time></trkpt><trkpt lat="42.87722555218749" lon="12.828337911914396"><ele>1118.3333333333333</ele><time>2026-05-03T09:09:43Z</time></trkpt><trkpt lat="42.877414174032204" lon="12.828350715023769"><ele>1111.0</ele><time>2026-05-03T09:09:47Z</time></trkpt><trkpt lat="42.87762512559357" lon="12.82835541482265"><ele>1106.8</ele><time>2026-05-03T09:09:52Z</time></trkpt><trkpt lat="42.8777119910797" lon="12.828368625294479"><ele>1102.6</ele><time>2026-05-03T09:10:15Z</time></trkpt><trkpt lat="42.87786185716119" lon="12.828383087994498"><ele>1098.4</ele><time>2026-05-03T09:10:20Z</time></trkpt><trkpt lat="42.8779428930763" lon="12.828417407204848"><ele>1094.2</ele><time>2026-05-03T09:10:22Z</time></trkpt><trkpt lat="42.878040615187906" lon="12.828459320937219"><ele>1090.0</ele><time>2026-05-03T09:10:24Z</time></trkpt><trkpt lat="42.878103481529024" lon="12.828465508701017"><ele>1090.0</ele><time>2026-05-03T09:10:30Z</time></trkpt><trkpt lat="42.878213026390306" lon="12.828466390952315"><ele>1090.0</ele><time>2026-05-03T09:10:44Z</time></trkpt><trkpt lat="42.87811743681868" lon="12.828427182487024"><ele>1090.0</ele><time>2026-05-03T09:10:51Z</time></trkpt><trkpt lat="42.87805398893549" lon="12.828395314700348"><ele>1090.0</ele><time>2026-05-03T09:10:53Z</time></trkpt><trkpt lat="42.87796714810797" lon="12.828391505518727"><ele>1090.0</ele><time>2026-05-03T09:10:55Z</time></trkpt><trkpt lat="42.877859635829886" lon="12.828369074455413"><ele>1090.0</ele><time>2026-05-03T09:10:58Z</time></trkpt><trkpt lat="42.87776302185881" lon="12.828354168207397"><ele>1090.0</ele><time>2026-05-03T09:11:00Z</time></trkpt><trkpt lat="42.877696511305324" lon="12.828343178924989"><ele>1090.0</ele><time>2026-05-03T09:11:01Z</time></trkpt><trkpt lat="42.87760444272218" lon="12.828323479728269"><ele>1090.0</ele><time>2026-05-03T09:11:03Z</time></trkpt><trkpt lat="42.87752945985138" lon="12.828277083789908"><ele>1090.0</ele><time>2026-05-03T09:11:05.999Z</time></trkpt><trkpt lat="42.877437169219256" lon="12.828264469515632"><ele>1090.0</ele><time>2026-05-03T09:11:08.999Z</time></trkpt><trkpt lat="42.876917614936545" lon="12.828228520261826"><ele>1094.2</ele><time>2026-05-03T09:11:10.999Z</time></trkpt><trkpt lat="42.87681282839138" lon="12.82820542850896"><ele>1098.4</ele><time>2026-05-03T09:11:11.999Z</time></trkpt><trkpt lat="42.87672814648849" lon="12.828195800308198"><ele>1102.6</ele><time>2026-05-03T09:11:12.999Z</time></trkpt><trkpt lat="42.87664323076255" lon="12.828185447301609"><ele>1106.8</ele><time>2026-05-03T09:11:13.999Z</time></trkpt><trkpt lat="42.87656056449269" lon="12.828179083692515"><ele>1111.0</ele><time>2026-05-03T09:11:14.999Z</time></trkpt><trkpt lat="42.87646995259402" lon="12.828181226215165"><ele>1115.3999999999999</ele><time>2026-05-03T09:11:15.999Z</time></trkpt><trkpt lat="42.87632725495692" lon="12.82821605406715"><ele>1119.8</ele><time>2026-05-03T09:11:16.999Z</time></trkpt><trkpt lat="42.876203389831396" lon="12.828248215545669"><ele>1124.1999999999998</ele><time>2026-05-03T09:11:18.999Z</time></trkpt><trkpt lat="42.876255466124874" lon="12.828199537438772"><ele>1128.6</ele><time>2026-05-03T09:11:37Z</time></trkpt><trkpt lat="42.87617566272095" lon="12.828200431651718"><ele>1133.0</ele><time>2026-05-03T09:13:22.999Z</time></trkpt><trkpt lat="42.87621703748908" lon="12.828289280746423"><ele>1133.0</ele><time>2026-05-03T09:13:25.999Z</time></trkpt><trkpt lat="42.876249147495315" lon="12.828373965845925"><ele>1133.0</ele><time>2026-05-03T09:13:28.999Z</time></trkpt><trkpt lat="42.87621554371808" lon="12.828496862135758"><ele>1133.0</ele><time>2026-05-03T09:13:29.999Z</time></trkpt><trkpt lat="42.876164242500394" lon="12.828552617684167"><ele>1133.0</ele><time>2026-05-03T09:13:30.999Z</time></trkpt><trkpt lat="42.876217031143824" lon="12.828647528281657"><ele>1133.0</ele><time>2026-05-03T09:13:31.999Z</time></trkpt><trkpt lat="42.87626814283457" lon="12.828760984245802"><ele>1133.0</ele><time>2026-05-03T09:13:32.999Z</time></trkpt><trkpt lat="42.87631451124679" lon="12.82891217922998"><ele>1134.5</ele><time>2026-05-03T09:13:33.999Z</time></trkpt><trkpt lat="42.876351314050005" lon="12.82903366817466"><ele>1136.0</ele><time>2026-05-03T09:13:34.999Z</time></trkpt><trkpt lat="42.876381531998014" lon="12.829118237706403"><ele>1137.5</ele><time>2026-05-03T09:13:35.999Z</time></trkpt><trkpt lat="42.876393090402175" lon="12.829240841124278"><ele>1139.0</ele><time>2026-05-03T09:13:36.999Z</time></trkpt><trkpt lat="42.87641119330171" lon="12.829349500632873"><ele>1140.5</ele><time>2026-05-03T09:13:37.999Z</time></trkpt><trkpt lat="42.87640247641475" lon="12.829482530370345"><ele>1142.0</ele><time>2026-05-03T09:13:38.999Z</time></trkpt><trkpt lat="42.876393003933615" lon="12.829591623424115"><ele>1143.5</ele><time>2026-05-03T09:13:39.999Z</time></trkpt><trkpt lat="42.87638836377209" lon="12.829679772814059"><ele>1145.0</ele><time>2026-05-03T09:13:41Z</time></trkpt><trkpt lat="42.87634686866964" lon="12.829779921770417"><ele>1146.5</ele><time>2026-05-03T09:13:42Z</time></trkpt><trkpt lat="42.87630072627644" lon="12.829868815386968"><ele>1148.0</ele><time>2026-05-03T09:13:43Z</time></trkpt><trkpt lat="42.87624230291815" lon="12.829961214350126"><ele>1149.5</ele><time>2026-05-03T09:13:44Z</time></trkpt><trkpt lat="42.8761897282885" lon="12.830036157363704"><ele>1151.0</ele><time>2026-05-03T09:13:45Z</time></trkpt><trkpt lat="42.87615387901772" lon="12.830108494779669"><ele>1149.3999999999999</ele><time>2026-05-03T09:13:46Z</time></trkpt><trkpt lat="42.87613018266196" lon="12.830200143956485"><ele>1147.8</ele><time>2026-05-03T09:13:47Z</time></trkpt><trkpt lat="42.87611854796434" lon="12.830286998765837"><ele>1146.1999999999998</ele><time>2026-05-03T09:13:48Z</time></trkpt><trkpt lat="42.87608506175161" lon="12.830375430410067"><ele>1144.6</ele><time>2026-05-03T09:13:49Z</time></trkpt><trkpt lat="42.875897444452356" lon="12.830532966141039"><ele>1143.0</ele><time>2026-05-03T09:13:51Z</time></trkpt><trkpt lat="42.875796447540985" lon="12.830587319009457"><ele>1147.1666666666667</ele><time>2026-05-03T09:13:52Z</time></trkpt><trkpt lat="42.87570988987511" lon="12.830619816031156"><ele>1151.3333333333333</ele><time>2026-05-03T09:13:53Z</time></trkpt><trkpt lat="42.87562567668443" lon="12.83061597011424"><ele>1155.5</ele><time>2026-05-03T09:13:54Z</time></trkpt><trkpt lat="42.875563504579944" lon="12.830592697321705"><ele>1159.6666666666665</ele><time>2026-05-03T09:13:55Z</time></trkpt><trkpt lat="42.8754910752736" lon="12.830529955542747"><ele>1163.8333333333333</ele><time>2026-05-03T09:13:57Z</time></trkpt><trkpt lat="42.875422400476936" lon="12.830501131179684"><ele>1168.0</ele><time>2026-05-03T09:14:15Z</time></trkpt><trkpt lat="42.87535311391148" lon="12.830464753989041"><ele>1168.0</ele><time>2026-05-03T09:14:28Z</time></trkpt><trkpt lat="42.875248184511314" lon="12.830479317653444"><ele>1168.0</ele><time>2026-05-03T09:14:31Z</time></trkpt><trkpt lat="42.875149443362666" lon="12.830486987294773"><ele>1168.0</ele><time>2026-05-03T09:15:10Z</time></trkpt><trkpt lat="42.875040251146224" lon="12.830490401546326"><ele>1168.0</ele><time>2026-05-03T09:15:12Z</time></trkpt><trkpt lat="42.87494509215128" lon="12.83052312170118"><ele>1168.0</ele><time>2026-05-03T09:15:14Z</time></trkpt><trkpt lat="42.874854177892274" lon="12.830568837596847"><ele>1169.0</ele><time>2026-05-03T09:15:17Z</time></trkpt><trkpt lat="42.874755689932734" lon="12.830598673712236"><ele>1170.0</ele><time>2026-05-03T09:15:19Z</time></trkpt><trkpt lat="42.87467686685614" lon="12.83061299408715"><ele>1171.0</ele><time>2026-05-03T09:15:21Z</time></trkpt><trkpt lat="42.874578961814855" lon="12.830625030458618"><ele>1172.0</ele><time>2026-05-03T09:15:23Z</time></trkpt><trkpt lat="42.87450112907711" lon="12.830602481186324"><ele>1173.0</ele><time>2026-05-03T09:15:25Z</time></trkpt><trkpt lat="42.87442683177543" lon="12.830614814161045"><ele>1174.0</ele><time>2026-05-03T09:15:26.999Z</time></trkpt><trkpt lat="42.87433545105478" lon="12.830590888435903"><ele>1173.8</ele><time>2026-05-03T09:15:28.999Z</time></trkpt><trkpt lat="42.87425887323532" lon="12.830566826651104"><ele>1173.6000000000001</ele><time>2026-05-03T09:15:30.999Z</time></trkpt><trkpt lat="42.87415623506713" lon="12.830534200941191"><ele>1173.4</ele><time>2026-05-03T09:15:32.999Z</time></trkpt><trkpt lat="42.874037371418304" lon="12.830468177788022"><ele>1173.2</ele><time>2026-05-03T09:15:34.999Z</time></trkpt><trkpt lat="42.873973249855986" lon="12.830462646709554"><ele>1173.0</ele><time>2026-05-03T09:15:35.999Z</time></trkpt><trkpt lat="42.87386726388556" lon="12.83040212538522"><ele>1173.0</ele><time>2026-05-03T09:15:37.999Z</time></trkpt><trkpt lat="42.87380198951627" lon="12.830365791381348"><ele>1173.0</ele><time>2026-05-03T09:15:39.999Z</time></trkpt><trkpt lat="42.873733170911905" lon="12.830357071994676"><ele>1173.0</ele><time>2026-05-03T09:15:42.999Z</time></trkpt><trkpt lat="42.87366266879453" lon="12.830357060210506"><ele>1173.0</ele><time>2026-05-03T09:15:48Z</time></trkpt><trkpt lat="42.87358658077504" lon="12.830411414993932"><ele>1173.0</ele><time>2026-05-03T09:15:51Z</time></trkpt><trkpt lat="42.87348231648809" lon="12.83044704814201"><ele>1173.0</ele><time>2026-05-03T09:15:53Z</time></trkpt><trkpt lat="42.87339607315664" lon="12.830474498177129"><ele>1173.6</ele><time>2026-05-03T09:15:55Z</time></trkpt><trkpt lat="42.87327363999455" lon="12.830559428667726"><ele>1174.1999999999998</ele><time>2026-05-03T09:15:57Z</time></trkpt><trkpt lat="42.87316262675994" lon="12.830608015054073"><ele>1174.8</ele><time>2026-05-03T09:15:59Z</time></trkpt><trkpt lat="42.8730583681281" lon="12.830617398785838"><ele>1175.3999999999999</ele><time>2026-05-03T09:16:01Z</time></trkpt><trkpt lat="42.872995774730924" lon="12.83064088734375"><ele>1176.0</ele><time>2026-05-03T09:16:02Z</time></trkpt><trkpt lat="42.87292852486898" lon="12.830661376210498"><ele>1176.0</ele><time>2026-05-03T09:16:03Z</time></trkpt><trkpt lat="42.87285529632615" lon="12.830672673456256"><ele>1176.0</ele><time>2026-05-03T09:16:04Z</time></trkpt><trkpt lat="42.87278482006777" lon="12.830678821797878"><ele>1176.0</ele><time>2026-05-03T09:16:05Z</time></trkpt><trkpt lat="42.87267439977098" lon="12.830660512402384"><ele>1176.0</ele><time>2026-05-03T09:16:07Z</time></trkpt><trkpt lat="42.872556830727156" lon="12.830617295079406"><ele>1176.0</ele><time>2026-05-03T09:16:09Z</time></trkpt><trkpt lat="42.872454695893786" lon="12.830557793150135"><ele>1177.0</ele><time>2026-05-03T09:16:11Z</time></trkpt><trkpt lat="42.87236854814431" lon="12.830486178373919"><ele>1178.0</ele><time>2026-05-03T09:16:13Z</time></trkpt><trkpt lat="42.87227631430743" lon="12.830430569665436"><ele>1179.0</ele><time>2026-05-03T09:16:15Z</time></trkpt><trkpt lat="42.872196922868845" lon="12.830353487994117"><ele>1180.0</ele><time>2026-05-03T09:16:17Z</time></trkpt><trkpt lat="42.8721123280815" lon="12.830276651183004"><ele>1181.0</ele><time>2026-05-03T09:16:19Z</time></trkpt><trkpt lat="42.87201279322011" lon="12.830182441827866"><ele>1182.7142857142858</ele><time>2026-05-03T09:16:21Z</time></trkpt><trkpt lat="42.87195707424064" lon="12.830131954703385"><ele>1184.4285714285716</ele><time>2026-05-03T09:16:22Z</time></trkpt><trkpt lat="42.871897774342486" lon="12.83008188268106"><ele>1186.142857142857</ele><time>2026-05-03T09:16:23Z</time></trkpt><trkpt lat="42.8718365234343" lon="12.830031516165805"><ele>1187.857142857143</ele><time>2026-05-03T09:16:24Z</time></trkpt><trkpt lat="42.871776356129075" lon="12.829991207801173"><ele>1189.5714285714284</ele><time>2026-05-03T09:16:25Z</time></trkpt><trkpt lat="42.87170171943299" lon="12.829957732914508"><ele>1191.2857142857142</ele><time>2026-05-03T09:16:26Z</time></trkpt><trkpt lat="42.871634169875236" lon="12.829931926659361"><ele>1193.0</ele><time>2026-05-03T09:16:27Z</time></trkpt><trkpt lat="42.87157169785407" lon="12.829914167641936"><ele>1193.0</ele><time>2026-05-03T09:16:28Z</time></trkpt><trkpt lat="42.871463644647484" lon="12.829865412661102"><ele>1193.0</ele><time>2026-05-03T09:16:30Z</time></trkpt><trkpt lat="42.87136918061257" lon="12.8298286214772"><ele>1193.0</ele><time>2026-05-03T09:16:32Z</time></trkpt><trkpt lat="42.87131615850935" lon="12.829780755160433"><ele>1193.0</ele><time>2026-05-03T09:16:34Z</time></trkpt><trkpt lat="42.87128407262703" lon="12.829706452890626"><ele>1193.0</ele><time>2026-05-03T09:16:36Z</time></trkpt><trkpt lat="42.87130241486538" lon="12.829537642207733"><ele>1193.0</ele><time>2026-05-03T09:16:46Z</time></trkpt><trkpt lat="42.87135761328975" lon="12.829422044333555"><ele>1193.0</ele><time>2026-05-03T09:16:47Z</time></trkpt><trkpt lat="42.871392076226144" lon="12.829301471012164"><ele>1193.0</ele><time>2026-05-03T09:16:48Z</time></trkpt><trkpt lat="42.871444008349435" lon="12.829173399379755"><ele>1193.0</ele><time>2026-05-03T09:16:49Z</time></trkpt><trkpt lat="42.87149305991101" lon="12.829048975670348"><ele>1193.0</ele><time>2026-05-03T09:16:50Z</time></trkpt><trkpt lat="42.871541471854194" lon="12.828950978409587"><ele>1195.6</ele><time>2026-05-03T09:16:51Z</time></trkpt><trkpt lat="42.87159656117448" lon="12.828846809597959"><ele>1198.1999999999998</ele><time>2026-05-03T09:16:52Z</time></trkpt><trkpt lat="42.87164745300591" lon="12.82873211503095"><ele>1200.8</ele><time>2026-05-03T09:16:53Z</time></trkpt><trkpt lat="42.87170655782695" lon="12.828609654115235"><ele>1203.3999999999999</ele><time>2026-05-03T09:16:54Z</time></trkpt><trkpt lat="42.87175883925594" lon="12.828523741004986"><ele>1206.0</ele><time>2026-05-03T09:16:55Z</time></trkpt><trkpt lat="42.87180115906811" lon="12.828450162486941"><ele>1210.0</ele><time>2026-05-03T09:16:56Z</time></trkpt><trkpt lat="42.87185198193146" lon="12.828362064374991"><ele>1214.0</ele><time>2026-05-03T09:16:57Z</time></trkpt><trkpt lat="42.87190407752275" lon="12.828254000490704"><ele>1218.0</ele><time>2026-05-03T09:16:58Z</time></trkpt><trkpt lat="42.871952798333645" lon="12.8281302338511"><ele>1222.0</ele><time>2026-05-03T09:16:59Z</time></trkpt><trkpt lat="42.87200444629177" lon="12.828010326389633"><ele>1226.0</ele><time>2026-05-03T09:17:00Z</time></trkpt><trkpt lat="42.872047865874045" lon="12.827933554978328"><ele>1226.0</ele><time>2026-05-03T09:17:01Z</time></trkpt><trkpt lat="42.87208268959457" lon="12.827855551355187"><ele>1226.0</ele><time>2026-05-03T09:17:04Z</time></trkpt><trkpt lat="42.872086562395864" lon="12.827769650707975"><ele>1226.0</ele><time>2026-05-03T09:17:09Z</time></trkpt><trkpt lat="42.87203118451188" lon="12.827728412178722"><ele>1226.0</ele><time>2026-05-03T09:22:39Z</time></trkpt><trkpt lat="42.87196323658566" lon="12.827715413198817"><ele>1226.0</ele><time>2026-05-03T09:22:41Z</time></trkpt><trkpt lat="42.87193151420723" lon="12.827812308503427"><ele>1226.0</ele><time>2026-05-03T09:22:44Z</time></trkpt><trkpt lat="42.871956147359285" lon="12.827916777205827"><ele>1226.0</ele><time>2026-05-03T09:22:48Z</time></trkpt><trkpt lat="42.87195728617709" lon="12.828019582061872"><ele>1226.0</ele><time>2026-05-03T09:22:51Z</time></trkpt><trkpt lat="42.8719395801521" lon="12.828123558893285"><ele>1226.0</ele><time>2026-05-03T09:22:53Z</time></trkpt><trkpt lat="42.871892881496095" lon="12.828256039205117"><ele>1226.0</ele><time>2026-05-03T09:22:55Z</time></trkpt><trkpt lat="42.87185659447595" lon="12.828338283572512"><ele>1226.0</ele><time>2026-05-03T09:22:56Z</time></trkpt><trkpt lat="42.87180066763716" lon="12.828468155868968"><ele>1226.0</ele><time>2026-05-03T09:22:58Z</time></trkpt><trkpt lat="42.87173180616541" lon="12.828611611641415"><ele>1222.6666666666667</ele><time>2026-05-03T09:23:00Z</time></trkpt><trkpt lat="42.871690006417154" lon="12.828688777518735"><ele>1219.3333333333335</ele><time>2026-05-03T09:23:01Z</time></trkpt><trkpt lat="42.8716475831194" lon="12.828778173919524"><ele>1216.0</ele><time>2026-05-03T09:23:02Z</time></trkpt><trkpt lat="42.87160147471628" lon="12.828864383295315"><ele>1212.6666666666667</ele><time>2026-05-03T09:23:03Z</time></trkpt><trkpt lat="42.8715615084017" lon="12.828958374175052"><ele>1209.3333333333333</ele><time>2026-05-03T09:23:04Z</time></trkpt><trkpt lat="42.87152083640024" lon="12.829054078074757"><ele>1206.0</ele><time>2026-05-03T09:23:05Z</time></trkpt><trkpt lat="42.871476930419824" lon="12.829144779397813"><ele>1206.0</ele><time>2026-05-03T09:23:06Z</time></trkpt><trkpt lat="42.87144225129394" lon="12.829224447553997"><ele>1206.0</ele><time>2026-05-03T09:23:07Z</time></trkpt><trkpt lat="42.871379190583596" lon="12.829368009830109"><ele>1206.0</ele><time>2026-05-03T09:23:09Z</time></trkpt><trkpt lat="42.87132267156047" lon="12.829507307953044"><ele>1206.0</ele><time>2026-05-03T09:23:11Z</time></trkpt><trkpt lat="42.87128185370375" lon="12.82961905980462"><ele>1206.0</ele><time>2026-05-03T09:23:13Z</time></trkpt><trkpt lat="42.87121277420711" lon="12.829727963753758"><ele>1204.8333333333333</ele><time>2026-05-03T09:23:15Z</time></trkpt><trkpt lat="42.87115287604815" lon="12.82981280171267"><ele>1203.6666666666667</ele><time>2026-05-03T09:23:17Z</time></trkpt><trkpt lat="42.871068375284906" lon="12.829789380518237"><ele>1202.5</ele><time>2026-05-03T09:24:04.999Z</time></trkpt><trkpt lat="42.87101501973518" lon="12.829742714682977"><ele>1201.3333333333335</ele><time>2026-05-03T09:24:05.999Z</time></trkpt><trkpt lat="42.87095630113155" lon="12.829683701850316"><ele>1200.1666666666667</ele><time>2026-05-03T09:24:06.999Z</time></trkpt><trkpt lat="42.87086320251685" lon="12.829639343002004"><ele>1199.0</ele><time>2026-05-03T09:24:07.999Z</time></trkpt><trkpt lat="42.870781932588066" lon="12.829585094985735"><ele>1199.0</ele><time>2026-05-03T09:24:08.999Z</time></trkpt><trkpt lat="42.87071452608854" lon="12.829524356779261"><ele>1199.0</ele><time>2026-05-03T09:24:09.999Z</time></trkpt><trkpt lat="42.870630342270765" lon="12.829472416460955"><ele>1199.0</ele><time>2026-05-03T09:24:11Z</time></trkpt><trkpt lat="42.870546314357036" lon="12.82941579406031"><ele>1199.0</ele><time>2026-05-03T09:24:12Z</time></trkpt><trkpt lat="42.87046256806596" lon="12.829363442076355"><ele>1199.0</ele><time>2026-05-03T09:24:13Z</time></trkpt><trkpt lat="42.8703842873178" lon="12.82930736854673"><ele>1199.0</ele><time>2026-05-03T09:24:14Z</time></trkpt><trkpt lat="42.87031001596224" lon="12.829252133057935"><ele>1199.4</ele><time>2026-05-03T09:24:15Z</time></trkpt><trkpt lat="42.87022948387683" lon="12.82919929085336"><ele>1199.8000000000002</ele><time>2026-05-03T09:24:16Z</time></trkpt><trkpt lat="42.87017238013292" lon="12.829153677393979"><ele>1200.1999999999998</ele><time>2026-05-03T09:24:17Z</time></trkpt><trkpt lat="42.870116961840274" lon="12.829086596318582"><ele>1200.6</ele><time>2026-05-03T09:24:18Z</time></trkpt><trkpt lat="42.86999428606023" lon="12.829027620604037"><ele>1201.0</ele><time>2026-05-03T09:24:20Z</time></trkpt><trkpt lat="42.86991504859484" lon="12.828903156978182"><ele>1200.0</ele><time>2026-05-03T09:24:22Z</time></trkpt><trkpt lat="42.86986940111413" lon="12.828772893058266"><ele>1199.0</ele><time>2026-05-03T09:24:24Z</time></trkpt><trkpt lat="42.86979292274688" lon="12.828672176980135"><ele>1198.0</ele><time>2026-05-03T09:24:26Z</time></trkpt><trkpt lat="42.869734523876964" lon="12.828627326324881"><ele>1197.0</ele><time>2026-05-03T09:24:27Z</time></trkpt><trkpt lat="42.86962741385517" lon="12.828549113119628"><ele>1196.0</ele><time>2026-05-03T09:24:29Z</time></trkpt><trkpt lat="42.8695423312187" lon="12.828456576983516"><ele>1195.8</ele><time>2026-05-03T09:24:31Z</time></trkpt><trkpt lat="42.86946122958454" lon="12.828395427322826"><ele>1195.6</ele><time>2026-05-03T09:24:33Z</time></trkpt><trkpt lat="42.86936007956605" lon="12.828330767016418"><ele>1195.4</ele><time>2026-05-03T09:24:35Z</time></trkpt><trkpt lat="42.86926711327552" lon="12.828283596554213"><ele>1195.2</ele><time>2026-05-03T09:24:37Z</time></trkpt><trkpt lat="42.869143333612115" lon="12.828225368251823"><ele>1195.0</ele><time>2026-05-03T09:24:39Z</time></trkpt><trkpt lat="42.869085570799264" lon="12.828190724208394"><ele>1192.4285714285713</ele><time>2026-05-03T09:24:40Z</time></trkpt><trkpt lat="42.8690261194614" lon="12.828155113165423"><ele>1189.857142857143</ele><time>2026-05-03T09:24:41Z</time></trkpt><trkpt lat="42.86896096194532" lon="12.828121927519778"><ele>1187.2857142857142</ele><time>2026-05-03T09:24:42Z</time></trkpt><trkpt lat="42.868898366380485" lon="12.828085719811789"><ele>1184.7142857142858</ele><time>2026-05-03T09:24:43Z</time></trkpt><trkpt lat="42.868836436838535" lon="12.828046967423797"><ele>1182.142857142857</ele><time>2026-05-03T09:24:44Z</time></trkpt><trkpt lat="42.86877309928658" lon="12.827993666867457"><ele>1179.5714285714287</ele><time>2026-05-03T09:24:45Z</time></trkpt><trkpt lat="42.86870019606016" lon="12.82792750150987"><ele>1177.0</ele><time>2026-05-03T09:24:46Z</time></trkpt><trkpt lat="42.86863178631906" lon="12.827890392194414"><ele>1177.0</ele><time>2026-05-03T09:24:47Z</time></trkpt><trkpt lat="42.868566670697454" lon="12.827873136808707"><ele>1177.0</ele><time>2026-05-03T09:24:48Z</time></trkpt><trkpt lat="42.86845952040951" lon="12.827824001941769"><ele>1177.0</ele><time>2026-05-03T09:24:50Z</time></trkpt><trkpt lat="42.86838772651875" lon="12.82774567878726"><ele>1177.0</ele><time>2026-05-03T09:24:52Z</time></trkpt><trkpt lat="42.86832552382344" lon="12.827638202603378"><ele>1177.0</ele><time>2026-05-03T09:24:55Z</time></trkpt><trkpt lat="42.868282063459766" lon="12.82752689835378"><ele>1172.0</ele><time>2026-05-03T09:24:57Z</time></trkpt><trkpt lat="42.868231941035056" lon="12.827391085064752"><ele>1167.0</ele><time>2026-05-03T09:24:59Z</time></trkpt><trkpt lat="42.86814185831043" lon="12.827302859187288"><ele>1162.0</ele><time>2026-05-03T09:25:01Z</time></trkpt><trkpt lat="42.86809062405011" lon="12.827177992867714"><ele>1157.0</ele><time>2026-05-03T09:25:03Z</time></trkpt><trkpt lat="42.86802973954278" lon="12.8270707849096"><ele>1152.0</ele><time>2026-05-03T09:25:05Z</time></trkpt><trkpt lat="42.867983014933046" lon="12.826944024490686"><ele>1151.4</ele><time>2026-05-03T09:25:07Z</time></trkpt><trkpt lat="42.86792622005208" lon="12.826800356755422"><ele>1150.8000000000002</ele><time>2026-05-03T09:25:09Z</time></trkpt><trkpt lat="42.86788073585185" lon="12.826707137865483"><ele>1150.2</ele><time>2026-05-03T09:25:12Z</time></trkpt><trkpt lat="42.867813644263606" lon="12.826686369721896"><ele>1149.6000000000001</ele><time>2026-05-03T09:25:31Z</time></trkpt><trkpt lat="42.86776034612754" lon="12.82663703639228"><ele>1149.0</ele><time>2026-05-03T09:25:33Z</time></trkpt><trkpt lat="42.86765144482338" lon="12.826575127907388"><ele>1145.3333333333333</ele><time>2026-05-03T09:25:35Z</time></trkpt><trkpt lat="42.867550665979145" lon="12.826516118560086"><ele>1141.6666666666667</ele><time>2026-05-03T09:25:37Z</time></trkpt><trkpt lat="42.867485587881234" lon="12.826492393531854"><ele>1138.0</ele><time>2026-05-03T09:25:38Z</time></trkpt><trkpt lat="42.867401980510145" lon="12.826453853303411"><ele>1134.3333333333335</ele><time>2026-05-03T09:25:39.999Z</time></trkpt><trkpt lat="42.86733999904076" lon="12.826422743973412"><ele>1130.6666666666667</ele><time>2026-05-03T09:25:41.999Z</time></trkpt><trkpt lat="42.8672747690575" lon="12.826414141504126"><ele>1127.0</ele><time>2026-05-03T09:25:44.999Z</time></trkpt><trkpt lat="42.867241358974155" lon="12.826338741826202"><ele>1127.0</ele><time>2026-05-03T09:26:56Z</time></trkpt><trkpt lat="42.86717711215993" lon="12.826288606659595"><ele>1127.0</ele><time>2026-05-03T09:26:58Z</time></trkpt><trkpt lat="42.86712231662211" lon="12.826234827708092"><ele>1127.0</ele><time>2026-05-03T09:26:59Z</time></trkpt><trkpt lat="42.8670638586848" lon="12.826153457312337"><ele>1127.0</ele><time>2026-05-03T09:27:00Z</time></trkpt><trkpt lat="42.86700475876861" lon="12.826085799165146"><ele>1127.0</ele><time>2026-05-03T09:27:01Z</time></trkpt><trkpt lat="42.86694446910582" lon="12.826024344336139"><ele>1127.0</ele><time>2026-05-03T09:27:02Z</time></trkpt><trkpt lat="42.866879373841954" lon="12.825974994862658"><ele>1127.7142857142858</ele><time>2026-05-03T09:27:03Z</time></trkpt><trkpt lat="42.86680879110489" lon="12.825939319033685"><ele>1128.4285714285716</ele><time>2026-05-03T09:27:04Z</time></trkpt><trkpt lat="42.86674213607476" lon="12.825913361824576"><ele>1129.142857142857</ele><time>2026-05-03T09:27:05Z</time></trkpt><trkpt lat="42.86667769199028" lon="12.825890838004753"><ele>1129.857142857143</ele><time>2026-05-03T09:27:06Z</time></trkpt><trkpt lat="42.86661564350516" lon="12.825864627481247"><ele>1130.5714285714287</ele><time>2026-05-03T09:27:07Z</time></trkpt><trkpt lat="42.86655509466869" lon="12.82582576229681"><ele>1131.2857142857142</ele><time>2026-05-03T09:27:08Z</time></trkpt><trkpt lat="42.866471575197174" lon="12.825763959815307"><ele>1132.0</ele><time>2026-05-03T09:27:10Z</time></trkpt><trkpt lat="42.86637780795653" lon="12.825707536924904"><ele>1128.142857142857</ele><time>2026-05-03T09:27:13Z</time></trkpt><trkpt lat="42.866309933767006" lon="12.82566707282642"><ele>1124.2857142857144</ele><time>2026-05-03T09:27:15Z</time></trkpt><trkpt lat="42.86625089835189" lon="12.825622893605507"><ele>1120.4285714285716</ele><time>2026-05-03T09:27:18Z</time></trkpt><trkpt lat="42.86618245219589" lon="12.825615855354663"><ele>1116.5714285714287</ele><time>2026-05-03T09:27:21.999Z</time></trkpt><trkpt lat="42.86610153888202" lon="12.825587415286297"><ele>1112.7142857142858</ele><time>2026-05-03T09:27:38.999Z</time></trkpt><trkpt lat="42.86603595197949" lon="12.825562703170368"><ele>1108.857142857143</ele><time>2026-05-03T09:27:43.999Z</time></trkpt><trkpt lat="42.86597591549866" lon="12.825531845945205"><ele>1105.0</ele><time>2026-05-03T09:27:45.999Z</time></trkpt><trkpt lat="42.86590501545222" lon="12.825545029385543"><ele>1103.1666666666665</ele><time>2026-05-03T09:27:47.999Z</time></trkpt><trkpt lat="42.865816547626046" lon="12.82549320951517"><ele>1101.3333333333333</ele><time>2026-05-03T09:27:50.999Z</time></trkpt><trkpt lat="42.86576251096475" lon="12.825422318606055"><ele>1099.5</ele><time>2026-05-03T09:28:03.999Z</time></trkpt><trkpt lat="42.86572578218122" lon="12.825318576940376"><ele>1097.6666666666667</ele><time>2026-05-03T09:28:06.999Z</time></trkpt><trkpt lat="42.865651061070814" lon="12.825299489844753"><ele>1095.8333333333335</ele><time>2026-05-03T09:28:09.999Z</time></trkpt><trkpt lat="42.865571613019604" lon="12.825274528449054"><ele>1094.0</ele><time>2026-05-03T09:28:12.999Z</time></trkpt><trkpt lat="42.86551062233964" lon="12.825242240917659"><ele>1094.0</ele><time>2026-05-03T09:28:15.999Z</time></trkpt><trkpt lat="42.86546873779098" lon="12.82517354324887"><ele>1094.0</ele><time>2026-05-03T09:28:19.999Z</time></trkpt><trkpt lat="42.86542519585626" lon="12.825107470665591"><ele>1094.0</ele><time>2026-05-03T09:28:25Z</time></trkpt><trkpt lat="42.865403625504634" lon="12.825013836438037"><ele>1094.0</ele><time>2026-05-03T09:28:54Z</time></trkpt><trkpt lat="42.865384113267815" lon="12.824876124245732"><ele>1094.0</ele><time>2026-05-03T09:28:56Z</time></trkpt><trkpt lat="42.86537031913918" lon="12.824749938975406"><ele>1094.0</ele><time>2026-05-03T09:28:58Z</time></trkpt><trkpt lat="42.86534352520568" lon="12.824613729939772"><ele>1093.2</ele><time>2026-05-03T09:29:00Z</time></trkpt><trkpt lat="42.86532230565079" lon="12.82447702752014"><ele>1092.4</ele><time>2026-05-03T09:29:02Z</time></trkpt><trkpt lat="42.86529247745118" lon="12.824322994035475"><ele>1091.6</ele><time>2026-05-03T09:29:04Z</time></trkpt><trkpt lat="42.865243858474244" lon="12.824196229387018"><ele>1090.8</ele><time>2026-05-03T09:29:06Z</time></trkpt><trkpt lat="42.86521574259724" lon="12.82410479563008"><ele>1090.0</ele><time>2026-05-03T09:29:08Z</time></trkpt><trkpt lat="42.86517209390043" lon="12.824021650550206"><ele>1090.0</ele><time>2026-05-03T09:29:10Z</time></trkpt><trkpt lat="42.86511544118346" lon="12.823920394452273"><ele>1090.0</ele><time>2026-05-03T09:29:12Z</time></trkpt><trkpt lat="42.86504564344487" lon="12.823850648651202"><ele>1090.0</ele><time>2026-05-03T09:29:14Z</time></trkpt><trkpt lat="42.864957924948754" lon="12.823805939079051"><ele>1090.0</ele><time>2026-05-03T09:29:16Z</time></trkpt><trkpt lat="42.86483916338725" lon="12.823758607065134"><ele>1090.0</ele><time>2026-05-03T09:29:18Z</time></trkpt><trkpt lat="42.86475824628342" lon="12.8236735490228"><ele>1088.5</ele><time>2026-05-03T09:29:20Z</time></trkpt><trkpt lat="42.864742097532165" lon="12.823525631877256"><ele>1087.0</ele><time>2026-05-03T09:29:22Z</time></trkpt><trkpt lat="42.86474525174203" lon="12.823429938621127"><ele>1085.5</ele><time>2026-05-03T09:29:23Z</time></trkpt><trkpt lat="42.864740136845526" lon="12.823334673977369"><ele>1084.0</ele><time>2026-05-03T09:29:24Z</time></trkpt><trkpt lat="42.864732267549215" lon="12.823240701674358"><ele>1082.5</ele><time>2026-05-03T09:29:25Z</time></trkpt><trkpt lat="42.86471564958579" lon="12.823086102004702"><ele>1081.0</ele><time>2026-05-03T09:29:27Z</time></trkpt><trkpt lat="42.86470991634209" lon="12.822972574214887"><ele>1081.0</ele><time>2026-05-03T09:29:29Z</time></trkpt><trkpt lat="42.86470087772662" lon="12.822850878105049"><ele>1081.0</ele><time>2026-05-03T09:29:32Z</time></trkpt><trkpt lat="42.86470889993313" lon="12.822746069690332"><ele>1081.0</ele><time>2026-05-03T09:29:34Z</time></trkpt><trkpt lat="42.86472946078002" lon="12.822623354249806"><ele>1081.0</ele><time>2026-05-03T09:29:36Z</time></trkpt><trkpt lat="42.86473476115984" lon="12.822534395198602"><ele>1081.0</ele><time>2026-05-03T09:29:38Z</time></trkpt><trkpt lat="42.86474402585209" lon="12.822443755294625"><ele>1081.0</ele><time>2026-05-03T09:29:41Z</time></trkpt><trkpt lat="42.864749568951936" lon="12.8223454329339"><ele>1080.8333333333333</ele><time>2026-05-03T09:29:44Z</time></trkpt><trkpt lat="42.86473418219297" lon="12.82220918842404"><ele>1080.6666666666665</ele><time>2026-05-03T09:29:48Z</time></trkpt><trkpt lat="42.86470811617144" lon="12.822102886304224"><ele>1080.5</ele><time>2026-05-03T09:29:50Z</time></trkpt><trkpt lat="42.864674294802484" lon="12.82201283092755"><ele>1080.3333333333333</ele><time>2026-05-03T09:29:52Z</time></trkpt><trkpt lat="42.86463421201008" lon="12.821907739012394"><ele>1080.1666666666667</ele><time>2026-05-03T09:29:54Z</time></trkpt><trkpt lat="42.864604847207104" lon="12.821790042989727"><ele>1080.0</ele><time>2026-05-03T09:29:56Z</time></trkpt><trkpt lat="42.86456878549279" lon="12.821642436263229"><ele>1079.5</ele><time>2026-05-03T09:29:58Z</time></trkpt><trkpt lat="42.86454946447611" lon="12.82146876799886"><ele>1079.0</ele><time>2026-05-03T09:30:00Z</time></trkpt><trkpt lat="42.86454435542009" lon="12.82137438914741"><ele>1078.5</ele><time>2026-05-03T09:30:01Z</time></trkpt><trkpt lat="42.86452725807588" lon="12.821284835266413"><ele>1078.0</ele><time>2026-05-03T09:30:02Z</time></trkpt><trkpt lat="42.864502176830754" lon="12.821192505719152"><ele>1077.5</ele><time>2026-05-03T09:30:02.999Z</time></trkpt><trkpt lat="42.86448153859301" lon="12.821101017044152"><ele>1077.0</ele><time>2026-05-03T09:30:03.999Z</time></trkpt><trkpt lat="42.8644558801597" lon="12.821021491111793"><ele>1076.1666666666667</ele><time>2026-05-03T09:30:04.999Z</time></trkpt><trkpt lat="42.86444435100718" lon="12.82093647845041"><ele>1075.3333333333333</ele><time>2026-05-03T09:30:06.999Z</time></trkpt><trkpt lat="42.86440229415376" lon="12.820836483305563"><ele>1074.5</ele><time>2026-05-03T09:30:09.999Z</time></trkpt><trkpt lat="42.86437630834641" lon="12.82071845656505"><ele>1073.6666666666665</ele><time>2026-05-03T09:30:11.999Z</time></trkpt><trkpt lat="42.86435251835284" lon="12.820619986364374"><ele>1072.8333333333333</ele><time>2026-05-03T09:30:12.999Z</time></trkpt><trkpt lat="42.86431721030466" lon="12.820484949576478"><ele>1072.0</ele><time>2026-05-03T09:30:13.999Z</time></trkpt><trkpt lat="42.86427258397028" lon="12.820308809944935"><ele>1069.75</ele><time>2026-05-03T09:30:14.999Z</time></trkpt><trkpt lat="42.864231410126145" lon="12.820119453886191"><ele>1067.5</ele><time>2026-05-03T09:30:15.999Z</time></trkpt><trkpt lat="42.864185541175274" lon="12.819913401807518"><ele>1065.25</ele><time>2026-05-03T09:30:16.999Z</time></trkpt><trkpt lat="42.864140771566674" lon="12.819756515928393"><ele>1063.0</ele><time>2026-05-03T09:30:17.999Z</time></trkpt><trkpt lat="42.8640774946436" lon="12.819608406884178"><ele>1063.0</ele><time>2026-05-03T09:30:18.999Z</time></trkpt><trkpt lat="42.86402532350024" lon="12.819441358215855"><ele>1063.0</ele><time>2026-05-03T09:30:19.999Z</time></trkpt><trkpt lat="42.86400097762234" lon="12.819289924093194"><ele>1063.0</ele><time>2026-05-03T09:30:20.999Z</time></trkpt><trkpt lat="42.86399650904262" lon="12.819158624800858"><ele>1063.0</ele><time>2026-05-03T09:30:21.999Z</time></trkpt><trkpt lat="42.864004672275904" lon="12.819049827557986"><ele>1063.0</ele><time>2026-05-03T09:30:22.999Z</time></trkpt><trkpt lat="42.86401629696991" lon="12.818961712535984"><ele>1063.2</ele><time>2026-05-03T09:30:23.999Z</time></trkpt><trkpt lat="42.86403625946587" lon="12.818826193187398"><ele>1063.4</ele><time>2026-05-03T09:30:25.999Z</time></trkpt><trkpt lat="42.864002237398175" lon="12.81868081572164"><ele>1063.6000000000001</ele><time>2026-05-03T09:36:50.999Z</time></trkpt><trkpt lat="42.863947545892714" lon="12.818538959227046"><ele>1063.8</ele><time>2026-05-03T09:36:52.999Z</time></trkpt><trkpt lat="42.86389192316223" lon="12.81846181600488"><ele>1064.0</ele><time>2026-05-03T09:36:53.999Z</time></trkpt><trkpt lat="42.863824531801974" lon="12.818384235678337"><ele>1064.0</ele><time>2026-05-03T09:36:54.999Z</time></trkpt><trkpt lat="42.8637639653203" lon="12.81832829521771"><ele>1064.0</ele><time>2026-05-03T09:36:55.999Z</time></trkpt><trkpt lat="42.86370961252446" lon="12.818267300924656"><ele>1064.0</ele><time>2026-05-03T09:36:56.999Z</time></trkpt><trkpt lat="42.8636613890011" lon="12.818193660554387"><ele>1064.0</ele><time>2026-05-03T09:36:57.999Z</time></trkpt><trkpt lat="42.863615104877454" lon="12.818056969018583"><ele>1064.0</ele><time>2026-05-03T09:36:59.999Z</time></trkpt><trkpt lat="42.86357995629386" lon="12.817955092682654"><ele>1064.0</ele><time>2026-05-03T09:37:01.999Z</time></trkpt><trkpt lat="42.86348849196319" lon="12.817878554202142"><ele>1064.5</ele><time>2026-05-03T09:37:04.999Z</time></trkpt><trkpt lat="42.86341321414981" lon="12.817806267906663"><ele>1065.0</ele><time>2026-05-03T09:37:06.999Z</time></trkpt><trkpt lat="42.86340647007474" lon="12.817663523806988"><ele>1065.5</ele><time>2026-05-03T09:37:08.999Z</time></trkpt><trkpt lat="42.8634154582306" lon="12.817564460074507"><ele>1066.0</ele><time>2026-05-03T09:37:10Z</time></trkpt><trkpt lat="42.86342588812366" lon="12.817455308246815"><ele>1066.5</ele><time>2026-05-03T09:37:11Z</time></trkpt><trkpt lat="42.86343662572493" lon="12.817340525166435"><ele>1067.0</ele><time>2026-05-03T09:37:12Z</time></trkpt><trkpt lat="42.86344392911644" lon="12.81722807121645"><ele>1067.3333333333335</ele><time>2026-05-03T09:37:13Z</time></trkpt><trkpt lat="42.86346633471163" lon="12.817119123999142"><ele>1067.6666666666667</ele><time>2026-05-03T09:37:14Z</time></trkpt><trkpt lat="42.8634740173729" lon="12.817031723441252"><ele>1068.0</ele><time>2026-05-03T09:37:15Z</time></trkpt><trkpt lat="42.86347054218627" lon="12.816921601302028"><ele>1068.3333333333333</ele><time>2026-05-03T09:37:16Z</time></trkpt><trkpt lat="42.863493411914696" lon="12.816826466827521"><ele>1068.6666666666665</ele><time>2026-05-03T09:37:17Z</time></trkpt><trkpt lat="42.86352488325976" lon="12.816702267269253"><ele>1069.0</ele><time>2026-05-03T09:37:18Z</time></trkpt><trkpt lat="42.86355986277569" lon="12.816569539981781"><ele>1069.8</ele><time>2026-05-03T09:37:19Z</time></trkpt><trkpt lat="42.86360759559208" lon="12.816434879684333"><ele>1070.6000000000001</ele><time>2026-05-03T09:37:20Z</time></trkpt><trkpt lat="42.86364771751951" lon="12.81630277474773"><ele>1071.4</ele><time>2026-05-03T09:37:21Z</time></trkpt><trkpt lat="42.86368427320022" lon="12.816184465054585"><ele>1072.2</ele><time>2026-05-03T09:37:22Z</time></trkpt><trkpt lat="42.86371149496955" lon="12.816072531283318"><ele>1073.0</ele><time>2026-05-03T09:37:23Z</time></trkpt><trkpt lat="42.8637323965666" lon="12.815960638171324"><ele>1075.6</ele><time>2026-05-03T09:37:24Z</time></trkpt><trkpt lat="42.86373467931774" lon="12.815836349828182"><ele>1078.1999999999998</ele><time>2026-05-03T09:37:25Z</time></trkpt><trkpt lat="42.86372352926615" lon="12.81570640063717"><ele>1080.8</ele><time>2026-05-03T09:37:26Z</time></trkpt><trkpt lat="42.86368617588508" lon="12.815590749449568"><ele>1083.3999999999999</ele><time>2026-05-03T09:37:27Z</time></trkpt><trkpt lat="42.86362624124728" lon="12.81548274405779"><ele>1086.0</ele><time>2026-05-03T09:37:28Z</time></trkpt><trkpt lat="42.86355443891198" lon="12.815356916080788"><ele>1086.0</ele><time>2026-05-03T09:37:29Z</time></trkpt><trkpt lat="42.86351269776734" lon="12.81526313062627"><ele>1086.0</ele><time>2026-05-03T09:37:30Z</time></trkpt><trkpt lat="42.86351007429473" lon="12.81516588091192"><ele>1086.0</ele><time>2026-05-03T09:37:32Z</time></trkpt><trkpt lat="42.86350287375345" lon="12.815048491161608"><ele>1086.0</ele><time>2026-05-03T09:37:39Z</time></trkpt><trkpt lat="42.86346090268725" lon="12.814977282092071"><ele>1086.0</ele><time>2026-05-03T09:37:47Z</time></trkpt><trkpt lat="42.863474791602236" lon="12.814892539673508"><ele>1086.0</ele><time>2026-05-03T09:37:50Z</time></trkpt><trkpt lat="42.86353781987963" lon="12.81492406862159"><ele>1086.0</ele><time>2026-05-03T09:37:52.999Z</time></trkpt><trkpt lat="42.863580317885805" lon="12.81499954177212"><ele>1086.0</ele><time>2026-05-03T09:37:54.999Z</time></trkpt><trkpt lat="42.86365260306632" lon="12.815066321188878"><ele>1086.0</ele><time>2026-05-03T09:37:58.999Z</time></trkpt><trkpt lat="42.86370833830415" lon="12.815132992627916"><ele>1086.0</ele><time>2026-05-03T09:38:00.999Z</time></trkpt><trkpt lat="42.86378068703606" lon="12.815173943098701"><ele>1086.0</ele><time>2026-05-03T09:38:07.999Z</time></trkpt><trkpt lat="42.86384303935259" lon="12.8152213344948"><ele>1086.0</ele><time>2026-05-03T09:38:10.999Z</time></trkpt><trkpt lat="42.86393788955792" lon="12.815231879513137"><ele>1086.0</ele><time>2026-05-03T09:38:13.999Z</time></trkpt><trkpt lat="42.863901923419725" lon="12.81510267329765"><ele>1089.5</ele><time>2026-05-03T09:38:16.999Z</time></trkpt><trkpt lat="42.86385130026418" lon="12.81497980816597"><ele>1093.0</ele><time>2026-05-03T09:38:18.999Z</time></trkpt><trkpt lat="42.86380239849949" lon="12.814888206216494"><ele>1096.5</ele><time>2026-05-03T09:38:22.999Z</time></trkpt><trkpt lat="42.863762274813766" lon="12.814805888274481"><ele>1100.0</ele><time>2026-05-03T09:38:25.999Z</time></trkpt><trkpt lat="42.86376365055327" lon="12.814711408154839"><ele>1103.5</ele><time>2026-05-03T09:38:31.999Z</time></trkpt><trkpt lat="42.86383964348499" lon="12.814809716912466"><ele>1107.0</ele><time>2026-05-03T09:38:34.999Z</time></trkpt><trkpt lat="42.86399397455791" lon="12.814920551338863"><ele>1107.0</ele><time>2026-05-03T09:39:26Z</time></trkpt><trkpt lat="42.86409750524436" lon="12.81500963283818"><ele>1107.0</ele><time>2026-05-03T09:39:28Z</time></trkpt><trkpt lat="42.86416212919702" lon="12.815001902703283"><ele>1107.0</ele><time>2026-05-03T09:39:29Z</time></trkpt><trkpt lat="42.86425366439959" lon="12.815036410423424"><ele>1107.0</ele><time>2026-05-03T09:39:32Z</time></trkpt><trkpt lat="42.86439243035123" lon="12.815083260256944"><ele>1107.0</ele><time>2026-05-03T09:39:34Z</time></trkpt><trkpt lat="42.864482660387736" lon="12.815074793829776"><ele>1110.4</ele><time>2026-05-03T09:39:35Z</time></trkpt><trkpt lat="42.86458267486419" lon="12.815053063942344"><ele>1113.8000000000002</ele><time>2026-05-03T09:39:36Z</time></trkpt><trkpt lat="42.86470863484592" lon="12.815042711012222"><ele>1117.2</ele><time>2026-05-03T09:39:37Z</time></trkpt><trkpt lat="42.86480509817966" lon="12.81503635817435"><ele>1120.6000000000001</ele><time>2026-05-03T09:39:38Z</time></trkpt><trkpt lat="42.8648846397416" lon="12.815064109930825"><ele>1124.0</ele><time>2026-05-03T09:39:40Z</time></trkpt><trkpt lat="42.86495500713041" lon="12.815108196923982"><ele>1122.2</ele><time>2026-05-03T09:39:42Z</time></trkpt><trkpt lat="42.865012416465085" lon="12.81517136825194"><ele>1120.4</ele><time>2026-05-03T09:39:43Z</time></trkpt><trkpt lat="42.865096627121865" lon="12.815282068426876"><ele>1118.6</ele><time>2026-05-03T09:39:44Z</time></trkpt><trkpt lat="42.86517833105823" lon="12.815373651026336"><ele>1116.8</ele><time>2026-05-03T09:39:45Z</time></trkpt><trkpt lat="42.865266330899466" lon="12.815472146687885"><ele>1115.0</ele><time>2026-05-03T09:39:46Z</time></trkpt><trkpt lat="42.865354892767115" lon="12.815584452526789"><ele>1115.0</ele><time>2026-05-03T09:39:47Z</time></trkpt><trkpt lat="42.86544216887405" lon="12.81567437061569"><ele>1115.0</ele><time>2026-05-03T09:39:48Z</time></trkpt><trkpt lat="42.86550570104956" lon="12.8157347223423"><ele>1115.0</ele><time>2026-05-03T09:39:49Z</time></trkpt><trkpt lat="42.8655852861454" lon="12.81577430441963"><ele>1115.0</ele><time>2026-05-03T09:39:51Z</time></trkpt><trkpt lat="42.86565697843757" lon="12.81579455079327"><ele>1115.0</ele><time>2026-05-03T09:39:53Z</time></trkpt><trkpt lat="42.86575329487629" lon="12.815780853106727"><ele>1115.0</ele><time>2026-05-03T09:39:55Z</time></trkpt><trkpt lat="42.86582346491511" lon="12.815779244459417"><ele>1115.0</ele><time>2026-05-03T09:39:56Z</time></trkpt><trkpt lat="42.865888385509734" lon="12.815793493183717"><ele>1115.0</ele><time>2026-05-03T09:39:57Z</time></trkpt><trkpt lat="42.86596485350102" lon="12.8158190800528"><ele>1115.0</ele><time>2026-05-03T09:39:58Z</time></trkpt><trkpt lat="42.86606344387815" lon="12.815860011723142"><ele>1115.0</ele><time>2026-05-03T09:39:59Z</time></trkpt><trkpt lat="42.8661758136745" lon="12.815888943001188"><ele>1115.0</ele><time>2026-05-03T09:40:00Z</time></trkpt><trkpt lat="42.86628621127114" lon="12.815915060025114"><ele>1116.0</ele><time>2026-05-03T09:40:01Z</time></trkpt><trkpt lat="42.866372395120194" lon="12.815946881623818"><ele>1117.0</ele><time>2026-05-03T09:40:02Z</time></trkpt><trkpt lat="42.86646891771855" lon="12.815998928156537"><ele>1118.0</ele><time>2026-05-03T09:40:03Z</time></trkpt><trkpt lat="42.86657159269927" lon="12.816056975062276"><ele>1119.0</ele><time>2026-05-03T09:40:04Z</time></trkpt><trkpt lat="42.8666917517386" lon="12.81610350057037"><ele>1120.0</ele><time>2026-05-03T09:40:05Z</time></trkpt><trkpt lat="42.8668021742062" lon="12.816138959213369"><ele>1120.0</ele><time>2026-05-03T09:40:06Z</time></trkpt><trkpt lat="42.86689772262625" lon="12.816179199994806"><ele>1120.0</ele><time>2026-05-03T09:40:07Z</time></trkpt><trkpt lat="42.86697738721338" lon="12.816221676781097"><ele>1120.0</ele><time>2026-05-03T09:40:08Z</time></trkpt><trkpt lat="42.86706446026401" lon="12.816286946144285"><ele>1120.0</ele><time>2026-05-03T09:40:09Z</time></trkpt><trkpt lat="42.86715657408941" lon="12.816346729373421"><ele>1120.0</ele><time>2026-05-03T09:40:10Z</time></trkpt><trkpt lat="42.86723924660718" lon="12.816392159262996"><ele>1120.0</ele><time>2026-05-03T09:40:11Z</time></trkpt><trkpt lat="42.86732314235572" lon="12.81645596045103"><ele>1120.0</ele><time>2026-05-03T09:40:12Z</time></trkpt><trkpt lat="42.86739721667337" lon="12.816527934491837"><ele>1120.0</ele><time>2026-05-03T09:40:13Z</time></trkpt><trkpt lat="42.86745945516349" lon="12.816592396454778"><ele>1120.0</ele><time>2026-05-03T09:40:14Z</time></trkpt><trkpt lat="42.8675235431298" lon="12.816643684579482"><ele>1120.0</ele><time>2026-05-03T09:40:15Z</time></trkpt><trkpt lat="42.86759901900608" lon="12.816673799974605"><ele>1120.0</ele><time>2026-05-03T09:40:16Z</time></trkpt><trkpt lat="42.86770384417169" lon="12.816660470380652"><ele>1120.3333333333333</ele><time>2026-05-03T09:40:18Z</time></trkpt><trkpt lat="42.86779699393464" lon="12.816624122166395"><ele>1120.6666666666665</ele><time>2026-05-03T09:40:20Z</time></trkpt><trkpt lat="42.867865962841044" lon="12.816587125172829"><ele>1121.0</ele><time>2026-05-03T09:40:21Z</time></trkpt><trkpt lat="42.86794281916651" lon="12.816539449762194"><ele>1121.3333333333333</ele><time>2026-05-03T09:40:22Z</time></trkpt><trkpt lat="42.868025471355516" lon="12.816495393354582"><ele>1121.6666666666667</ele><time>2026-05-03T09:40:23Z</time></trkpt><trkpt lat="42.86811531990223" lon="12.816465135954477"><ele>1122.0</ele><time>2026-05-03T09:40:24Z</time></trkpt><trkpt lat="42.868208878853856" lon="12.81645286293979"><ele>1122.0</ele><time>2026-05-03T09:40:25Z</time></trkpt><trkpt lat="42.86829721448255" lon="12.816443715157478"><ele>1122.0</ele><time>2026-05-03T09:40:26Z</time></trkpt><trkpt lat="42.86838178846947" lon="12.81643442034154"><ele>1122.0</ele><time>2026-05-03T09:40:27Z</time></trkpt><trkpt lat="42.86846235330532" lon="12.816420817795187"><ele>1122.0</ele><time>2026-05-03T09:40:28Z</time></trkpt><trkpt lat="42.868534514586955" lon="12.81638879643031"><ele>1122.0</ele><time>2026-05-03T09:40:29Z</time></trkpt><trkpt lat="42.868593231661606" lon="12.816329280300646"><ele>1122.0</ele><time>2026-05-03T09:40:30Z</time></trkpt><trkpt lat="42.868647701480675" lon="12.816233671778658"><ele>1123.2</ele><time>2026-05-03T09:40:31Z</time></trkpt><trkpt lat="42.8687039691249" lon="12.816121162744242"><ele>1124.4</ele><time>2026-05-03T09:40:32Z</time></trkpt><trkpt lat="42.8687655939729" lon="12.816006121145996"><ele>1125.6</ele><time>2026-05-03T09:40:33Z</time></trkpt><trkpt lat="42.8688312512839" lon="12.815924326353379"><ele>1126.8</ele><time>2026-05-03T09:40:34Z</time></trkpt><trkpt lat="42.86891052749048" lon="12.815902640013455"><ele>1128.0</ele><time>2026-05-03T09:40:35Z</time></trkpt><trkpt lat="42.869009853188956" lon="12.815873656780376"><ele>1128.0</ele><time>2026-05-03T09:40:36Z</time></trkpt><trkpt lat="42.86910662030429" lon="12.815855657934312"><ele>1128.0</ele><time>2026-05-03T09:40:37Z</time></trkpt><trkpt lat="42.869191050604485" lon="12.815806619869422"><ele>1128.0</ele><time>2026-05-03T09:40:38Z</time></trkpt><trkpt lat="42.869256717171716" lon="12.815702026012858"><ele>1128.0</ele><time>2026-05-03T09:40:39Z</time></trkpt><trkpt lat="42.86931762681617" lon="12.815560749110555"><ele>1128.0</ele><time>2026-05-03T09:40:40Z</time></trkpt><trkpt lat="42.86937717599199" lon="12.815452263854077"><ele>1127.6</ele><time>2026-05-03T09:40:41Z</time></trkpt><trkpt lat="42.869440475749755" lon="12.815371370091414"><ele>1127.1999999999998</ele><time>2026-05-03T09:40:42Z</time></trkpt><trkpt lat="42.869519399134006" lon="12.81530837220349"><ele>1126.8</ele><time>2026-05-03T09:40:43Z</time></trkpt><trkpt lat="42.86960615679408" lon="12.815256053978306"><ele>1126.3999999999999</ele><time>2026-05-03T09:40:44Z</time></trkpt><trkpt lat="42.86969240197971" lon="12.815200717074017"><ele>1126.0</ele><time>2026-05-03T09:40:45Z</time></trkpt><trkpt lat="42.86976431992102" lon="12.815123951693304"><ele>1126.0</ele><time>2026-05-03T09:40:46Z</time></trkpt><trkpt lat="42.86982716616981" lon="12.815047277768775"><ele>1126.0</ele><time>2026-05-03T09:40:47Z</time></trkpt><trkpt lat="42.869879795233025" lon="12.814982938129216"><ele>1126.0</ele><time>2026-05-03T09:40:48Z</time></trkpt><trkpt lat="42.86993137456551" lon="12.814915034458954"><ele>1126.0</ele><time>2026-05-03T09:40:49Z</time></trkpt><trkpt lat="42.86999261509081" lon="12.814835351909263"><ele>1126.0</ele><time>2026-05-03T09:40:50Z</time></trkpt><trkpt lat="42.87004995753122" lon="12.814751832379157"><ele>1126.0</ele><time>2026-05-03T09:40:51Z</time></trkpt><trkpt lat="42.87009976706383" lon="12.814647512188657"><ele>1123.6</ele><time>2026-05-03T09:40:52Z</time></trkpt><trkpt lat="42.87015289717812" lon="12.814532282775382"><ele>1121.1999999999998</ele><time>2026-05-03T09:40:53Z</time></trkpt><trkpt lat="42.87021154837276" lon="12.814432319075902"><ele>1118.8000000000002</ele><time>2026-05-03T09:40:54Z</time></trkpt><trkpt lat="42.87026178100725" lon="12.814302606597822"><ele>1116.4</ele><time>2026-05-03T09:40:55Z</time></trkpt><trkpt lat="42.87031583135675" lon="12.81418512607649"><ele>1114.0</ele><time>2026-05-03T09:40:56Z</time></trkpt><trkpt lat="42.87036761459644" lon="12.814076823822912"><ele>1114.0</ele><time>2026-05-03T09:40:57Z</time></trkpt><trkpt lat="42.87041788961219" lon="12.813968635212426"><ele>1114.0</ele><time>2026-05-03T09:40:58Z</time></trkpt><trkpt lat="42.87046205900367" lon="12.813882572417945"><ele>1114.0</ele><time>2026-05-03T09:40:59Z</time></trkpt><trkpt lat="42.87052713768773" lon="12.813809394201401"><ele>1114.0</ele><time>2026-05-03T09:41:00Z</time></trkpt><trkpt lat="42.87059197182044" lon="12.813738487238465"><ele>1114.0</ele><time>2026-05-03T09:41:01Z</time></trkpt><trkpt lat="42.870655385028" lon="12.81364099578951"><ele>1114.0</ele><time>2026-05-03T09:41:02Z</time></trkpt><trkpt lat="42.87072207655161" lon="12.813571912331557"><ele>1114.0</ele><time>2026-05-03T09:41:03Z</time></trkpt><trkpt lat="42.870790908682565" lon="12.813497113724397"><ele>1114.0</ele><time>2026-05-03T09:41:04Z</time></trkpt><trkpt lat="42.87085136603955" lon="12.81343205241915"><ele>1114.0</ele><time>2026-05-03T09:41:05Z</time></trkpt><trkpt lat="42.87093057439544" lon="12.813347652882475"><ele>1114.0</ele><time>2026-05-03T09:41:06Z</time></trkpt><trkpt lat="42.87100446132721" lon="12.813288044832948"><ele>1114.0</ele><time>2026-05-03T09:41:07Z</time></trkpt><trkpt lat="42.87109406541272" lon="12.813219535631378"><ele>1114.75</ele><time>2026-05-03T09:41:08Z</time></trkpt><trkpt lat="42.8712030991278" lon="12.813135741772658"><ele>1115.5</ele><time>2026-05-03T09:41:09Z</time></trkpt><trkpt lat="42.8713166271844" lon="12.813039670000501"><ele>1116.25</ele><time>2026-05-03T09:41:10Z</time></trkpt><trkpt lat="42.871428488665416" lon="12.81295080238667"><ele>1117.0</ele><time>2026-05-03T09:41:11Z</time></trkpt><trkpt lat="42.87153909681457" lon="12.81286614731819"><ele>1117.0</ele><time>2026-05-03T09:41:12Z</time></trkpt><trkpt lat="42.87164624647443" lon="12.812795361232169"><ele>1117.0</ele><time>2026-05-03T09:41:13Z</time></trkpt><trkpt lat="42.871748791759785" lon="12.812699252625473"><ele>1117.0</ele><time>2026-05-03T09:41:14Z</time></trkpt><trkpt lat="42.871835927125744" lon="12.812625450555103"><ele>1117.0</ele><time>2026-05-03T09:41:15Z</time></trkpt><trkpt lat="42.87192620423402" lon="12.812585128990971"><ele>1117.0</ele><time>2026-05-03T09:41:16Z</time></trkpt><trkpt lat="42.872036115587754" lon="12.812581405844222"><ele>1120.75</ele><time>2026-05-03T09:41:17Z</time></trkpt><trkpt lat="42.872162917020965" lon="12.812584717147475"><ele>1124.5</ele><time>2026-05-03T09:41:18Z</time></trkpt><trkpt lat="42.87228506766727" lon="12.812569214128766"><ele>1128.25</ele><time>2026-05-03T09:41:19Z</time></trkpt><trkpt lat="42.87240010820594" lon="12.812525269625093"><ele>1132.0</ele><time>2026-05-03T09:41:20Z</time></trkpt><trkpt lat="42.87250939322869" lon="12.812506855472192"><ele>1132.0</ele><time>2026-05-03T09:41:21Z</time></trkpt><trkpt lat="42.87259961377341" lon="12.812502722300097"><ele>1132.0</ele><time>2026-05-03T09:41:23Z</time></trkpt><trkpt lat="42.872669618691326" lon="12.812472951075534"><ele>1132.0</ele><time>2026-05-03T09:41:31Z</time></trkpt><trkpt lat="42.872719022941695" lon="12.812417469935719"><ele>1132.0</ele><time>2026-05-03T09:41:32Z</time></trkpt><trkpt lat="42.872797327991584" lon="12.812276398363235"><ele>1132.0</ele><time>2026-05-03T09:41:34Z</time></trkpt><trkpt lat="42.87283623180297" lon="12.81220075457348"><ele>1132.0</ele><time>2026-05-03T09:41:35Z</time></trkpt><trkpt lat="42.872882476620106" lon="12.81213510995964"><ele>1132.5</ele><time>2026-05-03T09:41:36Z</time></trkpt><trkpt lat="42.87293882444558" lon="12.81208320033347"><ele>1133.0</ele><time>2026-05-03T09:41:37Z</time></trkpt><trkpt lat="42.873018524571016" lon="12.812078835268004"><ele>1133.5</ele><time>2026-05-03T09:41:38Z</time></trkpt><trkpt lat="42.873092658866554" lon="12.812094851245382"><ele>1134.0</ele><time>2026-05-03T09:41:39Z</time></trkpt><trkpt lat="42.873172396071205" lon="12.812123489875043"><ele>1134.5</ele><time>2026-05-03T09:41:40Z</time></trkpt><trkpt lat="42.87328159031417" lon="12.812179211860935"><ele>1135.0</ele><time>2026-05-03T09:41:41Z</time></trkpt><trkpt lat="42.87338461879502" lon="12.812189432557796"><ele>1135.5</ele><time>2026-05-03T09:41:42Z</time></trkpt><trkpt lat="42.87349058604485" lon="12.812210070341324"><ele>1136.0</ele><time>2026-05-03T09:41:43Z</time></trkpt><trkpt lat="42.87357258988307" lon="12.812225613114942"><ele>1136.5</ele><time>2026-05-03T09:41:44Z</time></trkpt><trkpt lat="42.873661277630696" lon="12.812213791648867"><ele>1137.0</ele><time>2026-05-03T09:41:46Z</time></trkpt><trkpt lat="42.87372165417734" lon="12.81224992725613"><ele>1137.5</ele><time>2026-05-03T09:41:47Z</time></trkpt><trkpt lat="42.873779069894155" lon="12.812287352795499"><ele>1138.0</ele><time>2026-05-03T09:41:48Z</time></trkpt><trkpt lat="42.87385312472625" lon="12.812413180906361"><ele>1138.0</ele><time>2026-05-03T09:41:50Z</time></trkpt><trkpt lat="42.87390424435995" lon="12.812503378985097"><ele>1138.0</ele><time>2026-05-03T09:41:51Z</time></trkpt><trkpt lat="42.87395884592575" lon="12.812607624331187"><ele>1138.0</ele><time>2026-05-03T09:41:52Z</time></trkpt><trkpt lat="42.874014828275975" lon="12.812691832136606"><ele>1138.0</ele><time>2026-05-03T09:41:53Z</time></trkpt><trkpt lat="42.87408831815977" lon="12.812806361154669"><ele>1138.0</ele><time>2026-05-03T09:41:54Z</time></trkpt><trkpt lat="42.874167644495515" lon="12.812956328245761"><ele>1135.0</ele><time>2026-05-03T09:41:56Z</time></trkpt><trkpt lat="42.87422122819679" lon="12.813024644371682"><ele>1132.0</ele><time>2026-05-03T09:41:57Z</time></trkpt><trkpt lat="42.87430313886019" lon="12.813196490913386"><ele>1129.0</ele><time>2026-05-03T09:41:59Z</time></trkpt><trkpt lat="42.87434145425209" lon="12.813302240653229"><ele>1126.0</ele><time>2026-05-03T09:42:00Z</time></trkpt><trkpt lat="42.87440791426047" lon="12.813378225895502"><ele>1123.0</ele><time>2026-05-03T09:42:01Z</time></trkpt><trkpt lat="42.874469837061625" lon="12.813499711804596"><ele>1123.0</ele><time>2026-05-03T09:42:03Z</time></trkpt><trkpt lat="42.87433538080583" lon="12.813424225580997"><ele>1123.0</ele><time>2026-05-03T09:43:23Z</time></trkpt><trkpt lat="42.87428712414455" lon="12.813352971311021"><ele>1123.0</ele><time>2026-05-03T09:43:24Z</time></trkpt><trkpt lat="42.87422557260988" lon="12.813274377685984"><ele>1123.0</ele><time>2026-05-03T09:43:25Z</time></trkpt><trkpt lat="42.874206606181176" lon="12.813153114832815"><ele>1123.0</ele><time>2026-05-03T09:43:26Z</time></trkpt><trkpt lat="42.87417078787515" lon="12.813061573218919"><ele>1123.0</ele><time>2026-05-03T09:43:27Z</time></trkpt><trkpt lat="42.87409253072746" lon="12.812956718708659"><ele>1123.0</ele><time>2026-05-03T09:43:29Z</time></trkpt><trkpt lat="42.87404612809638" lon="12.812887286634693"><ele>1123.0</ele><time>2026-05-03T09:43:30Z</time></trkpt><trkpt lat="42.874002995170294" lon="12.812789965510207"><ele>1123.0</ele><time>2026-05-03T09:43:31Z</time></trkpt><trkpt lat="42.873951551091956" lon="12.812698396263192"><ele>1123.0</ele><time>2026-05-03T09:43:32Z</time></trkpt><trkpt lat="42.87388395285761" lon="12.812622663596766"><ele>1123.0</ele><time>2026-05-03T09:43:33Z</time></trkpt><trkpt lat="42.87384459115933" lon="12.812516047104946"><ele>1125.0</ele><time>2026-05-03T09:43:34Z</time></trkpt><trkpt lat="42.87380616039212" lon="12.81243702610018"><ele>1127.0</ele><time>2026-05-03T09:43:35Z</time></trkpt><trkpt lat="42.873763119419316" lon="12.812364133835368"><ele>1129.0</ele><time>2026-05-03T09:43:38Z</time></trkpt><trkpt lat="42.87368205012527" lon="12.812333902404246"><ele>1131.0</ele><time>2026-05-03T09:43:41Z</time></trkpt><trkpt lat="42.87359509095159" lon="12.81232912174146"><ele>1133.0</ele><time>2026-05-03T09:43:43Z</time></trkpt><trkpt lat="42.873506429642134" lon="12.812328848855447"><ele>1135.0</ele><time>2026-05-03T09:43:45Z</time></trkpt><trkpt lat="42.87341282698812" lon="12.812278147831796"><ele>1135.0</ele><time>2026-05-03T09:43:47Z</time></trkpt><trkpt lat="42.8733167330702" lon="12.812274577888363"><ele>1135.0</ele><time>2026-05-03T09:43:50Z</time></trkpt><trkpt lat="42.87324654659644" lon="12.812223217039838"><ele>1135.0</ele><time>2026-05-03T09:43:52Z</time></trkpt><trkpt lat="42.87316175529274" lon="12.812190210241235"><ele>1135.0</ele><time>2026-05-03T09:43:53Z</time></trkpt><trkpt lat="42.87308191607911" lon="12.81217742585155"><ele>1135.0</ele><time>2026-05-03T09:43:54Z</time></trkpt><trkpt lat="42.872961432949765" lon="12.812192926640995"><ele>1135.0</ele><time>2026-05-03T09:43:56Z</time></trkpt><trkpt lat="42.872882118806324" lon="12.812279778618429"><ele>1135.0</ele><time>2026-05-03T09:43:58Z</time></trkpt><trkpt lat="42.87282040942471" lon="12.812402239802898"><ele>1135.0</ele><time>2026-05-03T09:43:59Z</time></trkpt><trkpt lat="42.872771093234945" lon="12.81247843206817"><ele>1135.0</ele><time>2026-05-03T09:44:00Z</time></trkpt><trkpt lat="42.87268794665507" lon="12.812555412469203"><ele>1135.0</ele><time>2026-05-03T09:44:02Z</time></trkpt><trkpt lat="42.87261898761183" lon="12.81255578856047"><ele>1134.4</ele><time>2026-05-03T09:44:03Z</time></trkpt><trkpt lat="42.87251511484987" lon="12.81256228085118"><ele>1133.8</ele><time>2026-05-03T09:44:04Z</time></trkpt><trkpt lat="42.872416853404225" lon="12.812629377972307"><ele>1133.2</ele><time>2026-05-03T09:44:05Z</time></trkpt><trkpt lat="42.872319426401475" lon="12.812609275718176"><ele>1132.6</ele><time>2026-05-03T09:44:06Z</time></trkpt><trkpt lat="42.87221959561832" lon="12.812628993026607"><ele>1132.0</ele><time>2026-05-03T09:44:07Z</time></trkpt><trkpt lat="42.87210890753201" lon="12.812645445986147"><ele>1129.0</ele><time>2026-05-03T09:44:08Z</time></trkpt><trkpt lat="42.872006522181785" lon="12.812660035263113"><ele>1126.0</ele><time>2026-05-03T09:44:09Z</time></trkpt><trkpt lat="42.87190527740868" lon="12.812656645575325"><ele>1123.0</ele><time>2026-05-03T09:44:10Z</time></trkpt><trkpt lat="42.87182594088735" lon="12.812679297129755"><ele>1120.0</ele><time>2026-05-03T09:44:11Z</time></trkpt><trkpt lat="42.87175377390744" lon="12.812719672031921"><ele>1117.0</ele><time>2026-05-03T09:44:12Z</time></trkpt><trkpt lat="42.87166037903236" lon="12.812794886474666"><ele>1117.0</ele><time>2026-05-03T09:44:13Z</time></trkpt><trkpt lat="42.87158667643664" lon="12.812843485305008"><ele>1117.0</ele><time>2026-05-03T09:44:14Z</time></trkpt><trkpt lat="42.87149763404075" lon="12.812919190367166"><ele>1117.0</ele><time>2026-05-03T09:44:15Z</time></trkpt><trkpt lat="42.87140525316779" lon="12.812992169263278"><ele>1117.0</ele><time>2026-05-03T09:44:16Z</time></trkpt><trkpt lat="42.87131204098596" lon="12.813054980804749"><ele>1117.0</ele><time>2026-05-03T09:44:17Z</time></trkpt><trkpt lat="42.871219002019586" lon="12.813127780380817"><ele>1117.0</ele><time>2026-05-03T09:44:18Z</time></trkpt><trkpt lat="42.871133961041856" lon="12.813200682776356"><ele>1117.0</ele><time>2026-05-03T09:44:19Z</time></trkpt><trkpt lat="42.871060549488554" lon="12.813280612909955"><ele>1117.0</ele><time>2026-05-03T09:44:20Z</time></trkpt><trkpt lat="42.87096563223854" lon="12.813353742498087"><ele>1117.0</ele><time>2026-05-03T09:44:21Z</time></trkpt><trkpt lat="42.87085707136765" lon="12.813432595671197"><ele>1117.0</ele><time>2026-05-03T09:44:22Z</time></trkpt><trkpt lat="42.87077460941502" lon="12.813513943842414"><ele>1116.5</ele><time>2026-05-03T09:44:23Z</time></trkpt><trkpt lat="42.87071052145246" lon="12.81357662679023"><ele>1116.0</ele><time>2026-05-03T09:44:24Z</time></trkpt><trkpt lat="42.87064982098215" lon="12.813652992517309"><ele>1115.5</ele><time>2026-05-03T09:44:25Z</time></trkpt><trkpt lat="42.870586644370874" lon="12.81373589088536"><ele>1115.0</ele><time>2026-05-03T09:44:26Z</time></trkpt><trkpt lat="42.870524176059185" lon="12.813825475304299"><ele>1114.5</ele><time>2026-05-03T09:44:27Z</time></trkpt><trkpt lat="42.870467791757" lon="12.813920004594713"><ele>1114.0</ele><time>2026-05-03T09:44:28Z</time></trkpt><trkpt lat="42.87040290920554" lon="12.814024502283557"><ele>1114.0</ele><time>2026-05-03T09:44:29Z</time></trkpt><trkpt lat="42.87033981205357" lon="12.814136491511492"><ele>1114.0</ele><time>2026-05-03T09:44:30Z</time></trkpt><trkpt lat="42.8702750312524" lon="12.814253541154264"><ele>1114.0</ele><time>2026-05-03T09:44:31Z</time></trkpt><trkpt lat="42.87022458526717" lon="12.814368677612574"><ele>1114.0</ele><time>2026-05-03T09:44:32Z</time></trkpt><trkpt lat="42.87019187113911" lon="12.81447982437155"><ele>1114.0</ele><time>2026-05-03T09:44:33Z</time></trkpt><trkpt lat="42.870152344151286" lon="12.814590569438346"><ele>1116.4</ele><time>2026-05-03T09:44:34Z</time></trkpt><trkpt lat="42.87010171664416" lon="12.814703428764874"><ele>1118.8000000000002</ele><time>2026-05-03T09:44:35Z</time></trkpt><trkpt lat="42.870058959247416" lon="12.814799676755227"><ele>1121.1999999999998</ele><time>2026-05-03T09:44:36Z</time></trkpt><trkpt lat="42.87000723430736" lon="12.814896605698447"><ele>1123.6</ele><time>2026-05-03T09:44:37Z</time></trkpt><trkpt lat="42.86993489590587" lon="12.814979249432383"><ele>1126.0</ele><time>2026-05-03T09:44:38Z</time></trkpt><trkpt lat="42.869848557218056" lon="12.815080583227363"><ele>1123.8</ele><time>2026-05-03T09:44:39Z</time></trkpt><trkpt lat="42.86976967639935" lon="12.815179837399793"><ele>1121.6</ele><time>2026-05-03T09:44:40Z</time></trkpt><trkpt lat="42.8696926307389" lon="12.815255608773805"><ele>1119.4</ele><time>2026-05-03T09:44:41Z</time></trkpt><trkpt lat="42.86960024032631" lon="12.815299342882016"><ele>1117.2</ele><time>2026-05-03T09:44:42Z</time></trkpt><trkpt lat="42.869505745439774" lon="12.815349733834863"><ele>1115.0</ele><time>2026-05-03T09:44:43Z</time></trkpt><trkpt lat="42.86942637659908" lon="12.815414322702088"><ele>1115.0</ele><time>2026-05-03T09:44:44Z</time></trkpt><trkpt lat="42.869358168367924" lon="12.815496792723694"><ele>1115.0</ele><time>2026-05-03T09:44:45Z</time></trkpt><trkpt lat="42.869302799787945" lon="12.81559580934711"><ele>1115.0</ele><time>2026-05-03T09:44:46Z</time></trkpt><trkpt lat="42.86925692264898" lon="12.815690473431077"><ele>1115.0</ele><time>2026-05-03T09:44:47Z</time></trkpt><trkpt lat="42.869207333109244" lon="12.815759712349378"><ele>1115.0</ele><time>2026-05-03T09:44:48Z</time></trkpt><trkpt lat="42.86910198969337" lon="12.815878754251464"><ele>1114.3333333333335</ele><time>2026-05-03T09:44:50Z</time></trkpt><trkpt lat="42.86901795357682" lon="12.815909708147023"><ele>1113.6666666666667</ele><time>2026-05-03T09:44:51Z</time></trkpt><trkpt lat="42.86892847778591" lon="12.815920502044058"><ele>1113.0</ele><time>2026-05-03T09:44:52Z</time></trkpt><trkpt lat="42.86884597557727" lon="12.815936719582904"><ele>1112.3333333333333</ele><time>2026-05-03T09:44:53Z</time></trkpt><trkpt lat="42.86878210422848" lon="12.815983807210225"><ele>1111.6666666666665</ele><time>2026-05-03T09:44:54Z</time></trkpt><trkpt lat="42.8687378328785" lon="12.816053629143227"><ele>1111.0</ele><time>2026-05-03T09:44:55Z</time></trkpt><trkpt lat="42.86870207948028" lon="12.816125117052902"><ele>1111.0</ele><time>2026-05-03T09:44:56Z</time></trkpt><trkpt lat="42.8686616237192" lon="12.816203026675892"><ele>1111.0</ele><time>2026-05-03T09:44:57Z</time></trkpt><trkpt lat="42.86861710770929" lon="12.816276663297424"><ele>1111.0</ele><time>2026-05-03T09:44:58Z</time></trkpt><trkpt lat="42.8685413774425" lon="12.816382887958389"><ele>1111.0</ele><time>2026-05-03T09:45:00Z</time></trkpt><trkpt lat="42.86845419883804" lon="12.816437146948223"><ele>1111.0</ele><time>2026-05-03T09:45:02Z</time></trkpt><trkpt lat="42.86833554410136" lon="12.816472058230797"><ele>1112.5714285714287</ele><time>2026-05-03T09:45:04Z</time></trkpt><trkpt lat="42.8682728215683" lon="12.816485151731593"><ele>1114.1428571428573</ele><time>2026-05-03T09:45:05Z</time></trkpt><trkpt lat="42.86820441472927" lon="12.816488224371533"><ele>1115.7142857142858</ele><time>2026-05-03T09:45:06Z</time></trkpt><trkpt lat="42.86813404559575" lon="12.816497555253925"><ele>1117.2857142857142</ele><time>2026-05-03T09:45:07Z</time></trkpt><trkpt lat="42.86807142276153" lon="12.816511372357988"><ele>1118.8571428571427</ele><time>2026-05-03T09:45:08Z</time></trkpt><trkpt lat="42.86800234482706" lon="12.816537944443569"><ele>1120.4285714285713</ele><time>2026-05-03T09:45:09Z</time></trkpt><trkpt lat="42.86794127284129" lon="12.81657033918523"><ele>1122.0</ele><time>2026-05-03T09:45:10Z</time></trkpt><trkpt lat="42.86787042013112" lon="12.81661471994922"><ele>1122.0</ele><time>2026-05-03T09:45:11Z</time></trkpt><trkpt lat="42.86778848792945" lon="12.816645079268122"><ele>1122.0</ele><time>2026-05-03T09:45:12Z</time></trkpt><trkpt lat="42.867714718938295" lon="12.816675520611746"><ele>1122.0</ele><time>2026-05-03T09:45:13Z</time></trkpt><trkpt lat="42.86763787078593" lon="12.816694808084492"><ele>1122.0</ele><time>2026-05-03T09:45:14Z</time></trkpt><trkpt lat="42.86756499834506" lon="12.816688043431292"><ele>1122.0</ele><time>2026-05-03T09:45:15Z</time></trkpt><trkpt lat="42.86750324708179" lon="12.816651121002243"><ele>1122.0</ele><time>2026-05-03T09:45:16Z</time></trkpt><trkpt lat="42.86742326703428" lon="12.816585486767964"><ele>1121.6</ele><time>2026-05-03T09:45:17Z</time></trkpt><trkpt lat="42.86734986920233" lon="12.81650698483133"><ele>1121.2</ele><time>2026-05-03T09:45:18Z</time></trkpt><trkpt lat="42.86727830238724" lon="12.816433411360727"><ele>1120.8</ele><time>2026-05-03T09:45:19Z</time></trkpt><trkpt lat="42.86719839768515" lon="12.816373402909587"><ele>1120.4</ele><time>2026-05-03T09:45:20Z</time></trkpt><trkpt lat="42.867116950166455" lon="12.816329251447243"><ele>1120.0</ele><time>2026-05-03T09:45:21Z</time></trkpt><trkpt lat="42.86703488970792" lon="12.81628642909231"><ele>1120.0</ele><time>2026-05-03T09:45:22Z</time></trkpt><trkpt lat="42.86695456449849" lon="12.81623832568015"><ele>1120.0</ele><time>2026-05-03T09:45:23Z</time></trkpt><trkpt lat="42.866881555667135" lon="12.816203830067314"><ele>1120.0</ele><time>2026-05-03T09:45:24Z</time></trkpt><trkpt lat="42.86680670321917" lon="12.81616721654701"><ele>1120.0</ele><time>2026-05-03T09:45:25Z</time></trkpt><trkpt lat="42.866738097217045" lon="12.81612916837965"><ele>1120.0</ele><time>2026-05-03T09:45:26Z</time></trkpt><trkpt lat="42.8666628466644" lon="12.816093176294123"><ele>1120.0</ele><time>2026-05-03T09:45:27Z</time></trkpt><trkpt lat="42.86658367492955" lon="12.816060534947418"><ele>1117.7142857142858</ele><time>2026-05-03T09:45:28Z</time></trkpt><trkpt lat="42.86651018448266" lon="12.816033853620668"><ele>1115.4285714285716</ele><time>2026-05-03T09:45:29Z</time></trkpt><trkpt lat="42.866440083796874" lon="12.816008777330055"><ele>1113.142857142857</ele><time>2026-05-03T09:45:30Z</time></trkpt><trkpt lat="42.86637298701676" lon="12.815982802240558"><ele>1110.857142857143</ele><time>2026-05-03T09:45:31Z</time></trkpt><trkpt lat="42.86629910312715" lon="12.815955071456672"><ele>1108.5714285714287</ele><time>2026-05-03T09:45:32Z</time></trkpt><trkpt lat="42.86623884489393" lon="12.815912363630385"><ele>1106.2857142857142</ele><time>2026-05-03T09:45:33Z</time></trkpt><trkpt lat="42.86616739735526" lon="12.815890124009744"><ele>1104.0</ele><time>2026-05-03T09:45:34Z</time></trkpt><trkpt lat="42.86609209832347" lon="12.815880032216535"><ele>1106.2</ele><time>2026-05-03T09:45:35Z</time></trkpt><trkpt lat="42.86601240788252" lon="12.81587059334624"><ele>1108.4</ele><time>2026-05-03T09:45:36Z</time></trkpt><trkpt lat="42.86587522039688" lon="12.815916717418865"><ele>1110.6</ele><time>2026-05-03T09:45:38Z</time></trkpt><trkpt lat="42.86581219063654" lon="12.815874574433781"><ele>1112.8</ele><time>2026-05-03T09:45:40Z</time></trkpt><trkpt lat="42.865735440291424" lon="12.815808956916396"><ele>1115.0</ele><time>2026-05-03T09:45:43Z</time></trkpt><trkpt lat="42.86581898759897" lon="12.815904343952663"><ele>1115.0</ele><time>2026-05-03T09:45:48Z</time></trkpt><trkpt lat="42.86589490164467" lon="12.815950588525602"><ele>1115.0</ele><time>2026-05-03T09:45:49Z</time></trkpt><trkpt lat="42.86596911516714" lon="12.816003277387308"><ele>1115.0</ele><time>2026-05-03T09:45:50Z</time></trkpt><trkpt lat="42.86603731721684" lon="12.816074501262918"><ele>1115.0</ele><time>2026-05-03T09:45:51Z</time></trkpt><trkpt lat="42.86609969279878" lon="12.816139897884687"><ele>1115.0</ele><time>2026-05-03T09:45:52Z</time></trkpt><trkpt lat="42.866126126699996" lon="12.816238277270344"><ele>1115.0</ele><time>2026-05-03T09:45:53Z</time></trkpt><trkpt lat="42.86618510117036" lon="12.816370387501848"><ele>1113.1666666666667</ele><time>2026-05-03T09:45:55Z</time></trkpt><trkpt lat="42.86622334820684" lon="12.816457085129318"><ele>1111.3333333333335</ele><time>2026-05-03T09:45:56Z</time></trkpt><trkpt lat="42.86626598831157" lon="12.816545084424321"><ele>1109.5</ele><time>2026-05-03T09:45:57Z</time></trkpt><trkpt lat="42.866318799048905" lon="12.816623163732844"><ele>1107.6666666666667</ele><time>2026-05-03T09:45:58Z</time></trkpt><trkpt lat="42.866372425689406" lon="12.816684787546084"><ele>1105.8333333333333</ele><time>2026-05-03T09:45:59Z</time></trkpt><trkpt lat="42.8664215494548" lon="12.816788205304686"><ele>1104.0</ele><time>2026-05-03T09:46:00Z</time></trkpt><trkpt lat="42.86648957764459" lon="12.816849195998946"><ele>1102.8333333333333</ele><time>2026-05-03T09:46:01Z</time></trkpt><trkpt lat="42.86653957761547" lon="12.816914475723364"><ele>1101.6666666666667</ele><time>2026-05-03T09:46:02Z</time></trkpt><trkpt lat="42.86659532067321" lon="12.817006099935996"><ele>1100.5</ele><time>2026-05-03T09:46:03Z</time></trkpt><trkpt lat="42.866633833274896" lon="12.817095431427958"><ele>1099.3333333333335</ele><time>2026-05-03T09:46:04Z</time></trkpt><trkpt lat="42.86667741245461" lon="12.817197062627148"><ele>1098.1666666666667</ele><time>2026-05-03T09:46:05Z</time></trkpt><trkpt lat="42.8667316761582" lon="12.817298952662808"><ele>1097.0</ele><time>2026-05-03T09:46:06Z</time></trkpt><trkpt lat="42.86678641023225" lon="12.817390414646527"><ele>1097.0</ele><time>2026-05-03T09:46:07Z</time></trkpt><trkpt lat="42.86684879939454" lon="12.817487955252666"><ele>1097.0</ele><time>2026-05-03T09:46:08Z</time></trkpt><trkpt lat="42.86690921712773" lon="12.817580732896715"><ele>1097.0</ele><time>2026-05-03T09:46:09Z</time></trkpt><trkpt lat="42.86696917563494" lon="12.817669555540698"><ele>1097.0</ele><time>2026-05-03T09:46:10Z</time></trkpt><trkpt lat="42.86703550569794" lon="12.817763533092247"><ele>1097.0</ele><time>2026-05-03T09:46:11Z</time></trkpt><trkpt lat="42.867102500179854" lon="12.817856455724057"><ele>1094.1666666666667</ele><time>2026-05-03T09:46:12Z</time></trkpt><trkpt lat="42.867165018917476" lon="12.817939960847688"><ele>1091.3333333333335</ele><time>2026-05-03T09:46:13Z</time></trkpt><trkpt lat="42.867226598638894" lon="12.818018962681897"><ele>1088.5</ele><time>2026-05-03T09:46:14Z</time></trkpt><trkpt lat="42.86728080496463" lon="12.818082305523596"><ele>1085.6666666666667</ele><time>2026-05-03T09:46:15Z</time></trkpt><trkpt lat="42.86733246860237" lon="12.81814051407185"><ele>1082.8333333333333</ele><time>2026-05-03T09:46:16Z</time></trkpt><trkpt lat="42.86738340689922" lon="12.818197036254947"><ele>1080.0</ele><time>2026-05-03T09:46:17Z</time></trkpt><trkpt lat="42.86747982889172" lon="12.818298127803782"><ele>1080.0</ele><time>2026-05-03T09:46:19Z</time></trkpt><trkpt lat="42.867534512527264" lon="12.818350301215455"><ele>1080.0</ele><time>2026-05-03T09:46:20Z</time></trkpt><trkpt lat="42.86762458818074" lon="12.818442906927999"><ele>1080.0</ele><time>2026-05-03T09:46:22Z</time></trkpt><trkpt lat="42.867705195418154" lon="12.818451187440196"><ele>1080.0</ele><time>2026-05-03T09:46:26Z</time></trkpt><trkpt lat="42.86777410779249" lon="12.818478512092693"><ele>1080.0</ele><time>2026-05-03T09:46:56Z</time></trkpt><trkpt lat="42.867852662442154" lon="12.818447919201958"><ele>1080.0</ele><time>2026-05-03T09:46:58Z</time></trkpt><trkpt lat="42.86796590506515" lon="12.81841459630597"><ele>1079.6666666666667</ele><time>2026-05-03T09:47:00Z</time></trkpt><trkpt lat="42.86803784282304" lon="12.818399491406506"><ele>1079.3333333333333</ele><time>2026-05-03T09:47:01Z</time></trkpt><trkpt lat="42.86812539243354" lon="12.818432930361382"><ele>1079.0</ele><time>2026-05-03T09:47:02Z</time></trkpt><trkpt lat="42.86819888868169" lon="12.818422309154398"><ele>1078.6666666666665</ele><time>2026-05-03T09:47:03Z</time></trkpt><trkpt lat="42.868271740195986" lon="12.818415677665751"><ele>1078.3333333333333</ele><time>2026-05-03T09:47:04Z</time></trkpt><trkpt lat="42.868347923652415" lon="12.818415473119657"><ele>1078.0</ele><time>2026-05-03T09:47:05Z</time></trkpt><trkpt lat="42.86842050616673" lon="12.818420159993847"><ele>1078.0</ele><time>2026-05-03T09:47:06Z</time></trkpt><trkpt lat="42.86849312079491" lon="12.818429030697025"><ele>1078.0</ele><time>2026-05-03T09:47:07Z</time></trkpt><trkpt lat="42.86856840700161" lon="12.818443865459576"><ele>1078.0</ele><time>2026-05-03T09:47:08Z</time></trkpt><trkpt lat="42.868643043231685" lon="12.818472388809122"><ele>1078.0</ele><time>2026-05-03T09:47:09Z</time></trkpt><trkpt lat="42.86871895125596" lon="12.818500956068757"><ele>1078.0</ele><time>2026-05-03T09:47:10Z</time></trkpt><trkpt lat="42.868784640617754" lon="12.81852244262682"><ele>1078.0</ele><time>2026-05-03T09:47:11Z</time></trkpt><trkpt lat="42.86885339533785" lon="12.818544931874257"><ele>1078.0</ele><time>2026-05-03T09:47:12Z</time></trkpt><trkpt lat="42.86892116505883" lon="12.81856709890104"><ele>1077.8333333333333</ele><time>2026-05-03T09:47:13Z</time></trkpt><trkpt lat="42.86899621750591" lon="12.818591648076746"><ele>1077.6666666666665</ele><time>2026-05-03T09:47:14Z</time></trkpt><trkpt lat="42.869071534519435" lon="12.818616283775567"><ele>1077.5</ele><time>2026-05-03T09:47:15Z</time></trkpt><trkpt lat="42.869145749111865" lon="12.818641202712508"><ele>1077.3333333333333</ele><time>2026-05-03T09:47:16Z</time></trkpt><trkpt lat="42.86922268178547" lon="12.818667707536884"><ele>1077.1666666666667</ele><time>2026-05-03T09:47:17Z</time></trkpt><trkpt lat="42.86930330836757" lon="12.818695537770282"><ele>1077.0</ele><time>2026-05-03T09:47:18Z</time></trkpt><trkpt lat="42.869381007196885" lon="12.818723338294133"><ele>1077.0</ele><time>2026-05-03T09:47:19Z</time></trkpt><trkpt lat="42.86946260000186" lon="12.81875431966437"><ele>1077.0</ele><time>2026-05-03T09:47:20Z</time></trkpt><trkpt lat="42.869544788080695" lon="12.818787570219094"><ele>1077.0</ele><time>2026-05-03T09:47:21Z</time></trkpt><trkpt lat="42.869631118713215" lon="12.818825920191422"><ele>1077.0</ele><time>2026-05-03T09:47:22Z</time></trkpt><trkpt lat="42.86972400219463" lon="12.81887160767675"><ele>1077.0</ele><time>2026-05-03T09:47:23Z</time></trkpt><trkpt lat="42.869819890234055" lon="12.818921790200148"><ele>1077.0</ele><time>2026-05-03T09:47:24Z</time></trkpt><trkpt lat="42.86991286095277" lon="12.818975335840165"><ele>1077.0</ele><time>2026-05-03T09:47:25Z</time></trkpt><trkpt lat="42.8700157199529" lon="12.81903516641557"><ele>1077.0</ele><time>2026-05-03T09:47:26Z</time></trkpt><trkpt lat="42.87010344294342" lon="12.819086192693694"><ele>1077.0</ele><time>2026-05-03T09:47:27Z</time></trkpt><trkpt lat="42.87018868255365" lon="12.819133018738567"><ele>1077.0</ele><time>2026-05-03T09:47:28Z</time></trkpt><trkpt lat="42.87029106919166" lon="12.819183749948833"><ele>1077.4</ele><time>2026-05-03T09:47:29Z</time></trkpt><trkpt lat="42.870396371740355" lon="12.81923105215431"><ele>1077.8000000000002</ele><time>2026-05-03T09:47:30Z</time></trkpt><trkpt lat="42.870501390099065" lon="12.819276505821474"><ele>1078.2</ele><time>2026-05-03T09:47:31Z</time></trkpt><trkpt lat="42.87060613207332" lon="12.819304492871376"><ele>1078.6000000000001</ele><time>2026-05-03T09:47:32Z</time></trkpt><trkpt lat="42.87070323450377" lon="12.819348619157083"><ele>1079.0</ele><time>2026-05-03T09:47:33Z</time></trkpt><trkpt lat="42.870800708952046" lon="12.819390302749126"><ele>1079.25</ele><time>2026-05-03T09:47:34Z</time></trkpt><trkpt lat="42.870903602898174" lon="12.81943104077093"><ele>1079.5</ele><time>2026-05-03T09:47:35Z</time></trkpt><trkpt lat="42.871009697406386" lon="12.819480889169675"><ele>1079.75</ele><time>2026-05-03T09:47:36Z</time></trkpt><trkpt lat="42.87112141392504" lon="12.819539052135303"><ele>1080.0</ele><time>2026-05-03T09:47:37Z</time></trkpt><trkpt lat="42.871227602806044" lon="12.819610277863829"><ele>1080.0</ele><time>2026-05-03T09:47:38Z</time></trkpt><trkpt lat="42.871331142095045" lon="12.819679043097732"><ele>1080.0</ele><time>2026-05-03T09:47:39Z</time></trkpt><trkpt lat="42.87143818337831" lon="12.819744723376887"><ele>1080.0</ele><time>2026-05-03T09:47:40Z</time></trkpt><trkpt lat="42.87154747281355" lon="12.819795494413308"><ele>1080.0</ele><time>2026-05-03T09:47:41Z</time></trkpt><trkpt lat="42.87167670539566" lon="12.819840819507721"><ele>1079.0</ele><time>2026-05-03T09:47:42Z</time></trkpt><trkpt lat="42.87181230305593" lon="12.819844275499888"><ele>1078.0</ele><time>2026-05-03T09:47:43Z</time></trkpt><trkpt lat="42.871936042993944" lon="12.819834366117854"><ele>1077.0</ele><time>2026-05-03T09:47:44Z</time></trkpt><trkpt lat="42.87205837860582" lon="12.819822613172963"><ele>1076.0</ele><time>2026-05-03T09:47:45Z</time></trkpt><trkpt lat="42.872181704006536" lon="12.819819787067159"><ele>1076.0</ele><time>2026-05-03T09:47:46Z</time></trkpt><trkpt lat="42.87230758903804" lon="12.819815310372736"><ele>1076.0</ele><time>2026-05-03T09:47:47Z</time></trkpt><trkpt lat="42.8724365543151" lon="12.819807456431805"><ele>1076.0</ele><time>2026-05-03T09:47:48Z</time></trkpt><trkpt lat="42.87256628737187" lon="12.819792150268915"><ele>1076.0</ele><time>2026-05-03T09:47:49Z</time></trkpt><trkpt lat="42.872699278401065" lon="12.819789171053415"><ele>1075.25</ele><time>2026-05-03T09:47:50Z</time></trkpt><trkpt lat="42.872830554210964" lon="12.819766765166113"><ele>1074.5</ele><time>2026-05-03T09:47:51Z</time></trkpt><trkpt lat="42.872957530611906" lon="12.819747675654446"><ele>1073.75</ele><time>2026-05-03T09:47:52Z</time></trkpt><trkpt lat="42.873079305848165" lon="12.819760977560176"><ele>1073.0</ele><time>2026-05-03T09:47:53Z</time></trkpt><trkpt lat="42.87320455520793" lon="12.819810077402254"><ele>1073.0</ele><time>2026-05-03T09:47:54Z</time></trkpt><trkpt lat="42.87333558037604" lon="12.819867248843035"><ele>1073.0</ele><time>2026-05-03T09:47:55Z</time></trkpt><trkpt lat="42.87345150710528" lon="12.819979901452077"><ele>1073.0</ele><time>2026-05-03T09:47:56Z</time></trkpt><trkpt lat="42.87356542836612" lon="12.820098414442773"><ele>1073.0</ele><time>2026-05-03T09:47:57Z</time></trkpt><trkpt lat="42.87366578597978" lon="12.820234399042404"><ele>1070.75</ele><time>2026-05-03T09:47:58Z</time></trkpt><trkpt lat="42.87377013265489" lon="12.820360705142736"><ele>1068.5</ele><time>2026-05-03T09:47:59Z</time></trkpt><trkpt lat="42.87388783753824" lon="12.820459909533888"><ele>1066.25</ele><time>2026-05-03T09:48:00Z</time></trkpt><trkpt lat="42.87399203938776" lon="12.820579484654898"><ele>1064.0</ele><time>2026-05-03T09:48:01Z</time></trkpt><trkpt lat="42.87411491314751" lon="12.82066130075893"><ele>1064.0</ele><time>2026-05-03T09:48:02Z</time></trkpt><trkpt lat="42.87424707144512" lon="12.820733227522176"><ele>1064.0</ele><time>2026-05-03T09:48:03Z</time></trkpt><trkpt lat="42.87437127040844" lon="12.820793731535643"><ele>1064.0</ele><time>2026-05-03T09:48:04Z</time></trkpt><trkpt lat="42.87449970966745" lon="12.82085356893206"><ele>1064.0</ele><time>2026-05-03T09:48:05Z</time></trkpt><trkpt lat="42.87462846149076" lon="12.820907288897045"><ele>1064.75</ele><time>2026-05-03T09:48:06Z</time></trkpt><trkpt lat="42.8747595528371" lon="12.820938365240304"><ele>1065.5</ele><time>2026-05-03T09:48:07Z</time></trkpt><trkpt lat="42.87488698579838" lon="12.82098742912478"><ele>1066.25</ele><time>2026-05-03T09:48:08Z</time></trkpt><trkpt lat="42.87501488577976" lon="12.821039199067616"><ele>1067.0</ele><time>2026-05-03T09:48:09Z</time></trkpt><trkpt lat="42.87514162136304" lon="12.821091969509677"><ele>1062.5</ele><time>2026-05-03T09:48:10Z</time></trkpt><trkpt lat="42.87526875779688" lon="12.821142182464023"><ele>1058.0</ele><time>2026-05-03T09:48:11Z</time></trkpt><trkpt lat="42.875394887287854" lon="12.821196443817696"><ele>1053.5</ele><time>2026-05-03T09:48:12Z</time></trkpt><trkpt lat="42.87552341733316" lon="12.821248059258913"><ele>1049.0</ele><time>2026-05-03T09:48:13Z</time></trkpt><trkpt lat="42.87564202986708" lon="12.821331372264522"><ele>1049.0</ele><time>2026-05-03T09:48:14Z</time></trkpt><trkpt lat="42.875769395672506" lon="12.821404985298908"><ele>1049.0</ele><time>2026-05-03T09:48:15Z</time></trkpt><trkpt lat="42.875900231707185" lon="12.821461449546769"><ele>1049.0</ele><time>2026-05-03T09:48:16Z</time></trkpt><trkpt lat="42.876030631160226" lon="12.82150769460163"><ele>1049.0</ele><time>2026-05-03T09:48:17Z</time></trkpt><trkpt lat="42.876173407185924" lon="12.82155287269961"><ele>1046.3333333333335</ele><time>2026-05-03T09:48:18Z</time></trkpt><trkpt lat="42.87634337242596" lon="12.821605861832884"><ele>1043.6666666666667</ele><time>2026-05-03T09:48:19Z</time></trkpt><trkpt lat="42.87652556313126" lon="12.82163961527488"><ele>1041.0</ele><time>2026-05-03T09:48:20Z</time></trkpt><trkpt lat="42.87669739205627" lon="12.821694759330807"><ele>1039.0</ele><time>2026-05-03T09:48:21Z</time></trkpt><trkpt lat="42.876873708764755" lon="12.821751528657765"><ele>1037.0</ele><time>2026-05-03T09:48:22Z</time></trkpt><trkpt lat="42.877041336093605" lon="12.821782021991794"><ele>1035.0</ele><time>2026-05-03T09:48:23Z</time></trkpt><trkpt lat="42.87721269790098" lon="12.82180250893388"><ele>1035.0</ele><time>2026-05-03T09:48:24Z</time></trkpt><trkpt lat="42.877376738174384" lon="12.821801813835012"><ele>1035.0</ele><time>2026-05-03T09:48:25Z</time></trkpt><trkpt lat="42.87753250639059" lon="12.821828954823587"><ele>1035.0</ele><time>2026-05-03T09:48:26Z</time></trkpt><trkpt lat="42.8776787555727" lon="12.821850014200658"><ele>1031.75</ele><time>2026-05-03T09:48:27Z</time></trkpt><trkpt lat="42.8778226635716" lon="12.821864239122585"><ele>1028.5</ele><time>2026-05-03T09:48:28Z</time></trkpt><trkpt lat="42.877970669585785" lon="12.821866739157533"><ele>1025.25</ele><time>2026-05-03T09:48:29Z</time></trkpt><trkpt lat="42.8781012171334" lon="12.821819532065549"><ele>1022.0</ele><time>2026-05-03T09:48:30Z</time></trkpt><trkpt lat="42.87822520478475" lon="12.821731035922289"><ele>1021.8</ele><time>2026-05-03T09:48:31Z</time></trkpt><trkpt lat="42.87834536153448" lon="12.8216591050311"><ele>1021.6</ele><time>2026-05-03T09:48:32Z</time></trkpt><trkpt lat="42.87844655491282" lon="12.821588458379935"><ele>1021.3999999999999</ele><time>2026-05-03T09:48:33Z</time></trkpt><trkpt lat="42.87853190192536" lon="12.82154610741569"><ele>1021.1999999999999</ele><time>2026-05-03T09:48:34Z</time></trkpt><trkpt lat="42.87861124926865" lon="12.821558240274015"><ele>1021.0</ele><time>2026-05-03T09:48:35Z</time></trkpt><trkpt lat="42.87869979450575" lon="12.8216088035064"><ele>1021.0</ele><time>2026-05-03T09:48:36Z</time></trkpt><trkpt lat="42.87875310399973" lon="12.821725798194294"><ele>1020.9999999999999</ele><time>2026-05-03T09:48:37Z</time></trkpt><trkpt lat="42.87882761019271" lon="12.821834359828362"><ele>1020.9999999999999</ele><time>2026-05-03T09:48:39Z</time></trkpt><trkpt lat="42.878885534751696" lon="12.821882663048184"><ele>1021.0</ele><time>2026-05-03T09:48:43Z</time></trkpt><trkpt lat="42.87893951330938" lon="12.821950010110683"><ele>1021.0</ele><time>2026-05-03T09:48:47Z</time></trkpt><trkpt lat="42.87903718538736" lon="12.821818875225958"><ele>1018.25</ele><time>2026-05-03T09:49:00Z</time></trkpt><trkpt lat="42.87918656606668" lon="12.82183384761244"><ele>1015.5</ele><time>2026-05-03T09:49:13Z</time></trkpt><trkpt lat="42.87930290774939" lon="12.821839616617021"><ele>1012.75</ele><time>2026-05-03T09:49:15Z</time></trkpt><trkpt lat="42.87940134037632" lon="12.82185943130771"><ele>1010.0</ele><time>2026-05-03T09:49:16Z</time></trkpt><trkpt lat="42.87950765964339" lon="12.821864786111616"><ele>1009.0000000000001</ele><time>2026-05-03T09:49:18Z</time></trkpt><trkpt lat="42.87958825729798" lon="12.821871650694321"><ele>1008.0</ele><time>2026-05-03T09:49:19Z</time></trkpt><trkpt lat="42.879662588590634" lon="12.821868860647156"><ele>1007.0</ele><time>2026-05-03T09:49:20Z</time></trkpt><trkpt lat="42.879735130132985" lon="12.82185205975056"><ele>1006.0</ele><time>2026-05-03T09:49:21Z</time></trkpt><trkpt lat="42.87981434817906" lon="12.82181543651826"><ele>1005.0000000000001</ele><time>2026-05-03T09:49:22Z</time></trkpt><trkpt lat="42.879910908480966" lon="12.821845506687076"><ele>1004.0</ele><time>2026-05-03T09:49:23Z</time></trkpt><trkpt lat="42.87999589058383" lon="12.821844116822197"><ele>1004.0</ele><time>2026-05-03T09:49:24Z</time></trkpt><trkpt lat="42.880090332683345" lon="12.821826476727969"><ele>1004.0000000000001</ele><time>2026-05-03T09:49:25Z</time></trkpt><trkpt lat="42.88017737995293" lon="12.82183401598913"><ele>1004.0000000000001</ele><time>2026-05-03T09:49:26Z</time></trkpt><trkpt lat="42.88027552891719" lon="12.821858279862838"><ele>1004.0</ele><time>2026-05-03T09:49:27Z</time></trkpt><trkpt lat="42.880368388390316" lon="12.821876383744783"><ele>1004.0</ele><time>2026-05-03T09:49:28Z</time></trkpt><trkpt lat="42.88047356631431" lon="12.821897535676442"><ele>1003.4000000000001</ele><time>2026-05-03T09:49:29Z</time></trkpt><trkpt lat="42.88059248006892" lon="12.821899822849623"><ele>1002.8000000000001</ele><time>2026-05-03T09:49:30Z</time></trkpt><trkpt lat="42.88068481882905" lon="12.821920571135882"><ele>1002.1999999999999</ele><time>2026-05-03T09:49:31Z</time></trkpt><trkpt lat="42.880768535597554" lon="12.821913872302982"><ele>1001.5999999999999</ele><time>2026-05-03T09:49:32Z</time></trkpt><trkpt lat="42.88086482907658" lon="12.821897787204266"><ele>1001.0</ele><time>2026-05-03T09:49:33Z</time></trkpt><trkpt lat="42.88092846473183" lon="12.821881092608075"><ele>1001.8</ele><time>2026-05-03T09:49:34Z</time></trkpt><trkpt lat="42.881006388285606" lon="12.821823286276993"><ele>1002.5999999999999</ele><time>2026-05-03T09:49:35Z</time></trkpt><trkpt lat="42.881081258925306" lon="12.821772160564764"><ele>1003.4</ele><time>2026-05-03T09:49:36Z</time></trkpt><trkpt lat="42.881223121614525" lon="12.821669927295964"><ele>1004.2</ele><time>2026-05-03T09:49:38Z</time></trkpt><trkpt lat="42.88130009827051" lon="12.821625053112198"><ele>1005.0</ele><time>2026-05-03T09:49:39Z</time></trkpt><trkpt lat="42.88138865088015" lon="12.821593509262788"><ele>1010.5</ele><time>2026-05-03T09:49:40Z</time></trkpt><trkpt lat="42.88147773913511" lon="12.821545522258031"><ele>1016.0</ele><time>2026-05-03T09:49:41Z</time></trkpt><trkpt lat="42.881549498703606" lon="12.821511228875542"><ele>1021.5</ele><time>2026-05-03T09:49:42Z</time></trkpt><trkpt lat="42.881615269267456" lon="12.82148467545679"><ele>1027.0</ele><time>2026-05-03T09:49:43Z</time></trkpt><trkpt lat="42.88168154069498" lon="12.82143614585584"><ele>1032.5</ele><time>2026-05-03T09:49:44Z</time></trkpt><trkpt lat="42.88174812318873" lon="12.821363572969338"><ele>1038.0</ele><time>2026-05-03T09:49:45Z</time></trkpt><trkpt lat="42.88182866711896" lon="12.821306127381847"><ele>1039.8</ele><time>2026-05-03T09:49:46Z</time></trkpt><trkpt lat="42.88189198480449" lon="12.821259642586256"><ele>1041.6</ele><time>2026-05-03T09:49:47Z</time></trkpt><trkpt lat="42.88191844003823" lon="12.821169543712074"><ele>1043.4</ele><time>2026-05-03T09:49:48Z</time></trkpt><trkpt lat="42.88199939264129" lon="12.82103146805552"><ele>1045.2</ele><time>2026-05-03T09:49:51Z</time></trkpt><trkpt lat="42.88210102530331" lon="12.821002018267706"><ele>1047.0</ele><time>2026-05-03T09:49:53Z</time></trkpt><trkpt lat="42.88221736958559" lon="12.82104941476339"><ele>1047.0</ele><time>2026-05-03T09:49:55Z</time></trkpt><trkpt lat="42.88230130018091" lon="12.821131751108371"><ele>1047.0</ele><time>2026-05-03T09:49:56Z</time></trkpt><trkpt lat="42.88237491794215" lon="12.821183645825341"><ele>1047.0</ele><time>2026-05-03T09:49:57Z</time></trkpt><trkpt lat="42.88246175303095" lon="12.82128677151639"><ele>1047.0</ele><time>2026-05-03T09:49:58Z</time></trkpt><trkpt lat="42.882573533183006" lon="12.821359446507525"><ele>1047.0</ele><time>2026-05-03T09:49:59Z</time></trkpt><trkpt lat="42.88268927166507" lon="12.821442484569728"><ele>1052.6</ele><time>2026-05-03T09:50:00Z</time></trkpt><trkpt lat="42.882772843777744" lon="12.82151718828387"><ele>1058.2</ele><time>2026-05-03T09:50:01Z</time></trkpt><trkpt lat="42.88285754435963" lon="12.821590673476253"><ele>1063.8</ele><time>2026-05-03T09:50:02Z</time></trkpt><trkpt lat="42.882941532231726" lon="12.821640898368349"><ele>1069.4</ele><time>2026-05-03T09:50:03Z</time></trkpt><trkpt lat="42.88302976097784" lon="12.821664538733717"><ele>1075.0</ele><time>2026-05-03T09:50:04Z</time></trkpt><trkpt lat="42.88311331594152" lon="12.821702761160267"><ele>1075.0</ele><time>2026-05-03T09:50:05Z</time></trkpt><trkpt lat="42.88320753802702" lon="12.82175493888775"><ele>1075.0</ele><time>2026-05-03T09:50:06Z</time></trkpt><trkpt lat="42.883313348766094" lon="12.82181226169524"><ele>1075.0</ele><time>2026-05-03T09:50:07Z</time></trkpt><trkpt lat="42.88342335352914" lon="12.821875077527919"><ele>1075.0</ele><time>2026-05-03T09:50:08Z</time></trkpt><trkpt lat="42.88353400651967" lon="12.82192612037737"><ele>1070.5</ele><time>2026-05-03T09:50:09Z</time></trkpt><trkpt lat="42.8836454237587" lon="12.821988104975677"><ele>1066.0</ele><time>2026-05-03T09:50:10Z</time></trkpt><trkpt lat="42.88376408445335" lon="12.822037980842936"><ele>1061.5</ele><time>2026-05-03T09:50:11Z</time></trkpt><trkpt lat="42.88389367075528" lon="12.822074106332732"><ele>1057.0</ele><time>2026-05-03T09:50:12Z</time></trkpt><trkpt lat="42.88400697261976" lon="12.822103844049208"><ele>1057.0</ele><time>2026-05-03T09:50:13Z</time></trkpt><trkpt lat="42.8841074532751" lon="12.822139618115513"><ele>1057.0</ele><time>2026-05-03T09:50:14Z</time></trkpt><trkpt lat="42.88421006280809" lon="12.822150180082712"><ele>1057.0</ele><time>2026-05-03T09:50:15Z</time></trkpt><trkpt lat="42.884310524109395" lon="12.822156273770348"><ele>1057.0</ele><time>2026-05-03T09:50:16Z</time></trkpt><trkpt lat="42.884416014118585" lon="12.822151324354687"><ele>1057.0</ele><time>2026-05-03T09:50:17Z</time></trkpt><trkpt lat="42.88452175427347" lon="12.822140169142314"><ele>1058.1666666666665</ele><time>2026-05-03T09:50:18Z</time></trkpt><trkpt lat="42.884611096503576" lon="12.822147539764238"><ele>1059.3333333333333</ele><time>2026-05-03T09:50:19Z</time></trkpt><trkpt lat="42.88467985809222" lon="12.822143386378691"><ele>1060.5</ele><time>2026-05-03T09:50:20Z</time></trkpt><trkpt lat="42.88474889470275" lon="12.82211133984905"><ele>1061.6666666666667</ele><time>2026-05-03T09:50:21Z</time></trkpt><trkpt lat="42.88481099334842" lon="12.82206778208357"><ele>1062.8333333333335</ele><time>2026-05-03T09:50:22Z</time></trkpt><trkpt lat="42.88487795598213" lon="12.822034876809644"><ele>1064.0</ele><time>2026-05-03T09:50:23Z</time></trkpt><trkpt lat="42.884961940711236" lon="12.822038395867251"><ele>1064.0</ele><time>2026-05-03T09:50:24Z</time></trkpt><trkpt lat="42.88503682688346" lon="12.822054712234747"><ele>1064.0</ele><time>2026-05-03T09:50:25Z</time></trkpt><trkpt lat="42.88510081833553" lon="12.822083323532732"><ele>1064.0</ele><time>2026-05-03T09:50:26Z</time></trkpt><trkpt lat="42.88518010341422" lon="12.822087353176626"><ele>1064.0</ele><time>2026-05-03T09:50:27Z</time></trkpt><trkpt lat="42.88526932128806" lon="12.822102846495284"><ele>1064.0</ele><time>2026-05-03T09:50:28Z</time></trkpt><trkpt lat="42.88536514748469" lon="12.822173266134918"><ele>1064.0</ele><time>2026-05-03T09:50:29Z</time></trkpt><trkpt lat="42.88546009429468" lon="12.822178443484596"><ele>1064.4</ele><time>2026-05-03T09:50:30Z</time></trkpt><trkpt lat="42.88556674516987" lon="12.822182459437625"><ele>1064.8000000000002</ele><time>2026-05-03T09:50:31Z</time></trkpt><trkpt lat="42.88565300446468" lon="12.822151616539902"><ele>1065.1999999999998</ele><time>2026-05-03T09:50:32Z</time></trkpt><trkpt lat="42.885728676069874" lon="12.822113983341744"><ele>1065.6</ele><time>2026-05-03T09:50:33Z</time></trkpt><trkpt lat="42.885809233073076" lon="12.822051320054797"><ele>1066.0</ele><time>2026-05-03T09:50:34Z</time></trkpt><trkpt lat="42.88588107439554" lon="12.821987577300845"><ele>1064.5</ele><time>2026-05-03T09:50:35Z</time></trkpt><trkpt lat="42.88595361341669" lon="12.821922019394174"><ele>1063.0</ele><time>2026-05-03T09:50:36Z</time></trkpt><trkpt lat="42.886015816464436" lon="12.821864087395058"><ele>1061.5</ele><time>2026-05-03T09:50:37Z</time></trkpt><trkpt lat="42.88606919769536" lon="12.821782807262892"><ele>1060.0</ele><time>2026-05-03T09:50:38Z</time></trkpt><trkpt lat="42.886111067344345" lon="12.821695534520707"><ele>1058.5</ele><time>2026-05-03T09:50:39Z</time></trkpt><trkpt lat="42.88615493594271" lon="12.821589633937881"><ele>1057.0</ele><time>2026-05-03T09:50:40Z</time></trkpt><trkpt lat="42.88620026702042" lon="12.821511606209635"><ele>1064.0</ele><time>2026-05-03T09:50:41Z</time></trkpt><trkpt lat="42.88627258879749" lon="12.821385406695665"><ele>1071.0</ele><time>2026-05-03T09:50:43Z</time></trkpt><trkpt lat="42.88636244021596" lon="12.821311666012514"><ele>1078.0</ele><time>2026-05-03T09:50:46Z</time></trkpt><trkpt lat="42.88647765974668" lon="12.821365631874437"><ele>1085.0</ele><time>2026-05-03T09:50:48Z</time></trkpt><trkpt lat="42.88656839735652" lon="12.821421383508298"><ele>1092.0</ele><time>2026-05-03T09:50:49Z</time></trkpt><trkpt lat="42.88664692026205" lon="12.821469688477704"><ele>1092.0</ele><time>2026-05-03T09:50:50Z</time></trkpt><trkpt lat="42.88673985114266" lon="12.821485009680996"><ele>1092.0</ele><time>2026-05-03T09:50:51Z</time></trkpt><trkpt lat="42.88680634475306" lon="12.821486997904753"><ele>1092.0</ele><time>2026-05-03T09:50:52Z</time></trkpt><trkpt lat="42.88694343789447" lon="12.821544392284485"><ele>1092.0</ele><time>2026-05-03T09:50:54Z</time></trkpt><trkpt lat="42.887035910022455" lon="12.821588697105168"><ele>1092.0</ele><time>2026-05-03T09:50:55Z</time></trkpt><trkpt lat="42.8871326447632" lon="12.821611378210038"><ele>1091.8</ele><time>2026-05-03T09:50:56Z</time></trkpt><trkpt lat="42.88719744152239" lon="12.821594694685503"><ele>1091.6</ele><time>2026-05-03T09:50:57Z</time></trkpt><trkpt lat="42.88731120765077" lon="12.821585111734874"><ele>1091.3999999999999</ele><time>2026-05-03T09:50:58Z</time></trkpt><trkpt lat="42.88740898554262" lon="12.821540482309892"><ele>1091.2</ele><time>2026-05-03T09:50:59Z</time></trkpt><trkpt lat="42.887477377323634" lon="12.821471752191979"><ele>1091.0</ele><time>2026-05-03T09:51:00Z</time></trkpt><trkpt lat="42.88759871452996" lon="12.821397623725607"><ele>1089.3999999999999</ele><time>2026-05-03T09:51:02Z</time></trkpt><trkpt lat="42.88766972505219" lon="12.82136280809047"><ele>1087.8</ele><time>2026-05-03T09:51:03Z</time></trkpt><trkpt lat="42.88776210069944" lon="12.821280709942897"><ele>1086.1999999999998</ele><time>2026-05-03T09:51:04Z</time></trkpt><trkpt lat="42.88788913129942" lon="12.821304542893857"><ele>1084.6</ele><time>2026-05-03T09:51:06Z</time></trkpt><trkpt lat="42.887976267162806" lon="12.821244400779642"><ele>1083.0</ele><time>2026-05-03T09:51:07Z</time></trkpt><trkpt lat="42.888052438475164" lon="12.82117779094793"><ele>1083.0</ele><time>2026-05-03T09:51:08Z</time></trkpt><trkpt lat="42.8881284835505" lon="12.821087771776327"><ele>1083.0</ele><time>2026-05-03T09:51:09Z</time></trkpt><trkpt lat="42.88821233135716" lon="12.821008201194541"><ele>1083.0</ele><time>2026-05-03T09:51:10Z</time></trkpt><trkpt lat="42.88831971235234" lon="12.820917257815108"><ele>1083.0</ele><time>2026-05-03T09:51:11Z</time></trkpt><trkpt lat="42.888414105665895" lon="12.820851745271693"><ele>1083.0</ele><time>2026-05-03T09:51:12Z</time></trkpt><trkpt lat="42.88850247692782" lon="12.820798993094765"><ele>1089.5</ele><time>2026-05-03T09:51:13Z</time></trkpt><trkpt lat="42.88857778932192" lon="12.820795245859497"><ele>1096.0</ele><time>2026-05-03T09:51:14Z</time></trkpt><trkpt lat="42.8886504128779" lon="12.820757165431065"><ele>1102.5</ele><time>2026-05-03T09:51:15Z</time></trkpt><trkpt lat="42.888721054309606" lon="12.820720581203249"><ele>1109.0</ele><time>2026-05-03T09:51:16Z</time></trkpt><trkpt lat="42.88880987202485" lon="12.820677328112778"><ele>1115.5</ele><time>2026-05-03T09:51:18Z</time></trkpt><trkpt lat="42.88885801042739" lon="12.820752855851252"><ele>1122.0</ele><time>2026-05-03T09:51:19Z</time></trkpt><trkpt lat="42.888875121924436" lon="12.82083572399829"><ele>1122.0</ele><time>2026-05-03T09:51:20Z</time></trkpt><trkpt lat="42.88890589042143" lon="12.820969402669292"><ele>1122.0</ele><time>2026-05-03T09:51:21Z</time></trkpt><trkpt lat="42.88897618581628" lon="12.821086561755955"><ele>1122.0</ele><time>2026-05-03T09:51:22Z</time></trkpt><trkpt lat="42.88904510011481" lon="12.821170190651358"><ele>1122.0</ele><time>2026-05-03T09:51:23Z</time></trkpt><trkpt lat="42.88911711729964" lon="12.821261451587453"><ele>1122.0</ele><time>2026-05-03T09:51:24Z</time></trkpt><trkpt lat="42.88919171290961" lon="12.821344273012395"><ele>1117.8</ele><time>2026-05-03T09:51:25Z</time></trkpt><trkpt lat="42.889293056953285" lon="12.82141908761947"><ele>1113.6</ele><time>2026-05-03T09:51:26Z</time></trkpt><trkpt lat="42.889360435693995" lon="12.821454319056956"><ele>1109.3999999999999</ele><time>2026-05-03T09:51:27Z</time></trkpt><trkpt lat="42.889448728066846" lon="12.821472585786871"><ele>1105.2</ele><time>2026-05-03T09:51:28Z</time></trkpt><trkpt lat="42.88954317003693" lon="12.821498360934156"><ele>1101.0</ele><time>2026-05-03T09:51:29Z</time></trkpt><trkpt lat="42.889635160247785" lon="12.821523692751741"><ele>1101.0</ele><time>2026-05-03T09:51:30Z</time></trkpt><trkpt lat="42.88972024790415" lon="12.821517553280888"><ele>1101.0</ele><time>2026-05-03T09:51:31Z</time></trkpt><trkpt lat="42.8897909826106" lon="12.821486716118224"><ele>1101.0</ele><time>2026-05-03T09:51:32Z</time></trkpt><trkpt lat="42.889873316544076" lon="12.821435529453378"><ele>1101.0</ele><time>2026-05-03T09:51:33Z</time></trkpt><trkpt lat="42.88996262374318" lon="12.821395395343671"><ele>1101.0</ele><time>2026-05-03T09:51:34Z</time></trkpt><trkpt lat="42.890045933846686" lon="12.82137350840429"><ele>1101.0</ele><time>2026-05-03T09:51:35Z</time></trkpt><trkpt lat="42.89012963692832" lon="12.821403459620797"><ele>1101.3999999999999</ele><time>2026-05-03T09:51:36Z</time></trkpt><trkpt lat="42.89020377509377" lon="12.821427826083704"><ele>1101.8</ele><time>2026-05-03T09:51:37Z</time></trkpt><trkpt lat="42.890288473085754" lon="12.82148776661808"><ele>1102.1999999999998</ele><time>2026-05-03T09:51:38Z</time></trkpt><trkpt lat="42.890359023591245" lon="12.821529914350736"><ele>1102.6</ele><time>2026-05-03T09:51:39Z</time></trkpt><trkpt lat="42.890514208472204" lon="12.821573480504215"><ele>1103.0</ele><time>2026-05-03T09:51:41Z</time></trkpt><trkpt lat="42.89058668569083" lon="12.821551363273402"><ele>1103.0</ele><time>2026-05-03T09:51:42Z</time></trkpt><trkpt lat="42.8906600222379" lon="12.821486692189273"><ele>1103.0</ele><time>2026-05-03T09:51:43Z</time></trkpt><trkpt lat="42.890744605629315" lon="12.821448432672607"><ele>1103.0</ele><time>2026-05-03T09:51:44Z</time></trkpt><trkpt lat="42.89081740996254" lon="12.821404268573787"><ele>1103.0</ele><time>2026-05-03T09:51:45Z</time></trkpt><trkpt lat="42.89088855577705" lon="12.821391108750186"><ele>1103.0</ele><time>2026-05-03T09:51:46Z</time></trkpt><trkpt lat="42.89099971131932" lon="12.821447307929919"><ele>1103.0</ele><time>2026-05-03T09:51:48Z</time></trkpt><trkpt lat="42.891082929768075" lon="12.82149862776739"><ele>1103.2</ele><time>2026-05-03T09:51:49Z</time></trkpt><trkpt lat="42.891176636279255" lon="12.82159321471562"><ele>1103.4</ele><time>2026-05-03T09:51:50Z</time></trkpt><trkpt lat="42.891258314451285" lon="12.821629212861849"><ele>1103.6000000000001</ele><time>2026-05-03T09:51:51Z</time></trkpt><trkpt lat="42.891372570841426" lon="12.821498773401453"><ele>1103.8</ele><time>2026-05-03T09:51:52Z</time></trkpt><trkpt lat="42.89143677349095" lon="12.821491443985016"><ele>1104.0</ele><time>2026-05-03T09:51:53Z</time></trkpt><trkpt lat="42.89152104051359" lon="12.821449096387008"><ele>1104.0</ele><time>2026-05-03T09:51:54Z</time></trkpt><trkpt lat="42.89161692892696" lon="12.821464025098432"><ele>1104.0</ele><time>2026-05-03T09:51:56Z</time></trkpt><trkpt lat="42.891581797704255" lon="12.821381907724241"><ele>1104.0</ele><time>2026-05-03T09:51:58Z</time></trkpt><trkpt lat="42.89168384298847" lon="12.821445843989858"><ele>1104.0</ele><time>2026-05-03T09:51:59Z</time></trkpt><trkpt lat="42.891744145203674" lon="12.82148383120127"><ele>1104.0</ele><time>2026-05-03T09:52:01Z</time></trkpt><trkpt lat="42.891796885683014" lon="12.821568632711356"><ele>1104.0</ele><time>2026-05-03T09:52:02Z</time></trkpt><trkpt lat="42.8918505393543" lon="12.821500395546705"><ele>1104.0</ele><time>2026-05-03T09:52:04Z</time></trkpt><trkpt lat="42.891758633435046" lon="12.821730450430845"><ele>1104.0</ele><time>2026-05-03T09:52:07Z</time></trkpt><trkpt lat="42.89162557165703" lon="12.821699362494227"><ele>1104.0</ele><time>2026-05-03T09:52:08Z</time></trkpt><trkpt lat="42.891588034091846" lon="12.821622542639522"><ele>1104.0</ele><time>2026-05-03T09:52:15Z</time></trkpt><trkpt lat="42.89186474236413" lon="12.821541404841017"><ele>1105.6666666666667</ele><time>2026-05-03T09:52:23Z</time></trkpt><trkpt lat="42.89194875890364" lon="12.821542730089119"><ele>1107.3333333333333</ele><time>2026-05-03T09:52:54Z</time></trkpt><trkpt lat="42.89200893830942" lon="12.821580653874902"><ele>1109.0</ele><time>2026-05-03T09:53:03Z</time></trkpt><trkpt lat="42.89206430855672" lon="12.821639305169956"><ele>1110.6666666666665</ele><time>2026-05-03T09:53:09Z</time></trkpt><trkpt lat="42.89213369942223" lon="12.821657630199017"><ele>1112.3333333333333</ele><time>2026-05-03T09:53:19Z</time></trkpt><trkpt lat="42.89216188992576" lon="12.821739724606916"><ele>1114.0</ele><time>2026-05-03T09:54:36Z</time></trkpt><trkpt lat="42.89224140733901" lon="12.821895111605855"><ele>1109.8333333333333</ele><time>2026-05-03T09:54:38Z</time></trkpt><trkpt lat="42.89228920234685" lon="12.822003765809024"><ele>1105.6666666666665</ele><time>2026-05-03T09:54:39Z</time></trkpt><trkpt lat="42.89233218587479" lon="12.82208883400216"><ele>1101.5</ele><time>2026-05-03T09:54:40Z</time></trkpt><trkpt lat="42.892367514422865" lon="12.822181281754897"><ele>1097.3333333333333</ele><time>2026-05-03T09:54:41Z</time></trkpt><trkpt lat="42.89241193436163" lon="12.822273757613573"><ele>1093.1666666666667</ele><time>2026-05-03T09:54:42Z</time></trkpt><trkpt lat="42.89245402231221" lon="12.822351856073574"><ele>1089.0</ele><time>2026-05-03T09:54:43Z</time></trkpt><trkpt lat="42.89250902259886" lon="12.822434427411258"><ele>1089.0</ele><time>2026-05-03T09:54:44Z</time></trkpt><trkpt lat="42.89255718973234" lon="12.822510545472973"><ele>1089.0</ele><time>2026-05-03T09:54:45Z</time></trkpt><trkpt lat="42.892601554216604" lon="12.82258127202891"><ele>1089.0</ele><time>2026-05-03T09:54:46Z</time></trkpt><trkpt lat="42.892647068691865" lon="12.822698021657745"><ele>1089.0</ele><time>2026-05-03T09:54:47Z</time></trkpt><trkpt lat="42.89269102373937" lon="12.82281019153612"><ele>1089.0</ele><time>2026-05-03T09:54:48Z</time></trkpt><trkpt lat="42.89274842760355" lon="12.82291275526268"><ele>1089.0</ele><time>2026-05-03T09:54:49Z</time></trkpt><trkpt lat="42.89281285870821" lon="12.82299694239848"><ele>1086.8</ele><time>2026-05-03T09:54:50Z</time></trkpt><trkpt lat="42.89288974398286" lon="12.823109245491288"><ele>1084.6000000000001</ele><time>2026-05-03T09:54:51Z</time></trkpt><trkpt lat="42.892936335175584" lon="12.82321586097077"><ele>1082.4</ele><time>2026-05-03T09:54:52Z</time></trkpt><trkpt lat="42.89297164016084" lon="12.823315931555696"><ele>1080.2</ele><time>2026-05-03T09:54:53Z</time></trkpt><trkpt lat="42.893014006119124" lon="12.82338406621198"><ele>1078.0</ele><time>2026-05-03T09:54:54Z</time></trkpt><trkpt lat="42.893121956610216" lon="12.82339615103226"><ele>1078.0</ele><time>2026-05-03T09:54:56Z</time></trkpt><trkpt lat="42.893226301510424" lon="12.823383118322225"><ele>1078.0</ele><time>2026-05-03T09:54:58Z</time></trkpt><trkpt lat="42.8933120377526" lon="12.823346323383404"><ele>1078.0</ele><time>2026-05-03T09:55:00Z</time></trkpt><trkpt lat="42.893400816518856" lon="12.823222842574328"><ele>1078.0</ele><time>2026-05-03T09:55:02Z</time></trkpt><trkpt lat="42.89345739000587" lon="12.823155970712829"><ele>1078.0</ele><time>2026-05-03T09:55:03Z</time></trkpt><trkpt lat="42.893537239647465" lon="12.823010214099865"><ele>1074.0</ele><time>2026-05-03T09:55:05Z</time></trkpt><trkpt lat="42.89360272795459" lon="12.822933947506147"><ele>1070.0</ele><time>2026-05-03T09:55:06Z</time></trkpt><trkpt lat="42.893690655311474" lon="12.82286380747112"><ele>1066.0</ele><time>2026-05-03T09:55:07Z</time></trkpt><trkpt lat="42.893779808229475" lon="12.822803835781196"><ele>1062.0</ele><time>2026-05-03T09:55:08Z</time></trkpt><trkpt lat="42.89386573553537" lon="12.822755964306547"><ele>1058.0</ele><time>2026-05-03T09:55:09Z</time></trkpt><trkpt lat="42.89397120826867" lon="12.822674423298018"><ele>1060.1666666666667</ele><time>2026-05-03T09:55:11Z</time></trkpt><trkpt lat="42.89404283613443" lon="12.822636000686927"><ele>1062.3333333333335</ele><time>2026-05-03T09:55:12Z</time></trkpt><trkpt lat="42.89411155971082" lon="12.822609929231511"><ele>1064.5</ele><time>2026-05-03T09:55:13Z</time></trkpt><trkpt lat="42.89417649805644" lon="12.82258062228229"><ele>1066.6666666666667</ele><time>2026-05-03T09:55:14Z</time></trkpt><trkpt lat="42.8942455683733" lon="12.822546425647083"><ele>1068.8333333333333</ele><time>2026-05-03T09:55:15Z</time></trkpt><trkpt lat="42.89434103608852" lon="12.822456058576376"><ele>1071.0</ele><time>2026-05-03T09:55:17Z</time></trkpt><trkpt lat="42.89439025089791" lon="12.822399038994046"><ele>1065.2</ele><time>2026-05-03T09:55:18Z</time></trkpt><trkpt lat="42.89444061049553" lon="12.82233614282824"><ele>1059.3999999999999</ele><time>2026-05-03T09:55:19Z</time></trkpt><trkpt lat="42.89449275604188" lon="12.822276543457084"><ele>1053.6</ele><time>2026-05-03T09:55:20Z</time></trkpt><trkpt lat="42.894564390880234" lon="12.82217845890528"><ele>1047.8</ele><time>2026-05-03T09:55:21Z</time></trkpt><trkpt lat="42.89465724979241" lon="12.822057518888204"><ele>1042.0</ele><time>2026-05-03T09:55:22Z</time></trkpt><trkpt lat="42.89475147841173" lon="12.821961048145923"><ele>1042.0</ele><time>2026-05-03T09:55:23Z</time></trkpt><trkpt lat="42.89484196347893" lon="12.82186531624631"><ele>1042.0</ele><time>2026-05-03T09:55:24Z</time></trkpt><trkpt lat="42.89492244994628" lon="12.821748750204614"><ele>1042.0</ele><time>2026-05-03T09:55:25Z</time></trkpt><trkpt lat="42.89497442460082" lon="12.82166238839907"><ele>1042.0</ele><time>2026-05-03T09:55:26Z</time></trkpt><trkpt lat="42.895009321558014" lon="12.821590165187601"><ele>1042.0</ele><time>2026-05-03T09:55:27Z</time></trkpt><trkpt lat="42.89513297078078" lon="12.821511924044703"><ele>1042.142857142857</ele><time>2026-05-03T09:55:29Z</time></trkpt><trkpt lat="42.89520874226059" lon="12.821506240512685"><ele>1042.2857142857142</ele><time>2026-05-03T09:55:30Z</time></trkpt><trkpt lat="42.895272855618515" lon="12.821512107981855"><ele>1042.4285714285716</ele><time>2026-05-03T09:55:31Z</time></trkpt><trkpt lat="42.89533252121374" lon="12.821568109099253"><ele>1042.5714285714284</ele><time>2026-05-03T09:55:32Z</time></trkpt><trkpt lat="42.895384516231154" lon="12.821634854774288"><ele>1042.7142857142858</ele><time>2026-05-03T09:55:33Z</time></trkpt><trkpt lat="42.895426375990525" lon="12.82174067678597"><ele>1042.857142857143</ele><time>2026-05-03T09:55:34Z</time></trkpt><trkpt lat="42.89544284760529" lon="12.821832392829908"><ele>1043.0</ele><time>2026-05-03T09:55:35Z</time></trkpt><trkpt lat="42.89547321541409" lon="12.821988749170774"><ele>1040.0</ele><time>2026-05-03T09:55:37Z</time></trkpt><trkpt lat="42.89548803246707" lon="12.822089084661986"><ele>1037.0</ele><time>2026-05-03T09:55:38Z</time></trkpt><trkpt lat="42.89546922553835" lon="12.822191199264664"><ele>1034.0</ele><time>2026-05-03T09:55:39Z</time></trkpt><trkpt lat="42.89545460226616" lon="12.822315761755723"><ele>1031.0</ele><time>2026-05-03T09:55:41Z</time></trkpt><trkpt lat="42.89548756937974" lon="12.822434098737025"><ele>1028.0</ele><time>2026-05-03T09:55:43Z</time></trkpt><trkpt lat="42.89551019753534" lon="12.822524728039413"><ele>1025.0</ele><time>2026-05-03T09:55:49Z</time></trkpt><trkpt lat="42.895488103721526" lon="12.822645683010066"><ele>1022.4</ele><time>2026-05-03T09:55:54Z</time></trkpt><trkpt lat="42.89545778934585" lon="12.822752243013825"><ele>1019.8</ele><time>2026-05-03T09:55:55Z</time></trkpt><trkpt lat="42.89543733375825" lon="12.822856199657766"><ele>1017.2</ele><time>2026-05-03T09:55:56Z</time></trkpt><trkpt lat="42.89544404720421" lon="12.822979004528277"><ele>1014.6</ele><time>2026-05-03T09:55:57Z</time></trkpt><trkpt lat="42.895477901964206" lon="12.823119442070876"><ele>1012.0</ele><time>2026-05-03T09:55:58Z</time></trkpt><trkpt lat="42.89551711584127" lon="12.823238280427878"><ele>1012.0</ele><time>2026-05-03T09:55:59Z</time></trkpt><trkpt lat="42.8955735527668" lon="12.823358753552153"><ele>1012.0</ele><time>2026-05-03T09:56:00Z</time></trkpt><trkpt lat="42.895637992728375" lon="12.823448924403387"><ele>1012.0</ele><time>2026-05-03T09:56:01Z</time></trkpt><trkpt lat="42.89569221610737" lon="12.823553609625085"><ele>1012.0</ele><time>2026-05-03T09:56:02Z</time></trkpt><trkpt lat="42.89571676639267" lon="12.82368223792554"><ele>1012.0</ele><time>2026-05-03T09:56:03Z</time></trkpt><trkpt lat="42.89575967958986" lon="12.823793916210885"><ele>1011.8333333333333</ele><time>2026-05-03T09:56:04Z</time></trkpt><trkpt lat="42.895815674385325" lon="12.823910789834482"><ele>1011.6666666666666</ele><time>2026-05-03T09:56:05Z</time></trkpt><trkpt lat="42.89586399575131" lon="12.823996697775408"><ele>1011.5</ele><time>2026-05-03T09:56:06Z</time></trkpt><trkpt lat="42.89592579483972" lon="12.824071176744063"><ele>1011.3333333333333</ele><time>2026-05-03T09:56:09Z</time></trkpt><trkpt lat="42.895937093053256" lon="12.823944181829873"><ele>1011.1666666666666</ele><time>2026-05-03T09:57:01Z</time></trkpt><trkpt lat="42.89596428074279" lon="12.823859047195944"><ele>1011.0</ele><time>2026-05-03T09:57:03Z</time></trkpt><trkpt lat="42.89605510371902" lon="12.823813992997732"><ele>1009.4</ele><time>2026-05-03T09:57:05Z</time></trkpt><trkpt lat="42.896177571702516" lon="12.823782541423704"><ele>1007.8</ele><time>2026-05-03T09:57:07Z</time></trkpt><trkpt lat="42.89624365534656" lon="12.823756862915486"><ele>1006.1999999999999</ele><time>2026-05-03T09:57:08Z</time></trkpt><trkpt lat="42.89632762127692" lon="12.82370227942969"><ele>1004.5999999999999</ele><time>2026-05-03T09:57:10Z</time></trkpt><trkpt lat="42.89640019529928" lon="12.82359321548884"><ele>1003.0</ele><time>2026-05-03T09:57:12Z</time></trkpt><trkpt lat="42.896440548933064" lon="12.82344872533593"><ele>1003.0</ele><time>2026-05-03T09:57:14Z</time></trkpt><trkpt lat="42.89647031733657" lon="12.823358108368936"><ele>1002.9999999999999</ele><time>2026-05-03T09:57:15Z</time></trkpt><trkpt lat="42.896499942959" lon="12.823271735526983"><ele>1003.0</ele><time>2026-05-03T09:57:16Z</time></trkpt><trkpt lat="42.89652288794726" lon="12.823175123284443"><ele>1003.0</ele><time>2026-05-03T09:57:17Z</time></trkpt><trkpt lat="42.89654242856285" lon="12.823091943168158"><ele>1002.9999999999999</ele><time>2026-05-03T09:57:18Z</time></trkpt><trkpt lat="42.896568199757105" lon="12.82299648457516"><ele>1003.0</ele><time>2026-05-03T09:57:19Z</time></trkpt><trkpt lat="42.896598486276645" lon="12.82289895363825"><ele>1003.0</ele><time>2026-05-03T09:57:20Z</time></trkpt><trkpt lat="42.896626101099976" lon="12.82281793465556"><ele>1002.9999999999999</ele><time>2026-05-03T09:57:21Z</time></trkpt><trkpt lat="42.89664416465809" lon="12.822709888575819"><ele>1003.0</ele><time>2026-05-03T09:57:22Z</time></trkpt><trkpt lat="42.89667874543515" lon="12.822613511221917"><ele>1003.0</ele><time>2026-05-03T09:57:23Z</time></trkpt><trkpt lat="42.89673212057088" lon="12.822532208052571"><ele>1003.0</ele><time>2026-05-03T09:57:24Z</time></trkpt><trkpt lat="42.89678710267725" lon="12.822456458657411"><ele>1002.9999999999999</ele><time>2026-05-03T09:57:25Z</time></trkpt><trkpt lat="42.896864294389516" lon="12.822385766861164"><ele>1003.0</ele><time>2026-05-03T09:57:26Z</time></trkpt><trkpt lat="42.89694916456885" lon="12.822344507520937"><ele>1004.2</ele><time>2026-05-03T09:57:27Z</time></trkpt><trkpt lat="42.897040146720684" lon="12.82230480305252"><ele>1005.4</ele><time>2026-05-03T09:57:28Z</time></trkpt><trkpt lat="42.897130408531204" lon="12.822257291490166"><ele>1006.6000000000001</ele><time>2026-05-03T09:57:29Z</time></trkpt><trkpt lat="42.89720785590681" lon="12.822197871671216"><ele>1007.8000000000001</ele><time>2026-05-03T09:57:30Z</time></trkpt><trkpt lat="42.897276011316094" lon="12.822136293661103"><ele>1009.0</ele><time>2026-05-03T09:57:31Z</time></trkpt><trkpt lat="42.89736423879611" lon="12.822042861081426"><ele>1009.0</ele><time>2026-05-03T09:57:32Z</time></trkpt><trkpt lat="42.8974414723921" lon="12.821964593325768"><ele>1009.0000000000001</ele><time>2026-05-03T09:57:33Z</time></trkpt><trkpt lat="42.89750611837614" lon="12.821924702842168"><ele>1009.0000000000001</ele><time>2026-05-03T09:57:34Z</time></trkpt><trkpt lat="42.89758576915075" lon="12.821822206580864"><ele>1009.0</ele><time>2026-05-03T09:57:36Z</time></trkpt><trkpt lat="42.89763016052047" lon="12.821699266335356"><ele>1009.0</ele><time>2026-05-03T09:57:37Z</time></trkpt><trkpt lat="42.89767557740374" lon="12.821610354638217"><ele>1013.0</ele><time>2026-05-03T09:57:38Z</time></trkpt><trkpt lat="42.89781427456527" lon="12.821497485000128"><ele>1017.0</ele><time>2026-05-03T09:57:40Z</time></trkpt><trkpt lat="42.89786591767859" lon="12.821411913101233"><ele>1021.0</ele><time>2026-05-03T09:57:41Z</time></trkpt><trkpt lat="42.89797697099327" lon="12.821313517755682"><ele>1025.0</ele><time>2026-05-03T09:57:42Z</time></trkpt><trkpt lat="42.89806250017892" lon="12.821220554270791"><ele>1025.0</ele><time>2026-05-03T09:57:43Z</time></trkpt><trkpt lat="42.89813885269358" lon="12.821146775206543"><ele>1025.0</ele><time>2026-05-03T09:57:44Z</time></trkpt><trkpt lat="42.89821349393775" lon="12.821062793673706"><ele>1025.0</ele><time>2026-05-03T09:57:45Z</time></trkpt><trkpt lat="42.89829420198046" lon="12.820996548285647"><ele>1025.0</ele><time>2026-05-03T09:57:46Z</time></trkpt><trkpt lat="42.89836500128808" lon="12.820941090843277"><ele>1025.0</ele><time>2026-05-03T09:57:47Z</time></trkpt><trkpt lat="42.898422633080784" lon="12.820895834701172"><ele>1025.0</ele><time>2026-05-03T09:57:48Z</time></trkpt><trkpt lat="42.89851925004494" lon="12.820848681011842"><ele>1028.5</ele><time>2026-05-03T09:57:49Z</time></trkpt><trkpt lat="42.898646382726014" lon="12.820740704466065"><ele>1032.0</ele><time>2026-05-03T09:57:50Z</time></trkpt><trkpt lat="42.89873683492976" lon="12.820662378995626"><ele>1035.5</ele><time>2026-05-03T09:57:51Z</time></trkpt><trkpt lat="42.89882500287114" lon="12.820611320318582"><ele>1039.0</ele><time>2026-05-03T09:57:52Z</time></trkpt><trkpt lat="42.898911330023736" lon="12.820545859274409"><ele>1039.0</ele><time>2026-05-03T09:57:53Z</time></trkpt><trkpt lat="42.89897590408478" lon="12.820464518128293"><ele>1039.0</ele><time>2026-05-03T09:57:54Z</time></trkpt><trkpt lat="42.899024276239054" lon="12.820386335512392"><ele>1039.0</ele><time>2026-05-03T09:57:55Z</time></trkpt><trkpt lat="42.899076980879755" lon="12.820299522437088"><ele>1039.0</ele><time>2026-05-03T09:57:56Z</time></trkpt><trkpt lat="42.89914501640381" lon="12.820221776321004"><ele>1039.0</ele><time>2026-05-03T09:57:57Z</time></trkpt><trkpt lat="42.8991985743458" lon="12.820162834040401"><ele>1039.0</ele><time>2026-05-03T09:57:58Z</time></trkpt><trkpt lat="42.89927108363423" lon="12.82006243495646"><ele>1042.8</ele><time>2026-05-03T09:57:59Z</time></trkpt><trkpt lat="42.89934004350027" lon="12.8199610360065"><ele>1046.6000000000001</ele><time>2026-05-03T09:58:00Z</time></trkpt><trkpt lat="42.89942183307206" lon="12.819859673983498"><ele>1050.4</ele><time>2026-05-03T09:58:01Z</time></trkpt><trkpt lat="42.89948682311184" lon="12.81977232976383"><ele>1054.2</ele><time>2026-05-03T09:58:02Z</time></trkpt><trkpt lat="42.89953309740078" lon="12.81970383580972"><ele>1058.0</ele><time>2026-05-03T09:58:03Z</time></trkpt><trkpt lat="42.89963692766786" lon="12.81962059063634"><ele>1058.0</ele><time>2026-05-03T09:58:05Z</time></trkpt><trkpt lat="42.8997078925957" lon="12.819546495894402"><ele>1058.0</ele><time>2026-05-03T09:58:06Z</time></trkpt><trkpt lat="42.89977449395826" lon="12.819495609034988"><ele>1058.0</ele><time>2026-05-03T09:58:07Z</time></trkpt><trkpt lat="42.899824843864195" lon="12.819406679525352"><ele>1058.0</ele><time>2026-05-03T09:58:08Z</time></trkpt><trkpt lat="42.89986820406806" lon="12.819325039970508"><ele>1058.0</ele><time>2026-05-03T09:58:09Z</time></trkpt><trkpt lat="42.89990096312925" lon="12.819245481884689"><ele>1058.0</ele><time>2026-05-03T09:58:10Z</time></trkpt><trkpt lat="42.90000367019705" lon="12.819123194183335"><ele>1060.3333333333335</ele><time>2026-05-03T09:58:12Z</time></trkpt><trkpt lat="42.9000680385844" lon="12.81907268768174"><ele>1062.6666666666667</ele><time>2026-05-03T09:58:13Z</time></trkpt><trkpt lat="42.90013236681812" lon="12.819019936984068"><ele>1065.0</ele><time>2026-05-03T09:58:14Z</time></trkpt><trkpt lat="42.90023002642887" lon="12.818929955347775"><ele>1067.3333333333333</ele><time>2026-05-03T09:58:16Z</time></trkpt><trkpt lat="42.900297638837884" lon="12.818899829708933"><ele>1069.6666666666665</ele><time>2026-05-03T09:58:17Z</time></trkpt><trkpt lat="42.90036159221565" lon="12.818846438074013"><ele>1072.0</ele><time>2026-05-03T09:58:18Z</time></trkpt><trkpt lat="42.90041362966971" lon="12.818791205146999"><ele>1072.0</ele><time>2026-05-03T09:58:19Z</time></trkpt><trkpt lat="42.90045029706818" lon="12.818652215464127"><ele>1072.0</ele><time>2026-05-03T09:58:21Z</time></trkpt><trkpt lat="42.90053652567023" lon="12.818500212980195"><ele>1072.0</ele><time>2026-05-03T09:58:23Z</time></trkpt><trkpt lat="42.900572553873495" lon="12.818409340767912"><ele>1072.0</ele><time>2026-05-03T09:58:24Z</time></trkpt><trkpt lat="42.90064818482837" lon="12.818237138985035"><ele>1073.2</ele><time>2026-05-03T09:58:26Z</time></trkpt><trkpt lat="42.9006897291069" lon="12.818127866188236"><ele>1074.4</ele><time>2026-05-03T09:58:27Z</time></trkpt><trkpt lat="42.90073563979026" lon="12.818007630719327"><ele>1075.6</ele><time>2026-05-03T09:58:28Z</time></trkpt><trkpt lat="42.90077462731513" lon="12.817907651527868"><ele>1076.8</ele><time>2026-05-03T09:58:29Z</time></trkpt><trkpt lat="42.90080135707209" lon="12.81780392880291"><ele>1078.0</ele><time>2026-05-03T09:58:30Z</time></trkpt><trkpt lat="42.900824954146074" lon="12.817672720464937"><ele>1080.4</ele><time>2026-05-03T09:58:31Z</time></trkpt><trkpt lat="42.9008601895452" lon="12.817553625731591"><ele>1082.8</ele><time>2026-05-03T09:58:32Z</time></trkpt><trkpt lat="42.90092380514235" lon="12.81744803970727"><ele>1085.2</ele><time>2026-05-03T09:58:33Z</time></trkpt><trkpt lat="42.900984263263645" lon="12.817383507731522"><ele>1087.6</ele><time>2026-05-03T09:58:34Z</time></trkpt><trkpt lat="42.90103032015585" lon="12.81726146616406"><ele>1090.0</ele><time>2026-05-03T09:58:35Z</time></trkpt><trkpt lat="42.90106398469544" lon="12.81715463099635"><ele>1090.2</ele><time>2026-05-03T09:58:36Z</time></trkpt><trkpt lat="42.90111370232084" lon="12.817074016242081"><ele>1090.4</ele><time>2026-05-03T09:58:37Z</time></trkpt><trkpt lat="42.901157970212346" lon="12.816925307057637"><ele>1090.6</ele><time>2026-05-03T09:58:39Z</time></trkpt><trkpt lat="42.9012137583921" lon="12.816829392627255"><ele>1090.8</ele><time>2026-05-03T09:58:40Z</time></trkpt><trkpt lat="42.901264883422904" lon="12.816722470389683"><ele>1091.0</ele><time>2026-05-03T09:58:41Z</time></trkpt><trkpt lat="42.90129856981548" lon="12.816599006580079"><ele>1091.0</ele><time>2026-05-03T09:58:42Z</time></trkpt><trkpt lat="42.90134796225145" lon="12.816482070985389"><ele>1091.0</ele><time>2026-05-03T09:58:43Z</time></trkpt><trkpt lat="42.90138265369962" lon="12.81638312617539"><ele>1091.0</ele><time>2026-05-03T09:58:44Z</time></trkpt><trkpt lat="42.90142586019877" lon="12.816285004688984"><ele>1091.0</ele><time>2026-05-03T09:58:45Z</time></trkpt><trkpt lat="42.90145534700217" lon="12.816160212023565"><ele>1091.0</ele><time>2026-05-03T09:58:46Z</time></trkpt><trkpt lat="42.901460820220976" lon="12.816046122082005"><ele>1091.0</ele><time>2026-05-03T09:58:47Z</time></trkpt><trkpt lat="42.901497268635396" lon="12.815891485534404"><ele>1091.8333333333335</ele><time>2026-05-03T09:58:49Z</time></trkpt><trkpt lat="42.901530505957105" lon="12.815782648720267"><ele>1092.6666666666667</ele><time>2026-05-03T09:58:51Z</time></trkpt><trkpt lat="42.9015100839142" lon="12.815661874317348"><ele>1093.5</ele><time>2026-05-03T09:59:46Z</time></trkpt><trkpt lat="42.901533496823916" lon="12.815509905711211"><ele>1094.3333333333333</ele><time>2026-05-03T09:59:48Z</time></trkpt><trkpt lat="42.90153816485904" lon="12.81541211907868"><ele>1095.1666666666665</ele><time>2026-05-03T09:59:50Z</time></trkpt><trkpt lat="42.90153893600932" lon="12.815322728261064"><ele>1096.0</ele><time>2026-05-03T09:59:52Z</time></trkpt><trkpt lat="42.90152125260525" lon="12.815236176693064"><ele>1097.8333333333333</ele><time>2026-05-03T10:00:01Z</time></trkpt><trkpt lat="42.90152126972994" lon="12.815125594775322"><ele>1099.6666666666665</ele><time>2026-05-03T10:00:02Z</time></trkpt><trkpt lat="42.90153164800226" lon="12.815028987698138"><ele>1101.5</ele><time>2026-05-03T10:00:03Z</time></trkpt><trkpt lat="42.90152629112047" lon="12.814934689116933"><ele>1103.3333333333333</ele><time>2026-05-03T10:00:04Z</time></trkpt><trkpt lat="42.90153867717692" lon="12.814782981457318"><ele>1105.1666666666667</ele><time>2026-05-03T10:00:06Z</time></trkpt><trkpt lat="42.901525497818746" lon="12.814698379628714"><ele>1107.0</ele><time>2026-05-03T10:00:07Z</time></trkpt><trkpt lat="42.90151403960629" lon="12.81459975006828"><ele>1107.0</ele><time>2026-05-03T10:00:08Z</time></trkpt><trkpt lat="42.90148788872646" lon="12.814465763536038"><ele>1107.0</ele><time>2026-05-03T10:00:10Z</time></trkpt><trkpt lat="42.901487087290434" lon="12.814367488289479"><ele>1107.0</ele><time>2026-05-03T10:00:12Z</time></trkpt><trkpt lat="42.90140644789907" lon="12.814283230728869"><ele>1107.0</ele><time>2026-05-03T10:00:14Z</time></trkpt><trkpt lat="42.901337398195245" lon="12.814226064401039"><ele>1107.0</ele><time>2026-05-03T10:00:17Z</time></trkpt><trkpt lat="42.90127891769541" lon="12.814179391605474"><ele>1107.0</ele><time>2026-05-03T10:00:19Z</time></trkpt><trkpt lat="42.901233900382366" lon="12.814103689539268"><ele>1109.4</ele><time>2026-05-03T10:00:21Z</time></trkpt><trkpt lat="42.90115177431298" lon="12.814012372353165"><ele>1111.8000000000002</ele><time>2026-05-03T10:00:24Z</time></trkpt><trkpt lat="42.90110740525782" lon="12.813908913937283"><ele>1114.2</ele><time>2026-05-03T10:00:25Z</time></trkpt><trkpt lat="42.90105540923596" lon="12.813771542137587"><ele>1116.6000000000001</ele><time>2026-05-03T10:00:26Z</time></trkpt><trkpt lat="42.90104726632656" lon="12.813641790317739"><ele>1119.0</ele><time>2026-05-03T10:00:27Z</time></trkpt><trkpt lat="42.90101490918728" lon="12.813511488310464"><ele>1120.2</ele><time>2026-05-03T10:00:29Z</time></trkpt><trkpt lat="42.90098245739267" lon="12.813394577770849"><ele>1121.4</ele><time>2026-05-03T10:00:31Z</time></trkpt><trkpt lat="42.90094352432055" lon="12.813306742580021"><ele>1122.6</ele><time>2026-05-03T10:00:32Z</time></trkpt><trkpt lat="42.90088575725313" lon="12.813187936154693"><ele>1123.8</ele><time>2026-05-03T10:00:34Z</time></trkpt><trkpt lat="42.9009014408656" lon="12.813071698577833"><ele>1125.0</ele><time>2026-05-03T10:00:36Z</time></trkpt><trkpt lat="42.900875662975466" lon="12.812928295227861"><ele>1125.0</ele><time>2026-05-03T10:00:40Z</time></trkpt><trkpt lat="42.900852381378435" lon="12.812847031119922"><ele>1125.0</ele><time>2026-05-03T10:00:42Z</time></trkpt><trkpt lat="42.90083259437903" lon="12.812749709965047"><ele>1125.0</ele><time>2026-05-03T10:00:44Z</time></trkpt><trkpt lat="42.900809959772175" lon="12.812654837884978"><ele>1125.0</ele><time>2026-05-03T10:00:45Z</time></trkpt><trkpt lat="42.90077542998538" lon="12.812574271940589"><ele>1125.0</ele><time>2026-05-03T10:00:46Z</time></trkpt><trkpt lat="42.900743619378275" lon="12.812499341373748"><ele>1125.0</ele><time>2026-05-03T10:00:47Z</time></trkpt><trkpt lat="42.900693184936614" lon="12.812417015632517"><ele>1125.0</ele><time>2026-05-03T10:00:49Z</time></trkpt><trkpt lat="42.90067266536236" lon="12.812316382111243"><ele>1125.8</ele><time>2026-05-03T10:00:51Z</time></trkpt><trkpt lat="42.900649177107326" lon="12.812134478713649"><ele>1126.6</ele><time>2026-05-03T10:00:53Z</time></trkpt><trkpt lat="42.90062978450754" lon="12.812046781194542"><ele>1127.4</ele><time>2026-05-03T10:00:54Z</time></trkpt><trkpt lat="42.90060738997335" lon="12.81193139366813"><ele>1128.2</ele><time>2026-05-03T10:00:55Z</time></trkpt><trkpt lat="42.90059467878175" lon="12.811838110298789"><ele>1129.0</ele><time>2026-05-03T10:00:56Z</time></trkpt><trkpt lat="42.90056043455108" lon="12.811711466024226"><ele>1130.2</ele><time>2026-05-03T10:00:58Z</time></trkpt><trkpt lat="42.90054167057135" lon="12.81152599950728"><ele>1131.4</ele><time>2026-05-03T10:01:00Z</time></trkpt><trkpt lat="42.900523681864705" lon="12.811431736980165"><ele>1132.6</ele><time>2026-05-03T10:01:01Z</time></trkpt><trkpt lat="42.90050329063233" lon="12.811333309784402"><ele>1133.8</ele><time>2026-05-03T10:01:02Z</time></trkpt><trkpt lat="42.90045933416602" lon="12.811198143830183"><ele>1135.0</ele><time>2026-05-03T10:01:04Z</time></trkpt><trkpt lat="42.90042876303356" lon="12.81111702562745"><ele>1135.0</ele><time>2026-05-03T10:01:07Z</time></trkpt><trkpt lat="42.900384772793906" lon="12.81099825306706"><ele>1135.0</ele><time>2026-05-03T10:01:10Z</time></trkpt><trkpt lat="42.90040319689317" lon="12.81086531744108"><ele>1135.0</ele><time>2026-05-03T10:01:13Z</time></trkpt><trkpt lat="42.900369994545116" lon="12.810762876242515"><ele>1135.0</ele><time>2026-05-03T10:01:15Z</time></trkpt><trkpt lat="42.90040749709705" lon="12.810693081583242"><ele>1135.0</ele><time>2026-05-03T10:01:17Z</time></trkpt><trkpt lat="42.90043400825546" lon="12.810612911021389"><ele>1135.0</ele><time>2026-05-03T10:01:20Z</time></trkpt><trkpt lat="42.900402734370466" lon="12.810536871481903"><ele>1135.5</ele><time>2026-05-03T10:01:22Z</time></trkpt><trkpt lat="42.90039123532244" lon="12.810444682340226"><ele>1136.0</ele><time>2026-05-03T10:01:25Z</time></trkpt><trkpt lat="42.90035205532174" lon="12.810367375100611"><ele>1136.5</ele><time>2026-05-03T10:01:29Z</time></trkpt><trkpt lat="42.90032329342063" lon="12.810272411101373"><ele>1137.0</ele><time>2026-05-03T10:01:53Z</time></trkpt><trkpt lat="42.900311974158605" lon="12.810163875855203"><ele>1137.5</ele><time>2026-05-03T10:02:33Z</time></trkpt><trkpt lat="42.90029579659999" lon="12.81006549842432"><ele>1138.0</ele><time>2026-05-03T10:02:34Z</time></trkpt><trkpt lat="42.90030500072762" lon="12.809940687884286"><ele>1138.0</ele><time>2026-05-03T10:02:35Z</time></trkpt><trkpt lat="42.900349549137026" lon="12.8098228897985"><ele>1138.0</ele><time>2026-05-03T10:02:37Z</time></trkpt><trkpt lat="42.900373794384464" lon="12.80973091338149"><ele>1138.0</ele><time>2026-05-03T10:02:39Z</time></trkpt><trkpt lat="42.90040198020287" lon="12.809650820088363"><ele>1138.0</ele><time>2026-05-03T10:02:42Z</time></trkpt><trkpt lat="42.900389707184175" lon="12.80956603334097"><ele>1138.0</ele><time>2026-05-03T10:03:08Z</time></trkpt><trkpt lat="42.90035395360235" lon="12.80947967288094"><ele>1138.0</ele><time>2026-05-03T10:03:11Z</time></trkpt><trkpt lat="42.90037962229613" lon="12.809360874003323"><ele>1136.8333333333333</ele><time>2026-05-03T10:03:13Z</time></trkpt><trkpt lat="42.900325430526514" lon="12.809282178144686"><ele>1135.6666666666665</ele><time>2026-05-03T10:04:04Z</time></trkpt><trkpt lat="42.90023813474583" lon="12.80930348487427"><ele>1134.5</ele><time>2026-05-03T10:04:04.999Z</time></trkpt><trkpt lat="42.90016765127925" lon="12.8093098512557"><ele>1133.3333333333333</ele><time>2026-05-03T10:04:05.999Z</time></trkpt><trkpt lat="42.900104676049786" lon="12.809277945351937"><ele>1132.1666666666667</ele><time>2026-05-03T10:04:08Z</time></trkpt><trkpt lat="42.90010436132871" lon="12.809187852766966"><ele>1131.0</ele><time>2026-05-03T10:04:45Z</time></trkpt><trkpt lat="42.90017230768727" lon="12.80913325015203"><ele>1131.0</ele><time>2026-05-03T10:04:47Z</time></trkpt><trkpt lat="42.9002672257228" lon="12.809052735240934"><ele>1131.0</ele><time>2026-05-03T10:04:49Z</time></trkpt><trkpt lat="42.900315732543646" lon="12.808975432094266"><ele>1131.0</ele><time>2026-05-03T10:04:50Z</time></trkpt><trkpt lat="42.90035830322896" lon="12.808879796325723"><ele>1131.0</ele><time>2026-05-03T10:04:51Z</time></trkpt><trkpt lat="42.90041175508554" lon="12.808739310449601"><ele>1131.0</ele><time>2026-05-03T10:04:52Z</time></trkpt><trkpt lat="42.9004739200254" lon="12.808590725886642"><ele>1131.0</ele><time>2026-05-03T10:04:53Z</time></trkpt><trkpt lat="42.900536667248765" lon="12.808466751486149"><ele>1131.0</ele><time>2026-05-03T10:04:54Z</time></trkpt><trkpt lat="42.90060618344775" lon="12.80835679165451"><ele>1131.0</ele><time>2026-05-03T10:04:55Z</time></trkpt><trkpt lat="42.90067714990178" lon="12.808283831928437"><ele>1131.0</ele><time>2026-05-03T10:04:56Z</time></trkpt><trkpt lat="42.90074951616883" lon="12.808230928935403"><ele>1131.0</ele><time>2026-05-03T10:04:57Z</time></trkpt><trkpt lat="42.900827460967804" lon="12.808180599147786"><ele>1132.0</ele><time>2026-05-03T10:04:58Z</time></trkpt><trkpt lat="42.90091660913693" lon="12.808122830167033"><ele>1133.0</ele><time>2026-05-03T10:04:59Z</time></trkpt><trkpt lat="42.901021285082734" lon="12.808055564413747"><ele>1134.0</ele><time>2026-05-03T10:05:00Z</time></trkpt><trkpt lat="42.90111715521116" lon="12.80799317354909"><ele>1135.0</ele><time>2026-05-03T10:05:01Z</time></trkpt><trkpt lat="42.901200012278736" lon="12.807924764197274"><ele>1136.0</ele><time>2026-05-03T10:05:02Z</time></trkpt><trkpt lat="42.90128248068241" lon="12.807850558756781"><ele>1136.0</ele><time>2026-05-03T10:05:03Z</time></trkpt><trkpt lat="42.90137053580218" lon="12.80777384113346"><ele>1136.0</ele><time>2026-05-03T10:05:04Z</time></trkpt><trkpt lat="42.901457980104105" lon="12.807683137304108"><ele>1136.0</ele><time>2026-05-03T10:05:05Z</time></trkpt><trkpt lat="42.90153259279575" lon="12.80758710948694"><ele>1136.0</ele><time>2026-05-03T10:05:06Z</time></trkpt><trkpt lat="42.90160383419591" lon="12.807493952941787"><ele>1136.0</ele><time>2026-05-03T10:05:07Z</time></trkpt><trkpt lat="42.901666226604036" lon="12.807423331353622"><ele>1136.5</ele><time>2026-05-03T10:05:08Z</time></trkpt><trkpt lat="42.901720852435595" lon="12.807358452344841"><ele>1137.0</ele><time>2026-05-03T10:05:09Z</time></trkpt><trkpt lat="42.90177782475275" lon="12.80728286693064"><ele>1137.5</ele><time>2026-05-03T10:05:10Z</time></trkpt><trkpt lat="42.90183863689994" lon="12.807202563132822"><ele>1138.0</ele><time>2026-05-03T10:05:11Z</time></trkpt><trkpt lat="42.901891418023816" lon="12.807119420537994"><ele>1138.5</ele><time>2026-05-03T10:05:12Z</time></trkpt><trkpt lat="42.901939860862136" lon="12.807031046936284"><ele>1139.0</ele><time>2026-05-03T10:05:13Z</time></trkpt><trkpt lat="42.90198076656022" lon="12.806944440655304"><ele>1140.5</ele><time>2026-05-03T10:05:14Z</time></trkpt><trkpt lat="42.902020839189326" lon="12.806861975174268"><ele>1142.0</ele><time>2026-05-03T10:05:15Z</time></trkpt><trkpt lat="42.90205723671347" lon="12.806789580157854"><ele>1143.5</ele><time>2026-05-03T10:05:16Z</time></trkpt><trkpt lat="42.90211789793501" lon="12.806626437698908"><ele>1145.0</ele><time>2026-05-03T10:05:18Z</time></trkpt><trkpt lat="42.90215068759355" lon="12.806530946840104"><ele>1146.5</ele><time>2026-05-03T10:05:19Z</time></trkpt><trkpt lat="42.90219518198337" lon="12.80640666956974"><ele>1148.0</ele><time>2026-05-03T10:05:20Z</time></trkpt><trkpt lat="42.9022419154526" lon="12.806274909281951"><ele>1148.0</ele><time>2026-05-03T10:05:21Z</time></trkpt><trkpt lat="42.90227717740534" lon="12.80617952599283"><ele>1148.0</ele><time>2026-05-03T10:05:22Z</time></trkpt><trkpt lat="42.902303973126415" lon="12.806099569828412"><ele>1148.0</ele><time>2026-05-03T10:05:23Z</time></trkpt><trkpt lat="42.90233252292656" lon="12.806007915057343"><ele>1148.0</ele><time>2026-05-03T10:05:24Z</time></trkpt><trkpt lat="42.90236217654359" lon="12.805909530154612"><ele>1148.0</ele><time>2026-05-03T10:05:25Z</time></trkpt><trkpt lat="42.90239968297353" lon="12.805800838842773"><ele>1148.0</ele><time>2026-05-03T10:05:26Z</time></trkpt><trkpt lat="42.90243696727339" lon="12.80567367259005"><ele>1149.4</ele><time>2026-05-03T10:05:27Z</time></trkpt><trkpt lat="42.90246503720276" lon="12.805532580792946"><ele>1150.8</ele><time>2026-05-03T10:05:28Z</time></trkpt><trkpt lat="42.90250877409849" lon="12.805400524528384"><ele>1152.2</ele><time>2026-05-03T10:05:29Z</time></trkpt><trkpt lat="42.902551397860535" lon="12.80528382918472"><ele>1153.6</ele><time>2026-05-03T10:05:30Z</time></trkpt><trkpt lat="42.90257362757905" lon="12.805172027177617"><ele>1155.0</ele><time>2026-05-03T10:05:31Z</time></trkpt><trkpt lat="42.9025859021226" lon="12.805045272272109"><ele>1160.25</ele><time>2026-05-03T10:05:32Z</time></trkpt><trkpt lat="42.902583607582756" lon="12.804908717557213"><ele>1165.5</ele><time>2026-05-03T10:05:33Z</time></trkpt><trkpt lat="42.90259831203762" lon="12.804727515701304"><ele>1170.75</ele><time>2026-05-03T10:05:34Z</time></trkpt><trkpt lat="42.902621601041275" lon="12.804567954144726"><ele>1176.0</ele><time>2026-05-03T10:05:35Z</time></trkpt><trkpt lat="42.90263734679525" lon="12.804435408558104"><ele>1176.8</ele><time>2026-05-03T10:05:36Z</time></trkpt><trkpt lat="42.9026425174386" lon="12.804296209760455"><ele>1177.6</ele><time>2026-05-03T10:05:37Z</time></trkpt><trkpt lat="42.90263338106917" lon="12.80414798377389"><ele>1178.4</ele><time>2026-05-03T10:05:38Z</time></trkpt><trkpt lat="42.90263368838703" lon="12.80399191987588"><ele>1179.2</ele><time>2026-05-03T10:05:39Z</time></trkpt><trkpt lat="42.90266022671997" lon="12.80383820599696"><ele>1180.0</ele><time>2026-05-03T10:05:40Z</time></trkpt><trkpt lat="42.90269199735786" lon="12.80369370924486"><ele>1180.0</ele><time>2026-05-03T10:05:41Z</time></trkpt><trkpt lat="42.90271472641559" lon="12.803566899200415"><ele>1180.0</ele><time>2026-05-03T10:05:42Z</time></trkpt><trkpt lat="42.90271743027368" lon="12.803480815540246"><ele>1180.0</ele><time>2026-05-03T10:05:43Z</time></trkpt><trkpt lat="42.90271227514701" lon="12.803392164773014"><ele>1180.0</ele><time>2026-05-03T10:05:45Z</time></trkpt><trkpt lat="42.902673436877095" lon="12.803304554864317"><ele>1180.0</ele><time>2026-05-03T10:05:48Z</time></trkpt><trkpt lat="42.90265574605957" lon="12.803200423646624"><ele>1180.0</ele><time>2026-05-03T10:05:51Z</time></trkpt><trkpt lat="42.902653447937304" lon="12.803072071131833"><ele>1179.8333333333333</ele><time>2026-05-03T10:08:19Z</time></trkpt><trkpt lat="42.90267841059863" lon="12.802957377710735"><ele>1179.6666666666665</ele><time>2026-05-03T10:08:20Z</time></trkpt><trkpt lat="42.90270630222369" lon="12.802849852288396"><ele>1179.5</ele><time>2026-05-03T10:08:21Z</time></trkpt><trkpt lat="42.90271575501637" lon="12.802741752225167"><ele>1179.3333333333333</ele><time>2026-05-03T10:08:22Z</time></trkpt><trkpt lat="42.902722498508474" lon="12.802646284463771"><ele>1179.1666666666667</ele><time>2026-05-03T10:08:23Z</time></trkpt><trkpt lat="42.902736964400745" lon="12.802540339851863"><ele>1179.0</ele><time>2026-05-03T10:08:24Z</time></trkpt><trkpt lat="42.90275190060195" lon="12.802440975638815"><ele>1179.0</ele><time>2026-05-03T10:08:25Z</time></trkpt><trkpt lat="42.90274724061477" lon="12.802276762625924"><ele>1179.0</ele><time>2026-05-03T10:08:27Z</time></trkpt><trkpt lat="42.902728805190975" lon="12.802106073326504"><ele>1179.0</ele><time>2026-05-03T10:08:29Z</time></trkpt><trkpt lat="42.902742098072984" lon="12.801982852484395"><ele>1179.0</ele><time>2026-05-03T10:08:31Z</time></trkpt><trkpt lat="42.902752597715484" lon="12.801892280359434"><ele>1179.0</ele><time>2026-05-03T10:08:34Z</time></trkpt><trkpt lat="42.90273512284997" lon="12.801799837733181"><ele>1177.0</ele><time>2026-05-03T10:08:36Z</time></trkpt><trkpt lat="42.90270940816352" lon="12.801688129474588"><ele>1175.0</ele><time>2026-05-03T10:08:38Z</time></trkpt><trkpt lat="42.902686177579945" lon="12.801578055857366"><ele>1173.0</ele><time>2026-05-03T10:08:40Z</time></trkpt><trkpt lat="42.90264058301917" lon="12.801485665871661"><ele>1171.0</ele><time>2026-05-03T10:08:43Z</time></trkpt><trkpt lat="42.902590212516856" lon="12.80139648035901"><ele>1169.0</ele><time>2026-05-03T10:08:45Z</time></trkpt><trkpt lat="42.90253450093377" lon="12.801280920674929"><ele>1167.0</ele><time>2026-05-03T10:08:47Z</time></trkpt><trkpt lat="42.90249625404201" lon="12.80115691533853"><ele>1165.3333333333333</ele><time>2026-05-03T10:08:49Z</time></trkpt><trkpt lat="42.90248347866137" lon="12.801030370864138"><ele>1163.6666666666667</ele><time>2026-05-03T10:08:51Z</time></trkpt><trkpt lat="42.90249414242021" lon="12.800934706853697"><ele>1162.0</ele><time>2026-05-03T10:08:53Z</time></trkpt><trkpt lat="42.90252262945141" lon="12.800849507696476"><ele>1160.3333333333335</ele><time>2026-05-03T10:08:55Z</time></trkpt><trkpt lat="42.90253910875494" lon="12.800752170514489"><ele>1158.6666666666667</ele><time>2026-05-03T10:08:57Z</time></trkpt><trkpt lat="42.90255535421395" lon="12.800638387609437"><ele>1157.0</ele><time>2026-05-03T10:08:59Z</time></trkpt><trkpt lat="42.90258408479056" lon="12.800524431473937"><ele>1155.6</ele><time>2026-05-03T10:09:01Z</time></trkpt><trkpt lat="42.902618313785275" lon="12.800426137322855"><ele>1154.2</ele><time>2026-05-03T10:09:03Z</time></trkpt><trkpt lat="42.90264441956371" lon="12.800311852722965"><ele>1152.8</ele><time>2026-05-03T10:09:05Z</time></trkpt><trkpt lat="42.902659292626915" lon="12.80020605165298"><ele>1151.4</ele><time>2026-05-03T10:09:07Z</time></trkpt><trkpt lat="42.90268321795382" lon="12.800119544541497"><ele>1150.0</ele><time>2026-05-03T10:09:10Z</time></trkpt><trkpt lat="42.90275844689129" lon="12.799947236321191"><ele>1146.1666666666665</ele><time>2026-05-03T10:09:13Z</time></trkpt><trkpt lat="42.90280861317321" lon="12.799872621142201"><ele>1142.3333333333333</ele><time>2026-05-03T10:09:15Z</time></trkpt><trkpt lat="42.90287823386139" lon="12.799785295250597"><ele>1138.5</ele><time>2026-05-03T10:09:17Z</time></trkpt><trkpt lat="42.90297176793129" lon="12.799714139331865"><ele>1134.6666666666667</ele><time>2026-05-03T10:09:19Z</time></trkpt><trkpt lat="42.903047683460954" lon="12.799676153585105"><ele>1130.8333333333335</ele><time>2026-05-03T10:09:21Z</time></trkpt><trkpt lat="42.903129284013" lon="12.799622084222978"><ele>1127.0</ele><time>2026-05-03T10:09:23Z</time></trkpt><trkpt lat="42.90320581547554" lon="12.799556425006568"><ele>1127.0</ele><time>2026-05-03T10:09:25Z</time></trkpt><trkpt lat="42.903293201220045" lon="12.799548207568451"><ele>1127.0</ele><time>2026-05-03T10:09:27Z</time></trkpt><trkpt lat="42.90331665210802" lon="12.799463359296341"><ele>1127.0</ele><time>2026-05-03T10:09:30Z</time></trkpt><trkpt lat="42.90326343459585" lon="12.79941548665217"><ele>1127.0</ele><time>2026-05-03T10:09:32Z</time></trkpt><trkpt lat="42.90319969600448" lon="12.799360796303413"><ele>1127.0</ele><time>2026-05-03T10:09:34Z</time></trkpt><trkpt lat="42.90304200481029" lon="12.799271711923874"><ele>1122.2</ele><time>2026-05-03T10:09:36Z</time></trkpt><trkpt lat="42.90298001337744" lon="12.799242652232325"><ele>1117.4</ele><time>2026-05-03T10:09:37Z</time></trkpt><trkpt lat="42.90286675532039" lon="12.79919639631832"><ele>1112.6</ele><time>2026-05-03T10:09:39Z</time></trkpt><trkpt lat="42.90276095366511" lon="12.799142656184902"><ele>1107.8</ele><time>2026-05-03T10:09:41Z</time></trkpt><trkpt lat="42.90265017604701" lon="12.799102670559023"><ele>1103.0</ele><time>2026-05-03T10:09:43Z</time></trkpt><trkpt lat="42.90255335678243" lon="12.7990332289384"><ele>1103.0</ele><time>2026-05-03T10:09:45Z</time></trkpt><trkpt lat="42.90244518710991" lon="12.799038713757367"><ele>1103.0</ele><time>2026-05-03T10:09:47Z</time></trkpt><trkpt lat="42.90233151553323" lon="12.79902773032069"><ele>1103.0</ele><time>2026-05-03T10:09:49Z</time></trkpt><trkpt lat="42.90222840038327" lon="12.799022309494019"><ele>1103.0</ele><time>2026-05-03T10:09:51Z</time></trkpt><trkpt lat="42.90211723052936" lon="12.799051494036178"><ele>1103.0</ele><time>2026-05-03T10:09:54Z</time></trkpt><trkpt lat="42.902034293253486" lon="12.799037945554563"><ele>1103.0</ele><time>2026-05-03T10:09:56Z</time></trkpt><trkpt lat="42.9019603782436" lon="12.79907648204698"><ele>1103.0</ele><time>2026-05-03T10:09:58Z</time></trkpt><trkpt lat="42.90187810554133" lon="12.799139798167108"><ele>1103.0</ele><time>2026-05-03T10:10:00Z</time></trkpt><trkpt lat="42.90181291928776" lon="12.799188492561761"><ele>1103.0</ele><time>2026-05-03T10:10:03Z</time></trkpt><trkpt lat="42.901746370153916" lon="12.799117458506469"><ele>1103.0</ele><time>2026-05-03T10:10:10Z</time></trkpt><trkpt lat="42.90180905992384" lon="12.798998930408464"><ele>1103.0</ele><time>2026-05-03T10:10:12Z</time></trkpt><trkpt lat="42.901850372460224" lon="12.798858592054653"><ele>1103.0</ele><time>2026-05-03T10:10:14Z</time></trkpt><trkpt lat="42.901892404988644" lon="12.79877503233479"><ele>1103.0</ele><time>2026-05-03T10:10:16Z</time></trkpt><trkpt lat="42.901998208670655" lon="12.798552568809901"><ele>1103.0</ele><time>2026-05-03T10:10:17Z</time></trkpt><trkpt lat="42.90202061227663" lon="12.798464654407864"><ele>1103.0</ele><time>2026-05-03T10:10:18Z</time></trkpt><trkpt lat="42.902052711430436" lon="12.798327220350279"><ele>1103.0</ele><time>2026-05-03T10:10:20Z</time></trkpt><trkpt lat="42.90206634291337" lon="12.798217958906015"><ele>1098.2</ele><time>2026-05-03T10:10:22Z</time></trkpt><trkpt lat="42.90210060605846" lon="12.798067196691377"><ele>1093.4</ele><time>2026-05-03T10:10:24Z</time></trkpt><trkpt lat="42.90214133829212" lon="12.797947728313023"><ele>1088.6000000000001</ele><time>2026-05-03T10:10:26Z</time></trkpt><trkpt lat="42.90216617187792" lon="12.79782080086239"><ele>1083.8</ele><time>2026-05-03T10:10:28Z</time></trkpt><trkpt lat="42.902274723566194" lon="12.797701953893855"><ele>1079.0</ele><time>2026-05-03T10:10:30Z</time></trkpt><trkpt lat="42.90232113734667" lon="12.797602514170427"><ele>1074.0</ele><time>2026-05-03T10:10:32Z</time></trkpt><trkpt lat="42.9023764110282" lon="12.797439843164632"><ele>1069.0</ele><time>2026-05-03T10:10:34Z</time></trkpt><trkpt lat="42.902466306221825" lon="12.797341468787927"><ele>1064.0</ele><time>2026-05-03T10:10:36Z</time></trkpt><trkpt lat="42.90253168789833" lon="12.797230739474397"><ele>1059.0</ele><time>2026-05-03T10:10:38Z</time></trkpt><trkpt lat="42.90259645553083" lon="12.797131656828675"><ele>1054.0</ele><time>2026-05-03T10:10:40Z</time></trkpt><trkpt lat="42.90268251878284" lon="12.797070546484898"><ele>1054.0</ele><time>2026-05-03T10:10:42Z</time></trkpt><trkpt lat="42.9027518532089" lon="12.796978214199621"><ele>1054.0</ele><time>2026-05-03T10:10:44Z</time></trkpt><trkpt lat="42.902826776943954" lon="12.796887812985034"><ele>1054.0</ele><time>2026-05-03T10:10:46Z</time></trkpt><trkpt lat="42.90289409835461" lon="12.796811920938385"><ele>1054.0</ele><time>2026-05-03T10:10:48Z</time></trkpt><trkpt lat="42.90297081062755" lon="12.796742276745265"><ele>1054.0</ele><time>2026-05-03T10:10:50Z</time></trkpt><trkpt lat="42.90305163521361" lon="12.796685802645799"><ele>1049.0</ele><time>2026-05-03T10:10:52Z</time></trkpt><trkpt lat="42.90314979813341" lon="12.796657506830668"><ele>1044.0</ele><time>2026-05-03T10:10:54Z</time></trkpt><trkpt lat="42.9032404940947" lon="12.796652607753398"><ele>1039.0</ele><time>2026-05-03T10:10:56Z</time></trkpt><trkpt lat="42.90328747236919" lon="12.796584203053362"><ele>1034.0</ele><time>2026-05-03T10:10:58Z</time></trkpt><trkpt lat="42.90323051963482" lon="12.796457581567578"><ele>1029.0</ele><time>2026-05-03T10:11:00Z</time></trkpt><trkpt lat="42.903193311977674" lon="12.796330836178102"><ele>1029.0</ele><time>2026-05-03T10:11:02Z</time></trkpt><trkpt lat="42.903151182634765" lon="12.796219487245013"><ele>1029.0</ele><time>2026-05-03T10:11:04Z</time></trkpt><trkpt lat="42.90311739114031" lon="12.796104133021533"><ele>1029.0</ele><time>2026-05-03T10:11:06Z</time></trkpt><trkpt lat="42.90306692051213" lon="12.795998436967368"><ele>1029.0</ele><time>2026-05-03T10:11:08Z</time></trkpt><trkpt lat="42.90300996009012" lon="12.795887567949427"><ele>1029.0</ele><time>2026-05-03T10:11:10Z</time></trkpt><trkpt lat="42.90294799580056" lon="12.795773952051839"><ele>1024.4</ele><time>2026-05-03T10:11:12Z</time></trkpt><trkpt lat="42.90289065091014" lon="12.795632978026767"><ele>1019.8000000000001</ele><time>2026-05-03T10:11:14Z</time></trkpt><trkpt lat="42.90280411098769" lon="12.79554071832855"><ele>1015.1999999999999</ele><time>2026-05-03T10:11:16Z</time></trkpt><trkpt lat="42.90275197937615" lon="12.79540668449997"><ele>1010.5999999999999</ele><time>2026-05-03T10:11:18Z</time></trkpt><trkpt lat="42.902687593218474" lon="12.795284633946416"><ele>1006.0</ele><time>2026-05-03T10:11:20Z</time></trkpt><trkpt lat="42.90264021968416" lon="12.795226209163864"><ele>1003.4999999999999</ele><time>2026-05-03T10:11:21Z</time></trkpt><trkpt lat="42.90256085508242" lon="12.795129160516305"><ele>1001.0</ele><time>2026-05-03T10:11:23Z</time></trkpt><trkpt lat="42.902533848072174" lon="12.795028774999956"><ele>998.5</ele><time>2026-05-03T10:11:25Z</time></trkpt><trkpt lat="42.90254267219686" lon="12.794930583092743"><ele>996.0</ele><time>2026-05-03T10:11:27Z</time></trkpt><trkpt lat="42.90246802714795" lon="12.794846512489885"><ele>993.4999999999999</ele><time>2026-05-03T10:11:30Z</time></trkpt><trkpt lat="42.90240289333157" lon="12.79475614878553"><ele>991.0</ele><time>2026-05-03T10:11:32Z</time></trkpt><trkpt lat="42.902385916119734" lon="12.794620947981272"><ele>990.9999999999999</ele><time>2026-05-03T10:11:34Z</time></trkpt><trkpt lat="42.90236557734909" lon="12.794485221719395"><ele>991.0</ele><time>2026-05-03T10:11:36Z</time></trkpt><trkpt lat="42.90233258681434" lon="12.79435231495475"><ele>991.0</ele><time>2026-05-03T10:11:38Z</time></trkpt><trkpt lat="42.90231887800536" lon="12.794247001295007"><ele>991.0</ele><time>2026-05-03T10:11:40Z</time></trkpt><trkpt lat="42.90236850501024" lon="12.794142717226078"><ele>990.9999999999999</ele><time>2026-05-03T10:11:44Z</time></trkpt><trkpt lat="42.902417048274" lon="12.794075452641964"><ele>991.0</ele><time>2026-05-03T10:11:46Z</time></trkpt><trkpt lat="42.90241004098906" lon="12.793982214159756"><ele>985.75</ele><time>2026-05-03T10:11:48Z</time></trkpt><trkpt lat="42.90235418165529" lon="12.793867769038014"><ele>980.5</ele><time>2026-05-03T10:11:50Z</time></trkpt><trkpt lat="42.90229030290031" lon="12.793798225364188"><ele>975.25</ele><time>2026-05-03T10:11:52Z</time></trkpt><trkpt lat="42.90235190369123" lon="12.79373519088519"><ele>970.0</ele><time>2026-05-03T10:12:50Z</time></trkpt><trkpt lat="42.90254692234714" lon="12.793747749503531"><ele>968.3333333333333</ele><time>2026-05-03T10:12:54Z</time></trkpt><trkpt lat="42.902611311652436" lon="12.793758476420868"><ele>966.6666666666666</ele><time>2026-05-03T10:12:55Z</time></trkpt><trkpt lat="42.902679514618214" lon="12.793756512033392"><ele>965.0</ele><time>2026-05-03T10:12:56Z</time></trkpt><trkpt lat="42.9027576762802" lon="12.793758708106058"><ele>963.3333333333333</ele><time>2026-05-03T10:12:57Z</time></trkpt><trkpt lat="42.902844443919335" lon="12.793788164793167"><ele>961.6666666666666</ele><time>2026-05-03T10:12:58Z</time></trkpt><trkpt lat="42.90292837260007" lon="12.793818380176056"><ele>960.0</ele><time>2026-05-03T10:12:59Z</time></trkpt><trkpt lat="42.90300886390224" lon="12.79382164837054"><ele>960.0</ele><time>2026-05-03T10:13:00Z</time></trkpt><trkpt lat="42.903079255336536" lon="12.793838038594844"><ele>960.0</ele><time>2026-05-03T10:13:01Z</time></trkpt><trkpt lat="42.903147102427944" lon="12.79386516456545"><ele>960.0</ele><time>2026-05-03T10:13:02Z</time></trkpt><trkpt lat="42.90321519180354" lon="12.793901962703405"><ele>960.0</ele><time>2026-05-03T10:13:03Z</time></trkpt><trkpt lat="42.903285657024085" lon="12.79393727114531"><ele>960.0</ele><time>2026-05-03T10:13:04Z</time></trkpt><trkpt lat="42.903359761667886" lon="12.793960725290376"><ele>960.0</ele><time>2026-05-03T10:13:05Z</time></trkpt><trkpt lat="42.90343519786598" lon="12.794019055744654"><ele>961.3333333333334</ele><time>2026-05-03T10:13:06Z</time></trkpt><trkpt lat="42.90350521445069" lon="12.794085319511467"><ele>962.6666666666667</ele><time>2026-05-03T10:13:07Z</time></trkpt><trkpt lat="42.90359229579342" lon="12.794135898695373"><ele>964.0</ele><time>2026-05-03T10:13:08Z</time></trkpt><trkpt lat="42.90365608298015" lon="12.794194909732227"><ele>965.3333333333334</ele><time>2026-05-03T10:13:09Z</time></trkpt><trkpt lat="42.903717356272615" lon="12.794253627308203"><ele>966.6666666666667</ele><time>2026-05-03T10:13:10Z</time></trkpt><trkpt lat="42.903780724228405" lon="12.79430625816897"><ele>968.0</ele><time>2026-05-03T10:13:11Z</time></trkpt><trkpt lat="42.903845201095784" lon="12.794360970085371"><ele>968.0000000000001</ele><time>2026-05-03T10:13:12Z</time></trkpt><trkpt lat="42.90390096996213" lon="12.794436449172105"><ele>968.0</ele><time>2026-05-03T10:13:13Z</time></trkpt><trkpt lat="42.903954179969794" lon="12.79451816937424"><ele>968.0</ele><time>2026-05-03T10:13:14Z</time></trkpt><trkpt lat="42.90401381584606" lon="12.794568866132458"><ele>968.0</ele><time>2026-05-03T10:13:15Z</time></trkpt><trkpt lat="42.90413257529754" lon="12.794547191307206"><ele>968.0000000000001</ele><time>2026-05-03T10:13:17Z</time></trkpt><trkpt lat="42.904189497209344" lon="12.794496617393078"><ele>968.0</ele><time>2026-05-03T10:13:18Z</time></trkpt><trkpt lat="42.9042947241137" lon="12.794500416642693"><ele>965.0000000000001</ele><time>2026-05-03T10:13:20Z</time></trkpt><trkpt lat="42.904377824008165" lon="12.794492245556507"><ele>962.0</ele><time>2026-05-03T10:13:22Z</time></trkpt><trkpt lat="42.90446012511221" lon="12.794499945665262"><ele>959.0</ele><time>2026-05-03T10:13:24Z</time></trkpt><trkpt lat="42.90455107152859" lon="12.79442244702142"><ele>956.0</ele><time>2026-05-03T10:13:26Z</time></trkpt><trkpt lat="42.904632764824875" lon="12.794403972458332"><ele>953.0000000000001</ele><time>2026-05-03T10:13:28Z</time></trkpt><trkpt lat="42.90469234736479" lon="12.794435089112143"><ele>950.0</ele><time>2026-05-03T10:13:29Z</time></trkpt><trkpt lat="42.90478695541478" lon="12.794498833915018"><ele>950.0</ele><time>2026-05-03T10:13:31Z</time></trkpt><trkpt lat="42.90486455390912" lon="12.79453273920356"><ele>950.0</ele><time>2026-05-03T10:13:33Z</time></trkpt><trkpt lat="42.90493792457599" lon="12.794594438851945"><ele>950.0</ele><time>2026-05-03T10:13:35Z</time></trkpt><trkpt lat="42.90500900947011" lon="12.794692991905768"><ele>950.0</ele><time>2026-05-03T10:13:37Z</time></trkpt><trkpt lat="42.90507928924333" lon="12.794798892878145"><ele>950.0</ele><time>2026-05-03T10:13:39Z</time></trkpt><trkpt lat="42.905154791815875" lon="12.794901310776284"><ele>951.5000000000001</ele><time>2026-05-03T10:13:41Z</time></trkpt><trkpt lat="42.905248586905465" lon="12.795005932073018"><ele>953.0</ele><time>2026-05-03T10:13:43Z</time></trkpt><trkpt lat="42.90530935191297" lon="12.795055355156185"><ele>954.5</ele><time>2026-05-03T10:13:44Z</time></trkpt><trkpt lat="42.905363429673336" lon="12.795123598124203"><ele>956.0</ele><time>2026-05-03T10:13:45Z</time></trkpt><trkpt lat="42.90543594728015" lon="12.795209738686514"><ele>957.5000000000001</ele><time>2026-05-03T10:13:47Z</time></trkpt><trkpt lat="42.905484864980124" lon="12.795271639105476"><ele>959.0</ele><time>2026-05-03T10:13:48Z</time></trkpt><trkpt lat="42.90554158526504" lon="12.795313265559692"><ele>959.0000000000001</ele><time>2026-05-03T10:13:49Z</time></trkpt><trkpt lat="42.90561470117847" lon="12.79541617740081"><ele>959.0</ele><time>2026-05-03T10:13:51Z</time></trkpt><trkpt lat="42.905679312324224" lon="12.795359663497942"><ele>959.0</ele><time>2026-05-03T10:13:54Z</time></trkpt><trkpt lat="42.90574056027603" lon="12.795285005934698"><ele>959.0</ele><time>2026-05-03T10:13:57Z</time></trkpt><trkpt lat="42.90578410826492" lon="12.795177789276336"><ele>959.0000000000001</ele><time>2026-05-03T10:13:59Z</time></trkpt><trkpt lat="42.905832777549456" lon="12.795119739315876"><ele>959.0</ele><time>2026-05-03T10:14:00Z</time></trkpt><trkpt lat="42.905875818283405" lon="12.795052177627932"><ele>954.4000000000001</ele><time>2026-05-03T10:14:01Z</time></trkpt><trkpt lat="42.905902870417016" lon="12.794935993385412"><ele>949.8000000000001</ele><time>2026-05-03T10:14:03Z</time></trkpt><trkpt lat="42.905962731521704" lon="12.794897793238771"><ele>945.1999999999999</ele><time>2026-05-03T10:14:06Z</time></trkpt><trkpt lat="42.9060127807725" lon="12.794800880323033"><ele>940.5999999999999</ele><time>2026-05-03T10:14:07Z</time></trkpt><trkpt lat="42.906063060856404" lon="12.794720190698392"><ele>936.0</ele><time>2026-05-03T10:14:09Z</time></trkpt><trkpt lat="42.906193098937166" lon="12.794624312987322"><ele>936.0</ele><time>2026-05-03T10:14:11Z</time></trkpt><trkpt lat="42.90624717791055" lon="12.794570235268258"><ele>936.0</ele><time>2026-05-03T10:14:12Z</time></trkpt><trkpt lat="42.90633308323668" lon="12.79450838066089"><ele>936.0</ele><time>2026-05-03T10:14:14Z</time></trkpt><trkpt lat="42.90640566227518" lon="12.794501027724051"><ele>936.0</ele><time>2026-05-03T10:14:16Z</time></trkpt><trkpt lat="42.90650068369195" lon="12.794520180947936"><ele>936.0</ele><time>2026-05-03T10:14:18Z</time></trkpt><trkpt lat="42.906607881095695" lon="12.794508321752419"><ele>936.0</ele><time>2026-05-03T10:14:20Z</time></trkpt><trkpt lat="42.90668970996986" lon="12.794480578301911"><ele>934.8</ele><time>2026-05-03T10:14:22Z</time></trkpt><trkpt lat="42.90677713720583" lon="12.794504236603009"><ele>933.5999999999999</ele><time>2026-05-03T10:14:24Z</time></trkpt><trkpt lat="42.906897299691096" lon="12.79458415339989"><ele>932.4</ele><time>2026-05-03T10:14:26Z</time></trkpt><trkpt lat="42.906971586191425" lon="12.794554795666091"><ele>931.2</ele><time>2026-05-03T10:14:28Z</time></trkpt><trkpt lat="42.907064214321075" lon="12.794525669460928"><ele>930.0</ele><time>2026-05-03T10:14:30Z</time></trkpt><trkpt lat="42.907194827202495" lon="12.79454014691731"><ele>930.0</ele><time>2026-05-03T10:14:32Z</time></trkpt><trkpt lat="42.90725885981654" lon="12.79459302362031"><ele>930.0</ele><time>2026-05-03T10:14:33Z</time></trkpt><trkpt lat="42.90731765810924" lon="12.794638549043489"><ele>930.0</ele><time>2026-05-03T10:14:34Z</time></trkpt><trkpt lat="42.907408421909686" lon="12.794646892237415"><ele>930.0</ele><time>2026-05-03T10:14:35Z</time></trkpt><trkpt lat="42.90749329023936" lon="12.794674912662801"><ele>930.0</ele><time>2026-05-03T10:14:36Z</time></trkpt><trkpt lat="42.90756895548047" lon="12.794695695344398"><ele>930.0</ele><time>2026-05-03T10:14:37Z</time></trkpt><trkpt lat="42.907642758890496" lon="12.794719170272419"><ele>927.8333333333334</ele><time>2026-05-03T10:14:38Z</time></trkpt><trkpt lat="42.90771978524851" lon="12.794737662055091"><ele>925.6666666666667</ele><time>2026-05-03T10:14:39Z</time></trkpt><trkpt lat="42.90778605690193" lon="12.79475628522841"><ele>923.5</ele><time>2026-05-03T10:14:40Z</time></trkpt><trkpt lat="42.90784500473057" lon="12.794793873259879"><ele>921.3333333333334</ele><time>2026-05-03T10:14:41Z</time></trkpt><trkpt lat="42.907900534347235" lon="12.794839568735775"><ele>919.1666666666667</ele><time>2026-05-03T10:14:42Z</time></trkpt><trkpt lat="42.90799831870162" lon="12.794857959266945"><ele>917.0</ele><time>2026-05-03T10:14:45Z</time></trkpt><trkpt lat="42.908088804053" lon="12.794919771057659"><ele>917.0</ele><time>2026-05-03T10:14:47Z</time></trkpt><trkpt lat="42.90819673547253" lon="12.794976090158663"><ele>917.0</ele><time>2026-05-03T10:14:49Z</time></trkpt><trkpt lat="42.90825298446713" lon="12.795024083643346"><ele>917.0</ele><time>2026-05-03T10:14:50Z</time></trkpt><trkpt lat="42.90830673457513" lon="12.795073495078261"><ele>917.0</ele><time>2026-05-03T10:14:51Z</time></trkpt><trkpt lat="42.90840893562167" lon="12.795127197262206"><ele>917.0</ele><time>2026-05-03T10:14:53Z</time></trkpt><trkpt lat="42.90850263706885" lon="12.795140941251711"><ele>918.8333333333334</ele><time>2026-05-03T10:14:55Z</time></trkpt><trkpt lat="42.90856657857626" lon="12.795180306682637"><ele>920.6666666666667</ele><time>2026-05-03T10:14:56Z</time></trkpt><trkpt lat="42.90863455858821" lon="12.795234931298516"><ele>922.5</ele><time>2026-05-03T10:14:57Z</time></trkpt><trkpt lat="42.908705389808" lon="12.795289691333956"><ele>924.3333333333333</ele><time>2026-05-03T10:14:58Z</time></trkpt><trkpt lat="42.90877154697198" lon="12.795340486730343"><ele>926.1666666666666</ele><time>2026-05-03T10:14:59Z</time></trkpt><trkpt lat="42.908886184933685" lon="12.795423937082159"><ele>928.0</ele><time>2026-05-03T10:15:01Z</time></trkpt><trkpt lat="42.909000876865086" lon="12.795480422543012"><ele>928.0</ele><time>2026-05-03T10:15:03Z</time></trkpt><trkpt lat="42.90907334323195" lon="12.795537914923454"><ele>928.0</ele><time>2026-05-03T10:15:04Z</time></trkpt><trkpt lat="42.90913725305206" lon="12.795577627123913"><ele>928.0</ele><time>2026-05-03T10:15:05Z</time></trkpt><trkpt lat="42.90922588938749" lon="12.795639767219232"><ele>928.0</ele><time>2026-05-03T10:15:07Z</time></trkpt><trkpt lat="42.909322293449854" lon="12.79568293856011"><ele>928.0</ele><time>2026-05-03T10:15:09Z</time></trkpt><trkpt lat="42.9094293616427" lon="12.795728994995478"><ele>923.2</ele><time>2026-05-03T10:15:11Z</time></trkpt><trkpt lat="42.90949238599517" lon="12.79574710006678"><ele>918.4</ele><time>2026-05-03T10:15:12Z</time></trkpt><trkpt lat="42.90960517343096" lon="12.795835537164312"><ele>913.6000000000001</ele><time>2026-05-03T10:15:14Z</time></trkpt><trkpt lat="42.909664301703" lon="12.795872941446186"><ele>908.8000000000001</ele><time>2026-05-03T10:15:15Z</time></trkpt><trkpt lat="42.90978017039715" lon="12.795918299678142"><ele>904.0</ele><time>2026-05-03T10:15:17Z</time></trkpt><trkpt lat="42.90990161000162" lon="12.795977689618898"><ele>906.6666666666666</ele><time>2026-05-03T10:15:19Z</time></trkpt><trkpt lat="42.909962137600566" lon="12.796048240638589"><ele>909.3333333333333</ele><time>2026-05-03T10:15:20Z</time></trkpt><trkpt lat="42.91002651512195" lon="12.796102714837861"><ele>912.0</ele><time>2026-05-03T10:15:21Z</time></trkpt><trkpt lat="42.91008869988549" lon="12.796137231030082"><ele>914.6666666666667</ele><time>2026-05-03T10:15:22Z</time></trkpt><trkpt lat="42.91016795304214" lon="12.7961600088363"><ele>917.3333333333334</ele><time>2026-05-03T10:15:23Z</time></trkpt><trkpt lat="42.91023207272501" lon="12.796204788628422"><ele>920.0</ele><time>2026-05-03T10:15:24Z</time></trkpt><trkpt lat="42.910342640998095" lon="12.796257114309391"><ele>920.0</ele><time>2026-05-03T10:15:26Z</time></trkpt><trkpt lat="42.910452002433544" lon="12.796335171039269"><ele>920.0</ele><time>2026-05-03T10:15:28Z</time></trkpt><trkpt lat="42.910498838333325" lon="12.796485759831622"><ele>920.0</ele><time>2026-05-03T10:15:30Z</time></trkpt><trkpt lat="42.91051816998211" lon="12.796654354750292"><ele>920.0</ele><time>2026-05-03T10:15:32Z</time></trkpt><trkpt lat="42.910575505768264" lon="12.796725024086092"><ele>920.0</ele><time>2026-05-03T10:15:34Z</time></trkpt><trkpt lat="42.910619114108535" lon="12.796654939708223"><ele>920.0000000000001</ele><time>2026-05-03T10:15:35Z</time></trkpt><trkpt lat="42.91066226611168" lon="12.796574927246363"><ele>920.0</ele><time>2026-05-03T10:15:36Z</time></trkpt><trkpt lat="42.910724817438435" lon="12.796521227625183"><ele>920.0</ele><time>2026-05-03T10:15:37Z</time></trkpt><trkpt lat="42.91079699709636" lon="12.796476271925807"><ele>920.0</ele><time>2026-05-03T10:15:38Z</time></trkpt><trkpt lat="42.910872111128675" lon="12.796442936547377"><ele>920.0000000000001</ele><time>2026-05-03T10:15:39Z</time></trkpt><trkpt lat="42.91098853449637" lon="12.796445268192596"><ele>920.0</ele><time>2026-05-03T10:15:41Z</time></trkpt><trkpt lat="42.911052480611794" lon="12.796454045494663"><ele>920.6</ele><time>2026-05-03T10:15:42Z</time></trkpt><trkpt lat="42.91114561810678" lon="12.796455466551834"><ele>921.2</ele><time>2026-05-03T10:15:43Z</time></trkpt><trkpt lat="42.91123710417566" lon="12.796459738847776"><ele>921.8</ele><time>2026-05-03T10:15:44Z</time></trkpt><trkpt lat="42.91131802431187" lon="12.796487818862404"><ele>922.4</ele><time>2026-05-03T10:15:45Z</time></trkpt><trkpt lat="42.91141266651172" lon="12.79652587038424"><ele>923.0</ele><time>2026-05-03T10:15:46Z</time></trkpt><trkpt lat="42.911511786993294" lon="12.796534577182602"><ele>923.0000000000001</ele><time>2026-05-03T10:15:47Z</time></trkpt><trkpt lat="42.911583481516274" lon="12.796538037617069"><ele>923.0</ele><time>2026-05-03T10:15:48Z</time></trkpt><trkpt lat="42.911645566889675" lon="12.796597686983233"><ele>923.0</ele><time>2026-05-03T10:15:49Z</time></trkpt><trkpt lat="42.91173725759838" lon="12.796568763115802"><ele>923.0</ele><time>2026-05-03T10:15:50Z</time></trkpt><trkpt lat="42.91179491328248" lon="12.79662065998247"><ele>923.0000000000001</ele><time>2026-05-03T10:15:51Z</time></trkpt><trkpt lat="42.911862952959254" lon="12.796697314067337"><ele>923.0</ele><time>2026-05-03T10:15:52Z</time></trkpt><trkpt lat="42.91192908989793" lon="12.796715810389495"><ele>922.3333333333334</ele><time>2026-05-03T10:15:53Z</time></trkpt><trkpt lat="42.91199746237658" lon="12.796722223241098"><ele>921.6666666666667</ele><time>2026-05-03T10:15:55Z</time></trkpt><trkpt lat="42.912038494726445" lon="12.79662330756926"><ele>921.0</ele><time>2026-05-03T10:20:06Z</time></trkpt><trkpt lat="42.91211935547068" lon="12.796458022072441"><ele>920.3333333333333</ele><time>2026-05-03T10:20:08Z</time></trkpt><trkpt lat="42.912168709924806" lon="12.79637536521468"><ele>919.6666666666666</ele><time>2026-05-03T10:20:09Z</time></trkpt><trkpt lat="42.91220980801106" lon="12.796301814620435"><ele>919.0</ele><time>2026-05-03T10:20:11Z</time></trkpt><trkpt lat="42.91239861366991" lon="12.796402370275874"><ele>918.9999999999999</ele><time>2026-05-03T10:20:13Z</time></trkpt><trkpt lat="42.91246248279151" lon="12.796418044822792"><ele>919.0</ele><time>2026-05-03T10:20:14Z</time></trkpt><trkpt lat="42.91255199806393" lon="12.796441047936737"><ele>919.0</ele><time>2026-05-03T10:20:16Z</time></trkpt><trkpt lat="42.91264321823171" lon="12.796459456249506"><ele>919.0</ele><time>2026-05-03T10:20:18Z</time></trkpt><trkpt lat="42.91274155355125" lon="12.796446003533065"><ele>918.9999999999999</ele><time>2026-05-03T10:20:20Z</time></trkpt><trkpt lat="42.9128054548029" lon="12.796442922798636"><ele>919.0</ele><time>2026-05-03T10:20:22Z</time></trkpt><trkpt lat="42.912883774801124" lon="12.79643429365387"><ele>915.9999999999999</ele><time>2026-05-03T10:20:25Z</time></trkpt><trkpt lat="42.912955115428176" lon="12.796455319185732"><ele>913.0</ele><time>2026-05-03T10:20:28Z</time></trkpt><trkpt lat="42.913038401561074" lon="12.796468229231198"><ele>910.0</ele><time>2026-05-03T10:20:30Z</time></trkpt><trkpt lat="42.913121731443205" lon="12.796521518418686"><ele>907.0</ele><time>2026-05-03T10:20:33Z</time></trkpt><trkpt lat="42.91320228038269" lon="12.796519802630499"><ele>903.9999999999999</ele><time>2026-05-03T10:20:36Z</time></trkpt><trkpt lat="42.91327461150539" lon="12.79653368854388"><ele>901.0</ele><time>2026-05-03T10:20:41Z</time></trkpt><trkpt lat="42.91337962944693" lon="12.796539204675693"><ele>898.4285714285714</ele><time>2026-05-03T10:20:44Z</time></trkpt><trkpt lat="42.913451112927376" lon="12.796552563376336"><ele>895.8571428571429</ele><time>2026-05-03T10:20:47Z</time></trkpt><trkpt lat="42.91352141320554" lon="12.796564350537066"><ele>893.2857142857143</ele><time>2026-05-03T10:20:49Z</time></trkpt><trkpt lat="42.91358513911652" lon="12.796580409826783"><ele>890.7142857142858</ele><time>2026-05-03T10:20:51Z</time></trkpt><trkpt lat="42.913658835955935" lon="12.796611768788924"><ele>888.1428571428571</ele><time>2026-05-03T10:20:55Z</time></trkpt><trkpt lat="42.91369268731972" lon="12.796727151061264"><ele>885.5714285714287</ele><time>2026-05-03T10:21:00Z</time></trkpt><trkpt lat="42.913744797975674" lon="12.796779313246223"><ele>883.0</ele><time>2026-05-03T10:21:03Z</time></trkpt><trkpt lat="42.9137006723285" lon="12.79687559844189"><ele>882.9999999999999</ele><time>2026-05-03T10:21:07Z</time></trkpt><trkpt lat="42.91375918180467" lon="12.796958279231315"><ele>883.0</ele><time>2026-05-03T10:23:06Z</time></trkpt><trkpt lat="42.913849084174544" lon="12.797057131554576"><ele>883.0</ele><time>2026-05-03T10:23:08Z</time></trkpt><trkpt lat="42.91389928786116" lon="12.797114540276134"><ele>883.0</ele><time>2026-05-03T10:23:09Z</time></trkpt><trkpt lat="42.913955413330854" lon="12.79719683567224"><ele>882.9999999999999</ele><time>2026-05-03T10:23:10Z</time></trkpt><trkpt lat="42.91400572823446" lon="12.797266888093443"><ele>883.0</ele><time>2026-05-03T10:23:11Z</time></trkpt><trkpt lat="42.91405620937658" lon="12.797335789242586"><ele>883.0</ele><time>2026-05-03T10:23:12Z</time></trkpt><trkpt lat="42.91412083279698" lon="12.797446664291417"><ele>883.0</ele><time>2026-05-03T10:23:14Z</time></trkpt><trkpt lat="42.91417213556342" lon="12.797551469753502"><ele>883.0</ele><time>2026-05-03T10:23:16Z</time></trkpt><trkpt lat="42.914212222966434" lon="12.797667346078233"><ele>883.0</ele><time>2026-05-03T10:23:18Z</time></trkpt><trkpt lat="42.91418474915357" lon="12.797744744372366"><ele>883.0</ele><time>2026-05-03T10:23:20Z</time></trkpt><trkpt lat="42.91412117128741" lon="12.797893574685787"><ele>886.6666666666666</ele><time>2026-05-03T10:23:22Z</time></trkpt><trkpt lat="42.91408007918869" lon="12.797979398568762"><ele>890.3333333333333</ele><time>2026-05-03T10:23:23Z</time></trkpt><trkpt lat="42.91400288686087" lon="12.798097597493138"><ele>894.0</ele><time>2026-05-03T10:23:25Z</time></trkpt><trkpt lat="42.91396010825302" lon="12.798224097343375"><ele>897.6666666666667</ele><time>2026-05-03T10:23:27Z</time></trkpt><trkpt lat="42.913948914881566" lon="12.798332235571623"><ele>901.3333333333334</ele><time>2026-05-03T10:23:29Z</time></trkpt><trkpt lat="42.91395520162579" lon="12.798239938479764"><ele>905.0</ele><time>2026-05-03T10:25:01Z</time></trkpt><trkpt lat="42.913982118270525" lon="12.798140044915542"><ele>905.0000000000001</ele><time>2026-05-03T10:25:24.999Z</time></trkpt><trkpt lat="42.914017503190635" lon="12.798054872946286"><ele>905.0</ele><time>2026-05-03T10:25:26.999Z</time></trkpt><trkpt lat="42.91405578733233" lon="12.797974585842518"><ele>905.0</ele><time>2026-05-03T10:25:29.999Z</time></trkpt><trkpt lat="42.91399295701737" lon="12.797837807983266"><ele>905.0</ele><time>2026-05-03T10:25:41.999Z</time></trkpt><trkpt lat="42.91395017686736" lon="12.797745473537708"><ele>905.0000000000001</ele><time>2026-05-03T10:25:43.999Z</time></trkpt><trkpt lat="42.91392406024422" lon="12.797638476344131"><ele>905.0</ele><time>2026-05-03T10:25:45.999Z</time></trkpt><trkpt lat="42.91396207896096" lon="12.797554207666314"><ele>905.0000000000001</ele><time>2026-05-03T10:25:59.999Z</time></trkpt><trkpt lat="42.91403828684351" lon="12.797487690818677"><ele>905.0</ele><time>2026-05-03T10:26:01.999Z</time></trkpt><trkpt lat="42.91412849456238" lon="12.797449632947009"><ele>905.0</ele><time>2026-05-03T10:26:03.999Z</time></trkpt><trkpt lat="42.914211053192865" lon="12.7974930580186"><ele>905.0</ele><time>2026-05-03T10:26:05.999Z</time></trkpt><trkpt lat="42.91425421335024" lon="12.797566268436887"><ele>905.0000000000001</ele><time>2026-05-03T10:26:07.999Z</time></trkpt><trkpt lat="42.91421303164749" lon="12.797682279640561"><ele>905.0</ele><time>2026-05-03T10:28:55Z</time></trkpt><trkpt lat="42.914183064814246" lon="12.797768122546147"><ele>905.0000000000001</ele><time>2026-05-03T10:28:56Z</time></trkpt><trkpt lat="42.91414216236757" lon="12.797865270790563"><ele>905.0</ele><time>2026-05-03T10:28:57Z</time></trkpt><trkpt lat="42.91406913144003" lon="12.79796984140322"><ele>905.0</ele><time>2026-05-03T10:28:59Z</time></trkpt><trkpt lat="42.91401132032946" lon="12.79786475097399"><ele>905.0</ele><time>2026-05-03T10:29:02Z</time></trkpt><trkpt lat="42.91398579331402" lon="12.797782528792037"><ele>905.0000000000001</ele><time>2026-05-03T10:29:05Z</time></trkpt><trkpt lat="42.91392020473933" lon="12.797690532105896"><ele>905.0</ele><time>2026-05-03T10:29:18Z</time></trkpt><trkpt lat="42.91383468790004" lon="12.797613466500872"><ele>905.1666666666667</ele><time>2026-05-03T10:29:20Z</time></trkpt><trkpt lat="42.91377425992392" lon="12.79757069750768"><ele>905.3333333333334</ele><time>2026-05-03T10:29:21Z</time></trkpt><trkpt lat="42.91371029947487" lon="12.797532885924287"><ele>905.5</ele><time>2026-05-03T10:29:22Z</time></trkpt><trkpt lat="42.91363539767437" lon="12.797497801216535"><ele>905.6666666666667</ele><time>2026-05-03T10:29:23Z</time></trkpt><trkpt lat="42.91355353888249" lon="12.797469290472707"><ele>905.8333333333334</ele><time>2026-05-03T10:29:24Z</time></trkpt><trkpt lat="42.91345745811182" lon="12.79742903564017"><ele>906.0</ele><time>2026-05-03T10:29:25Z</time></trkpt><trkpt lat="42.91336194124056" lon="12.79739011383687"><ele>906.0</ele><time>2026-05-03T10:29:26Z</time></trkpt><trkpt lat="42.91326673827682" lon="12.79734139721437"><ele>906.0</ele><time>2026-05-03T10:29:27Z</time></trkpt><trkpt lat="42.913190269046304" lon="12.797287389884474"><ele>906.0</ele><time>2026-05-03T10:29:28Z</time></trkpt><trkpt lat="42.91310740369129" lon="12.797242702790033"><ele>906.0</ele><time>2026-05-03T10:29:29Z</time></trkpt><trkpt lat="42.91303226925803" lon="12.797217862776751"><ele>906.0</ele><time>2026-05-03T10:29:30Z</time></trkpt><trkpt lat="42.9129565520192" lon="12.797215539224492"><ele>906.0</ele><time>2026-05-03T10:29:31Z</time></trkpt><trkpt lat="42.91285849149354" lon="12.797205806177702"><ele>906.0</ele><time>2026-05-03T10:29:32Z</time></trkpt><trkpt lat="42.91274997043411" lon="12.7971541518719"><ele>905.9999999999999</ele><time>2026-05-03T10:29:33Z</time></trkpt><trkpt lat="42.91264995118776" lon="12.7970838331782"><ele>905.9999999999999</ele><time>2026-05-03T10:29:34Z</time></trkpt><trkpt lat="42.91256369819643" lon="12.796999849035483"><ele>906.0</ele><time>2026-05-03T10:29:35Z</time></trkpt><trkpt lat="42.91248436350899" lon="12.796901263511234"><ele>906.0</ele><time>2026-05-03T10:29:36Z</time></trkpt><trkpt lat="42.91241353247248" lon="12.79682320601037"><ele>907.8571428571427</ele><time>2026-05-03T10:29:37Z</time></trkpt><trkpt lat="42.91233196752186" lon="12.796778900382325"><ele>909.7142857142857</ele><time>2026-05-03T10:29:38Z</time></trkpt><trkpt lat="42.91225518941369" lon="12.796748414791216"><ele>911.5714285714284</ele><time>2026-05-03T10:29:39Z</time></trkpt><trkpt lat="42.912194541520414" lon="12.79671549231789"><ele>913.4285714285713</ele><time>2026-05-03T10:29:40Z</time></trkpt><trkpt lat="42.912138530799346" lon="12.796652598144252"><ele>915.2857142857142</ele><time>2026-05-03T10:29:42Z</time></trkpt><trkpt lat="42.91211569317322" lon="12.79656348816813"><ele>917.1428571428571</ele><time>2026-05-03T10:29:45Z</time></trkpt><trkpt lat="42.91211333330194" lon="12.79647147828203"><ele>919.0</ele><time>2026-05-03T10:30:54.001Z</time></trkpt><trkpt lat="42.91215604587419" lon="12.79640413227526"><ele>918.9999999999999</ele><time>2026-05-03T10:30:56.001Z</time></trkpt><trkpt lat="42.91218504114845" lon="12.7962614429559"><ele>919.0</ele><time>2026-05-03T10:30:58.001Z</time></trkpt><trkpt lat="42.912187442927035" lon="12.79612458024858"><ele>919.0</ele><time>2026-05-03T10:31:00.001Z</time></trkpt><trkpt lat="42.91214702325756" lon="12.796045389522837"><ele>919.0</ele><time>2026-05-03T10:31:01.001Z</time></trkpt><trkpt lat="42.91208973932325" lon="12.795977490845365"><ele>918.9999999999999</ele><time>2026-05-03T10:31:02.001Z</time></trkpt><trkpt lat="42.912049807805886" lon="12.795899085687864"><ele>919.0</ele><time>2026-05-03T10:31:05.001Z</time></trkpt><trkpt lat="42.91194404597669" lon="12.7957374226099"><ele>918.8000000000001</ele><time>2026-05-03T10:31:19.001Z</time></trkpt><trkpt lat="42.911895619274915" lon="12.795676245932095"><ele>918.6000000000001</ele><time>2026-05-03T10:31:20.001Z</time></trkpt><trkpt lat="42.91182419241821" lon="12.795563286994367"><ele>918.4</ele><time>2026-05-03T10:31:22.001Z</time></trkpt><trkpt lat="42.91175217383989" lon="12.795434662735477"><ele>918.2</ele><time>2026-05-03T10:31:24Z</time></trkpt><trkpt lat="42.91170492531314" lon="12.795361732189214"><ele>918.0</ele><time>2026-05-03T10:31:25Z</time></trkpt><trkpt lat="42.911660158722825" lon="12.795250435118628"><ele>919.8333333333334</ele><time>2026-05-03T10:31:26Z</time></trkpt><trkpt lat="42.911609880086495" lon="12.795162504066536"><ele>921.6666666666667</ele><time>2026-05-03T10:31:27Z</time></trkpt><trkpt lat="42.91156214056052" lon="12.79508117581976"><ele>923.5</ele><time>2026-05-03T10:31:28Z</time></trkpt><trkpt lat="42.911510023484986" lon="12.794992390054842"><ele>925.3333333333334</ele><time>2026-05-03T10:31:29Z</time></trkpt><trkpt lat="42.911459976894115" lon="12.794904724470692"><ele>927.1666666666667</ele><time>2026-05-03T10:31:30Z</time></trkpt><trkpt lat="42.91142407235792" lon="12.794828639010763"><ele>929.0</ele><time>2026-05-03T10:31:31Z</time></trkpt><trkpt lat="42.91139585391389" lon="12.794740328967194"><ele>929.0000000000001</ele><time>2026-05-03T10:31:32Z</time></trkpt><trkpt lat="42.91136467255058" lon="12.794633997110694"><ele>929.0</ele><time>2026-05-03T10:31:33Z</time></trkpt><trkpt lat="42.91134106493486" lon="12.794548119428654"><ele>929.0</ele><time>2026-05-03T10:31:34Z</time></trkpt><trkpt lat="42.91131949133458" lon="12.794461374035341"><ele>929.0</ele><time>2026-05-03T10:31:35Z</time></trkpt><trkpt lat="42.911282719912116" lon="12.794372286346249"><ele>929.0000000000001</ele><time>2026-05-03T10:31:36Z</time></trkpt><trkpt lat="42.911279061268836" lon="12.794264053180074"><ele>929.0</ele><time>2026-05-03T10:31:37Z</time></trkpt><trkpt lat="42.91125990142464" lon="12.794153115332428"><ele>930.8333333333334</ele><time>2026-05-03T10:31:38Z</time></trkpt><trkpt lat="42.911223465996805" lon="12.794051464376025"><ele>932.6666666666667</ele><time>2026-05-03T10:31:39Z</time></trkpt><trkpt lat="42.911204308796144" lon="12.793949074694142"><ele>934.5</ele><time>2026-05-03T10:31:40Z</time></trkpt><trkpt lat="42.91118050150048" lon="12.793838441255618"><ele>936.3333333333333</ele><time>2026-05-03T10:31:41Z</time></trkpt><trkpt lat="42.911160974292926" lon="12.793720231328454"><ele>938.1666666666666</ele><time>2026-05-03T10:31:42Z</time></trkpt><trkpt lat="42.91113940683332" lon="12.793615324930414"><ele>940.0</ele><time>2026-05-03T10:31:43Z</time></trkpt><trkpt lat="42.91112404004299" lon="12.793510246523358"><ele>939.4999999999999</ele><time>2026-05-03T10:31:44Z</time></trkpt><trkpt lat="42.91112832005644" lon="12.793409327969462"><ele>939.0</ele><time>2026-05-03T10:31:45Z</time></trkpt><trkpt lat="42.91111261968946" lon="12.793296482843107"><ele>938.5</ele><time>2026-05-03T10:31:46Z</time></trkpt><trkpt lat="42.91111356600767" lon="12.793178907011452"><ele>938.0</ele><time>2026-05-03T10:31:47Z</time></trkpt><trkpt lat="42.91111482046934" lon="12.793066559954596"><ele>937.4999999999999</ele><time>2026-05-03T10:31:48Z</time></trkpt><trkpt lat="42.91111465994543" lon="12.792958012079527"><ele>937.0</ele><time>2026-05-03T10:31:49Z</time></trkpt><trkpt lat="42.911118275299536" lon="12.792844570162108"><ele>936.9999999999999</ele><time>2026-05-03T10:31:50Z</time></trkpt><trkpt lat="42.911117557489604" lon="12.792757200171827"><ele>937.0</ele><time>2026-05-03T10:31:51Z</time></trkpt><trkpt lat="42.911107858649466" lon="12.792606134025428"><ele>937.0</ele><time>2026-05-03T10:31:53Z</time></trkpt><trkpt lat="42.91108071318233" lon="12.79250062020448"><ele>937.0</ele><time>2026-05-03T10:31:55Z</time></trkpt><trkpt lat="42.911057220593946" lon="12.792419083138494"><ele>936.9999999999999</ele><time>2026-05-03T10:31:56Z</time></trkpt><trkpt lat="42.91105535442797" lon="12.792286654829043"><ele>937.0</ele><time>2026-05-03T10:31:58Z</time></trkpt><trkpt lat="42.911019068645984" lon="12.792161714513291"><ele>935.0</ele><time>2026-05-03T10:32:00Z</time></trkpt><trkpt lat="42.91097450273084" lon="12.792077225943414"><ele>933.0</ele><time>2026-05-03T10:32:02Z</time></trkpt><trkpt lat="42.91090231077976" lon="12.791970182809617"><ele>931.0</ele><time>2026-05-03T10:32:05Z</time></trkpt><trkpt lat="42.91085995004473" lon="12.79188390984744"><ele>929.0</ele><time>2026-05-03T10:32:07Z</time></trkpt><trkpt lat="42.910797869883815" lon="12.791716658215297"><ele>927.0</ele><time>2026-05-03T10:32:09Z</time></trkpt><trkpt lat="42.91075693372901" lon="12.791613730313108"><ele>926.1666666666666</ele><time>2026-05-03T10:32:10Z</time></trkpt><trkpt lat="42.91070299117782" lon="12.791494626509499"><ele>925.3333333333333</ele><time>2026-05-03T10:32:11Z</time></trkpt><trkpt lat="42.91065076836891" lon="12.791389288642588"><ele>924.5</ele><time>2026-05-03T10:32:12Z</time></trkpt><trkpt lat="42.91060272885784" lon="12.791294367002664"><ele>923.6666666666666</ele><time>2026-05-03T10:32:13Z</time></trkpt><trkpt lat="42.910563844751145" lon="12.791206160391694"><ele>922.8333333333333</ele><time>2026-05-03T10:32:14Z</time></trkpt><trkpt lat="42.91053454942906" lon="12.791106390522959"><ele>922.0</ele><time>2026-05-03T10:32:15Z</time></trkpt><trkpt lat="42.9104968699221" lon="12.790984075441102"><ele>920.2</ele><time>2026-05-03T10:32:16Z</time></trkpt><trkpt lat="42.91045041022889" lon="12.790863203898196"><ele>918.4000000000001</ele><time>2026-05-03T10:32:17Z</time></trkpt><trkpt lat="42.910403321792" lon="12.79077000421889"><ele>916.5999999999999</ele><time>2026-05-03T10:32:18Z</time></trkpt><trkpt lat="42.9103433652378" lon="12.790665724266768"><ele>914.8</ele><time>2026-05-03T10:32:19Z</time></trkpt><trkpt lat="42.91027850656364" lon="12.790563735542646"><ele>913.0</ele><time>2026-05-03T10:32:20Z</time></trkpt><trkpt lat="42.91021664904973" lon="12.790464968363176"><ele>913.0</ele><time>2026-05-03T10:32:21Z</time></trkpt><trkpt lat="42.91016246217978" lon="12.7903779947863"><ele>913.0</ele><time>2026-05-03T10:32:22Z</time></trkpt><trkpt lat="42.91009907155615" lon="12.790277402648782"><ele>913.0</ele><time>2026-05-03T10:32:23Z</time></trkpt><trkpt lat="42.9100415175226" lon="12.790178602388862"><ele>913.0</ele><time>2026-05-03T10:32:24Z</time></trkpt><trkpt lat="42.90998538091213" lon="12.790077112358338"><ele>913.0</ele><time>2026-05-03T10:32:25Z</time></trkpt><trkpt lat="42.909937477383274" lon="12.789973379395555"><ele>913.0</ele><time>2026-05-03T10:32:26Z</time></trkpt><trkpt lat="42.90988526786399" lon="12.789848798533376"><ele>913.0</ele><time>2026-05-03T10:32:27Z</time></trkpt><trkpt lat="42.90982988243599" lon="12.789725915000947"><ele>913.0</ele><time>2026-05-03T10:32:28Z</time></trkpt><trkpt lat="42.90977270480915" lon="12.789615288838865"><ele>913.0</ele><time>2026-05-03T10:32:29Z</time></trkpt><trkpt lat="42.90970564740862" lon="12.789490843792315"><ele>913.0</ele><time>2026-05-03T10:32:30Z</time></trkpt><trkpt lat="42.90963618773324" lon="12.789362945015476"><ele>912.2</ele><time>2026-05-03T10:32:31Z</time></trkpt><trkpt lat="42.90957309049074" lon="12.789250723021429"><ele>911.4</ele><time>2026-05-03T10:32:32Z</time></trkpt><trkpt lat="42.90951306364501" lon="12.789145016051924"><ele>910.6000000000001</ele><time>2026-05-03T10:32:33Z</time></trkpt><trkpt lat="42.90945115286619" lon="12.789035416010403"><ele>909.8000000000001</ele><time>2026-05-03T10:32:34Z</time></trkpt><trkpt lat="42.90938588068359" lon="12.788932789458"><ele>909.0</ele><time>2026-05-03T10:32:35Z</time></trkpt><trkpt lat="42.90933047069316" lon="12.788835861080555"><ele>909.0</ele><time>2026-05-03T10:32:36Z</time></trkpt><trkpt lat="42.909279289360796" lon="12.788735037541135"><ele>909.0</ele><time>2026-05-03T10:32:37Z</time></trkpt><trkpt lat="42.90925551787873" lon="12.788625508720758"><ele>909.0</ele><time>2026-05-03T10:32:38Z</time></trkpt><trkpt lat="42.90926135279034" lon="12.788520447903709"><ele>909.0</ele><time>2026-05-03T10:32:39Z</time></trkpt><trkpt lat="42.909291517989935" lon="12.788407012290854"><ele>909.0</ele><time>2026-05-03T10:32:40Z</time></trkpt><trkpt lat="42.90933105062355" lon="12.788304634342312"><ele>909.0</ele><time>2026-05-03T10:32:41Z</time></trkpt><trkpt lat="42.909378936188745" lon="12.788214900865212"><ele>907.8571428571429</ele><time>2026-05-03T10:32:42Z</time></trkpt><trkpt lat="42.909416375196855" lon="12.788131563782729"><ele>906.7142857142858</ele><time>2026-05-03T10:32:43Z</time></trkpt><trkpt lat="42.90944658114203" lon="12.788040004390298"><ele>905.5714285714287</ele><time>2026-05-03T10:32:44Z</time></trkpt><trkpt lat="42.90947032721337" lon="12.78795691914493"><ele>904.4285714285714</ele><time>2026-05-03T10:32:45Z</time></trkpt><trkpt lat="42.90947226798993" lon="12.787847964409309"><ele>903.2857142857144</ele><time>2026-05-03T10:32:46Z</time></trkpt><trkpt lat="42.90947646444769" lon="12.787740062976864"><ele>902.1428571428572</ele><time>2026-05-03T10:32:47Z</time></trkpt><trkpt lat="42.90947521028526" lon="12.787635931890689"><ele>901.0</ele><time>2026-05-03T10:32:48Z</time></trkpt><trkpt lat="42.90943942143595" lon="12.787508777416921"><ele>901.3333333333333</ele><time>2026-05-03T10:32:50Z</time></trkpt><trkpt lat="42.90937877196879" lon="12.787456632676287"><ele>901.6666666666666</ele><time>2026-05-03T10:32:54.001Z</time></trkpt><trkpt lat="42.90935429913977" lon="12.78737204194448"><ele>902.0</ele><time>2026-05-03T10:32:56.001Z</time></trkpt><trkpt lat="42.90928188225087" lon="12.787351048705844"><ele>902.3333333333333</ele><time>2026-05-03T10:32:58.001Z</time></trkpt><trkpt lat="42.90922393411652" lon="12.787313808485152"><ele>902.6666666666666</ele><time>2026-05-03T10:33:02.001Z</time></trkpt><trkpt lat="42.909125446341214" lon="12.787182780790472"><ele>903.0</ele><time>2026-05-03T10:33:04.001Z</time></trkpt><trkpt lat="42.90907382643785" lon="12.787097022219779"><ele>903.0</ele><time>2026-05-03T10:33:05.001Z</time></trkpt><trkpt lat="42.90902176852638" lon="12.787023640318417"><ele>903.0</ele><time>2026-05-03T10:33:06.001Z</time></trkpt><trkpt lat="42.90894373580948" lon="12.786886640173133"><ele>903.0</ele><time>2026-05-03T10:33:08.001Z</time></trkpt><trkpt lat="42.90890845056733" lon="12.786779704951346"><ele>903.0</ele><time>2026-05-03T10:33:10.001Z</time></trkpt><trkpt lat="42.90895324751997" lon="12.786653188402504"><ele>903.0</ele><time>2026-05-03T10:33:14.001Z</time></trkpt><trkpt lat="42.90915730199063" lon="12.786718887293674"><ele>899.0</ele><time>2026-05-03T10:33:20.001Z</time></trkpt><trkpt lat="42.909277283510264" lon="12.786742584937466"><ele>895.0</ele><time>2026-05-03T10:33:22.001Z</time></trkpt><trkpt lat="42.90934073169723" lon="12.786751584623346"><ele>891.0</ele><time>2026-05-03T10:33:23.001Z</time></trkpt><trkpt lat="42.90945566874393" lon="12.786732177197853"><ele>887.0</ele><time>2026-05-03T10:33:25.001Z</time></trkpt><trkpt lat="42.9095693927252" lon="12.786743795782654"><ele>883.0</ele><time>2026-05-03T10:33:27.001Z</time></trkpt><trkpt lat="42.90968718234468" lon="12.786720381005377"><ele>882.9999999999999</ele><time>2026-05-03T10:33:29Z</time></trkpt><trkpt lat="42.90975883024348" lon="12.786765426497423"><ele>883.0</ele><time>2026-05-03T10:33:31Z</time></trkpt><trkpt lat="42.90983202089308" lon="12.786757696023834"><ele>883.0</ele><time>2026-05-03T10:33:36Z</time></trkpt><trkpt lat="42.909905856504494" lon="12.786781434211074"><ele>883.0</ele><time>2026-05-03T10:33:39Z</time></trkpt><trkpt lat="42.90998680105836" lon="12.7867900132942"><ele>882.9999999999999</ele><time>2026-05-03T10:33:41Z</time></trkpt><trkpt lat="42.910053631721226" lon="12.786791589888683"><ele>883.0</ele><time>2026-05-03T10:33:43Z</time></trkpt><trkpt lat="42.910131240291996" lon="12.786778042515373"><ele>880.6666666666666</ele><time>2026-05-03T10:33:46Z</time></trkpt><trkpt lat="42.91021249452686" lon="12.786784284483456"><ele>878.3333333333333</ele><time>2026-05-03T10:33:50Z</time></trkpt><trkpt lat="42.91028743938463" lon="12.786783321284688"><ele>876.0</ele><time>2026-05-03T10:33:53Z</time></trkpt><trkpt lat="42.910357685152555" lon="12.786764384087913"><ele>873.6666666666667</ele><time>2026-05-03T10:33:55Z</time></trkpt><trkpt lat="42.910446806461685" lon="12.786814577713596"><ele>871.3333333333334</ele><time>2026-05-03T10:33:58Z</time></trkpt><trkpt lat="42.910511764993345" lon="12.78670508358039"><ele>869.0</ele><time>2026-05-03T10:34:03Z</time></trkpt><trkpt lat="42.91053630973277" lon="12.786618406128408"><ele>869.0</ele><time>2026-05-03T10:34:06Z</time></trkpt><trkpt lat="42.91056282803149" lon="12.786534161033677"><ele>869.0</ele><time>2026-05-03T10:34:08Z</time></trkpt><trkpt lat="42.910634834586766" lon="12.786433853637252"><ele>869.0</ele><time>2026-05-03T10:34:10Z</time></trkpt><trkpt lat="42.91066495479242" lon="12.78629782081875"><ele>869.0</ele><time>2026-05-03T10:34:12Z</time></trkpt><trkpt lat="42.910760732896435" lon="12.786016308131044"><ele>866.5000000000001</ele><time>2026-05-03T10:34:13Z</time></trkpt><trkpt lat="42.91080239124494" lon="12.785898509166019"><ele>864.0</ele><time>2026-05-03T10:34:15Z</time></trkpt><trkpt lat="42.91081927214114" lon="12.785800287892542"><ele>861.5</ele><time>2026-05-03T10:34:17Z</time></trkpt><trkpt lat="42.91084887116094" lon="12.785709801771478"><ele>859.0</ele><time>2026-05-03T10:34:19Z</time></trkpt><trkpt lat="42.910871750333826" lon="12.785607198171414"><ele>856.5000000000001</ele><time>2026-05-03T10:34:21Z</time></trkpt><trkpt lat="42.91082508025466" lon="12.785506386953648"><ele>854.0</ele><time>2026-05-03T10:34:24Z</time></trkpt><trkpt lat="42.910871713614156" lon="12.785383532607895"><ele>854.0</ele><time>2026-05-03T10:34:26Z</time></trkpt><trkpt lat="42.91088225483659" lon="12.7852388670489"><ele>854.0000000000001</ele><time>2026-05-03T10:34:28Z</time></trkpt><trkpt lat="42.91093942091713" lon="12.785102929631494"><ele>854.0000000000001</ele><time>2026-05-03T10:34:30Z</time></trkpt><trkpt lat="42.91099541178541" lon="12.78499956445708"><ele>854.0</ele><time>2026-05-03T10:34:32Z</time></trkpt><trkpt lat="42.91099291349525" lon="12.784860972222923"><ele>854.0</ele><time>2026-05-03T10:34:35Z</time></trkpt><trkpt lat="42.91102836199951" lon="12.784732650902175"><ele>852.6</ele><time>2026-05-03T10:34:37Z</time></trkpt><trkpt lat="42.91103362589615" lon="12.784597671125933"><ele>851.2</ele><time>2026-05-03T10:34:39Z</time></trkpt><trkpt lat="42.911068563470295" lon="12.784440467950919"><ele>849.8000000000001</ele><time>2026-05-03T10:34:41Z</time></trkpt><trkpt lat="42.91107835132039" lon="12.7842945786034"><ele>848.4000000000001</ele><time>2026-05-03T10:34:43Z</time></trkpt><trkpt lat="42.911140887155305" lon="12.78417617505858"><ele>847.0</ele><time>2026-05-03T10:34:45Z</time></trkpt><trkpt lat="42.91118761781657" lon="12.784110455684106"><ele>840.5</ele><time>2026-05-03T10:34:46Z</time></trkpt><trkpt lat="42.91126437825527" lon="12.78397946256125"><ele>834.0</ele><time>2026-05-03T10:34:48Z</time></trkpt><trkpt lat="42.91135374417155" lon="12.783898287817314"><ele>827.5</ele><time>2026-05-03T10:34:50Z</time></trkpt><trkpt lat="42.91146061912281" lon="12.783883219940874"><ele>821.0</ele><time>2026-05-03T10:34:52Z</time></trkpt><trkpt lat="42.91159563357969" lon="12.783888422133781"><ele>821.0</ele><time>2026-05-03T10:34:55Z</time></trkpt><trkpt lat="42.911715084371465" lon="12.783875309448597"><ele>821.0</ele><time>2026-05-03T10:34:57Z</time></trkpt><trkpt lat="42.911815906985574" lon="12.783861665392807"><ele>821.0</ele><time>2026-05-03T10:34:59Z</time></trkpt><trkpt lat="42.911897260549665" lon="12.783850507190108"><ele>821.0</ele><time>2026-05-03T10:35:02Z</time></trkpt><trkpt lat="42.91198451894833" lon="12.783822035336604"><ele>821.0</ele><time>2026-05-03T10:35:05Z</time></trkpt><trkpt lat="42.91206510335152" lon="12.783822675998888"><ele>818.1666666666667</ele><time>2026-05-03T10:35:07Z</time></trkpt><trkpt lat="42.91216305332894" lon="12.783828676399828"><ele>815.3333333333334</ele><time>2026-05-03T10:35:09Z</time></trkpt><trkpt lat="42.91224918702749" lon="12.78384969127015"><ele>812.5</ele><time>2026-05-03T10:35:11Z</time></trkpt><trkpt lat="42.91231008596" lon="12.783811701073521"><ele>809.6666666666667</ele><time>2026-05-03T10:35:14Z</time></trkpt><trkpt lat="42.91241033286884" lon="12.783823949685306"><ele>806.8333333333334</ele><time>2026-05-03T10:35:16Z</time></trkpt><trkpt lat="42.91247823884956" lon="12.783846555767283"><ele>804.0</ele><time>2026-05-03T10:35:17Z</time></trkpt><trkpt lat="42.91254529104478" lon="12.783867349948489"><ele>800.1666666666666</ele><time>2026-05-03T10:35:18Z</time></trkpt><trkpt lat="42.91261900143997" lon="12.7838966580073"><ele>796.3333333333333</ele><time>2026-05-03T10:35:19Z</time></trkpt><trkpt lat="42.912686125660876" lon="12.783898476303609"><ele>792.5</ele><time>2026-05-03T10:35:20Z</time></trkpt><trkpt lat="42.9128095615492" lon="12.783929553675161"><ele>788.6666666666666</ele><time>2026-05-03T10:35:22Z</time></trkpt><trkpt lat="42.912883585160756" lon="12.783943730437173"><ele>784.8333333333333</ele><time>2026-05-03T10:35:23Z</time></trkpt><trkpt lat="42.91295553559311" lon="12.783971559523577"><ele>781.0</ele><time>2026-05-03T10:35:24Z</time></trkpt><trkpt lat="42.913037057271225" lon="12.784000875290804"><ele>780.9999999999999</ele><time>2026-05-03T10:35:25Z</time></trkpt><trkpt lat="42.913113149120335" lon="12.784039972585425"><ele>781.0</ele><time>2026-05-03T10:35:26Z</time></trkpt><trkpt lat="42.91317426957903" lon="12.784086532306196"><ele>781.0</ele><time>2026-05-03T10:35:27Z</time></trkpt><trkpt lat="42.91323515947033" lon="12.784121257978748"><ele>781.0</ele><time>2026-05-03T10:35:28Z</time></trkpt><trkpt lat="42.91330613290393" lon="12.784157263900978"><ele>780.9999999999999</ele><time>2026-05-03T10:35:29Z</time></trkpt><trkpt lat="42.913387488718755" lon="12.784192228718204"><ele>781.0</ele><time>2026-05-03T10:35:30Z</time></trkpt><trkpt lat="42.913467258143626" lon="12.784222164970629"><ele>779.5714285714286</ele><time>2026-05-03T10:35:31Z</time></trkpt><trkpt lat="42.913539593200476" lon="12.784223712645149"><ele>778.1428571428571</ele><time>2026-05-03T10:35:32Z</time></trkpt><trkpt lat="42.91361183824922" lon="12.784247247540938"><ele>776.7142857142858</ele><time>2026-05-03T10:35:33Z</time></trkpt><trkpt lat="42.91368535693651" lon="12.78425466393207"><ele>775.2857142857142</ele><time>2026-05-03T10:35:34Z</time></trkpt><trkpt lat="42.91376234470325" lon="12.784278131227552"><ele>773.8571428571428</ele><time>2026-05-03T10:35:36Z</time></trkpt><trkpt lat="42.91382371351089" lon="12.784252068940251"><ele>772.4285714285714</ele><time>2026-05-03T10:35:37Z</time></trkpt><trkpt lat="42.91390358999628" lon="12.784226860454066"><ele>771.0</ele><time>2026-05-03T10:35:38Z</time></trkpt><trkpt lat="42.91396575178664" lon="12.78425395327245"><ele>771.0</ele><time>2026-05-03T10:35:39Z</time></trkpt><trkpt lat="42.91403103729037" lon="12.784286115796546"><ele>771.0</ele><time>2026-05-03T10:35:40Z</time></trkpt><trkpt lat="42.914089904511776" lon="12.784337478540564"><ele>771.0</ele><time>2026-05-03T10:35:41Z</time></trkpt><trkpt lat="42.91413744933699" lon="12.784416048881337"><ele>771.0</ele><time>2026-05-03T10:35:42Z</time></trkpt><trkpt lat="42.91425081020401" lon="12.78438803003604"><ele>771.0</ele><time>2026-05-03T10:35:43Z</time></trkpt><trkpt lat="42.914313949882946" lon="12.784474234825396"><ele>771.0</ele><time>2026-05-03T10:35:45Z</time></trkpt><trkpt lat="42.91436477079219" lon="12.784543620755063"><ele>771.0</ele><time>2026-05-03T10:35:47Z</time></trkpt><trkpt lat="42.91430198028938" lon="12.784685879210473"><ele>771.0</ele><time>2026-05-03T10:35:48Z</time></trkpt><trkpt lat="42.914376296520516" lon="12.784757395213822"><ele>771.0</ele><time>2026-05-03T10:35:50Z</time></trkpt><trkpt lat="42.914494909464544" lon="12.78471874388476"><ele>771.0</ele><time>2026-05-03T10:35:51Z</time></trkpt><trkpt lat="42.91458944807744" lon="12.784843031447346"><ele>771.0</ele><time>2026-05-03T10:35:53Z</time></trkpt><trkpt lat="42.91466999920377" lon="12.784948930018876"><ele>771.0</ele><time>2026-05-03T10:35:55Z</time></trkpt><trkpt lat="42.914745497645114" lon="12.785048185946136"><ele>771.0</ele><time>2026-05-03T10:35:57Z</time></trkpt><trkpt lat="42.914827007822105" lon="12.785156948071027"><ele>771.0</ele><time>2026-05-03T10:35:59Z</time></trkpt><trkpt lat="42.9149096737491" lon="12.785269137541787"><ele>771.0</ele><time>2026-05-03T10:36:01Z</time></trkpt><trkpt lat="42.91495872188855" lon="12.78533742108081"><ele>773.0</ele><time>2026-05-03T10:36:02Z</time></trkpt><trkpt lat="42.915006786726636" lon="12.785405549966939"><ele>775.0</ele><time>2026-05-03T10:36:03Z</time></trkpt><trkpt lat="42.91507923880895" lon="12.78551743471233"><ele>777.0</ele><time>2026-05-03T10:36:05Z</time></trkpt><trkpt lat="42.91518789426024" lon="12.785495468077977"><ele>779.0</ele><time>2026-05-03T10:36:09Z</time></trkpt><trkpt lat="42.91525026462272" lon="12.785437175025638"><ele>781.0</ele><time>2026-05-03T10:36:11Z</time></trkpt><trkpt lat="42.91529777608912" lon="12.78527947576052"><ele>775.1666666666666</ele><time>2026-05-03T10:36:13Z</time></trkpt><trkpt lat="42.91529899931374" lon="12.78515237336828"><ele>769.3333333333333</ele><time>2026-05-03T10:36:15Z</time></trkpt><trkpt lat="42.91528481624777" lon="12.78506731202437"><ele>763.5</ele><time>2026-05-03T10:36:17Z</time></trkpt><trkpt lat="42.91524064429238" lon="12.784960230401085"><ele>757.6666666666666</ele><time>2026-05-03T10:36:48Z</time></trkpt><trkpt lat="42.915206248539434" lon="12.784881204030604"><ele>751.8333333333333</ele><time>2026-05-03T10:36:49Z</time></trkpt><trkpt lat="42.91516651276115" lon="12.78477773947477"><ele>746.0</ele><time>2026-05-03T10:36:50Z</time></trkpt><trkpt lat="42.915131995848" lon="12.784672916921263"><ele>746.0</ele><time>2026-05-03T10:36:51Z</time></trkpt><trkpt lat="42.91508845852667" lon="12.784546973235573"><ele>746.0</ele><time>2026-05-03T10:36:52Z</time></trkpt><trkpt lat="42.915042873256176" lon="12.784418309068526"><ele>746.0</ele><time>2026-05-03T10:36:53Z</time></trkpt><trkpt lat="42.91500062829279" lon="12.784288806451581"><ele>746.0</ele><time>2026-05-03T10:36:54Z</time></trkpt><trkpt lat="42.91496190763832" lon="12.784186322313477"><ele>746.0</ele><time>2026-05-03T10:36:55Z</time></trkpt><trkpt lat="42.91492587063989" lon="12.784103644929925"><ele>749.8333333333333</ele><time>2026-05-03T10:36:56Z</time></trkpt><trkpt lat="42.914877113512325" lon="12.784018152324471"><ele>753.6666666666666</ele><time>2026-05-03T10:36:57Z</time></trkpt><trkpt lat="42.91483243979843" lon="12.783941424025397"><ele>757.5</ele><time>2026-05-03T10:36:58Z</time></trkpt><trkpt lat="42.914811133869456" lon="12.783817378256227"><ele>761.3333333333333</ele><time>2026-05-03T10:37:00Z</time></trkpt><trkpt lat="42.91487473740925" lon="12.783716962355777"><ele>765.1666666666666</ele><time>2026-05-03T10:37:02Z</time></trkpt><trkpt lat="42.914899569854484" lon="12.7836335180366"><ele>769.0</ele><time>2026-05-03T10:37:03Z</time></trkpt><trkpt lat="42.91491790492178" lon="12.783534330625269"><ele>769.4999999999999</ele><time>2026-05-03T10:37:04Z</time></trkpt><trkpt lat="42.91491941023372" lon="12.783423375397721"><ele>770.0</ele><time>2026-05-03T10:37:05Z</time></trkpt><trkpt lat="42.914920787426475" lon="12.783312966275243"><ele>770.5</ele><time>2026-05-03T10:37:06Z</time></trkpt><trkpt lat="42.91490630592204" lon="12.783204836845623"><ele>771.0</ele><time>2026-05-03T10:37:07Z</time></trkpt><trkpt lat="42.91488745662643" lon="12.783097955099219"><ele>771.4999999999999</ele><time>2026-05-03T10:37:08Z</time></trkpt><trkpt lat="42.9148643287739" lon="12.782960069854857"><ele>772.0</ele><time>2026-05-03T10:37:09Z</time></trkpt><trkpt lat="42.91482395903792" lon="12.782838487236004"><ele>772.0</ele><time>2026-05-03T10:37:10Z</time></trkpt><trkpt lat="42.914781746570235" lon="12.782693471306498"><ele>772.0</ele><time>2026-05-03T10:37:11Z</time></trkpt><trkpt lat="42.914738418720965" lon="12.782546678020887"><ele>772.0</ele><time>2026-05-03T10:37:12Z</time></trkpt><trkpt lat="42.91470197822027" lon="12.782420328175233"><ele>772.0</ele><time>2026-05-03T10:37:13Z</time></trkpt><trkpt lat="42.914647998632944" lon="12.782295395471618"><ele>772.0</ele><time>2026-05-03T10:37:14Z</time></trkpt><trkpt lat="42.914605570826545" lon="12.782170208022986"><ele>770.9999999999999</ele><time>2026-05-03T10:37:15Z</time></trkpt><trkpt lat="42.91458441170934" lon="12.782047896630441"><ele>770.0</ele><time>2026-05-03T10:37:16Z</time></trkpt><trkpt lat="42.914547687200816" lon="12.781934077475977"><ele>769.0</ele><time>2026-05-03T10:37:17Z</time></trkpt><trkpt lat="42.91450226609422" lon="12.781848002821588"><ele>768.0</ele><time>2026-05-03T10:37:18Z</time></trkpt><trkpt lat="42.91445872685375" lon="12.781761734062673"><ele>767.0</ele><time>2026-05-03T10:37:19Z</time></trkpt><trkpt lat="42.914449367928064" lon="12.781648541581626"><ele>766.0</ele><time>2026-05-03T10:37:20Z</time></trkpt><trkpt lat="42.914461476289965" lon="12.781505833802552"><ele>766.5999999999999</ele><time>2026-05-03T10:37:21Z</time></trkpt><trkpt lat="42.914469410255364" lon="12.781365078940997"><ele>767.2</ele><time>2026-05-03T10:37:22Z</time></trkpt><trkpt lat="42.91447580382599" lon="12.781206268072118"><ele>767.8</ele><time>2026-05-03T10:37:23Z</time></trkpt><trkpt lat="42.91447245422873" lon="12.781057536223274"><ele>768.4000000000001</ele><time>2026-05-03T10:37:24Z</time></trkpt><trkpt lat="42.91445308107622" lon="12.780927900594307"><ele>769.0</ele><time>2026-05-03T10:37:25Z</time></trkpt><trkpt lat="42.91443998905036" lon="12.780809437828172"><ele>768.9999999999999</ele><time>2026-05-03T10:37:26Z</time></trkpt><trkpt lat="42.91442351229613" lon="12.780697379965874"><ele>769.0</ele><time>2026-05-03T10:37:27Z</time></trkpt><trkpt lat="42.914377360520795" lon="12.780600667621417"><ele>769.0</ele><time>2026-05-03T10:37:28Z</time></trkpt><trkpt lat="42.91431808427021" lon="12.780506140436763"><ele>769.0</ele><time>2026-05-03T10:37:29Z</time></trkpt><trkpt lat="42.91424893824568" lon="12.780414671825747"><ele>768.9999999999999</ele><time>2026-05-03T10:37:30Z</time></trkpt><trkpt lat="42.91418742868678" lon="12.780340044469163"><ele>769.0</ele><time>2026-05-03T10:37:31Z</time></trkpt><trkpt lat="42.914130068379734" lon="12.780251422759186"><ele>773.1666666666666</ele><time>2026-05-03T10:37:32Z</time></trkpt><trkpt lat="42.914077207014294" lon="12.780155385695075"><ele>777.3333333333333</ele><time>2026-05-03T10:37:33Z</time></trkpt><trkpt lat="42.91402560122934" lon="12.780060575152053"><ele>781.5</ele><time>2026-05-03T10:37:34Z</time></trkpt><trkpt lat="42.913981590478166" lon="12.779948552209202"><ele>785.6666666666667</ele><time>2026-05-03T10:37:35Z</time></trkpt><trkpt lat="42.91393746914455" lon="12.779838295303852"><ele>789.8333333333334</ele><time>2026-05-03T10:37:36Z</time></trkpt><trkpt lat="42.91389206355736" lon="12.7797330502854"><ele>794.0</ele><time>2026-05-03T10:37:37Z</time></trkpt><trkpt lat="42.91383341441644" lon="12.77963864909233"><ele>794.0000000000001</ele><time>2026-05-03T10:37:38Z</time></trkpt><trkpt lat="42.91378170416242" lon="12.779541176773817"><ele>794.0</ele><time>2026-05-03T10:37:39Z</time></trkpt><trkpt lat="42.91373184556222" lon="12.77945235584371"><ele>794.0</ele><time>2026-05-03T10:37:40Z</time></trkpt><trkpt lat="42.91368493975995" lon="12.77938537610325"><ele>794.0</ele><time>2026-05-03T10:37:41Z</time></trkpt><trkpt lat="42.913640337461594" lon="12.779294785069018"><ele>794.0000000000001</ele><time>2026-05-03T10:37:42Z</time></trkpt><trkpt lat="42.91360688258754" lon="12.77920606926503"><ele>794.0</ele><time>2026-05-03T10:37:43Z</time></trkpt><trkpt lat="42.9135903279392" lon="12.779104312714093"><ele>794.3333333333334</ele><time>2026-05-03T10:37:44Z</time></trkpt><trkpt lat="42.913562186109736" lon="12.779017838764979"><ele>794.6666666666667</ele><time>2026-05-03T10:37:45Z</time></trkpt><trkpt lat="42.913510993926224" lon="12.778949938376023"><ele>795.0</ele><time>2026-05-03T10:37:46Z</time></trkpt><trkpt lat="42.9134381342938" lon="12.778904609483481"><ele>795.3333333333333</ele><time>2026-05-03T10:37:47Z</time></trkpt><trkpt lat="42.91337101702067" lon="12.77884838361391"><ele>795.6666666666666</ele><time>2026-05-03T10:37:48Z</time></trkpt><trkpt lat="42.913304426515396" lon="12.778712268353946"><ele>796.0</ele><time>2026-05-03T10:37:50Z</time></trkpt><trkpt lat="42.91327923913427" lon="12.778630098584149"><ele>793.8333333333333</ele><time>2026-05-03T10:37:51Z</time></trkpt><trkpt lat="42.913249735122406" lon="12.778547442389126"><ele>791.6666666666666</ele><time>2026-05-03T10:37:52Z</time></trkpt><trkpt lat="42.91316642614066" lon="12.778436628270269"><ele>789.5</ele><time>2026-05-03T10:37:54Z</time></trkpt><trkpt lat="42.91311559034379" lon="12.778379378936025"><ele>787.3333333333333</ele><time>2026-05-03T10:37:55Z</time></trkpt><trkpt lat="42.91305763474356" lon="12.778311925515283"><ele>785.1666666666666</ele><time>2026-05-03T10:37:56Z</time></trkpt><trkpt lat="42.91299562293148" lon="12.778243130706542"><ele>783.0</ele><time>2026-05-03T10:37:57Z</time></trkpt><trkpt lat="42.912944699832664" lon="12.778165502344235"><ele>781.6666666666666</ele><time>2026-05-03T10:37:58Z</time></trkpt><trkpt lat="42.9129211933328" lon="12.778079862621455"><ele>780.3333333333333</ele><time>2026-05-03T10:37:59Z</time></trkpt><trkpt lat="42.9128427025706" lon="12.77796896119431"><ele>779.0</ele><time>2026-05-03T10:38:01Z</time></trkpt><trkpt lat="42.91279686736105" lon="12.777906067713936"><ele>777.6666666666666</ele><time>2026-05-03T10:38:02Z</time></trkpt><trkpt lat="42.912730552441936" lon="12.777761135384514"><ele>776.3333333333333</ele><time>2026-05-03T10:38:04Z</time></trkpt><trkpt lat="42.91269410429698" lon="12.777668862496506"><ele>775.0</ele><time>2026-05-03T10:38:05Z</time></trkpt><trkpt lat="42.912665213854225" lon="12.777580026350037"><ele>773.8333333333333</ele><time>2026-05-03T10:38:06Z</time></trkpt><trkpt lat="42.91262271609677" lon="12.77750289774834"><ele>772.6666666666666</ele><time>2026-05-03T10:38:07Z</time></trkpt><trkpt lat="42.91257354914438" lon="12.777436399031895"><ele>771.5</ele><time>2026-05-03T10:38:08Z</time></trkpt><trkpt lat="42.9125435920864" lon="12.777337006014323"><ele>770.3333333333333</ele><time>2026-05-03T10:38:09Z</time></trkpt><trkpt lat="42.91252071625851" lon="12.777223073346633"><ele>769.1666666666666</ele><time>2026-05-03T10:38:10Z</time></trkpt><trkpt lat="42.91250490190729" lon="12.777131637782075"><ele>768.0</ele><time>2026-05-03T10:38:11Z</time></trkpt><trkpt lat="42.91240314841152" lon="12.777040096880757"><ele>765.1666666666666</ele><time>2026-05-03T10:38:13Z</time></trkpt><trkpt lat="42.912339382219976" lon="12.777012297679022"><ele>762.3333333333334</ele><time>2026-05-03T10:38:14Z</time></trkpt><trkpt lat="42.91228987612879" lon="12.776949985596518"><ele>759.5</ele><time>2026-05-03T10:38:15Z</time></trkpt><trkpt lat="42.91228395889085" lon="12.776849614155633"><ele>756.6666666666667</ele><time>2026-05-03T10:38:16Z</time></trkpt><trkpt lat="42.91228931774759" lon="12.776744675616527"><ele>753.8333333333334</ele><time>2026-05-03T10:38:17Z</time></trkpt><trkpt lat="42.91224541326145" lon="12.776631096097388"><ele>751.0</ele><time>2026-05-03T10:38:19Z</time></trkpt><trkpt lat="42.912164960074975" lon="12.776593162306801"><ele>749.1999999999999</ele><time>2026-05-03T10:38:20Z</time></trkpt><trkpt lat="42.912112205652164" lon="12.776536398248554"><ele>747.4</ele><time>2026-05-03T10:38:21Z</time></trkpt><trkpt lat="42.91210389447045" lon="12.776450593152612"><ele>745.6</ele><time>2026-05-03T10:38:22Z</time></trkpt><trkpt lat="42.912059159651974" lon="12.77631405674436"><ele>743.8</ele><time>2026-05-03T10:38:24Z</time></trkpt><trkpt lat="42.91196480324713" lon="12.776207522538478"><ele>742.0</ele><time>2026-05-03T10:38:26Z</time></trkpt><trkpt lat="42.91190631369927" lon="12.776078754950703"><ele>741.3333333333334</ele><time>2026-05-03T10:38:28Z</time></trkpt><trkpt lat="42.91186369638303" lon="12.775995720988783"><ele>740.6666666666667</ele><time>2026-05-03T10:38:30Z</time></trkpt><trkpt lat="42.911847810960175" lon="12.775897782750276"><ele>740.0</ele><time>2026-05-03T10:38:35Z</time></trkpt><trkpt lat="42.91182492351074" lon="12.775792908575989"><ele>739.3333333333334</ele><time>2026-05-03T10:38:41Z</time></trkpt><trkpt lat="42.911799955065526" lon="12.77570449746249"><ele>738.6666666666666</ele><time>2026-05-03T10:38:49Z</time></trkpt><trkpt lat="42.91179363095516" lon="12.775594236201764"><ele>738.0</ele><time>2026-05-03T10:38:54Z</time></trkpt><trkpt lat="42.911757714535696" lon="12.775435034493508"><ele>735.3333333333334</ele><time>2026-05-03T10:38:57Z</time></trkpt><trkpt lat="42.91172179493643" lon="12.775319376352023"><ele>732.6666666666666</ele><time>2026-05-03T10:41:37Z</time></trkpt><trkpt lat="42.91170117357682" lon="12.77523260573348"><ele>730.0</ele><time>2026-05-03T10:41:38Z</time></trkpt><trkpt lat="42.911662098462514" lon="12.77512543316405"><ele>727.3333333333333</ele><time>2026-05-03T10:41:39Z</time></trkpt><trkpt lat="42.911614388557304" lon="12.775022630713407"><ele>724.6666666666666</ele><time>2026-05-03T10:41:40Z</time></trkpt><trkpt lat="42.91157351301025" lon="12.774897136451887"><ele>722.0</ele><time>2026-05-03T10:41:41Z</time></trkpt><trkpt lat="42.91154379097235" lon="12.774758219783203"><ele>719.8333333333333</ele><time>2026-05-03T10:41:42Z</time></trkpt><trkpt lat="42.91150482068232" lon="12.774654421148588"><ele>717.6666666666666</ele><time>2026-05-03T10:41:43Z</time></trkpt><trkpt lat="42.91145670487274" lon="12.77457324198164"><ele>715.5</ele><time>2026-05-03T10:41:44Z</time></trkpt><trkpt lat="42.91140278076762" lon="12.774510323426291"><ele>713.3333333333334</ele><time>2026-05-03T10:41:45Z</time></trkpt><trkpt lat="42.91133588392457" lon="12.774475048433276"><ele>711.1666666666667</ele><time>2026-05-03T10:41:46Z</time></trkpt><trkpt lat="42.9112861787412" lon="12.774412625366276"><ele>709.0</ele><time>2026-05-03T10:41:47Z</time></trkpt><trkpt lat="42.91124777361068" lon="12.774318035443908"><ele>706.8333333333334</ele><time>2026-05-03T10:41:48Z</time></trkpt><trkpt lat="42.911189102019144" lon="12.774239036588602"><ele>704.6666666666667</ele><time>2026-05-03T10:41:49Z</time></trkpt><trkpt lat="42.91112337901801" lon="12.774170961274345"><ele>702.5</ele><time>2026-05-03T10:41:50Z</time></trkpt><trkpt lat="42.911063671276196" lon="12.774085348166695"><ele>700.3333333333334</ele><time>2026-05-03T10:41:51Z</time></trkpt><trkpt lat="42.911009824064784" lon="12.774008763549354"><ele>698.1666666666666</ele><time>2026-05-03T10:41:52Z</time></trkpt><trkpt lat="42.91097772291105" lon="12.773932859695115"><ele>696.0</ele><time>2026-05-03T10:41:53Z</time></trkpt><trkpt lat="42.91089072705801" lon="12.773824782634225"><ele>694.0</ele><time>2026-05-03T10:41:55Z</time></trkpt><trkpt lat="42.91082361095405" lon="12.77376559109871"><ele>692.0</ele><time>2026-05-03T10:41:56Z</time></trkpt><trkpt lat="42.91077418650954" lon="12.77367152554758"><ele>690.0</ele><time>2026-05-03T10:41:57Z</time></trkpt><trkpt lat="42.91072455860223" lon="12.773552264221808"><ele>688.0</ele><time>2026-05-03T10:41:58Z</time></trkpt><trkpt lat="42.91067642059985" lon="12.77343996099416"><ele>686.0</ele><time>2026-05-03T10:41:59Z</time></trkpt><trkpt lat="42.91061890550059" lon="12.773332402139127"><ele>684.6666666666666</ele><time>2026-05-03T10:42:00Z</time></trkpt><trkpt lat="42.91058048495993" lon="12.773233053597119"><ele>683.3333333333333</ele><time>2026-05-03T10:42:01Z</time></trkpt><trkpt lat="42.91052499155748" lon="12.773146197720768"><ele>682.0</ele><time>2026-05-03T10:42:02Z</time></trkpt><trkpt lat="42.91046812949946" lon="12.773087801288495"><ele>680.6666666666666</ele><time>2026-05-03T10:42:03Z</time></trkpt><trkpt lat="42.91040454449776" lon="12.773016698866899"><ele>679.3333333333334</ele><time>2026-05-03T10:42:04Z</time></trkpt><trkpt lat="42.91033845359683" lon="12.772931833787785"><ele>678.0</ele><time>2026-05-03T10:42:05Z</time></trkpt><trkpt lat="42.91027098689227" lon="12.772870405293036"><ele>678.0</ele><time>2026-05-03T10:42:06Z</time></trkpt><trkpt lat="42.9102026946299" lon="12.772806310825034"><ele>678.0</ele><time>2026-05-03T10:42:07Z</time></trkpt><trkpt lat="42.91016759229827" lon="12.77272005225553"><ele>678.0</ele><time>2026-05-03T10:42:08Z</time></trkpt><trkpt lat="42.91013586673294" lon="12.772641930685317"><ele>678.0</ele><time>2026-05-03T10:42:09Z</time></trkpt><trkpt lat="42.91008210458532" lon="12.772594214379744"><ele>678.0</ele><time>2026-05-03T10:42:10Z</time></trkpt><trkpt lat="42.91000978880399" lon="12.772564815928328"><ele>678.0</ele><time>2026-05-03T10:42:11Z</time></trkpt><trkpt lat="42.90996483969767" lon="12.772504328478488"><ele>678.0</ele><time>2026-05-03T10:42:12Z</time></trkpt><trkpt lat="42.909918453737085" lon="12.772431131497738"><ele>675.8333333333334</ele><time>2026-05-03T10:42:13Z</time></trkpt><trkpt lat="42.90987056553267" lon="12.772359317083959"><ele>673.6666666666666</ele><time>2026-05-03T10:42:14Z</time></trkpt><trkpt lat="42.9098120250898" lon="12.772288553596203"><ele>671.5</ele><time>2026-05-03T10:42:15Z</time></trkpt><trkpt lat="42.90975467571075" lon="12.772209376752844"><ele>669.3333333333333</ele><time>2026-05-03T10:42:16Z</time></trkpt><trkpt lat="42.909710800892704" lon="12.772119955631695"><ele>667.1666666666666</ele><time>2026-05-03T10:42:17Z</time></trkpt><trkpt lat="42.90967083520839" lon="12.772033580138439"><ele>665.0</ele><time>2026-05-03T10:42:18Z</time></trkpt><trkpt lat="42.90960248797233" lon="12.771926956707112"><ele>665.0</ele><time>2026-05-03T10:42:20Z</time></trkpt><trkpt lat="42.909514153639144" lon="12.77187944956451"><ele>665.0</ele><time>2026-05-03T10:42:22Z</time></trkpt><trkpt lat="42.909527918054415" lon="12.771756823933321"><ele>665.0</ele><time>2026-05-03T10:42:24Z</time></trkpt><trkpt lat="42.90959353138754" lon="12.771649266823246"><ele>665.0</ele><time>2026-05-03T10:42:26Z</time></trkpt><trkpt lat="42.90966967439369" lon="12.771627597821972"><ele>665.0</ele><time>2026-05-03T10:42:28Z</time></trkpt><trkpt lat="42.90973974565722" lon="12.771640797925338"><ele>665.0</ele><time>2026-05-03T10:42:30Z</time></trkpt><trkpt lat="42.9098508467154" lon="12.771676080659878"><ele>664.5714285714286</ele><time>2026-05-03T10:42:32Z</time></trkpt><trkpt lat="42.90992822999533" lon="12.77167259779755"><ele>664.1428571428571</ele><time>2026-05-03T10:42:33Z</time></trkpt><trkpt lat="42.91001007525155" lon="12.771666924523377"><ele>663.7142857142858</ele><time>2026-05-03T10:42:34Z</time></trkpt><trkpt lat="42.910081774469404" lon="12.771672095653344"><ele>663.2857142857142</ele><time>2026-05-03T10:42:35Z</time></trkpt><trkpt lat="42.91015599417242" lon="12.771671504759663"><ele>662.8571428571429</ele><time>2026-05-03T10:42:36Z</time></trkpt><trkpt lat="42.91022931935728" lon="12.771675659874782"><ele>662.4285714285714</ele><time>2026-05-03T10:42:37Z</time></trkpt><trkpt lat="42.910298872570856" lon="12.771661024083402"><ele>662.0</ele><time>2026-05-03T10:42:38Z</time></trkpt><trkpt lat="42.91036288960603" lon="12.771660034254504"><ele>659.6666666666666</ele><time>2026-05-03T10:42:39Z</time></trkpt><trkpt lat="42.910434825441406" lon="12.77167213057738"><ele>657.3333333333333</ele><time>2026-05-03T10:42:40Z</time></trkpt><trkpt lat="42.9105051138553" lon="12.77167825527897"><ele>655.0</ele><time>2026-05-03T10:42:41Z</time></trkpt><trkpt lat="42.91057408127809" lon="12.771682766960915"><ele>652.6666666666666</ele><time>2026-05-03T10:42:42Z</time></trkpt><trkpt lat="42.91069523168007" lon="12.771687064241577"><ele>650.3333333333334</ele><time>2026-05-03T10:42:44Z</time></trkpt><trkpt lat="42.91076111333128" lon="12.771690321541238"><ele>648.0</ele><time>2026-05-03T10:42:45Z</time></trkpt><trkpt lat="42.91082557734405" lon="12.77169991790533"><ele>643.75</ele><time>2026-05-03T10:42:46Z</time></trkpt><trkpt lat="42.910943683444806" lon="12.771701296139108"><ele>639.5</ele><time>2026-05-03T10:42:48Z</time></trkpt><trkpt lat="42.9110521595634" lon="12.771727982508134"><ele>635.25</ele><time>2026-05-03T10:42:50Z</time></trkpt><trkpt lat="42.91116263932813" lon="12.771679669392986"><ele>631.0</ele><time>2026-05-03T10:42:52Z</time></trkpt><trkpt lat="42.91126696247246" lon="12.771629226731507"><ele>631.0</ele><time>2026-05-03T10:42:54Z</time></trkpt><trkpt lat="42.91136802294861" lon="12.771550731804718"><ele>631.0</ele><time>2026-05-03T10:42:56Z</time></trkpt><trkpt lat="42.91149518781959" lon="12.771535036713257"><ele>631.0</ele><time>2026-05-03T10:42:58Z</time></trkpt><trkpt lat="42.911606716414454" lon="12.771514718370044"><ele>631.0</ele><time>2026-05-03T10:43:00Z</time></trkpt><trkpt lat="42.911665173921314" lon="12.771478251469166"><ele>631.0</ele><time>2026-05-03T10:43:01Z</time></trkpt><trkpt lat="42.91173032724575" lon="12.77143770052641"><ele>629.0</ele><time>2026-05-03T10:43:02Z</time></trkpt><trkpt lat="42.91178090395106" lon="12.771363086056855"><ele>627.0</ele><time>2026-05-03T10:43:03Z</time></trkpt><trkpt lat="42.911830627766825" lon="12.77128083306914"><ele>625.0</ele><time>2026-05-03T10:43:04Z</time></trkpt><trkpt lat="42.91187095157227" lon="12.771201653320006"><ele>623.0</ele><time>2026-05-03T10:43:05Z</time></trkpt><trkpt lat="42.911923856620696" lon="12.771086999078683"><ele>621.0</ele><time>2026-05-03T10:43:07Z</time></trkpt><trkpt lat="42.91200793211239" lon="12.771074835732506"><ele>619.0</ele><time>2026-05-03T10:43:12Z</time></trkpt><trkpt lat="42.912088377686516" lon="12.77113965652944"><ele>619.0</ele><time>2026-05-03T10:43:14Z</time></trkpt><trkpt lat="42.91216154217744" lon="12.771237393439245"><ele>619.0</ele><time>2026-05-03T10:43:16Z</time></trkpt><trkpt lat="42.91226779373051" lon="12.771335384537828"><ele>619.0</ele><time>2026-05-03T10:43:18Z</time></trkpt><trkpt lat="42.91232898788631" lon="12.771368866842822"><ele>619.0</ele><time>2026-05-03T10:43:19Z</time></trkpt><trkpt lat="42.91239592453284" lon="12.771382878965682"><ele>619.0</ele><time>2026-05-03T10:43:20Z</time></trkpt><trkpt lat="42.912458223441256" lon="12.771410516393537"><ele>619.0</ele><time>2026-05-03T10:43:21Z</time></trkpt><trkpt lat="42.91252185588166" lon="12.771441908275204"><ele>617.5714285714286</ele><time>2026-05-03T10:43:22Z</time></trkpt><trkpt lat="42.912582410424655" lon="12.771466075799706"><ele>616.1428571428571</ele><time>2026-05-03T10:43:23Z</time></trkpt><trkpt lat="42.91264652622141" lon="12.77148918787593"><ele>614.7142857142858</ele><time>2026-05-03T10:43:24Z</time></trkpt><trkpt lat="42.91271502773781" lon="12.771503608338632"><ele>613.2857142857142</ele><time>2026-05-03T10:43:25Z</time></trkpt><trkpt lat="42.912784833613756" lon="12.771507829911108"><ele>611.8571428571429</ele><time>2026-05-03T10:43:26Z</time></trkpt><trkpt lat="42.912856395638975" lon="12.771504333968819"><ele>610.4285714285714</ele><time>2026-05-03T10:43:27Z</time></trkpt><trkpt lat="42.91293113045013" lon="12.77148656835396"><ele>609.0</ele><time>2026-05-03T10:43:28Z</time></trkpt><trkpt lat="42.913020729130274" lon="12.771477404671531"><ele>609.0</ele><time>2026-05-03T10:43:29Z</time></trkpt><trkpt lat="42.91310793274545" lon="12.771489765372642"><ele>609.0</ele><time>2026-05-03T10:43:30Z</time></trkpt><trkpt lat="42.91319709293118" lon="12.771527316226175"><ele>609.0</ele><time>2026-05-03T10:43:31Z</time></trkpt><trkpt lat="42.91326858869468" lon="12.771544969772235"><ele>609.0</ele><time>2026-05-03T10:43:32Z</time></trkpt><trkpt lat="42.913370767013106" lon="12.771551923696615"><ele>609.0</ele><time>2026-05-03T10:43:33Z</time></trkpt><trkpt lat="42.9134635628582" lon="12.771559066457664"><ele>609.0</ele><time>2026-05-03T10:43:34Z</time></trkpt><trkpt lat="42.913546111777535" lon="12.771590076863202"><ele>607.8333333333334</ele><time>2026-05-03T10:43:35Z</time></trkpt><trkpt lat="42.91362417112733" lon="12.771619158026963"><ele>606.6666666666666</ele><time>2026-05-03T10:43:36Z</time></trkpt><trkpt lat="42.91369679395858" lon="12.771613756705493"><ele>605.5</ele><time>2026-05-03T10:43:37Z</time></trkpt><trkpt lat="42.91376357219741" lon="12.771556302981654"><ele>604.3333333333333</ele><time>2026-05-03T10:43:38Z</time></trkpt><trkpt lat="42.913820394435085" lon="12.771497954722209"><ele>603.1666666666666</ele><time>2026-05-03T10:43:39Z</time></trkpt><trkpt lat="42.91388062791438" lon="12.771460480245322"><ele>602.0</ele><time>2026-05-03T10:43:40Z</time></trkpt><trkpt lat="42.91398507313113" lon="12.77143181123999"><ele>602.0</ele><time>2026-05-03T10:43:42Z</time></trkpt><trkpt lat="42.91408610244432" lon="12.771419499611678"><ele>602.0</ele><time>2026-05-03T10:43:44Z</time></trkpt><trkpt lat="42.91414127259158" lon="12.771465219915658"><ele>602.0</ele><time>2026-05-03T10:43:46Z</time></trkpt><trkpt lat="42.914228944366045" lon="12.771484096987638"><ele>602.0</ele><time>2026-05-03T10:43:48Z</time></trkpt><trkpt lat="42.91434095943872" lon="12.771482206018616"><ele>602.0</ele><time>2026-05-03T10:43:50Z</time></trkpt><trkpt lat="42.91441716994744" lon="12.771467465308433"><ele>602.0</ele><time>2026-05-03T10:43:51Z</time></trkpt><trkpt lat="42.91449957659318" lon="12.771454031292153"><ele>602.0</ele><time>2026-05-03T10:43:52Z</time></trkpt><trkpt lat="42.914574355822765" lon="12.771440312369263"><ele>602.0</ele><time>2026-05-03T10:43:53Z</time></trkpt><trkpt lat="42.914654613461565" lon="12.771430900822228"><ele>602.0</ele><time>2026-05-03T10:43:54Z</time></trkpt><trkpt lat="42.91472995640352" lon="12.77140270142121"><ele>602.0</ele><time>2026-05-03T10:43:55Z</time></trkpt><trkpt lat="42.914795178812085" lon="12.771350464478516"><ele>602.0</ele><time>2026-05-03T10:43:56Z</time></trkpt><trkpt lat="42.914840663357786" lon="12.771274234466418"><ele>602.0</ele><time>2026-05-03T10:43:57Z</time></trkpt><trkpt lat="42.9148751780587" lon="12.771179585060795"><ele>602.0</ele><time>2026-05-03T10:43:58Z</time></trkpt><trkpt lat="42.91491521878738" lon="12.771077432517107"><ele>602.0</ele><time>2026-05-03T10:43:59Z</time></trkpt><trkpt lat="42.91497694539697" lon="12.770985904852555"><ele>602.0</ele><time>2026-05-03T10:44:00Z</time></trkpt><trkpt lat="42.91503886008552" lon="12.770881192672348"><ele>602.0</ele><time>2026-05-03T10:44:01Z</time></trkpt><trkpt lat="42.915110152803564" lon="12.770787826432114"><ele>602.0</ele><time>2026-05-03T10:44:02Z</time></trkpt><trkpt lat="42.91517646848088" lon="12.770699423641272"><ele>598.3333333333333</ele><time>2026-05-03T10:44:03Z</time></trkpt><trkpt lat="42.9152448468238" lon="12.77061417064887"><ele>594.6666666666666</ele><time>2026-05-03T10:44:04Z</time></trkpt><trkpt lat="42.91530301215859" lon="12.77052995564088"><ele>591.0</ele><time>2026-05-03T10:44:05Z</time></trkpt><trkpt lat="42.9153616903612" lon="12.770445687092577"><ele>587.3333333333334</ele><time>2026-05-03T10:44:06Z</time></trkpt><trkpt lat="42.915431927713655" lon="12.770372004694089"><ele>583.6666666666667</ele><time>2026-05-03T10:44:07Z</time></trkpt><trkpt lat="42.91550306140912" lon="12.770300302305618"><ele>580.0</ele><time>2026-05-03T10:44:08Z</time></trkpt><trkpt lat="42.91555234923476" lon="12.77019706365965"><ele>578.6</ele><time>2026-05-03T10:44:09Z</time></trkpt><trkpt lat="42.915589152786" lon="12.77007644142759"><ele>577.2</ele><time>2026-05-03T10:44:10Z</time></trkpt><trkpt lat="42.91563345121219" lon="12.76996513839133"><ele>575.8</ele><time>2026-05-03T10:44:11Z</time></trkpt><trkpt lat="42.91569852813222" lon="12.769893729881225"><ele>574.4</ele><time>2026-05-03T10:44:12Z</time></trkpt><trkpt lat="42.915765416366554" lon="12.769807016526489"><ele>573.0</ele><time>2026-05-03T10:44:13Z</time></trkpt><trkpt lat="42.915839103953054" lon="12.769714341798753"><ele>567.1999999999999</ele><time>2026-05-03T10:44:14Z</time></trkpt><trkpt lat="42.915920113249754" lon="12.769631706316432"><ele>561.4</ele><time>2026-05-03T10:44:15Z</time></trkpt><trkpt lat="42.91600088208725" lon="12.769554140386251"><ele>555.5999999999999</ele><time>2026-05-03T10:44:16Z</time></trkpt><trkpt lat="42.91607966265686" lon="12.76947967285003"><ele>549.8</ele><time>2026-05-03T10:44:17Z</time></trkpt><trkpt lat="42.91612503180197" lon="12.769378763061127"><ele>544.0</ele><time>2026-05-03T10:44:18Z</time></trkpt><trkpt lat="42.91615791409728" lon="12.76927650297321"><ele>543.6666666666667</ele><time>2026-05-03T10:44:19Z</time></trkpt><trkpt lat="42.9161760454005" lon="12.769156525043002"><ele>543.3333333333334</ele><time>2026-05-03T10:44:20Z</time></trkpt><trkpt lat="42.91620356574422" lon="12.769043761554256"><ele>543.0</ele><time>2026-05-03T10:44:21Z</time></trkpt><trkpt lat="42.916237821324785" lon="12.768929715849843"><ele>542.6666666666666</ele><time>2026-05-03T10:44:22Z</time></trkpt><trkpt lat="42.916268483856385" lon="12.768841363776945"><ele>542.3333333333333</ele><time>2026-05-03T10:44:23Z</time></trkpt><trkpt lat="42.91629277346127" lon="12.768720591336498"><ele>542.0</ele><time>2026-05-03T10:44:25Z</time></trkpt><trkpt lat="42.91617250124127" lon="12.76868178290958"><ele>542.0</ele><time>2026-05-03T10:44:27Z</time></trkpt><trkpt lat="42.91608371602653" lon="12.768674714920824"><ele>542.0</ele><time>2026-05-03T10:44:28Z</time></trkpt><trkpt lat="42.91599849685671" lon="12.7686257395939"><ele>542.0</ele><time>2026-05-03T10:44:29Z</time></trkpt><trkpt lat="42.91594587960986" lon="12.76857194329951"><ele>542.0</ele><time>2026-05-03T10:44:30Z</time></trkpt><trkpt lat="42.91591377696904" lon="12.76848203886962"><ele>542.0</ele><time>2026-05-03T10:44:31Z</time></trkpt><trkpt lat="42.915919665513265" lon="12.768369064557296"><ele>542.0</ele><time>2026-05-03T10:44:32Z</time></trkpt><trkpt lat="42.91591504482759" lon="12.768250158977658"><ele>541.6</ele><time>2026-05-03T10:44:33Z</time></trkpt><trkpt lat="42.91590728166215" lon="12.76810524105964"><ele>541.2</ele><time>2026-05-03T10:44:34Z</time></trkpt><trkpt lat="42.91590272670983" lon="12.767964043309945"><ele>540.8</ele><time>2026-05-03T10:44:35Z</time></trkpt><trkpt lat="42.91588448326607" lon="12.767833750316415"><ele>540.4</ele><time>2026-05-03T10:44:36Z</time></trkpt><trkpt lat="42.91587312853126" lon="12.7677121041352"><ele>540.0</ele><time>2026-05-03T10:44:37Z</time></trkpt><trkpt lat="42.91586143947046" lon="12.767591581443712"><ele>541.0</ele><time>2026-05-03T10:44:38Z</time></trkpt><trkpt lat="42.91586076870983" lon="12.767470391941174"><ele>542.0</ele><time>2026-05-03T10:44:39Z</time></trkpt><trkpt lat="42.91585296444662" lon="12.767351187126732"><ele>543.0</ele><time>2026-05-03T10:44:40Z</time></trkpt><trkpt lat="42.91584876392174" lon="12.76723743396281"><ele>544.0</ele><time>2026-05-03T10:44:41Z</time></trkpt><trkpt lat="42.91584825852124" lon="12.767127947754304"><ele>545.0</ele><time>2026-05-03T10:44:42Z</time></trkpt><trkpt lat="42.91584718925416" lon="12.767008813513112"><ele>546.0</ele><time>2026-05-03T10:44:43Z</time></trkpt><trkpt lat="42.91585608011274" lon="12.766877729938194"><ele>545.6</ele><time>2026-05-03T10:44:44Z</time></trkpt><trkpt lat="42.91586121432333" lon="12.766757302987367"><ele>545.2</ele><time>2026-05-03T10:44:45Z</time></trkpt><trkpt lat="42.91586968970216" lon="12.766657168791355"><ele>544.8</ele><time>2026-05-03T10:44:46Z</time></trkpt><trkpt lat="42.91584398407302" lon="12.766487973858817"><ele>544.4</ele><time>2026-05-03T10:44:48Z</time></trkpt><trkpt lat="42.91581281690143" lon="12.766410708362471"><ele>544.0</ele><time>2026-05-03T10:44:49Z</time></trkpt><trkpt lat="42.91579625689409" lon="12.76627711295479"><ele>544.0</ele><time>2026-05-03T10:44:51Z</time></trkpt><trkpt lat="42.915811598076374" lon="12.766183298094262"><ele>544.0</ele><time>2026-05-03T10:44:57Z</time></trkpt><trkpt lat="42.915908175728816" lon="12.766151061930614"><ele>544.0</ele><time>2026-05-03T10:45:00Z</time></trkpt><trkpt lat="42.91602351999228" lon="12.766075216490606"><ele>544.0</ele><time>2026-05-03T10:45:02Z</time></trkpt><trkpt lat="42.91608328208588" lon="12.766046826130248"><ele>544.0</ele><time>2026-05-03T10:45:03Z</time></trkpt><trkpt lat="42.91617141343809" lon="12.766035164922492"><ele>540.1666666666667</ele><time>2026-05-03T10:45:04Z</time></trkpt><trkpt lat="42.91626384737735" lon="12.76602397674445"><ele>536.3333333333334</ele><time>2026-05-03T10:45:05Z</time></trkpt><trkpt lat="42.9163417077111" lon="12.766005695400509"><ele>532.5</ele><time>2026-05-03T10:45:06Z</time></trkpt><trkpt lat="42.916409124185215" lon="12.765960378587822"><ele>528.6666666666666</ele><time>2026-05-03T10:45:07Z</time></trkpt><trkpt lat="42.91645357825107" lon="12.765887120894348"><ele>524.8333333333333</ele><time>2026-05-03T10:45:08Z</time></trkpt><trkpt lat="42.916466793413065" lon="12.765803003328159"><ele>521.0</ele><time>2026-05-03T10:45:09Z</time></trkpt><trkpt lat="42.91647817307844" lon="12.76570715226531"><ele>521.0</ele><time>2026-05-03T10:45:10Z</time></trkpt><trkpt lat="42.91648457557072" lon="12.765594753125404"><ele>521.0</ele><time>2026-05-03T10:45:11Z</time></trkpt><trkpt lat="42.91647734446215" lon="12.76548040155412"><ele>521.0</ele><time>2026-05-03T10:45:12Z</time></trkpt><trkpt lat="42.91647815110672" lon="12.765377788761725"><ele>521.0</ele><time>2026-05-03T10:45:13Z</time></trkpt><trkpt lat="42.916478488940044" lon="12.765272743932591"><ele>521.0</ele><time>2026-05-03T10:45:14Z</time></trkpt><trkpt lat="42.91646334903982" lon="12.765179836277587"><ele>521.0</ele><time>2026-05-03T10:45:15Z</time></trkpt><trkpt lat="42.91645708693713" lon="12.765037807534569"><ele>521.0</ele><time>2026-05-03T10:45:17Z</time></trkpt><trkpt lat="42.916542541175815" lon="12.765026931275399"><ele>521.0</ele><time>2026-05-03T10:45:20Z</time></trkpt><trkpt lat="42.91661371313541" lon="12.765158230906085"><ele>521.0</ele><time>2026-05-03T10:45:22Z</time></trkpt><trkpt lat="42.916690920758754" lon="12.765255509452095"><ele>521.0</ele><time>2026-05-03T10:45:24Z</time></trkpt><trkpt lat="42.91677260751517" lon="12.765207446550145"><ele>521.0</ele><time>2026-05-03T10:45:26Z</time></trkpt><trkpt lat="42.91679731336299" lon="12.765038937161831"><ele>512.5</ele><time>2026-05-03T10:45:28Z</time></trkpt><trkpt lat="42.91679572090932" lon="12.76493961958024"><ele>504.0</ele><time>2026-05-03T10:45:29Z</time></trkpt><trkpt lat="42.91678894211973" lon="12.76484403059885"><ele>495.5</ele><time>2026-05-03T10:45:30Z</time></trkpt><trkpt lat="42.91675900519339" lon="12.76472457930145"><ele>487.0</ele><time>2026-05-03T10:45:31Z</time></trkpt><trkpt lat="42.916743478536844" lon="12.764612376628332"><ele>478.49999999999994</ele><time>2026-05-03T10:45:32Z</time></trkpt><trkpt lat="42.91674498701406" lon="12.764475442856828"><ele>470.0</ele><time>2026-05-03T10:45:33Z</time></trkpt><trkpt lat="42.916751055107206" lon="12.76435419731341"><ele>469.99999999999994</ele><time>2026-05-03T10:45:34Z</time></trkpt><trkpt lat="42.916750803517466" lon="12.764247915775554"><ele>470.0</ele><time>2026-05-03T10:45:35Z</time></trkpt><trkpt lat="42.91675340519516" lon="12.764161351072007"><ele>470.0</ele><time>2026-05-03T10:45:36Z</time></trkpt><trkpt lat="42.916805178368406" lon="12.7640401206437"><ele>470.0</ele><time>2026-05-03T10:45:38Z</time></trkpt><trkpt lat="42.916875753322714" lon="12.764016620777607"><ele>469.99999999999994</ele><time>2026-05-03T10:45:39Z</time></trkpt><trkpt lat="42.9169564273457" lon="12.764103870099502"><ele>470.0</ele><time>2026-05-03T10:45:41Z</time></trkpt><trkpt lat="42.91699129659872" lon="12.76420397814585"><ele>469.99999999999994</ele><time>2026-05-03T10:45:42Z</time></trkpt><trkpt lat="42.91703195463163" lon="12.764286950722772"><ele>470.0</ele><time>2026-05-03T10:45:43Z</time></trkpt><trkpt lat="42.91709500112844" lon="12.764391215902684"><ele>470.0</ele><time>2026-05-03T10:45:44Z</time></trkpt><trkpt lat="42.91715623480567" lon="12.764468139605935"><ele>470.0</ele><time>2026-05-03T10:45:45Z</time></trkpt><trkpt lat="42.91722216618872" lon="12.764517782237464"><ele>469.99999999999994</ele><time>2026-05-03T10:45:46Z</time></trkpt><trkpt lat="42.91728425018316" lon="12.764546308468562"><ele>470.0</ele><time>2026-05-03T10:45:47Z</time></trkpt><trkpt lat="42.91735121816163" lon="12.76453953095157"><ele>469.6</ele><time>2026-05-03T10:45:48Z</time></trkpt><trkpt lat="42.91743999483545" lon="12.764556561587094"><ele>469.2</ele><time>2026-05-03T10:45:50Z</time></trkpt><trkpt lat="42.91745130497683" lon="12.764712948124096"><ele>468.79999999999995</ele><time>2026-05-03T10:45:52Z</time></trkpt><trkpt lat="42.917440002576924" lon="12.764832974367842"><ele>468.4</ele><time>2026-05-03T10:45:53Z</time></trkpt><trkpt lat="42.91743423405491" lon="12.76495910906876"><ele>468.0</ele><time>2026-05-03T10:45:54Z</time></trkpt><trkpt lat="42.917429851612276" lon="12.765087465017773"><ele>468.79999999999995</ele><time>2026-05-03T10:45:55Z</time></trkpt><trkpt lat="42.91743380020675" lon="12.765213514682422"><ele>469.59999999999997</ele><time>2026-05-03T10:45:56Z</time></trkpt><trkpt lat="42.91744611926935" lon="12.765349136449704"><ele>470.40000000000003</ele><time>2026-05-03T10:45:57Z</time></trkpt><trkpt lat="42.91747259882056" lon="12.765470015569075"><ele>471.20000000000005</ele><time>2026-05-03T10:45:58Z</time></trkpt><trkpt lat="42.91752309217004" lon="12.765593946356555"><ele>472.0</ele><time>2026-05-03T10:45:59Z</time></trkpt><trkpt lat="42.91760316829409" lon="12.765706537834284"><ele>465.0</ele><time>2026-05-03T10:46:00Z</time></trkpt><trkpt lat="42.917677728759216" lon="12.76582234354908"><ele>458.00000000000006</ele><time>2026-05-03T10:46:01Z</time></trkpt><trkpt lat="42.91773209071989" lon="12.765939165695873"><ele>451.00000000000006</ele><time>2026-05-03T10:46:02Z</time></trkpt><trkpt lat="42.91776845612697" lon="12.766055570879319"><ele>444.0</ele><time>2026-05-03T10:46:03Z</time></trkpt><trkpt lat="42.91779898951676" lon="12.766155370164027"><ele>437.0</ele><time>2026-05-03T10:46:04Z</time></trkpt><trkpt lat="42.917837169376064" lon="12.76624379689459"><ele>437.0</ele><time>2026-05-03T10:46:05Z</time></trkpt><trkpt lat="42.91788444692954" lon="12.766338419526992"><ele>437.00000000000006</ele><time>2026-05-03T10:46:06Z</time></trkpt><trkpt lat="42.917946683979835" lon="12.766442844205185"><ele>437.00000000000006</ele><time>2026-05-03T10:46:07Z</time></trkpt><trkpt lat="42.91800200626271" lon="12.76655897870604"><ele>437.0</ele><time>2026-05-03T10:46:08Z</time></trkpt><trkpt lat="42.91804531635832" lon="12.76668623433704"><ele>437.0</ele><time>2026-05-03T10:46:09Z</time></trkpt><trkpt lat="42.91806890211906" lon="12.76682867985115"><ele>438.40000000000003</ele><time>2026-05-03T10:46:10Z</time></trkpt><trkpt lat="42.918080970583986" lon="12.76698044094522"><ele>439.80000000000007</ele><time>2026-05-03T10:46:11Z</time></trkpt><trkpt lat="42.91809217867907" lon="12.76711996797378"><ele>441.2</ele><time>2026-05-03T10:46:12Z</time></trkpt><trkpt lat="42.918095383372076" lon="12.76721654804781"><ele>442.6</ele><time>2026-05-03T10:46:13Z</time></trkpt><trkpt lat="42.91810904000295" lon="12.767381807987"><ele>444.0</ele><time>2026-05-03T10:46:15Z</time></trkpt><trkpt lat="42.91811223977618" lon="12.767469234070598"><ele>444.0</ele><time>2026-05-03T10:46:16Z</time></trkpt><trkpt lat="42.9181066279118" lon="12.767624012201278"><ele>444.0</ele><time>2026-05-03T10:46:18Z</time></trkpt><trkpt lat="42.91818296421787" lon="12.767681716297652"><ele>444.0</ele><time>2026-05-03T10:46:20Z</time></trkpt><trkpt lat="42.91830823426549" lon="12.767622220803434"><ele>444.0</ele><time>2026-05-03T10:46:22Z</time></trkpt><trkpt lat="42.91843177759584" lon="12.76757746335411"><ele>449.6</ele><time>2026-05-03T10:46:24Z</time></trkpt><trkpt lat="42.91852798005224" lon="12.767550048665715"><ele>455.2</ele><time>2026-05-03T10:46:25Z</time></trkpt><trkpt lat="42.91860513684587" lon="12.767532255473272"><ele>460.80000000000007</ele><time>2026-05-03T10:46:26Z</time></trkpt><trkpt lat="42.91869190802994" lon="12.767404340504061"><ele>466.40000000000003</ele><time>2026-05-03T10:46:28Z</time></trkpt><trkpt lat="42.9187308021631" lon="12.767293741672068"><ele>472.0</ele><time>2026-05-03T10:46:29Z</time></trkpt><trkpt lat="42.9187756045249" lon="12.767178790383822"><ele>472.0</ele><time>2026-05-03T10:46:30Z</time></trkpt><trkpt lat="42.91880704409687" lon="12.767056806781417"><ele>472.00000000000006</ele><time>2026-05-03T10:46:31Z</time></trkpt><trkpt lat="42.91884930226653" lon="12.76690820236859"><ele>472.00000000000006</ele><time>2026-05-03T10:46:32Z</time></trkpt><trkpt lat="42.918905189260144" lon="12.76676624525307"><ele>472.0</ele><time>2026-05-03T10:46:33Z</time></trkpt><trkpt lat="42.9189469567951" lon="12.766653326720876"><ele>472.0</ele><time>2026-05-03T10:46:34Z</time></trkpt><trkpt lat="42.91898627885623" lon="12.766565936680353"><ele>474.20000000000005</ele><time>2026-05-03T10:46:35Z</time></trkpt><trkpt lat="42.91905887314569" lon="12.76647682334949"><ele>476.40000000000003</ele><time>2026-05-03T10:46:37Z</time></trkpt><trkpt lat="42.91914040648541" lon="12.766440375096481"><ele>478.59999999999997</ele><time>2026-05-03T10:46:38Z</time></trkpt><trkpt lat="42.91924196671532" lon="12.766396512231735"><ele>480.79999999999995</ele><time>2026-05-03T10:46:39Z</time></trkpt><trkpt lat="42.91934319492378" lon="12.766337762456969"><ele>483.0</ele><time>2026-05-03T10:46:40Z</time></trkpt><trkpt lat="42.91943500858679" lon="12.766268957619225"><ele>483.0</ele><time>2026-05-03T10:46:41Z</time></trkpt><trkpt lat="42.91951223065042" lon="12.766209708970463"><ele>482.99999999999994</ele><time>2026-05-03T10:46:42Z</time></trkpt><trkpt lat="42.91958748559549" lon="12.76618425243461"><ele>482.99999999999994</ele><time>2026-05-03T10:46:43Z</time></trkpt><trkpt lat="42.91967626169272" lon="12.766163165132518"><ele>483.0</ele><time>2026-05-03T10:46:44Z</time></trkpt><trkpt lat="42.919756958562125" lon="12.766085481132839"><ele>483.0</ele><time>2026-05-03T10:46:45Z</time></trkpt><trkpt lat="42.91983265347621" lon="12.765970542122073"><ele>482.0</ele><time>2026-05-03T10:46:46Z</time></trkpt><trkpt lat="42.919889520462135" lon="12.765845876163201"><ele>480.99999999999994</ele><time>2026-05-03T10:46:47Z</time></trkpt><trkpt lat="42.91994497935254" lon="12.765726267573367"><ele>479.99999999999994</ele><time>2026-05-03T10:46:48Z</time></trkpt><trkpt lat="42.920016484469805" lon="12.765628445909396"><ele>479.0</ele><time>2026-05-03T10:46:49Z</time></trkpt><trkpt lat="42.92006791384096" lon="12.765539071016978"><ele>478.0</ele><time>2026-05-03T10:46:50Z</time></trkpt><trkpt lat="42.92014139053564" lon="12.765491244874037"><ele>478.0</ele><time>2026-05-03T10:46:52Z</time></trkpt><trkpt lat="42.920279018569346" lon="12.765505289499636"><ele>477.99999999999994</ele><time>2026-05-03T10:46:54Z</time></trkpt><trkpt lat="42.92038165558606" lon="12.765493387908935"><ele>477.99999999999994</ele><time>2026-05-03T10:46:55Z</time></trkpt><trkpt lat="42.92047964677466" lon="12.765504042711811"><ele>478.0</ele><time>2026-05-03T10:46:56Z</time></trkpt><trkpt lat="42.92057547447258" lon="12.765535931301484"><ele>478.0</ele><time>2026-05-03T10:46:57Z</time></trkpt><trkpt lat="42.920678131320095" lon="12.765573342649569"><ele>478.00000000000006</ele><time>2026-05-03T10:46:58Z</time></trkpt><trkpt lat="42.92077645032529" lon="12.76561189968123"><ele>478.0</ele><time>2026-05-03T10:46:59Z</time></trkpt><trkpt lat="42.92087124854005" lon="12.765659470032679"><ele>478.0</ele><time>2026-05-03T10:47:00Z</time></trkpt><trkpt lat="42.920941703572865" lon="12.765697225370628"><ele>478.0</ele><time>2026-05-03T10:47:01Z</time></trkpt><trkpt lat="42.92100434789687" lon="12.765750030314386"><ele>478.00000000000006</ele><time>2026-05-03T10:47:02Z</time></trkpt><trkpt lat="42.921074519349084" lon="12.765839506331064"><ele>478.0</ele><time>2026-05-03T10:47:03Z</time></trkpt><trkpt lat="42.92115295175125" lon="12.765956964004987"><ele>479.75</ele><time>2026-05-03T10:47:04Z</time></trkpt><trkpt lat="42.921240594840214" lon="12.76608424579876"><ele>481.5</ele><time>2026-05-03T10:47:05Z</time></trkpt><trkpt lat="42.921328228378535" lon="12.766218942207736"><ele>483.25</ele><time>2026-05-03T10:47:06Z</time></trkpt><trkpt lat="42.92140828186607" lon="12.766369421730495"><ele>485.0</ele><time>2026-05-03T10:47:07Z</time></trkpt><trkpt lat="42.92147252337199" lon="12.766497065247949"><ele>485.0</ele><time>2026-05-03T10:47:08Z</time></trkpt><trkpt lat="42.92153456991847" lon="12.766595174603967"><ele>485.0</ele><time>2026-05-03T10:47:09Z</time></trkpt><trkpt lat="42.92159136260285" lon="12.766693561855247"><ele>485.0</ele><time>2026-05-03T10:47:10Z</time></trkpt><trkpt lat="42.92164458736054" lon="12.766820199621522"><ele>485.0</ele><time>2026-05-03T10:47:11Z</time></trkpt><trkpt lat="42.92168199587222" lon="12.766941146506962"><ele>485.0</ele><time>2026-05-03T10:47:12Z</time></trkpt><trkpt lat="42.921725985322176" lon="12.76707655111736"><ele>486.6</ele><time>2026-05-03T10:47:13Z</time></trkpt><trkpt lat="42.92176791075938" lon="12.767197150902595"><ele>488.2</ele><time>2026-05-03T10:47:14Z</time></trkpt><trkpt lat="42.921816372925214" lon="12.767312936337833"><ele>489.79999999999995</ele><time>2026-05-03T10:47:15Z</time></trkpt><trkpt lat="42.92186592011208" lon="12.767389217870097"><ele>491.4</ele><time>2026-05-03T10:47:16Z</time></trkpt><trkpt lat="42.921924960916094" lon="12.76744621340163"><ele>493.0</ele><time>2026-05-03T10:47:18Z</time></trkpt><trkpt lat="42.92200252731558" lon="12.767581810696424"><ele>493.0</ele><time>2026-05-03T10:47:20Z</time></trkpt><trkpt lat="42.92204314942709" lon="12.76768308950245"><ele>492.99999999999994</ele><time>2026-05-03T10:47:21Z</time></trkpt><trkpt lat="42.922081814680006" lon="12.767818494819867"><ele>492.99999999999994</ele><time>2026-05-03T10:47:22Z</time></trkpt><trkpt lat="42.92211176377866" lon="12.76794905438849"><ele>493.0</ele><time>2026-05-03T10:47:23Z</time></trkpt><trkpt lat="42.92215447311106" lon="12.768063415495808"><ele>493.0</ele><time>2026-05-03T10:47:24Z</time></trkpt><trkpt lat="42.92221918895205" lon="12.768156118323638"><ele>494.33333333333337</ele><time>2026-05-03T10:47:25Z</time></trkpt><trkpt lat="42.92228954163727" lon="12.768251012250479"><ele>495.6666666666667</ele><time>2026-05-03T10:47:26Z</time></trkpt><trkpt lat="42.92235190841987" lon="12.768349498709684"><ele>497.0</ele><time>2026-05-03T10:47:27Z</time></trkpt><trkpt lat="42.92239967831167" lon="12.768428186873118"><ele>498.33333333333337</ele><time>2026-05-03T10:47:28Z</time></trkpt><trkpt lat="42.92244330274742" lon="12.768500651433655"><ele>499.6666666666667</ele><time>2026-05-03T10:47:29Z</time></trkpt><trkpt lat="42.9224817903909" lon="12.768574607844826"><ele>501.0</ele><time>2026-05-03T10:47:30Z</time></trkpt><trkpt lat="42.92252421053616" lon="12.768641935486276"><ele>501.0</ele><time>2026-05-03T10:47:31Z</time></trkpt><trkpt lat="42.92258741196589" lon="12.768564311318334"><ele>501.0</ele><time>2026-05-03T10:47:34Z</time></trkpt><trkpt lat="42.92258452276018" lon="12.768384577607726"><ele>501.0</ele><time>2026-05-03T10:47:36Z</time></trkpt><trkpt lat="42.92257458634207" lon="12.768263001413274"><ele>501.0</ele><time>2026-05-03T10:47:37Z</time></trkpt><trkpt lat="42.92256124064336" lon="12.768151183151415"><ele>501.0</ele><time>2026-05-03T10:47:38Z</time></trkpt><trkpt lat="42.922544495948124" lon="12.768025244163747"><ele>501.0</ele><time>2026-05-03T10:47:39Z</time></trkpt><trkpt lat="42.92253350039275" lon="12.767904825252756"><ele>501.0</ele><time>2026-05-03T10:47:40Z</time></trkpt><trkpt lat="42.92253234564106" lon="12.767803856083935"><ele>501.0</ele><time>2026-05-03T10:47:41Z</time></trkpt><trkpt lat="42.92255058511963" lon="12.767704081900526"><ele>501.0</ele><time>2026-05-03T10:47:42Z</time></trkpt><trkpt lat="42.922597005574154" lon="12.767601594562521"><ele>501.0</ele><time>2026-05-03T10:47:43Z</time></trkpt><trkpt lat="42.92263657355273" lon="12.767497290950008"><ele>501.0</ele><time>2026-05-03T10:47:44Z</time></trkpt><trkpt lat="42.9226698013251" lon="12.767380003408807"><ele>504.6666666666667</ele><time>2026-05-03T10:47:45Z</time></trkpt><trkpt lat="42.92267794306894" lon="12.767276099962455"><ele>508.33333333333337</ele><time>2026-05-03T10:47:46Z</time></trkpt><trkpt lat="42.9227134480071" lon="12.767194546608764"><ele>512.0</ele><time>2026-05-03T10:47:47Z</time></trkpt><trkpt lat="42.92276007689378" lon="12.767108595392257"><ele>515.6666666666667</ele><time>2026-05-03T10:47:48Z</time></trkpt><trkpt lat="42.922821999875126" lon="12.767014449822428"><ele>519.3333333333334</ele><time>2026-05-03T10:47:49Z</time></trkpt><trkpt lat="42.92289205255299" lon="12.76691650937899"><ele>523.0</ele><time>2026-05-03T10:47:50Z</time></trkpt><trkpt lat="42.922951069164974" lon="12.766791781201535"><ele>523.0</ele><time>2026-05-03T10:47:51Z</time></trkpt><trkpt lat="42.92300909943985" lon="12.766663488082887"><ele>523.0</ele><time>2026-05-03T10:47:52Z</time></trkpt><trkpt lat="42.92306261126938" lon="12.766541422348574"><ele>523.0</ele><time>2026-05-03T10:47:53Z</time></trkpt><trkpt lat="42.92310144148059" lon="12.766409521432301"><ele>523.0</ele><time>2026-05-03T10:47:54Z</time></trkpt><trkpt lat="42.92314481147992" lon="12.766274264047345"><ele>523.0</ele><time>2026-05-03T10:47:55Z</time></trkpt><trkpt lat="42.92317904569739" lon="12.766138962277475"><ele>520.8</ele><time>2026-05-03T10:47:56Z</time></trkpt><trkpt lat="42.92321052548015" lon="12.766002632488096"><ele>518.5999999999999</ele><time>2026-05-03T10:47:57Z</time></trkpt><trkpt lat="42.9232349091001" lon="12.76588268672446"><ele>516.4000000000001</ele><time>2026-05-03T10:47:58Z</time></trkpt><trkpt lat="42.92324521554564" lon="12.765774248533859"><ele>514.2</ele><time>2026-05-03T10:47:59Z</time></trkpt><trkpt lat="42.923204619604135" lon="12.765649991737467"><ele>512.0</ele><time>2026-05-03T10:48:00Z</time></trkpt><trkpt lat="42.92317727695675" lon="12.765519043879559"><ele>512.0</ele><time>2026-05-03T10:48:01Z</time></trkpt><trkpt lat="42.92316864668552" lon="12.765386749635457"><ele>512.0</ele><time>2026-05-03T10:48:02Z</time></trkpt><trkpt lat="42.92317651967046" lon="12.765246469786726"><ele>512.0</ele><time>2026-05-03T10:48:03Z</time></trkpt><trkpt lat="42.92317806407165" lon="12.765096472052564"><ele>512.0</ele><time>2026-05-03T10:48:04Z</time></trkpt><trkpt lat="42.92317832486913" lon="12.76493893153323"><ele>512.0</ele><time>2026-05-03T10:48:05Z</time></trkpt><trkpt lat="42.92315251537541" lon="12.764806314533672"><ele>513.2</ele><time>2026-05-03T10:48:06Z</time></trkpt><trkpt lat="42.923117694731" lon="12.764672636515968"><ele>514.4000000000001</ele><time>2026-05-03T10:48:07Z</time></trkpt><trkpt lat="42.923090974114565" lon="12.764554846014796"><ele>515.5999999999999</ele><time>2026-05-03T10:48:08Z</time></trkpt><trkpt lat="42.923069080000204" lon="12.764429426071445"><ele>516.8</ele><time>2026-05-03T10:48:09Z</time></trkpt><trkpt lat="42.923043785918864" lon="12.764259709929961"><ele>518.0</ele><time>2026-05-03T10:48:10Z</time></trkpt><trkpt lat="42.923013332961624" lon="12.764109753003511"><ele>520.8</ele><time>2026-05-03T10:48:11Z</time></trkpt><trkpt lat="42.92297319964326" lon="12.763970286417564"><ele>523.5999999999999</ele><time>2026-05-03T10:48:12Z</time></trkpt><trkpt lat="42.92294844606666" lon="12.763832623943836"><ele>526.4000000000001</ele><time>2026-05-03T10:48:13Z</time></trkpt><trkpt lat="42.922951851870536" lon="12.763718834509604"><ele>529.2</ele><time>2026-05-03T10:48:14Z</time></trkpt><trkpt lat="42.92297248623218" lon="12.763592416199817"><ele>532.0</ele><time>2026-05-03T10:48:15Z</time></trkpt><trkpt lat="42.92296910022927" lon="12.763419585988554"><ele>533.6666666666667</ele><time>2026-05-03T10:48:16Z</time></trkpt><trkpt lat="42.92296630674468" lon="12.763223511775363"><ele>535.3333333333334</ele><time>2026-05-03T10:48:17Z</time></trkpt><trkpt lat="42.92296176017093" lon="12.763011127037158"><ele>537.0</ele><time>2026-05-03T10:48:18Z</time></trkpt><trkpt lat="42.92293267346797" lon="12.76280562180042"><ele>537.0</ele><time>2026-05-03T10:48:19Z</time></trkpt><trkpt lat="42.92295434997394" lon="12.762606928623926"><ele>537.0</ele><time>2026-05-03T10:48:20Z</time></trkpt><trkpt lat="42.92297368215029" lon="12.762412257444309"><ele>537.0</ele><time>2026-05-03T10:48:21Z</time></trkpt><trkpt lat="42.92298964300647" lon="12.762239478212004"><ele>537.0</ele><time>2026-05-03T10:48:22Z</time></trkpt><trkpt lat="42.92299382481757" lon="12.762082762208065"><ele>537.0</ele><time>2026-05-03T10:48:23Z</time></trkpt><trkpt lat="42.923013333500066" lon="12.761952229927067"><ele>537.0</ele><time>2026-05-03T10:48:24Z</time></trkpt><trkpt lat="42.923016353960016" lon="12.761812979374227"><ele>537.0</ele><time>2026-05-03T10:48:25Z</time></trkpt><trkpt lat="42.923022120164624" lon="12.761658774144957"><ele>537.0</ele><time>2026-05-03T10:48:26Z</time></trkpt><trkpt lat="42.923027906470246" lon="12.761491766603507"><ele>537.0</ele><time>2026-05-03T10:48:27Z</time></trkpt><trkpt lat="42.923021538040906" lon="12.761322022176039"><ele>536.75</ele><time>2026-05-03T10:48:28Z</time></trkpt><trkpt lat="42.923022105250624" lon="12.76116597939588"><ele>536.5</ele><time>2026-05-03T10:48:29Z</time></trkpt><trkpt lat="42.923007659472844" lon="12.761016545886681"><ele>536.25</ele><time>2026-05-03T10:48:30Z</time></trkpt><trkpt lat="42.922995293967475" lon="12.760864546053648"><ele>536.0</ele><time>2026-05-03T10:48:31Z</time></trkpt><trkpt lat="42.922971205119495" lon="12.760709032050205"><ele>536.0</ele><time>2026-05-03T10:48:32Z</time></trkpt><trkpt lat="42.922972212853765" lon="12.76058298157186"><ele>536.0</ele><time>2026-05-03T10:48:33Z</time></trkpt><trkpt lat="42.92299260842781" lon="12.760470392884681"><ele>536.0</ele><time>2026-05-03T10:48:34Z</time></trkpt><trkpt lat="42.92300934678239" lon="12.760361353175206"><ele>536.0</ele><time>2026-05-03T10:48:35Z</time></trkpt><trkpt lat="42.923049152996086" lon="12.760275021394888"><ele>536.0</ele><time>2026-05-03T10:48:36Z</time></trkpt><trkpt lat="42.92311719001581" lon="12.76019710849522"><ele>536.0</ele><time>2026-05-03T10:48:37Z</time></trkpt><trkpt lat="42.92318702679665" lon="12.760115081356078"><ele>535.1666666666666</ele><time>2026-05-03T10:48:38Z</time></trkpt><trkpt lat="42.92325696662588" lon="12.760052129503558"><ele>534.3333333333333</ele><time>2026-05-03T10:48:39Z</time></trkpt><trkpt lat="42.923331392894156" lon="12.760082566695827"><ele>533.5</ele><time>2026-05-03T10:48:40Z</time></trkpt><trkpt lat="42.9233749310939" lon="12.760006484319458"><ele>532.6666666666666</ele><time>2026-05-03T10:48:47Z</time></trkpt><trkpt lat="42.923343106834245" lon="12.759911680665265"><ele>531.8333333333334</ele><time>2026-05-03T10:48:48Z</time></trkpt><trkpt lat="42.9232936685708" lon="12.7597984128855"><ele>531.0</ele><time>2026-05-03T10:48:49Z</time></trkpt><trkpt lat="42.92326805656259" lon="12.759640696153692"><ele>531.0</ele><time>2026-05-03T10:48:50Z</time></trkpt><trkpt lat="42.92324416246927" lon="12.759505632768322"><ele>531.0</ele><time>2026-05-03T10:48:51Z</time></trkpt><trkpt lat="42.92320091115306" lon="12.759371309289172"><ele>531.0</ele><time>2026-05-03T10:48:52Z</time></trkpt><trkpt lat="42.92316484463272" lon="12.759266647579697"><ele>531.0</ele><time>2026-05-03T10:48:53Z</time></trkpt><trkpt lat="42.92315419797424" lon="12.759148172375268"><ele>531.0</ele><time>2026-05-03T10:48:54Z</time></trkpt><trkpt lat="42.923143362835894" lon="12.759034826938528"><ele>529.1666666666666</ele><time>2026-05-03T10:48:55Z</time></trkpt><trkpt lat="42.92313746694035" lon="12.758924541501045"><ele>527.3333333333334</ele><time>2026-05-03T10:48:56Z</time></trkpt><trkpt lat="42.92314527290417" lon="12.758824653456566"><ele>525.5</ele><time>2026-05-03T10:48:57Z</time></trkpt><trkpt lat="42.92317987271875" lon="12.758740794369826"><ele>523.6666666666667</ele><time>2026-05-03T10:48:58Z</time></trkpt><trkpt lat="42.923299310826565" lon="12.758661500801255"><ele>521.8333333333334</ele><time>2026-05-03T10:49:00Z</time></trkpt><trkpt lat="42.92338319202556" lon="12.758618130452023"><ele>520.0</ele><time>2026-05-03T10:49:01Z</time></trkpt><trkpt lat="42.92346840986187" lon="12.758562669110683"><ele>515.6</ele><time>2026-05-03T10:49:02Z</time></trkpt><trkpt lat="42.923536599927225" lon="12.758509092903196"><ele>511.2</ele><time>2026-05-03T10:49:03Z</time></trkpt><trkpt lat="42.923597193963516" lon="12.758378390201678"><ele>506.79999999999995</ele><time>2026-05-03T10:49:05Z</time></trkpt><trkpt lat="42.92357779562638" lon="12.758254986559022"><ele>502.4</ele><time>2026-05-03T10:49:06Z</time></trkpt><trkpt lat="42.92355539743382" lon="12.758121267875662"><ele>498.0</ele><time>2026-05-03T10:49:07Z</time></trkpt><trkpt lat="42.923542834101305" lon="12.758001231028672"><ele>498.0</ele><time>2026-05-03T10:49:08Z</time></trkpt><trkpt lat="42.92352838071655" lon="12.757856983469546"><ele>497.99999999999994</ele><time>2026-05-03T10:49:09Z</time></trkpt><trkpt lat="42.923525259125576" lon="12.757726200467435"><ele>497.99999999999994</ele><time>2026-05-03T10:49:10Z</time></trkpt><trkpt lat="42.92351696503359" lon="12.757611757736235"><ele>498.0</ele><time>2026-05-03T10:49:11Z</time></trkpt><trkpt lat="42.92351160322533" lon="12.757483064131756"><ele>498.0</ele><time>2026-05-03T10:49:12Z</time></trkpt><trkpt lat="42.923501689520414" lon="12.757351709355987"><ele>498.4</ele><time>2026-05-03T10:49:13Z</time></trkpt><trkpt lat="42.92348618669729" lon="12.757225684707494"><ele>498.79999999999995</ele><time>2026-05-03T10:49:14Z</time></trkpt><trkpt lat="42.923493917358265" lon="12.757115871661194"><ele>499.2</ele><time>2026-05-03T10:49:15Z</time></trkpt><trkpt lat="42.92350449651769" lon="12.756994128198638"><ele>499.6</ele><time>2026-05-03T10:49:16Z</time></trkpt><trkpt lat="42.92351176627408" lon="12.756866384796718"><ele>500.0</ele><time>2026-05-03T10:49:17Z</time></trkpt><trkpt lat="42.92351669863369" lon="12.756736040370212"><ele>498.4</ele><time>2026-05-03T10:49:18Z</time></trkpt><trkpt lat="42.923529389637665" lon="12.756601043552333"><ele>496.8</ele><time>2026-05-03T10:49:19Z</time></trkpt><trkpt lat="42.92354405909151" lon="12.756457582159511"><ele>495.20000000000005</ele><time>2026-05-03T10:49:20Z</time></trkpt><trkpt lat="42.92355381073416" lon="12.756299733213607"><ele>493.6</ele><time>2026-05-03T10:49:21Z</time></trkpt><trkpt lat="42.9235591025757" lon="12.7561452932856"><ele>492.0</ele><time>2026-05-03T10:49:22Z</time></trkpt><trkpt lat="42.92357199902301" lon="12.756001191649103"><ele>489.6</ele><time>2026-05-03T10:49:23Z</time></trkpt><trkpt lat="42.92357130434426" lon="12.755862944094458"><ele>487.20000000000005</ele><time>2026-05-03T10:49:24Z</time></trkpt><trkpt lat="42.923582594671586" lon="12.755725301694383"><ele>484.8</ele><time>2026-05-03T10:49:25Z</time></trkpt><trkpt lat="42.92359442278772" lon="12.755616952690698"><ele>482.4</ele><time>2026-05-03T10:49:26Z</time></trkpt><trkpt lat="42.92355441289829" lon="12.7555152992556"><ele>480.0</ele><time>2026-05-03T10:49:27Z</time></trkpt><trkpt lat="42.923510965971815" lon="12.755378491559817"><ele>480.0</ele><time>2026-05-03T10:49:28Z</time></trkpt><trkpt lat="42.92346826548755" lon="12.755233604918248"><ele>480.0</ele><time>2026-05-03T10:49:29Z</time></trkpt><trkpt lat="42.92344343940458" lon="12.755117116458203"><ele>480.0</ele><time>2026-05-03T10:49:30Z</time></trkpt><trkpt lat="42.92342538797568" lon="12.755034504036377"><ele>480.0</ele><time>2026-05-03T10:49:31Z</time></trkpt><trkpt lat="42.923376716334346" lon="12.754958947947035"><ele>480.0</ele><time>2026-05-03T10:49:32Z</time></trkpt><trkpt lat="42.92332015322716" lon="12.75490364590101"><ele>480.0</ele><time>2026-05-03T10:49:33Z</time></trkpt><trkpt lat="42.92324662376818" lon="12.754860029160843"><ele>481.0</ele><time>2026-05-03T10:49:34Z</time></trkpt><trkpt lat="42.923137583699976" lon="12.754841541022646"><ele>482.0</ele><time>2026-05-03T10:49:35Z</time></trkpt><trkpt lat="42.92304444741527" lon="12.75483875159395"><ele>483.0</ele><time>2026-05-03T10:49:36Z</time></trkpt><trkpt lat="42.92295358789007" lon="12.754812697462796"><ele>484.0</ele><time>2026-05-03T10:49:37Z</time></trkpt><trkpt lat="42.922875807411145" lon="12.754815771614703"><ele>485.0</ele><time>2026-05-03T10:49:38Z</time></trkpt><trkpt lat="42.922789813008364" lon="12.754817648542565"><ele>484.99999999999994</ele><time>2026-05-03T10:49:39Z</time></trkpt><trkpt lat="42.922710357654836" lon="12.754824887962295"><ele>485.0</ele><time>2026-05-03T10:49:40Z</time></trkpt><trkpt lat="42.92263381149509" lon="12.754828674440027"><ele>485.0</ele><time>2026-05-03T10:49:41Z</time></trkpt><trkpt lat="42.92254140900933" lon="12.754761379737142"><ele>485.0</ele><time>2026-05-03T10:49:43Z</time></trkpt><trkpt lat="42.922487620357465" lon="12.75469341489897"><ele>484.99999999999994</ele><time>2026-05-03T10:49:44Z</time></trkpt><trkpt lat="42.9224295453697" lon="12.754644093572065"><ele>485.0</ele><time>2026-05-03T10:49:45Z</time></trkpt><trkpt lat="42.92230378626485" lon="12.754595139673667"><ele>485.2</ele><time>2026-05-03T10:49:47Z</time></trkpt><trkpt lat="42.922220298619806" lon="12.75452943145463"><ele>485.4</ele><time>2026-05-03T10:49:49Z</time></trkpt><trkpt lat="42.922177305441416" lon="12.754466499463105"><ele>485.6</ele><time>2026-05-03T10:49:50Z</time></trkpt><trkpt lat="42.92210320230005" lon="12.754389404311976"><ele>485.8</ele><time>2026-05-03T10:49:52Z</time></trkpt><trkpt lat="42.92199860241706" lon="12.754337363034779"><ele>486.0</ele><time>2026-05-03T10:49:54Z</time></trkpt><trkpt lat="42.921918878889194" lon="12.75421274743811"><ele>483.4</ele><time>2026-05-03T10:49:56Z</time></trkpt><trkpt lat="42.92184821832019" lon="12.754081068045565"><ele>480.8</ele><time>2026-05-03T10:49:58Z</time></trkpt><trkpt lat="42.92181253562412" lon="12.75396679377194"><ele>478.19999999999993</ele><time>2026-05-03T10:50:00Z</time></trkpt><trkpt lat="42.92187215935525" lon="12.753818095287095"><ele>475.59999999999997</ele><time>2026-05-03T10:50:02Z</time></trkpt><trkpt lat="42.92188820301564" lon="12.753668455247727"><ele>473.0</ele><time>2026-05-03T10:50:04Z</time></trkpt><trkpt lat="42.92192636342001" lon="12.753532606132685"><ele>469.2</ele><time>2026-05-03T10:50:06Z</time></trkpt><trkpt lat="42.921980885162085" lon="12.753444634028144"><ele>465.4</ele><time>2026-05-03T10:50:08Z</time></trkpt><trkpt lat="42.9218747894081" lon="12.753405971305213"><ele>461.59999999999997</ele><time>2026-05-03T10:50:11Z</time></trkpt><trkpt lat="42.92179817806949" lon="12.753395359030327"><ele>457.79999999999995</ele><time>2026-05-03T10:50:12Z</time></trkpt><trkpt lat="42.92171392572843" lon="12.753369316214652"><ele>454.0</ele><time>2026-05-03T10:50:13Z</time></trkpt><trkpt lat="42.921614800830426" lon="12.753347272541415"><ele>453.6666666666667</ele><time>2026-05-03T10:50:14Z</time></trkpt><trkpt lat="42.92153236012336" lon="12.753321893231716"><ele>453.33333333333337</ele><time>2026-05-03T10:50:15Z</time></trkpt><trkpt lat="42.92146126929146" lon="12.753300815017258"><ele>453.0</ele><time>2026-05-03T10:50:16Z</time></trkpt><trkpt lat="42.92139401273875" lon="12.753253963912941"><ele>452.66666666666663</ele><time>2026-05-03T10:50:17Z</time></trkpt><trkpt lat="42.92128057779874" lon="12.753235547844206"><ele>452.3333333333333</ele><time>2026-05-03T10:50:19Z</time></trkpt><trkpt lat="42.921205893648136" lon="12.75318296944457"><ele>452.0</ele><time>2026-05-03T10:50:21Z</time></trkpt><trkpt lat="42.921250804890974" lon="12.753107897565975"><ele>452.0</ele><time>2026-05-03T10:50:22Z</time></trkpt><trkpt lat="42.92132605982671" lon="12.753008285677494"><ele>452.00000000000006</ele><time>2026-05-03T10:50:23Z</time></trkpt><trkpt lat="42.921378588624144" lon="12.75293980630213"><ele>452.00000000000006</ele><time>2026-05-03T10:50:24Z</time></trkpt><trkpt lat="42.9214410276083" lon="12.752825415700134"><ele>452.0</ele><time>2026-05-03T10:50:26Z</time></trkpt><trkpt lat="42.9215029205179" lon="12.752709779766878"><ele>452.0</ele><time>2026-05-03T10:50:28Z</time></trkpt><trkpt lat="42.921549510853396" lon="12.75256368042909"><ele>448.66666666666663</ele><time>2026-05-03T10:50:30Z</time></trkpt><trkpt lat="42.92158621723342" lon="12.75246818442279"><ele>445.3333333333333</ele><time>2026-05-03T10:50:45Z</time></trkpt><trkpt lat="42.92164169313121" lon="12.75239556886057"><ele>442.0</ele><time>2026-05-03T10:50:47Z</time></trkpt><trkpt lat="42.92168919593273" lon="12.752286054693778"><ele>438.66666666666663</ele><time>2026-05-03T10:50:49Z</time></trkpt><trkpt lat="42.92172360935944" lon="12.752210979442234"><ele>435.3333333333333</ele><time>2026-05-03T10:50:50Z</time></trkpt><trkpt lat="42.92178829218869" lon="12.752077057096463"><ele>432.0</ele><time>2026-05-03T10:50:52Z</time></trkpt><trkpt lat="42.92164982553558" lon="12.751963342256412"><ele>432.0</ele><time>2026-05-03T10:52:04Z</time></trkpt><trkpt lat="42.92156537439436" lon="12.751957066127897"><ele>432.0</ele><time>2026-05-03T10:52:05Z</time></trkpt><trkpt lat="42.921489395972785" lon="12.751938339004155"><ele>432.0</ele><time>2026-05-03T10:52:06Z</time></trkpt><trkpt lat="42.921420726964925" lon="12.751905558070854"><ele>432.0</ele><time>2026-05-03T10:52:07Z</time></trkpt><trkpt lat="42.92130001980323" lon="12.751865991547731"><ele>432.0</ele><time>2026-05-03T10:52:09Z</time></trkpt><trkpt lat="42.92122405840877" lon="12.751848325649568"><ele>432.0</ele><time>2026-05-03T10:52:10Z</time></trkpt><trkpt lat="42.92115977351502" lon="12.751829129922358"><ele>428.8333333333333</ele><time>2026-05-03T10:52:11Z</time></trkpt><trkpt lat="42.921091804400376" lon="12.751810357205873"><ele>425.66666666666663</ele><time>2026-05-03T10:52:12Z</time></trkpt><trkpt lat="42.92102045376166" lon="12.75180709836456"><ele>422.5</ele><time>2026-05-03T10:52:14Z</time></trkpt><trkpt lat="42.92102880547604" lon="12.751687849152026"><ele>419.3333333333333</ele><time>2026-05-03T10:52:18Z</time></trkpt><trkpt lat="42.921073907675805" lon="12.751624877988792"><ele>416.16666666666663</ele><time>2026-05-03T10:52:19Z</time></trkpt><trkpt lat="42.92111498597686" lon="12.751556547901474"><ele>413.0</ele><time>2026-05-03T10:52:20Z</time></trkpt><trkpt lat="42.92120011602471" lon="12.751453022520659"><ele>413.0</ele><time>2026-05-03T10:52:22Z</time></trkpt><trkpt lat="42.92125244563794" lon="12.751392227393104"><ele>413.0</ele><time>2026-05-03T10:52:23Z</time></trkpt><trkpt lat="42.92133794444321" lon="12.751280871484045"><ele>413.0</ele><time>2026-05-03T10:52:25Z</time></trkpt><trkpt lat="42.92138720463404" lon="12.751214029463288"><ele>413.0</ele><time>2026-05-03T10:52:26Z</time></trkpt><trkpt lat="42.921490967325056" lon="12.751121428169117"><ele>413.0</ele><time>2026-05-03T10:52:28Z</time></trkpt><trkpt lat="42.921564092715656" lon="12.751092481180919"><ele>412.99999999999994</ele><time>2026-05-03T10:52:29Z</time></trkpt><trkpt lat="42.92162946764326" lon="12.751052123671576"><ele>413.0</ele><time>2026-05-03T10:52:30Z</time></trkpt><trkpt lat="42.9216906132377" lon="12.751013479352212"><ele>413.0</ele><time>2026-05-03T10:52:31Z</time></trkpt><trkpt lat="42.92180976583561" lon="12.751010855549133"><ele>413.0</ele><time>2026-05-03T10:52:33Z</time></trkpt><trkpt lat="42.921873527358116" lon="12.75101461873176"><ele>412.99999999999994</ele><time>2026-05-03T10:52:34Z</time></trkpt><trkpt lat="42.92194288715539" lon="12.751010654913191"><ele>413.0</ele><time>2026-05-03T10:52:35Z</time></trkpt><trkpt lat="42.92205665689536" lon="12.751013144486866"><ele>405.2</ele><time>2026-05-03T10:52:37Z</time></trkpt><trkpt lat="42.92217737085887" lon="12.75094905504117"><ele>397.4</ele><time>2026-05-03T10:52:39Z</time></trkpt><trkpt lat="42.922287201314944" lon="12.750933546190856"><ele>389.59999999999997</ele><time>2026-05-03T10:52:41Z</time></trkpt><trkpt lat="42.92239664153456" lon="12.75096400425797"><ele>381.79999999999995</ele><time>2026-05-03T10:52:43Z</time></trkpt><trkpt lat="42.92246708517784" lon="12.750992482498647"><ele>374.0</ele><time>2026-05-03T10:52:44Z</time></trkpt><trkpt lat="42.92252877591606" lon="12.751026930407383"><ele>375.2</ele><time>2026-05-03T10:52:45Z</time></trkpt><trkpt lat="42.922588987855335" lon="12.751063784517704"><ele>376.4</ele><time>2026-05-03T10:52:46Z</time></trkpt><trkpt lat="42.92270758631475" lon="12.751087863533275"><ele>377.6</ele><time>2026-05-03T10:52:48Z</time></trkpt><trkpt lat="42.922774033573916" lon="12.751094566577697"><ele>378.8</ele><time>2026-05-03T10:52:49Z</time></trkpt><trkpt lat="42.92289943803459" lon="12.751115642898757"><ele>380.0</ele><time>2026-05-03T10:52:51Z</time></trkpt><trkpt lat="42.92301082709607" lon="12.751093582181989"><ele>380.0</ele><time>2026-05-03T10:52:53Z</time></trkpt><trkpt lat="42.92310644912004" lon="12.751047987901753"><ele>380.0</ele><time>2026-05-03T10:52:55Z</time></trkpt><trkpt lat="42.92321907728923" lon="12.751064466643122"><ele>380.0</ele><time>2026-05-03T10:52:57Z</time></trkpt><trkpt lat="42.92331483257935" lon="12.751094825340076"><ele>380.0</ele><time>2026-05-03T10:52:59Z</time></trkpt><trkpt lat="42.92335064883981" lon="12.751166516409068"><ele>380.0</ele><time>2026-05-03T10:53:01Z</time></trkpt><trkpt lat="42.92345995719159" lon="12.751210040581489"><ele>375.6</ele><time>2026-05-03T10:53:03Z</time></trkpt><trkpt lat="42.923552923942644" lon="12.751259884324208"><ele>371.2</ele><time>2026-05-03T10:53:05Z</time></trkpt><trkpt lat="42.923687663884415" lon="12.751289672083582"><ele>366.79999999999995</ele><time>2026-05-03T10:53:07Z</time></trkpt><trkpt lat="42.92376034319087" lon="12.75129520370172"><ele>362.4</ele><time>2026-05-03T10:53:08Z</time></trkpt><trkpt lat="42.92383955375685" lon="12.751313502434034"><ele>358.0</ele><time>2026-05-03T10:53:09Z</time></trkpt><trkpt lat="42.923917215922664" lon="12.751341345216721"><ele>358.0</ele><time>2026-05-03T10:53:10Z</time></trkpt><trkpt lat="42.92401095141665" lon="12.751366492416844"><ele>358.0</ele><time>2026-05-03T10:53:11Z</time></trkpt><trkpt lat="42.92410565488397" lon="12.751387065222408"><ele>358.0</ele><time>2026-05-03T10:53:12Z</time></trkpt><trkpt lat="42.92419039140938" lon="12.751391250637296"><ele>358.0</ele><time>2026-05-03T10:53:13Z</time></trkpt><trkpt lat="42.92426879724379" lon="12.751391301035436"><ele>358.0</ele><time>2026-05-03T10:53:14Z</time></trkpt><trkpt lat="42.924340704992744" lon="12.751396384838511"><ele>358.0</ele><time>2026-05-03T10:53:15Z</time></trkpt><trkpt lat="42.92443268687443" lon="12.751308688420618"><ele>357.79999999999995</ele><time>2026-05-03T10:53:17Z</time></trkpt><trkpt lat="42.92445904627011" lon="12.751180841669232"><ele>357.6</ele><time>2026-05-03T10:53:19Z</time></trkpt><trkpt lat="42.92451847204826" lon="12.751041050001932"><ele>357.4</ele><time>2026-05-03T10:53:21Z</time></trkpt><trkpt lat="42.924568269727814" lon="12.750968575951163"><ele>357.20000000000005</ele><time>2026-05-03T10:53:22Z</time></trkpt><trkpt lat="42.924648367505746" lon="12.750893825322978"><ele>357.0</ele><time>2026-05-03T10:53:23Z</time></trkpt><trkpt lat="42.92473356976857" lon="12.7508220661883"><ele>358.0</ele><time>2026-05-03T10:53:24Z</time></trkpt><trkpt lat="42.92481595356779" lon="12.750729723380193"><ele>359.0</ele><time>2026-05-03T10:53:25Z</time></trkpt><trkpt lat="42.924892655650716" lon="12.750643977047698"><ele>360.0</ele><time>2026-05-03T10:53:26Z</time></trkpt><trkpt lat="42.92495679409441" lon="12.750562921247012"><ele>361.0</ele><time>2026-05-03T10:53:27Z</time></trkpt><trkpt lat="42.92501246075371" lon="12.75047949157375"><ele>362.0</ele><time>2026-05-03T10:53:28Z</time></trkpt><trkpt lat="42.9250728521759" lon="12.750387064891228"><ele>362.0</ele><time>2026-05-03T10:53:29Z</time></trkpt><trkpt lat="42.92515547989464" lon="12.750277814041299"><ele>362.0</ele><time>2026-05-03T10:53:30Z</time></trkpt><trkpt lat="42.92522228381248" lon="12.750197219019745"><ele>362.0</ele><time>2026-05-03T10:53:31Z</time></trkpt><trkpt lat="42.92527445246377" lon="12.750146772304344"><ele>362.0</ele><time>2026-05-03T10:53:32Z</time></trkpt><trkpt lat="42.92538147788845" lon="12.750048249763255"><ele>362.0</ele><time>2026-05-03T10:53:34Z</time></trkpt><trkpt lat="42.925473829164986" lon="12.749999722707214"><ele>363.0</ele><time>2026-05-03T10:53:35Z</time></trkpt><trkpt lat="42.925579700862116" lon="12.749979399284356"><ele>364.0</ele><time>2026-05-03T10:53:36Z</time></trkpt><trkpt lat="42.9256728264867" lon="12.749898967019028"><ele>365.0</ele><time>2026-05-03T10:53:37Z</time></trkpt><trkpt lat="42.925759944699905" lon="12.74983581395723"><ele>366.0</ele><time>2026-05-03T10:53:38Z</time></trkpt><trkpt lat="42.92583822699091" lon="12.74977322542742"><ele>367.0</ele><time>2026-05-03T10:53:39Z</time></trkpt><trkpt lat="42.925917913108954" lon="12.74970482031418"><ele>367.0</ele><time>2026-05-03T10:53:40Z</time></trkpt><trkpt lat="42.92599344018514" lon="12.749619934567301"><ele>367.0</ele><time>2026-05-03T10:53:41Z</time></trkpt><trkpt lat="42.926062139369435" lon="12.749527101602235"><ele>367.0</ele><time>2026-05-03T10:53:42Z</time></trkpt><trkpt lat="42.92612883874605" lon="12.749432196677734"><ele>367.0</ele><time>2026-05-03T10:53:43Z</time></trkpt><trkpt lat="42.926206541977066" lon="12.749322329551967"><ele>367.0</ele><time>2026-05-03T10:53:44Z</time></trkpt><trkpt lat="42.9263015309357" lon="12.749229629129783"><ele>364.25</ele><time>2026-05-03T10:53:45Z</time></trkpt><trkpt lat="42.9263938611036" lon="12.749120090858716"><ele>361.5</ele><time>2026-05-03T10:53:46Z</time></trkpt><trkpt lat="42.92649575954954" lon="12.749006284995735"><ele>358.75</ele><time>2026-05-03T10:53:47Z</time></trkpt><trkpt lat="42.9265879077296" lon="12.74890023737009"><ele>356.0</ele><time>2026-05-03T10:53:48Z</time></trkpt><trkpt lat="42.92666996742622" lon="12.748789245606266"><ele>356.8</ele><time>2026-05-03T10:53:49Z</time></trkpt><trkpt lat="42.926748921666935" lon="12.748670172055421"><ele>357.6</ele><time>2026-05-03T10:53:50Z</time></trkpt><trkpt lat="42.92680669523781" lon="12.748550357219006"><ele>358.4</ele><time>2026-05-03T10:53:51Z</time></trkpt><trkpt lat="42.92687238426673" lon="12.748442852490976"><ele>359.2</ele><time>2026-05-03T10:53:52Z</time></trkpt><trkpt lat="42.926931217427864" lon="12.748352981936026"><ele>360.0</ele><time>2026-05-03T10:53:53Z</time></trkpt><trkpt lat="42.926987366286546" lon="12.748245688999853"><ele>360.0</ele><time>2026-05-03T10:53:54Z</time></trkpt><trkpt lat="42.92704172524866" lon="12.748152822367691"><ele>360.0</ele><time>2026-05-03T10:53:55Z</time></trkpt><trkpt lat="42.9271025665202" lon="12.74808490346424"><ele>360.0</ele><time>2026-05-03T10:53:56Z</time></trkpt><trkpt lat="42.927140944508025" lon="12.748008399769814"><ele>360.0</ele><time>2026-05-03T10:53:58Z</time></trkpt><trkpt lat="42.92710505335977" lon="12.74815755889104"><ele>360.0</ele><time>2026-05-03T10:54:01Z</time></trkpt><trkpt lat="42.92708056860155" lon="12.74827158092478"><ele>360.0</ele><time>2026-05-03T10:54:02Z</time></trkpt><trkpt lat="42.92706672923683" lon="12.748360684960112"><ele>360.0</ele><time>2026-05-03T10:54:03Z</time></trkpt><trkpt lat="42.92703952670115" lon="12.748455869790744"><ele>360.0</ele><time>2026-05-03T10:54:05Z</time></trkpt><trkpt lat="42.92722644094471" lon="12.748578240935352"><ele>360.0</ele><time>2026-05-03T10:54:06Z</time></trkpt><trkpt lat="42.92734392790083" lon="12.748618289150034"><ele>360.0</ele><time>2026-05-03T10:54:07Z</time></trkpt><trkpt lat="42.92746498480596" lon="12.748643089058215"><ele>364.75</ele><time>2026-05-03T10:54:08Z</time></trkpt><trkpt lat="42.92757257017293" lon="12.748672902578742"><ele>369.5</ele><time>2026-05-03T10:54:09Z</time></trkpt><trkpt lat="42.92768404991389" lon="12.748714015153334"><ele>374.25</ele><time>2026-05-03T10:54:10Z</time></trkpt><trkpt lat="42.92780478092461" lon="12.74877789200637"><ele>379.0</ele><time>2026-05-03T10:54:11Z</time></trkpt><trkpt lat="42.92794550879458" lon="12.748871112070741"><ele>379.0</ele><time>2026-05-03T10:54:12Z</time></trkpt><trkpt lat="42.92808766294631" lon="12.748912106514581"><ele>379.0</ele><time>2026-05-03T10:54:13Z</time></trkpt><trkpt lat="42.92820560110375" lon="12.748969004699187"><ele>379.0</ele><time>2026-05-03T10:54:14Z</time></trkpt><trkpt lat="42.928299550850525" lon="12.749040034329107"><ele>379.0</ele><time>2026-05-03T10:54:15Z</time></trkpt><trkpt lat="42.92838697326332" lon="12.749085526207208"><ele>379.5</ele><time>2026-05-03T10:54:16Z</time></trkpt><trkpt lat="42.92847719447904" lon="12.749132474482096"><ele>380.0</ele><time>2026-05-03T10:54:17Z</time></trkpt><trkpt lat="42.92858064578969" lon="12.749190931510249"><ele>380.5</ele><time>2026-05-03T10:54:18Z</time></trkpt><trkpt lat="42.92868672993964" lon="12.749258656201086"><ele>381.0</ele><time>2026-05-03T10:54:19Z</time></trkpt><trkpt lat="42.92880277006124" lon="12.749342652234304"><ele>385.5</ele><time>2026-05-03T10:54:20Z</time></trkpt><trkpt lat="42.92894681249948" lon="12.749434139343744"><ele>390.0</ele><time>2026-05-03T10:54:21Z</time></trkpt><trkpt lat="42.92907634675558" lon="12.749508686378888"><ele>394.5</ele><time>2026-05-03T10:54:22Z</time></trkpt><trkpt lat="42.92918374812668" lon="12.749553272344116"><ele>399.0</ele><time>2026-05-03T10:54:23Z</time></trkpt><trkpt lat="42.9292667819927" lon="12.749606291733127"><ele>399.0</ele><time>2026-05-03T10:54:24Z</time></trkpt><trkpt lat="42.929324536245275" lon="12.749672657417381"><ele>399.0</ele><time>2026-05-03T10:54:25Z</time></trkpt><trkpt lat="42.92942375954209" lon="12.7497533186941"><ele>399.0</ele><time>2026-05-03T10:54:27Z</time></trkpt><trkpt lat="42.92947661047889" lon="12.749833191843319"><ele>399.0</ele><time>2026-05-03T10:54:28Z</time></trkpt><trkpt lat="42.929572969780615" lon="12.749909234068674"><ele>399.0</ele><time>2026-05-03T10:54:29Z</time></trkpt><trkpt lat="42.92968086768223" lon="12.750007658823428"><ele>399.0</ele><time>2026-05-03T10:54:30Z</time></trkpt><trkpt lat="42.92979053604848" lon="12.750078861491781"><ele>399.0</ele><time>2026-05-03T10:54:31Z</time></trkpt><trkpt lat="42.9298963797482" lon="12.750146256289122"><ele>399.0</ele><time>2026-05-03T10:54:32Z</time></trkpt><trkpt lat="42.93000725634483" lon="12.750216007286854"><ele>399.0</ele><time>2026-05-03T10:54:33Z</time></trkpt><trkpt lat="42.93013284397803" lon="12.750265511842889"><ele>399.75</ele><time>2026-05-03T10:54:34Z</time></trkpt><trkpt lat="42.93027387301149" lon="12.750254987367482"><ele>400.5</ele><time>2026-05-03T10:54:35Z</time></trkpt><trkpt lat="42.93041043817784" lon="12.750215004456209"><ele>401.25</ele><time>2026-05-03T10:54:36Z</time></trkpt><trkpt lat="42.93055547713282" lon="12.750166246628421"><ele>402.0</ele><time>2026-05-03T10:54:37Z</time></trkpt><trkpt lat="42.930691008007585" lon="12.750121306522319"><ele>402.0</ele><time>2026-05-03T10:54:38Z</time></trkpt><trkpt lat="42.93082921444256" lon="12.750055658361457"><ele>402.0</ele><time>2026-05-03T10:54:39Z</time></trkpt><trkpt lat="42.9309560558177" lon="12.750038433311733"><ele>402.0</ele><time>2026-05-03T10:54:40Z</time></trkpt><trkpt lat="42.9310737788896" lon="12.749991612727733"><ele>402.0</ele><time>2026-05-03T10:54:41Z</time></trkpt><trkpt lat="42.93119600552063" lon="12.750010403750549"><ele>403.25</ele><time>2026-05-03T10:54:42Z</time></trkpt><trkpt lat="42.93131412470719" lon="12.750032693473036"><ele>404.5</ele><time>2026-05-03T10:54:43Z</time></trkpt><trkpt lat="42.93143096662211" lon="12.750077692684066"><ele>405.75</ele><time>2026-05-03T10:54:44Z</time></trkpt><trkpt lat="42.931551156918715" lon="12.750143094147964"><ele>407.0</ele><time>2026-05-03T10:54:45Z</time></trkpt><trkpt lat="42.93168420364347" lon="12.750219697214302"><ele>411.75</ele><time>2026-05-03T10:54:46Z</time></trkpt><trkpt lat="42.931814572066685" lon="12.750294503403405"><ele>416.5</ele><time>2026-05-03T10:54:47Z</time></trkpt><trkpt lat="42.93194254602285" lon="12.750352925583426"><ele>421.25</ele><time>2026-05-03T10:54:48Z</time></trkpt><trkpt lat="42.932070130280486" lon="12.750370375537248"><ele>426.0</ele><time>2026-05-03T10:54:49Z</time></trkpt><trkpt lat="42.93218934622889" lon="12.75038642782533"><ele>426.0</ele><time>2026-05-03T10:54:50Z</time></trkpt><trkpt lat="42.93231697523728" lon="12.750412953693962"><ele>426.0</ele><time>2026-05-03T10:54:51Z</time></trkpt><trkpt lat="42.93244879655039" lon="12.750390979851963"><ele>426.0</ele><time>2026-05-03T10:54:52Z</time></trkpt><trkpt lat="42.932578188367955" lon="12.750351907947271"><ele>426.0</ele><time>2026-05-03T10:54:53Z</time></trkpt><trkpt lat="42.932712831867555" lon="12.75028256534513"><ele>425.5</ele><time>2026-05-03T10:54:54Z</time></trkpt><trkpt lat="42.932854757141264" lon="12.75026169068663"><ele>425.0</ele><time>2026-05-03T10:54:55Z</time></trkpt><trkpt lat="42.93299088195899" lon="12.750240997606626"><ele>424.5</ele><time>2026-05-03T10:54:56Z</time></trkpt><trkpt lat="42.93312053694119" lon="12.75021522252822"><ele>424.0</ele><time>2026-05-03T10:54:57Z</time></trkpt><trkpt lat="42.933240791291915" lon="12.750178824064374"><ele>424.0</ele><time>2026-05-03T10:54:58Z</time></trkpt><trkpt lat="42.933363477398686" lon="12.75019080265556"><ele>424.0</ele><time>2026-05-03T10:54:59Z</time></trkpt><trkpt lat="42.93348599777745" lon="12.75016611905668"><ele>424.0</ele><time>2026-05-03T10:55:00Z</time></trkpt><trkpt lat="42.933604373766194" lon="12.75014032136441"><ele>424.0</ele><time>2026-05-03T10:55:01Z</time></trkpt><trkpt lat="42.93370579827338" lon="12.750111666207982"><ele>428.0</ele><time>2026-05-03T10:55:02Z</time></trkpt><trkpt lat="42.9338184924625" lon="12.750072563703089"><ele>432.0</ele><time>2026-05-03T10:55:03Z</time></trkpt><trkpt lat="42.93392665997025" lon="12.750027203090648"><ele>436.0</ele><time>2026-05-03T10:55:04Z</time></trkpt><trkpt lat="42.93404338647331" lon="12.749965003507757"><ele>440.0</ele><time>2026-05-03T10:55:05Z</time></trkpt><trkpt lat="42.934154349912305" lon="12.749907026370515"><ele>443.8</ele><time>2026-05-03T10:55:06Z</time></trkpt><trkpt lat="42.93426650219407" lon="12.749849187593002"><ele>447.6</ele><time>2026-05-03T10:55:07Z</time></trkpt><trkpt lat="42.93433633243515" lon="12.749776385833705"><ele>451.4</ele><time>2026-05-03T10:55:08Z</time></trkpt><trkpt lat="42.934401339444975" lon="12.749750635022444"><ele>455.2</ele><time>2026-05-03T10:55:09Z</time></trkpt><trkpt lat="42.93443088467975" lon="12.749654549446051"><ele>459.0</ele><time>2026-05-03T10:55:13Z</time></trkpt><trkpt lat="42.934546612336746" lon="12.749573305963773"><ele>459.0</ele><time>2026-05-03T10:55:19Z</time></trkpt><trkpt lat="42.934618717570665" lon="12.749550203866635"><ele>459.0</ele><time>2026-05-03T10:55:20Z</time></trkpt><trkpt lat="42.93467755419264" lon="12.749503077114097"><ele>459.0</ele><time>2026-05-03T10:55:21Z</time></trkpt><trkpt lat="42.93476872209934" lon="12.749510826261245"><ele>459.0</ele><time>2026-05-03T10:55:22Z</time></trkpt><trkpt lat="42.934836147500604" lon="12.749482349701411"><ele>459.0</ele><time>2026-05-03T10:55:23Z</time></trkpt><trkpt lat="42.93490755125173" lon="12.749457877345822"><ele>459.0</ele><time>2026-05-03T10:55:24Z</time></trkpt><trkpt lat="42.93500550952821" lon="12.749402695317958"><ele>458.1666666666667</ele><time>2026-05-03T10:55:26Z</time></trkpt><trkpt lat="42.93511199431393" lon="12.749381573747927"><ele>457.33333333333337</ele><time>2026-05-03T10:55:28Z</time></trkpt><trkpt lat="42.935212822810655" lon="12.749343113470395"><ele>456.5</ele><time>2026-05-03T10:55:30Z</time></trkpt><trkpt lat="42.93529740649259" lon="12.749328431913462"><ele>455.6666666666667</ele><time>2026-05-03T10:55:32Z</time></trkpt><trkpt lat="42.93536863155484" lon="12.749334735695198"><ele>454.83333333333337</ele><time>2026-05-03T10:55:36Z</time></trkpt><trkpt lat="42.935302022291324" lon="12.749358834564399"><ele>454.0</ele><time>2026-05-03T10:55:41Z</time></trkpt><trkpt lat="42.935265453433374" lon="12.749487590697612"><ele>458.25</ele><time>2026-05-03T10:55:42Z</time></trkpt><trkpt lat="42.93529133620573" lon="12.749610430674897"><ele>462.5</ele><time>2026-05-03T10:55:44Z</time></trkpt><trkpt lat="42.93521790367544" lon="12.7496648879546"><ele>466.75</ele><time>2026-05-03T10:55:47Z</time></trkpt><trkpt lat="42.93511584968998" lon="12.749713737550698"><ele>471.0</ele><time>2026-05-03T10:55:50Z</time></trkpt><trkpt lat="42.93536239423024" lon="12.749621872066754"><ele>471.0</ele><time>2026-05-03T10:55:52Z</time></trkpt><trkpt lat="42.93541822134729" lon="12.749682895205671"><ele>471.0</ele><time>2026-05-03T10:55:54Z</time></trkpt><trkpt lat="42.93549086693345" lon="12.749732190298413"><ele>471.0</ele><time>2026-05-03T10:55:56Z</time></trkpt><trkpt lat="42.93558778255333" lon="12.74973111997918"><ele>471.0</ele><time>2026-05-03T10:56:00Z</time></trkpt><trkpt lat="42.9357089323242" lon="12.749719406120887"><ele>471.0</ele><time>2026-05-03T10:56:05Z</time></trkpt><trkpt lat="42.93576747821288" lon="12.749637204223108"><ele>471.0</ele><time>2026-05-03T10:56:07Z</time></trkpt><trkpt lat="42.93583681539822" lon="12.749545209420319"><ele>471.0</ele><time>2026-05-03T10:56:09Z</time></trkpt><trkpt lat="42.93589912205718" lon="12.749498116591132"><ele>471.0</ele><time>2026-05-03T10:56:11Z</time></trkpt><trkpt lat="42.93594502690478" lon="12.749613597222602"><ele>471.0</ele><time>2026-05-03T10:56:13Z</time></trkpt><trkpt lat="42.93600956626797" lon="12.749760593066078"><ele>471.0</ele><time>2026-05-03T10:56:15Z</time></trkpt><trkpt lat="42.93604997263024" lon="12.749872332786442"><ele>471.1666666666667</ele><time>2026-05-03T10:56:16Z</time></trkpt><trkpt lat="42.936167445255364" lon="12.749940038670507"><ele>471.33333333333337</ele><time>2026-05-03T10:56:18Z</time></trkpt><trkpt lat="42.93624275347016" lon="12.749965025416929"><ele>471.5</ele><time>2026-05-03T10:56:19Z</time></trkpt><trkpt lat="42.93630886055523" lon="12.74997135394745"><ele>471.6666666666667</ele><time>2026-05-03T10:56:20Z</time></trkpt><trkpt lat="42.93637214742978" lon="12.74997449255813"><ele>471.83333333333337</ele><time>2026-05-03T10:56:21Z</time></trkpt><trkpt lat="42.93648057319655" lon="12.750000161479862"><ele>472.0</ele><time>2026-05-03T10:56:23Z</time></trkpt><trkpt lat="42.9365547890372" lon="12.750109767458289"><ele>472.0</ele><time>2026-05-03T10:56:25Z</time></trkpt><trkpt lat="42.93664556942371" lon="12.750052887903966"><ele>472.00000000000006</ele><time>2026-05-03T10:56:27Z</time></trkpt><trkpt lat="42.936755517180856" lon="12.75003207298891"><ele>472.00000000000006</ele><time>2026-05-03T10:56:29Z</time></trkpt><trkpt lat="42.936828626541384" lon="12.749926521441814"><ele>472.0</ele><time>2026-05-03T10:56:31Z</time></trkpt><trkpt lat="42.93684478925447" lon="12.749782167854306"><ele>472.0</ele><time>2026-05-03T10:56:33Z</time></trkpt><trkpt lat="42.936923790620156" lon="12.7497457964246"><ele>475.40000000000003</ele><time>2026-05-03T10:56:35Z</time></trkpt><trkpt lat="42.93698474138834" lon="12.74977240126977"><ele>478.80000000000007</ele><time>2026-05-03T10:56:36Z</time></trkpt><trkpt lat="42.93707132992882" lon="12.749867620669967"><ele>482.2</ele><time>2026-05-03T10:56:38Z</time></trkpt><trkpt lat="42.93720237809872" lon="12.749902463264707"><ele>485.6</ele><time>2026-05-03T10:56:40Z</time></trkpt><trkpt lat="42.93731466275041" lon="12.749898044639762"><ele>489.0</ele><time>2026-05-03T10:56:42Z</time></trkpt><trkpt lat="42.93739681257125" lon="12.749897119127956"><ele>489.0</ele><time>2026-05-03T10:56:44Z</time></trkpt><trkpt lat="42.93747284090902" lon="12.749877030239679"><ele>489.0</ele><time>2026-05-03T10:56:46Z</time></trkpt><trkpt lat="42.93757198018276" lon="12.749829148067267"><ele>489.0</ele><time>2026-05-03T10:56:48Z</time></trkpt><trkpt lat="42.93765171685905" lon="12.749728002102609"><ele>489.0</ele><time>2026-05-03T10:56:50Z</time></trkpt><trkpt lat="42.93770756879219" lon="12.749607723905656"><ele>489.0</ele><time>2026-05-03T10:56:52Z</time></trkpt><trkpt lat="42.93775923514061" lon="12.749500385415919"><ele>491.6</ele><time>2026-05-03T10:56:54Z</time></trkpt><trkpt lat="42.93784094367941" lon="12.749427101093103"><ele>494.2</ele><time>2026-05-03T10:56:56Z</time></trkpt><trkpt lat="42.93788900355653" lon="12.749358612147548"><ele>496.80000000000007</ele><time>2026-05-03T10:56:57Z</time></trkpt><trkpt lat="42.93795315828771" lon="12.749221031164973"><ele>499.40000000000003</ele><time>2026-05-03T10:56:59Z</time></trkpt><trkpt lat="42.937952140053234" lon="12.749065251094427"><ele>502.0</ele><time>2026-05-03T10:57:01Z</time></trkpt><trkpt lat="42.93799352338751" lon="12.748936545029359"><ele>502.00000000000006</ele><time>2026-05-03T10:57:03Z</time></trkpt><trkpt lat="42.9380580277598" lon="12.748848443337499"><ele>502.0</ele><time>2026-05-03T10:57:05Z</time></trkpt><trkpt lat="42.93810271868582" lon="12.748766351766491"><ele>502.0</ele><time>2026-05-03T10:57:07Z</time></trkpt><trkpt lat="42.93817810944646" lon="12.748720126380816"><ele>502.0</ele><time>2026-05-03T10:57:13Z</time></trkpt><trkpt lat="42.93825656892065" lon="12.748678097390844"><ele>502.00000000000006</ele><time>2026-05-03T10:57:16Z</time></trkpt><trkpt lat="42.93832215939941" lon="12.748664743220042"><ele>502.0</ele><time>2026-05-03T10:57:19Z</time></trkpt><trkpt lat="42.938407935615714" lon="12.748646778115088"><ele>506.1666666666667</ele><time>2026-05-03T10:57:21Z</time></trkpt><trkpt lat="42.93847438832232" lon="12.748627058940048"><ele>510.33333333333337</ele><time>2026-05-03T10:57:24Z</time></trkpt><trkpt lat="42.93854401293661" lon="12.748607042639827"><ele>514.5</ele><time>2026-05-03T10:57:27Z</time></trkpt><trkpt lat="42.93861081196257" lon="12.748612784290147"><ele>518.6666666666666</ele><time>2026-05-03T10:57:29Z</time></trkpt><trkpt lat="42.93869219006482" lon="12.748609642353317"><ele>522.8333333333333</ele><time>2026-05-03T10:57:31Z</time></trkpt><trkpt lat="42.93876454779761" lon="12.74861949716408"><ele>527.0</ele><time>2026-05-03T10:57:34Z</time></trkpt><trkpt lat="42.938841101080115" lon="12.748686694615067"><ele>527.0</ele><time>2026-05-03T10:57:36Z</time></trkpt><trkpt lat="42.93892502379731" lon="12.748797125423586"><ele>527.0</ele><time>2026-05-03T10:57:38Z</time></trkpt><trkpt lat="42.93899545251624" lon="12.748844776365065"><ele>527.0</ele><time>2026-05-03T10:57:41Z</time></trkpt><trkpt lat="42.9390775839244" lon="12.748860311153932"><ele>527.0</ele><time>2026-05-03T10:57:44Z</time></trkpt><trkpt lat="42.93912888820072" lon="12.748802426785527"><ele>527.0</ele><time>2026-05-03T10:57:49Z</time></trkpt><trkpt lat="42.93919820891672" lon="12.748795329480865"><ele>527.0</ele><time>2026-05-03T10:57:55Z</time></trkpt><trkpt lat="42.93927174765947" lon="12.748806459833409"><ele>530.25</ele><time>2026-05-03T10:57:59Z</time></trkpt><trkpt lat="42.939339155875636" lon="12.748809489171958"><ele>533.5</ele><time>2026-05-03T10:59:19Z</time></trkpt><trkpt lat="42.9392971950462" lon="12.748500484803298"><ele>536.75</ele><time>2026-05-03T10:59:28Z</time></trkpt><trkpt lat="42.939322399347276" lon="12.748384259723732"><ele>540.0</ele><time>2026-05-03T10:59:30Z</time></trkpt><trkpt lat="42.93932049822077" lon="12.748271822116106"><ele>540.0</ele><time>2026-05-03T10:59:32Z</time></trkpt><trkpt lat="42.939261909763054" lon="12.748071729305938"><ele>540.0</ele><time>2026-05-03T10:59:34Z</time></trkpt><trkpt lat="42.939256909533434" lon="12.747956582365992"><ele>540.0</ele><time>2026-05-03T10:59:35Z</time></trkpt><trkpt lat="42.93928191545132" lon="12.747865932408672"><ele>540.0</ele><time>2026-05-03T10:59:36Z</time></trkpt><trkpt lat="42.939235966768514" lon="12.747714842147078"><ele>540.0</ele><time>2026-05-03T10:59:38Z</time></trkpt><trkpt lat="42.93920437323183" lon="12.74759895695944"><ele>539.6</ele><time>2026-05-03T10:59:40Z</time></trkpt><trkpt lat="42.9391561375984" lon="12.747501649916673"><ele>539.2</ele><time>2026-05-03T11:00:17Z</time></trkpt><trkpt lat="42.939094312745524" lon="12.747406741347385"><ele>538.8</ele><time>2026-05-03T11:00:18Z</time></trkpt><trkpt lat="42.93901715469759" lon="12.74730793174357"><ele>538.4</ele><time>2026-05-03T11:00:19Z</time></trkpt><trkpt lat="42.938940981197874" lon="12.747179364937432"><ele>538.0</ele><time>2026-05-03T11:00:20Z</time></trkpt><trkpt lat="42.938879644448114" lon="12.74703981015436"><ele>538.0</ele><time>2026-05-03T11:00:21Z</time></trkpt><trkpt lat="42.93883510918058" lon="12.746901321203328"><ele>538.0</ele><time>2026-05-03T11:00:22Z</time></trkpt><trkpt lat="42.93879714918385" lon="12.74677488480919"><ele>538.0</ele><time>2026-05-03T11:00:23Z</time></trkpt><trkpt lat="42.93874921297027" lon="12.746648015162577"><ele>538.0</ele><time>2026-05-03T11:00:24Z</time></trkpt><trkpt lat="42.938700307999106" lon="12.746537688603397"><ele>538.0</ele><time>2026-05-03T11:00:25Z</time></trkpt><trkpt lat="42.93863414862852" lon="12.74643735155922"><ele>540.8</ele><time>2026-05-03T11:00:26Z</time></trkpt><trkpt lat="42.938564867904724" lon="12.746309029850842"><ele>543.5999999999999</ele><time>2026-05-03T11:00:27Z</time></trkpt><trkpt lat="42.93850225079309" lon="12.74621208318193"><ele>546.4000000000001</ele><time>2026-05-03T11:00:28Z</time></trkpt><trkpt lat="42.938459902121856" lon="12.746098539907862"><ele>549.2</ele><time>2026-05-03T11:00:29Z</time></trkpt><trkpt lat="42.93841722191846" lon="12.745980018773569"><ele>552.0</ele><time>2026-05-03T11:00:30Z</time></trkpt><trkpt lat="42.9384543316052" lon="12.7458269319141"><ele>553.8000000000001</ele><time>2026-05-03T11:00:31Z</time></trkpt><trkpt lat="42.9384259836003" lon="12.745713467671873"><ele>555.6</ele><time>2026-05-03T11:00:32Z</time></trkpt><trkpt lat="42.9384048619458" lon="12.745591390571235"><ele>557.4000000000001</ele><time>2026-05-03T11:00:33Z</time></trkpt><trkpt lat="42.93838729664769" lon="12.745452778472718"><ele>559.2</ele><time>2026-05-03T11:00:34Z</time></trkpt><trkpt lat="42.93837697441098" lon="12.745323685383509"><ele>561.0</ele><time>2026-05-03T11:00:35Z</time></trkpt><trkpt lat="42.93837535154387" lon="12.745195862919712"><ele>558.8</ele><time>2026-05-03T11:00:36Z</time></trkpt><trkpt lat="42.93838355282597" lon="12.74508584336223"><ele>556.6</ele><time>2026-05-03T11:00:37Z</time></trkpt><trkpt lat="42.93842221970625" lon="12.744941481383442"><ele>554.4</ele><time>2026-05-03T11:00:39Z</time></trkpt><trkpt lat="42.93850137397294" lon="12.744770073021618"><ele>552.2</ele><time>2026-05-03T11:00:41Z</time></trkpt><trkpt lat="42.93856715495022" lon="12.744678135670453"><ele>550.0</ele><time>2026-05-03T11:00:42Z</time></trkpt><trkpt lat="42.93864075271808" lon="12.744609901425923"><ele>550.0</ele><time>2026-05-03T11:00:43Z</time></trkpt><trkpt lat="42.93870787509391" lon="12.744523390291546"><ele>550.0</ele><time>2026-05-03T11:00:44Z</time></trkpt><trkpt lat="42.938765048105424" lon="12.74443962022036"><ele>550.0</ele><time>2026-05-03T11:00:45Z</time></trkpt><trkpt lat="42.938812400673285" lon="12.744315884404267"><ele>550.0</ele><time>2026-05-03T11:00:46Z</time></trkpt><trkpt lat="42.938872059437564" lon="12.744207547463525"><ele>550.0</ele><time>2026-05-03T11:00:46.999Z</time></trkpt><trkpt lat="42.93893513131136" lon="12.744114262235584"><ele>546.4</ele><time>2026-05-03T11:00:47.999Z</time></trkpt><trkpt lat="42.93898416239799" lon="12.744013454468785"><ele>542.8</ele><time>2026-05-03T11:00:48.999Z</time></trkpt><trkpt lat="42.93903475157478" lon="12.743895415400331"><ele>539.2</ele><time>2026-05-03T11:00:49.999Z</time></trkpt><trkpt lat="42.93907704780135" lon="12.743779858696355"><ele>535.6</ele><time>2026-05-03T11:00:50.999Z</time></trkpt><trkpt lat="42.9391420899563" lon="12.743667463552478"><ele>532.0</ele><time>2026-05-03T11:00:51.999Z</time></trkpt><trkpt lat="42.93919400155711" lon="12.743537585218544"><ele>530.2</ele><time>2026-05-03T11:00:52.999Z</time></trkpt><trkpt lat="42.9392317010472" lon="12.743392647056481"><ele>528.4000000000001</ele><time>2026-05-03T11:00:53.999Z</time></trkpt><trkpt lat="42.939244094240834" lon="12.743249249764999"><ele>526.5999999999999</ele><time>2026-05-03T11:00:54.999Z</time></trkpt><trkpt lat="42.93927131552786" lon="12.743104704175133"><ele>524.8</ele><time>2026-05-03T11:00:55.999Z</time></trkpt><trkpt lat="42.939298698471774" lon="12.742965304192316"><ele>523.0</ele><time>2026-05-03T11:00:56.999Z</time></trkpt><trkpt lat="42.93932853799598" lon="12.74282228823926"><ele>518.0</ele><time>2026-05-03T11:00:58Z</time></trkpt><trkpt lat="42.939380050261725" lon="12.742686405654094"><ele>513.0</ele><time>2026-05-03T11:00:59Z</time></trkpt><trkpt lat="42.93942187917614" lon="12.74253965945584"><ele>508.0</ele><time>2026-05-03T11:01:00Z</time></trkpt><trkpt lat="42.93946510699952" lon="12.742392376448251"><ele>503.0</ele><time>2026-05-03T11:01:01Z</time></trkpt><trkpt lat="42.93951362790649" lon="12.742230094590065"><ele>503.0</ele><time>2026-05-03T11:01:02Z</time></trkpt><trkpt lat="42.93955745050132" lon="12.742083526575342"><ele>503.0</ele><time>2026-05-03T11:01:03Z</time></trkpt><trkpt lat="42.93960031557089" lon="12.741937601119876"><ele>503.0</ele><time>2026-05-03T11:01:04Z</time></trkpt><trkpt lat="42.93962973690324" lon="12.74177479605668"><ele>503.0</ele><time>2026-05-03T11:01:05Z</time></trkpt><trkpt lat="42.939664142430594" lon="12.741618561590345"><ele>501.5</ele><time>2026-05-03T11:01:06Z</time></trkpt><trkpt lat="42.939709893312326" lon="12.741472349847387"><ele>500.0</ele><time>2026-05-03T11:01:07Z</time></trkpt><trkpt lat="42.93975489116686" lon="12.741327176735059"><ele>498.5</ele><time>2026-05-03T11:01:08Z</time></trkpt><trkpt lat="42.93981248969479" lon="12.741181218358493"><ele>497.0</ele><time>2026-05-03T11:01:09Z</time></trkpt><trkpt lat="42.93987952046151" lon="12.741023718116967"><ele>494.5</ele><time>2026-05-03T11:01:10Z</time></trkpt><trkpt lat="42.93992066550913" lon="12.740845937883828"><ele>492.0</ele><time>2026-05-03T11:01:11Z</time></trkpt><trkpt lat="42.939970875441546" lon="12.740686384224132"><ele>489.5</ele><time>2026-05-03T11:01:12Z</time></trkpt><trkpt lat="42.94000187462585" lon="12.74052246064043"><ele>487.0</ele><time>2026-05-03T11:01:13Z</time></trkpt><trkpt lat="42.940034322549465" lon="12.740353652294347"><ele>487.25</ele><time>2026-05-03T11:01:14Z</time></trkpt><trkpt lat="42.94008249469534" lon="12.740203964916272"><ele>487.5</ele><time>2026-05-03T11:01:15Z</time></trkpt><trkpt lat="42.940121861792164" lon="12.74002932839595"><ele>487.75</ele><time>2026-05-03T11:01:16Z</time></trkpt><trkpt lat="42.94014472457522" lon="12.739872468062844"><ele>488.0</ele><time>2026-05-03T11:01:17Z</time></trkpt><trkpt lat="42.940174945684475" lon="12.73976014263323"><ele>488.0</ele><time>2026-05-03T11:01:18Z</time></trkpt><trkpt lat="42.9401914772363" lon="12.739669368324511"><ele>487.99999999999994</ele><time>2026-05-03T11:01:19Z</time></trkpt><trkpt lat="42.940222817591895" lon="12.73958385729315"><ele>487.99999999999994</ele><time>2026-05-03T11:01:20Z</time></trkpt><trkpt lat="42.940264112801174" lon="12.739445714031229"><ele>488.0</ele><time>2026-05-03T11:01:22Z</time></trkpt><trkpt lat="42.94025340491862" lon="12.73934677086053"><ele>488.0</ele><time>2026-05-03T11:01:24Z</time></trkpt><trkpt lat="42.94015022099005" lon="12.739235283700486"><ele>485.99999999999994</ele><time>2026-05-03T11:01:49Z</time></trkpt><trkpt lat="42.940101239948156" lon="12.739161916584226"><ele>484.0</ele><time>2026-05-03T11:01:50Z</time></trkpt><trkpt lat="42.940053818445996" lon="12.739076091250864"><ele>482.0</ele><time>2026-05-03T11:01:51Z</time></trkpt><trkpt lat="42.94002412913016" lon="12.738952882534935"><ele>480.0</ele><time>2026-05-03T11:01:52Z</time></trkpt><trkpt lat="42.93996569677153" lon="12.738856661581092"><ele>477.99999999999994</ele><time>2026-05-03T11:01:53Z</time></trkpt><trkpt lat="42.939916287744026" lon="12.738766792014452"><ele>476.0</ele><time>2026-05-03T11:01:54Z</time></trkpt><trkpt lat="42.93987504165926" lon="12.738687239332208"><ele>475.20000000000005</ele><time>2026-05-03T11:01:55Z</time></trkpt><trkpt lat="42.93982345347293" lon="12.738561598351058"><ele>474.40000000000003</ele><time>2026-05-03T11:01:57Z</time></trkpt><trkpt lat="42.939794166983475" lon="12.738460814618614"><ele>473.6</ele><time>2026-05-03T11:01:58Z</time></trkpt><trkpt lat="42.939789476777406" lon="12.738363587404905"><ele>472.8</ele><time>2026-05-03T11:01:59Z</time></trkpt><trkpt lat="42.939768849008665" lon="12.738251181489131"><ele>472.0</ele><time>2026-05-03T11:02:00Z</time></trkpt><trkpt lat="42.93962370745963" lon="12.738158479044769"><ele>470.0</ele><time>2026-05-03T11:02:01Z</time></trkpt><trkpt lat="42.9395716729631" lon="12.738038529154574"><ele>468.00000000000006</ele><time>2026-05-03T11:02:02Z</time></trkpt><trkpt lat="42.93952291733401" lon="12.737927220736596"><ele>466.00000000000006</ele><time>2026-05-03T11:02:03Z</time></trkpt><trkpt lat="42.93947861565827" lon="12.737824177135405"><ele>464.0</ele><time>2026-05-03T11:02:04Z</time></trkpt><trkpt lat="42.93943916372485" lon="12.737717233890214"><ele>462.0</ele><time>2026-05-03T11:02:05Z</time></trkpt><trkpt lat="42.939397809720404" lon="12.737606347210813"><ele>459.8</ele><time>2026-05-03T11:02:06Z</time></trkpt><trkpt lat="42.9393548134343" lon="12.737486154592615"><ele>457.6</ele><time>2026-05-03T11:02:07Z</time></trkpt><trkpt lat="42.93931320588212" lon="12.73737153731639"><ele>455.40000000000003</ele><time>2026-05-03T11:02:08Z</time></trkpt><trkpt lat="42.93926553917946" lon="12.73726338137297"><ele>453.20000000000005</ele><time>2026-05-03T11:02:09Z</time></trkpt><trkpt lat="42.939220176759015" lon="12.737167636280224"><ele>451.0</ele><time>2026-05-03T11:02:10Z</time></trkpt><trkpt lat="42.93916261639092" lon="12.737079607338384"><ele>449.83333333333337</ele><time>2026-05-03T11:02:11Z</time></trkpt><trkpt lat="42.93910762894233" lon="12.736989162115211"><ele>448.6666666666667</ele><time>2026-05-03T11:02:12Z</time></trkpt><trkpt lat="42.939050630684065" lon="12.736895260790162"><ele>447.5</ele><time>2026-05-03T11:02:13Z</time></trkpt><trkpt lat="42.93899617412806" lon="12.73680703394755"><ele>446.33333333333337</ele><time>2026-05-03T11:02:14Z</time></trkpt><trkpt lat="42.93895038091773" lon="12.736727596644485"><ele>445.1666666666667</ele><time>2026-05-03T11:02:15Z</time></trkpt><trkpt lat="42.9389118407493" lon="12.736655944079674"><ele>444.0</ele><time>2026-05-03T11:02:16Z</time></trkpt><trkpt lat="42.938872047210474" lon="12.736580992802306"><ele>442.5</ele><time>2026-05-03T11:02:17Z</time></trkpt><trkpt lat="42.93883073554838" lon="12.73651214574718"><ele>441.0</ele><time>2026-05-03T11:02:18Z</time></trkpt><trkpt lat="42.93876432235581" lon="12.736437048695544"><ele>439.5</ele><time>2026-05-03T11:02:19Z</time></trkpt><trkpt lat="42.938703113112986" lon="12.736369524307097"><ele>438.0</ele><time>2026-05-03T11:02:20Z</time></trkpt><trkpt lat="42.93867309133836" lon="12.736290053843634"><ele>436.5</ele><time>2026-05-03T11:02:21Z</time></trkpt><trkpt lat="42.938667041193455" lon="12.736201714772006"><ele>435.0</ele><time>2026-05-03T11:02:22Z</time></trkpt><trkpt lat="42.93862020738947" lon="12.736038601604063"><ele>432.1666666666667</ele><time>2026-05-03T11:02:24Z</time></trkpt><trkpt lat="42.93855600082587" lon="12.735956148808505"><ele>429.33333333333337</ele><time>2026-05-03T11:02:25Z</time></trkpt><trkpt lat="42.938493857693466" lon="12.735873985224414"><ele>426.5</ele><time>2026-05-03T11:02:26Z</time></trkpt><trkpt lat="42.93844140800046" lon="12.735795815949908"><ele>423.6666666666667</ele><time>2026-05-03T11:02:27Z</time></trkpt><trkpt lat="42.93838982484259" lon="12.735710034850102"><ele>420.83333333333337</ele><time>2026-05-03T11:02:28Z</time></trkpt><trkpt lat="42.93834517953949" lon="12.735616970930133"><ele>418.0</ele><time>2026-05-03T11:02:29Z</time></trkpt><trkpt lat="42.93830046489019" lon="12.735517279772244"><ele>417.2857142857143</ele><time>2026-05-03T11:02:30Z</time></trkpt><trkpt lat="42.93826738689697" lon="12.735433955273557"><ele>416.57142857142856</ele><time>2026-05-03T11:02:31Z</time></trkpt><trkpt lat="42.93821933959885" lon="12.73536180405251"><ele>415.8571428571429</ele><time>2026-05-03T11:02:32Z</time></trkpt><trkpt lat="42.93816554660098" lon="12.735297137610727"><ele>415.1428571428571</ele><time>2026-05-03T11:02:33Z</time></trkpt><trkpt lat="42.93810878977442" lon="12.735231950519534"><ele>414.42857142857144</ele><time>2026-05-03T11:02:34Z</time></trkpt><trkpt lat="42.93804839944264" lon="12.735168484869373"><ele>413.7142857142857</ele><time>2026-05-03T11:02:35Z</time></trkpt><trkpt lat="42.937993679252976" lon="12.735090468872825"><ele>413.0</ele><time>2026-05-03T11:02:36Z</time></trkpt><trkpt lat="42.93794770773412" lon="12.735024076966932"><ele>410.49999999999994</ele><time>2026-05-03T11:02:37Z</time></trkpt><trkpt lat="42.93789046257834" lon="12.734955344606227"><ele>408.0</ele><time>2026-05-03T11:02:38Z</time></trkpt><trkpt lat="42.937841369009234" lon="12.734863324910163"><ele>405.5</ele><time>2026-05-03T11:02:39Z</time></trkpt><trkpt lat="42.937797614062674" lon="12.734769230218413"><ele>403.0</ele><time>2026-05-03T11:02:40Z</time></trkpt><trkpt lat="42.9377439760205" lon="12.734693909888067"><ele>400.49999999999994</ele><time>2026-05-03T11:02:41Z</time></trkpt><trkpt lat="42.93768283058357" lon="12.734626895511665"><ele>398.0</ele><time>2026-05-03T11:02:42Z</time></trkpt><trkpt lat="42.937620846720904" lon="12.734542608304675"><ele>397.99999999999994</ele><time>2026-05-03T11:02:43.001Z</time></trkpt><trkpt lat="42.93756416061914" lon="12.734463090935128"><ele>398.0</ele><time>2026-05-03T11:02:44.001Z</time></trkpt><trkpt lat="42.937507573944146" lon="12.73438022048492"><ele>398.0</ele><time>2026-05-03T11:02:45.001Z</time></trkpt><trkpt lat="42.93745233025785" lon="12.734312373076687"><ele>398.0</ele><time>2026-05-03T11:02:46.001Z</time></trkpt><trkpt lat="42.937385648013866" lon="12.734253518153821"><ele>397.99999999999994</ele><time>2026-05-03T11:02:47.001Z</time></trkpt><trkpt lat="42.93732595657761" lon="12.734196590653063"><ele>398.0</ele><time>2026-05-03T11:02:48.001Z</time></trkpt><trkpt lat="42.93728504437321" lon="12.734106657378778"><ele>394.8333333333333</ele><time>2026-05-03T11:02:49.001Z</time></trkpt><trkpt lat="42.93725592380213" lon="12.73399479381247"><ele>391.66666666666663</ele><time>2026-05-03T11:02:50.001Z</time></trkpt><trkpt lat="42.937242296851565" lon="12.733890320360066"><ele>388.5</ele><time>2026-05-03T11:02:51.001Z</time></trkpt><trkpt lat="42.93723359439885" lon="12.733795066276901"><ele>385.3333333333333</ele><time>2026-05-03T11:02:52.001Z</time></trkpt><trkpt lat="42.937227475384375" lon="12.733696939569217"><ele>382.16666666666663</ele><time>2026-05-03T11:02:53Z</time></trkpt><trkpt lat="42.937233736510606" lon="12.733604452429976"><ele>379.0</ele><time>2026-05-03T11:02:54Z</time></trkpt><trkpt lat="42.93725062264478" lon="12.733501509120938"><ele>376.4</ele><time>2026-05-03T11:02:55Z</time></trkpt><trkpt lat="42.937280138830985" lon="12.733343336734494"><ele>373.79999999999995</ele><time>2026-05-03T11:02:57Z</time></trkpt><trkpt lat="42.937315995133794" lon="12.733264952474022"><ele>371.20000000000005</ele><time>2026-05-03T11:02:58Z</time></trkpt><trkpt lat="42.93732241341049" lon="12.733097337236538"><ele>368.6</ele><time>2026-05-03T11:03:00Z</time></trkpt><trkpt lat="42.93729518877422" lon="12.732998714883152"><ele>366.0</ele><time>2026-05-03T11:03:01Z</time></trkpt><trkpt lat="42.93728731732637" lon="12.732887766323303"><ele>366.0</ele><time>2026-05-03T11:03:02Z</time></trkpt><trkpt lat="42.937284410363304" lon="12.732780333032876"><ele>366.0</ele><time>2026-05-03T11:03:03Z</time></trkpt><trkpt lat="42.937290485914886" lon="12.732673512701718"><ele>366.0</ele><time>2026-05-03T11:03:04Z</time></trkpt><trkpt lat="42.937299255731624" lon="12.73255800144442"><ele>366.0</ele><time>2026-05-03T11:03:05Z</time></trkpt><trkpt lat="42.93729267481805" lon="12.732446206041956"><ele>366.0</ele><time>2026-05-03T11:03:06Z</time></trkpt><trkpt lat="42.93729511689744" lon="12.732338966538201"><ele>366.0</ele><time>2026-05-03T11:03:07Z</time></trkpt><trkpt lat="42.937293182714946" lon="12.732230411223751"><ele>363.3333333333333</ele><time>2026-05-03T11:03:08Z</time></trkpt><trkpt lat="42.93728916356482" lon="12.732120482628654"><ele>360.6666666666667</ele><time>2026-05-03T11:03:09Z</time></trkpt><trkpt lat="42.93728443613859" lon="12.732014772998376"><ele>358.0</ele><time>2026-05-03T11:03:10Z</time></trkpt><trkpt lat="42.93727547836608" lon="12.731903063003234"><ele>355.33333333333337</ele><time>2026-05-03T11:03:11Z</time></trkpt><trkpt lat="42.93726544100009" lon="12.731793542437234"><ele>352.6666666666667</ele><time>2026-05-03T11:03:12Z</time></trkpt><trkpt lat="42.93725639142145" lon="12.731689395678526"><ele>350.0</ele><time>2026-05-03T11:03:13Z</time></trkpt><trkpt lat="42.93724564507951" lon="12.731584099146131"><ele>347.1666666666667</ele><time>2026-05-03T11:03:14Z</time></trkpt><trkpt lat="42.93722838795264" lon="12.73147141902553"><ele>344.33333333333337</ele><time>2026-05-03T11:03:15Z</time></trkpt><trkpt lat="42.93721783914182" lon="12.731357945441335"><ele>341.5</ele><time>2026-05-03T11:03:16Z</time></trkpt><trkpt lat="42.93720876550275" lon="12.731245107615038"><ele>338.6666666666667</ele><time>2026-05-03T11:03:17Z</time></trkpt><trkpt lat="42.937197516255296" lon="12.731140776535009"><ele>335.8333333333333</ele><time>2026-05-03T11:03:18Z</time></trkpt><trkpt lat="42.93718722711051" lon="12.731037690672578"><ele>333.0</ele><time>2026-05-03T11:03:19Z</time></trkpt><trkpt lat="42.93717290801343" lon="12.730915893864324"><ele>330.3333333333333</ele><time>2026-05-03T11:03:20Z</time></trkpt><trkpt lat="42.93717181474303" lon="12.730791699574674"><ele>327.6666666666667</ele><time>2026-05-03T11:03:21Z</time></trkpt><trkpt lat="42.937168771833456" lon="12.73068078225736"><ele>325.0</ele><time>2026-05-03T11:03:22Z</time></trkpt><trkpt lat="42.937161923668896" lon="12.730575158022996"><ele>322.33333333333337</ele><time>2026-05-03T11:03:23Z</time></trkpt><trkpt lat="42.93713878590014" lon="12.730470846181959"><ele>319.6666666666667</ele><time>2026-05-03T11:03:24Z</time></trkpt><trkpt lat="42.93710074160376" lon="12.730387718680618"><ele>317.0</ele><time>2026-05-03T11:03:25Z</time></trkpt><trkpt lat="42.937070740411556" lon="12.730289468173915"><ele>314.8</ele><time>2026-05-03T11:03:26Z</time></trkpt><trkpt lat="42.93705834516386" lon="12.730178102842004"><ele>312.6</ele><time>2026-05-03T11:03:27Z</time></trkpt><trkpt lat="42.937053079164016" lon="12.730049303286547"><ele>310.40000000000003</ele><time>2026-05-03T11:03:28Z</time></trkpt><trkpt lat="42.93703216109823" lon="12.729920593680417"><ele>308.2</ele><time>2026-05-03T11:03:29Z</time></trkpt><trkpt lat="42.93701278991326" lon="12.729792681856386"><ele>306.0</ele><time>2026-05-03T11:03:30Z</time></trkpt><trkpt lat="42.93700512553909" lon="12.729652630981917"><ele>306.0</ele><time>2026-05-03T11:03:31Z</time></trkpt><trkpt lat="42.93699944794125" lon="12.72952070491116"><ele>306.0</ele><time>2026-05-03T11:03:32Z</time></trkpt><trkpt lat="42.936991572272525" lon="12.729387977740355"><ele>306.0</ele><time>2026-05-03T11:03:33Z</time></trkpt><trkpt lat="42.93698402923289" lon="12.729262372341488"><ele>306.0</ele><time>2026-05-03T11:03:34Z</time></trkpt><trkpt lat="42.93697454913617" lon="12.729146701727997"><ele>306.0</ele><time>2026-05-03T11:03:35Z</time></trkpt><trkpt lat="42.936967196228174" lon="12.729054060318468"><ele>306.0</ele><time>2026-05-03T11:03:36Z</time></trkpt><trkpt lat="42.93696036978738" lon="12.728927996719944"><ele>304.5</ele><time>2026-05-03T11:03:38Z</time></trkpt><trkpt lat="42.93698263494605" lon="12.72884415719556"><ele>303.0</ele><time>2026-05-03T11:03:41Z</time></trkpt><trkpt lat="42.93707252921362" lon="12.72880916005342"><ele>301.5</ele><time>2026-05-03T11:03:43Z</time></trkpt><trkpt lat="42.93715928498527" lon="12.728823958997834"><ele>300.0</ele><time>2026-05-03T11:03:44Z</time></trkpt><trkpt lat="42.93725679186225" lon="12.728803731613487"><ele>298.5</ele><time>2026-05-03T11:03:45Z</time></trkpt><trkpt lat="42.93735577423547" lon="12.728790439964914"><ele>297.0</ele><time>2026-05-03T11:03:46Z</time></trkpt><trkpt lat="42.937468804904476" lon="12.728802646582558"><ele>297.8</ele><time>2026-05-03T11:03:47Z</time></trkpt><trkpt lat="42.937577396985404" lon="12.728759824736986"><ele>298.6</ele><time>2026-05-03T11:03:48Z</time></trkpt><trkpt lat="42.93768398442747" lon="12.728742468369125"><ele>299.40000000000003</ele><time>2026-05-03T11:03:49Z</time></trkpt><trkpt lat="42.93778432066752" lon="12.728717447007185"><ele>300.2</ele><time>2026-05-03T11:03:50Z</time></trkpt><trkpt lat="42.93788377532094" lon="12.728714543538496"><ele>301.0</ele><time>2026-05-03T11:03:51Z</time></trkpt><trkpt lat="42.937974997393745" lon="12.728687514728907"><ele>301.0</ele><time>2026-05-03T11:03:52Z</time></trkpt><trkpt lat="42.938073563354735" lon="12.728648970689402"><ele>301.0</ele><time>2026-05-03T11:03:53Z</time></trkpt><trkpt lat="42.9381734784954" lon="12.728600879253857"><ele>301.0</ele><time>2026-05-03T11:03:54Z</time></trkpt><trkpt lat="42.93827957114567" lon="12.728542511634485"><ele>301.0</ele><time>2026-05-03T11:03:55Z</time></trkpt><trkpt lat="42.938381113155536" lon="12.728508971548973"><ele>301.0</ele><time>2026-05-03T11:03:56Z</time></trkpt><trkpt lat="42.938493840828926" lon="12.72849990198471"><ele>298.25</ele><time>2026-05-03T11:03:57Z</time></trkpt><trkpt lat="42.93860609228997" lon="12.728471426435313"><ele>295.5</ele><time>2026-05-03T11:03:58Z</time></trkpt><trkpt lat="42.93872829607751" lon="12.72843512372289"><ele>292.75</ele><time>2026-05-03T11:03:59Z</time></trkpt><trkpt lat="42.93885483811557" lon="12.728394578726379"><ele>290.0</ele><time>2026-05-03T11:04:00Z</time></trkpt><trkpt lat="42.93897687802478" lon="12.728358914091716"><ele>290.0</ele><time>2026-05-03T11:04:01Z</time></trkpt><trkpt lat="42.93910385057917" lon="12.72832652773925"><ele>290.0</ele><time>2026-05-03T11:04:02Z</time></trkpt><trkpt lat="42.93923606564499" lon="12.728309535084561"><ele>290.0</ele><time>2026-05-03T11:04:03Z</time></trkpt><trkpt lat="42.93936133800616" lon="12.728299831248725"><ele>290.0</ele><time>2026-05-03T11:04:04Z</time></trkpt><trkpt lat="42.93949185154336" lon="12.728287909409751"><ele>289.5</ele><time>2026-05-03T11:04:05Z</time></trkpt><trkpt lat="42.93961729222354" lon="12.72826548658537"><ele>289.0</ele><time>2026-05-03T11:04:06Z</time></trkpt><trkpt lat="42.93974076390086" lon="12.728229947095143"><ele>288.5</ele><time>2026-05-03T11:04:07Z</time></trkpt><trkpt lat="42.93986742046557" lon="12.728186492887934"><ele>288.0</ele><time>2026-05-03T11:04:08Z</time></trkpt><trkpt lat="42.9399830398319" lon="12.728147152026974"><ele>287.6</ele><time>2026-05-03T11:04:09Z</time></trkpt><trkpt lat="42.94009262385598" lon="12.7281098647624"><ele>287.20000000000005</ele><time>2026-05-03T11:04:10Z</time></trkpt><trkpt lat="42.94019887190814" lon="12.72807371260127"><ele>286.8</ele><time>2026-05-03T11:04:11Z</time></trkpt><trkpt lat="42.94029566106894" lon="12.728043250977516"><ele>286.40000000000003</ele><time>2026-05-03T11:04:12Z</time></trkpt><trkpt lat="42.94039789365843" lon="12.728011539944543"><ele>286.0</ele><time>2026-05-03T11:04:13Z</time></trkpt><trkpt lat="42.94050853344996" lon="12.727983898962862"><ele>286.0</ele><time>2026-05-03T11:04:14.001Z</time></trkpt><trkpt lat="42.94062373038587" lon="12.727973061018492"><ele>286.0</ele><time>2026-05-03T11:04:15.001Z</time></trkpt><trkpt lat="42.940752868821946" lon="12.727971009266675"><ele>286.0</ele><time>2026-05-03T11:04:16.001Z</time></trkpt><trkpt lat="42.94088993636304" lon="12.727969525380267"><ele>286.0</ele><time>2026-05-03T11:04:17.001Z</time></trkpt><trkpt lat="42.941031748953606" lon="12.72796124665091"><ele>285.3333333333333</ele><time>2026-05-03T11:04:18.001Z</time></trkpt><trkpt lat="42.94119104939693" lon="12.727948708875784"><ele>284.6666666666667</ele><time>2026-05-03T11:04:19.001Z</time></trkpt><trkpt lat="42.941362033581385" lon="12.727931917762351"><ele>284.0</ele><time>2026-05-03T11:04:20.001Z</time></trkpt><trkpt lat="42.94151066856751" lon="12.72790839554677"><ele>284.0</ele><time>2026-05-03T11:04:21.001Z</time></trkpt><trkpt lat="42.94164144274852" lon="12.727862028557533"><ele>284.0</ele><time>2026-05-03T11:04:22.001Z</time></trkpt><trkpt lat="42.94176926366084" lon="12.727820109656038"><ele>284.0</ele><time>2026-05-03T11:04:23.001Z</time></trkpt><trkpt lat="42.941914964876766" lon="12.727779973805987"><ele>284.0</ele><time>2026-05-03T11:04:24.001Z</time></trkpt><trkpt lat="42.94206539453866" lon="12.72775260422793"><ele>285.25</ele><time>2026-05-03T11:04:25.001Z</time></trkpt><trkpt lat="42.942204936010135" lon="12.727732183683427"><ele>286.5</ele><time>2026-05-03T11:04:26.001Z</time></trkpt><trkpt lat="42.94233767817746" lon="12.72770854043432"><ele>287.75</ele><time>2026-05-03T11:04:27.001Z</time></trkpt><trkpt lat="42.9424635724318" lon="12.727678621875135"><ele>289.0</ele><time>2026-05-03T11:04:28.001Z</time></trkpt><trkpt lat="42.94255787185008" lon="12.72765524862034"><ele>289.59999999999997</ele><time>2026-05-03T11:04:29.001Z</time></trkpt><trkpt lat="42.942633189053296" lon="12.727619930337415"><ele>290.2</ele><time>2026-05-03T11:04:30.001Z</time></trkpt><trkpt lat="42.942723958713835" lon="12.727594998271012"><ele>290.79999999999995</ele><time>2026-05-03T11:04:32.001Z</time></trkpt><trkpt lat="42.94278486041766" lon="12.727484762517603"><ele>291.4</ele><time>2026-05-03T11:04:33.001Z</time></trkpt><trkpt lat="42.9428876143781" lon="12.727402230957688"><ele>292.0</ele><time>2026-05-03T11:04:34.001Z</time></trkpt><trkpt lat="42.94302041408959" lon="12.727333570741731"><ele>292.0</ele><time>2026-05-03T11:04:35.001Z</time></trkpt><trkpt lat="42.94313178635597" lon="12.72724282019073"><ele>292.0</ele><time>2026-05-03T11:04:36.001Z</time></trkpt><trkpt lat="42.9432352636309" lon="12.727123007901419"><ele>292.0</ele><time>2026-05-03T11:04:37.001Z</time></trkpt><trkpt lat="42.94332548463664" lon="12.726976737686405"><ele>292.0</ele><time>2026-05-03T11:04:38.001Z</time></trkpt><trkpt lat="42.94341881922371" lon="12.72681716455361"><ele>292.0</ele><time>2026-05-03T11:04:39.001Z</time></trkpt><trkpt lat="42.943510795493125" lon="12.72664404399736"><ele>292.0</ele><time>2026-05-03T11:04:40.001Z</time></trkpt><trkpt lat="42.94359907460365" lon="12.72649055471773"><ele>292.0</ele><time>2026-05-03T11:04:41.001Z</time></trkpt><trkpt lat="42.94367595055494" lon="12.726352934263687"><ele>292.0</ele><time>2026-05-03T11:04:42.001Z</time></trkpt><trkpt lat="42.94375115032487" lon="12.726214730592377"><ele>292.0</ele><time>2026-05-03T11:04:43.001Z</time></trkpt><trkpt lat="42.94382203895342" lon="12.726082265294233"><ele>292.0</ele><time>2026-05-03T11:04:44.001Z</time></trkpt><trkpt lat="42.94388960611541" lon="12.725934121114596"><ele>292.0</ele><time>2026-05-03T11:04:45.001Z</time></trkpt><trkpt lat="42.9439673351586" lon="12.725793310292715"><ele>292.0</ele><time>2026-05-03T11:04:46.001Z</time></trkpt><trkpt lat="42.94403705587598" lon="12.7256308388043"><ele>290.75</ele><time>2026-05-03T11:04:47.001Z</time></trkpt><trkpt lat="42.944101117366216" lon="12.725481555063949"><ele>289.5</ele><time>2026-05-03T11:04:48.001Z</time></trkpt><trkpt lat="42.944171815848364" lon="12.725314406864735"><ele>288.25</ele><time>2026-05-03T11:04:49.001Z</time></trkpt><trkpt lat="42.94423629724963" lon="12.725161018370418"><ele>287.0</ele><time>2026-05-03T11:04:50.001Z</time></trkpt><trkpt lat="42.94429375807345" lon="12.724997793746056"><ele>286.6</ele><time>2026-05-03T11:04:51.001Z</time></trkpt><trkpt lat="42.944354958725654" lon="12.724869331795283"><ele>286.2</ele><time>2026-05-03T11:04:52.001Z</time></trkpt><trkpt lat="42.94441310688467" lon="12.724739782706646"><ele>285.8</ele><time>2026-05-03T11:04:53.001Z</time></trkpt><trkpt lat="42.944488112323896" lon="12.724632762271495"><ele>285.4</ele><time>2026-05-03T11:04:54.001Z</time></trkpt><trkpt lat="42.9445581600763" lon="12.724510488406095"><ele>285.0</ele><time>2026-05-03T11:04:55.001Z</time></trkpt><trkpt lat="42.94462335730138" lon="12.724371179560656"><ele>282.5</ele><time>2026-05-03T11:04:56.001Z</time></trkpt><trkpt lat="42.94472132399588" lon="12.724261554330356"><ele>280.0</ele><time>2026-05-03T11:04:57.001Z</time></trkpt><trkpt lat="42.94481406930665" lon="12.724143274741856"><ele>277.5</ele><time>2026-05-03T11:04:58.001Z</time></trkpt><trkpt lat="42.94491928100866" lon="12.724049929752193"><ele>275.0</ele><time>2026-05-03T11:04:59Z</time></trkpt><trkpt lat="42.945039557482026" lon="12.72396503277986"><ele>274.25</ele><time>2026-05-03T11:05:00Z</time></trkpt><trkpt lat="42.945153288862116" lon="12.723897223804169"><ele>273.5</ele><time>2026-05-03T11:05:01Z</time></trkpt><trkpt lat="42.94529116510916" lon="12.723834030569378"><ele>272.75</ele><time>2026-05-03T11:05:02Z</time></trkpt><trkpt lat="42.9454157179951" lon="12.723801593539598"><ele>272.0</ele><time>2026-05-03T11:05:03Z</time></trkpt><trkpt lat="42.94555573571247" lon="12.723784769650123"><ele>272.0</ele><time>2026-05-03T11:05:04Z</time></trkpt><trkpt lat="42.945705982672656" lon="12.723772260162589"><ele>272.0</ele><time>2026-05-03T11:05:05Z</time></trkpt><trkpt lat="42.945874769994646" lon="12.723758383926429"><ele>272.0</ele><time>2026-05-03T11:05:06Z</time></trkpt><trkpt lat="42.94602327932532" lon="12.723746525589846"><ele>271.0</ele><time>2026-05-03T11:05:07Z</time></trkpt><trkpt lat="42.94616169670665" lon="12.723736454512176"><ele>270.0</ele><time>2026-05-03T11:05:08Z</time></trkpt><trkpt lat="42.94629531202676" lon="12.723732027994275"><ele>269.0</ele><time>2026-05-03T11:05:09Z</time></trkpt><trkpt lat="42.94643160846782" lon="12.723714909997057"><ele>268.0</ele><time>2026-05-03T11:05:10Z</time></trkpt><trkpt lat="42.94656314266828" lon="12.723677988874083"><ele>268.0</ele><time>2026-05-03T11:05:11Z</time></trkpt><trkpt lat="42.94667967700934" lon="12.723591952708377"><ele>268.0</ele><time>2026-05-03T11:05:12Z</time></trkpt><trkpt lat="42.946808007303375" lon="12.723497012512363"><ele>268.0</ele><time>2026-05-03T11:05:13Z</time></trkpt><trkpt lat="42.94692976093769" lon="12.72340379632059"><ele>268.0</ele><time>2026-05-03T11:05:14Z</time></trkpt><trkpt lat="42.947048891006865" lon="12.72330387111009"><ele>268.0</ele><time>2026-05-03T11:05:15Z</time></trkpt><trkpt lat="42.94715537158208" lon="12.723218402720097"><ele>268.0</ele><time>2026-05-03T11:05:16Z</time></trkpt><trkpt lat="42.94725784171903" lon="12.72311419430692"><ele>268.0</ele><time>2026-05-03T11:05:17Z</time></trkpt><trkpt lat="42.947347451117565" lon="12.723026366878898"><ele>268.0</ele><time>2026-05-03T11:05:18Z</time></trkpt><trkpt lat="42.94742332294197" lon="12.722956134864479"><ele>268.0</ele><time>2026-05-03T11:05:19Z</time></trkpt><trkpt lat="42.94750229659423" lon="12.722880201975254"><ele>268.0</ele><time>2026-05-03T11:05:20Z</time></trkpt><trkpt lat="42.94759216850762" lon="12.722807649783247"><ele>268.0</ele><time>2026-05-03T11:05:21Z</time></trkpt><trkpt lat="42.94767190992428" lon="12.722736494716198"><ele>268.0</ele><time>2026-05-03T11:05:22Z</time></trkpt><trkpt lat="42.94774586862697" lon="12.722668857051001"><ele>268.0</ele><time>2026-05-03T11:05:23Z</time></trkpt><trkpt lat="42.94782510542954" lon="12.722622165006154"><ele>268.0</ele><time>2026-05-03T11:05:24Z</time></trkpt><trkpt lat="42.9479154583227" lon="12.722594425943878"><ele>268.0</ele><time>2026-05-03T11:05:25Z</time></trkpt><trkpt lat="42.94802689086047" lon="12.72259267336065"><ele>268.0</ele><time>2026-05-03T11:05:26Z</time></trkpt><trkpt lat="42.948141624896046" lon="12.72260408258541"><ele>268.0</ele><time>2026-05-03T11:05:27Z</time></trkpt><trkpt lat="42.94826280938593" lon="12.722615250940418"><ele>268.0</ele><time>2026-05-03T11:05:28Z</time></trkpt><trkpt lat="42.94838615214701" lon="12.722616385018178"><ele>268.0</ele><time>2026-05-03T11:05:29Z</time></trkpt><trkpt lat="42.94851594987297" lon="12.722615504914872"><ele>268.0</ele><time>2026-05-03T11:05:30Z</time></trkpt><trkpt lat="42.94863400166122" lon="12.722614619733179"><ele>268.0</ele><time>2026-05-03T11:05:31Z</time></trkpt><trkpt lat="42.948747586159605" lon="12.722614332587911"><ele>268.0</ele><time>2026-05-03T11:05:32Z</time></trkpt><trkpt lat="42.9488528286027" lon="12.722608711350397"><ele>268.0</ele><time>2026-05-03T11:05:33Z</time></trkpt><trkpt lat="42.948960647490054" lon="12.722601461031841"><ele>268.0</ele><time>2026-05-03T11:05:34Z</time></trkpt><trkpt lat="42.94908647876328" lon="12.72259206849736"><ele>268.0</ele><time>2026-05-03T11:05:35Z</time></trkpt><trkpt lat="42.9492241204084" lon="12.722607074784667"><ele>268.0</ele><time>2026-05-03T11:05:36Z</time></trkpt><trkpt lat="42.949353638800034" lon="12.722624905832273"><ele>268.2</ele><time>2026-05-03T11:05:37Z</time></trkpt><trkpt lat="42.949462608067385" lon="12.722631484764843"><ele>268.4</ele><time>2026-05-03T11:05:38Z</time></trkpt><trkpt lat="42.94955777480297" lon="12.7226534827528"><ele>268.59999999999997</ele><time>2026-05-03T11:05:39Z</time></trkpt><trkpt lat="42.94963845457123" lon="12.722664370735858"><ele>268.8</ele><time>2026-05-03T11:05:40Z</time></trkpt><trkpt lat="42.94971029857654" lon="12.72248982066082"><ele>269.0</ele><time>2026-05-03T11:05:41Z</time></trkpt><trkpt lat="42.949767329524775" lon="12.722365395723553"><ele>269.0</ele><time>2026-05-03T11:05:42Z</time></trkpt><trkpt lat="42.94977636785864" lon="12.722216866940569"><ele>269.0</ele><time>2026-05-03T11:05:43Z</time></trkpt><trkpt lat="42.94975612048958" lon="12.722062304625714"><ele>269.0</ele><time>2026-05-03T11:05:44Z</time></trkpt><trkpt lat="42.949693305255046" lon="12.721923674973299"><ele>269.0</ele><time>2026-05-03T11:05:45Z</time></trkpt><trkpt lat="42.949605202315134" lon="12.721842213417737"><ele>269.0</ele><time>2026-05-03T11:05:46Z</time></trkpt><trkpt lat="42.949492798072285" lon="12.721822167418116"><ele>269.0</ele><time>2026-05-03T11:05:47Z</time></trkpt><trkpt lat="42.94936121580464" lon="12.72182595678985"><ele>269.0</ele><time>2026-05-03T11:05:48Z</time></trkpt><trkpt lat="42.94919349078859" lon="12.721842084125084"><ele>269.0</ele><time>2026-05-03T11:05:49Z</time></trkpt><trkpt lat="42.949039506408894" lon="12.721851955705002"><ele>268.75</ele><time>2026-05-03T11:05:50Z</time></trkpt><trkpt lat="42.948896347960094" lon="12.72186316810893"><ele>268.5</ele><time>2026-05-03T11:05:51Z</time></trkpt><trkpt lat="42.9487584184379" lon="12.721886024673708"><ele>268.25</ele><time>2026-05-03T11:05:52Z</time></trkpt><trkpt lat="42.948621992639026" lon="12.721913740395165"><ele>268.0</ele><time>2026-05-03T11:05:53Z</time></trkpt><trkpt lat="42.948494313876914" lon="12.72192848688095"><ele>268.0</ele><time>2026-05-03T11:05:54Z</time></trkpt><trkpt lat="42.94838819385518" lon="12.721940541584537"><ele>268.0</ele><time>2026-05-03T11:05:55Z</time></trkpt><trkpt lat="42.948287563657" lon="12.72194098983783"><ele>268.0</ele><time>2026-05-03T11:05:56Z</time></trkpt><trkpt lat="42.948186918375214" lon="12.721918448830854"><ele>268.0</ele><time>2026-05-03T11:05:57Z</time></trkpt><trkpt lat="42.948093588857965" lon="12.721874991208514"><ele>268.0</ele><time>2026-05-03T11:05:58Z</time></trkpt><trkpt lat="42.948009295089506" lon="12.721808271069703"><ele>267.66666666666663</ele><time>2026-05-03T11:05:59Z</time></trkpt><trkpt lat="42.94791635618334" lon="12.72170956597914"><ele>267.3333333333333</ele><time>2026-05-03T11:06:00Z</time></trkpt><trkpt lat="42.94779953307837" lon="12.721551554493326"><ele>267.0</ele><time>2026-05-03T11:06:01Z</time></trkpt><trkpt lat="42.947700013853286" lon="12.721353502347986"><ele>267.0</ele><time>2026-05-03T11:06:02Z</time></trkpt><trkpt lat="42.947627092839326" lon="12.721149512901697"><ele>267.0</ele><time>2026-05-03T11:06:03Z</time></trkpt><trkpt lat="42.947566547442804" lon="12.720970550138174"><ele>267.0</ele><time>2026-05-03T11:06:04Z</time></trkpt><trkpt lat="42.94751671968618" lon="12.72080180147106"><ele>267.0</ele><time>2026-05-03T11:06:05Z</time></trkpt><trkpt lat="42.94747261728714" lon="12.720659818959648"><ele>265.5</ele><time>2026-05-03T11:06:06Z</time></trkpt><trkpt lat="42.94742920498516" lon="12.720542843754078"><ele>264.0</ele><time>2026-05-03T11:06:07Z</time></trkpt><trkpt lat="42.947381061956634" lon="12.720467168066275"><ele>262.5</ele><time>2026-05-03T11:06:08Z</time></trkpt><trkpt lat="42.947344917211595" lon="12.720374120384408"><ele>261.0</ele><time>2026-05-03T11:06:10Z</time></trkpt><trkpt lat="42.94753416808553" lon="12.72023015098637"><ele>261.6</ele><time>2026-05-03T11:06:11Z</time></trkpt><trkpt lat="42.94762822779794" lon="12.720169651903321"><ele>262.20000000000005</ele><time>2026-05-03T11:06:12Z</time></trkpt><trkpt lat="42.94770412405962" lon="12.720129002880384"><ele>262.79999999999995</ele><time>2026-05-03T11:06:13Z</time></trkpt><trkpt lat="42.94778584925618" lon="12.720088004001262"><ele>263.4</ele><time>2026-05-03T11:06:15.001Z</time></trkpt><trkpt lat="42.94783135121571" lon="12.720306570875437"><ele>264.0</ele><time>2026-05-03T11:06:16.001Z</time></trkpt><trkpt lat="42.94789271135273" lon="12.720460641600779"><ele>264.25</ele><time>2026-05-03T11:06:17.001Z</time></trkpt><trkpt lat="42.94796733504752" lon="12.720648016380025"><ele>264.5</ele><time>2026-05-03T11:06:18.001Z</time></trkpt><trkpt lat="42.94803040383472" lon="12.720803163526753"><ele>264.75</ele><time>2026-05-03T11:06:19.001Z</time></trkpt><trkpt lat="42.94809577600242" lon="12.72096228184787"><ele>265.0</ele><time>2026-05-03T11:06:20.001Z</time></trkpt><trkpt lat="42.94816154084457" lon="12.721121962714617"><ele>265.3333333333333</ele><time>2026-05-03T11:06:21.001Z</time></trkpt><trkpt lat="42.9482145364842" lon="12.721243400040477"><ele>265.66666666666663</ele><time>2026-05-03T11:06:22.001Z</time></trkpt><trkpt lat="42.948277007406" lon="12.721347438051586"><ele>266.0</ele><time>2026-05-03T11:06:23.001Z</time></trkpt><trkpt lat="42.9483154094852" lon="12.721440979486413"><ele>266.3333333333333</ele><time>2026-05-03T11:06:25.001Z</time></trkpt><trkpt lat="42.94826894011328" lon="12.721365039010657"><ele>266.6666666666667</ele><time>2026-05-03T11:06:28.001Z</time></trkpt><trkpt lat="42.94820395538987" lon="12.721357105461756"><ele>267.0</ele><time>2026-05-03T11:17:08Z</time></trkpt><trkpt lat="42.948260306825745" lon="12.72141049769437"><ele>267.0</ele><time>2026-05-03T11:17:33Z</time></trkpt><trkpt lat="42.94837920731196" lon="12.721441862908028"><ele>267.0</ele><time>2026-05-03T11:17:48Z</time></trkpt><trkpt lat="42.948413789002466" lon="12.721519032192177"><ele>267.0</ele><time>2026-05-03T11:17:53Z</time></trkpt><trkpt lat="42.94843261225801" lon="12.72161136363011"><ele>267.0</ele><time>2026-05-03T11:17:59Z</time></trkpt></trkseg></trk></gpx>